<?xml version='1.0' encoding='UTF-8'?><gpx version="1.1" creator="JPX - https://github.com/jenetics/jpx" xmlns="http://www.topografix.com/GPX/1/1"><trk><trkseg><trkpt lat="45.05255441994374" lon="9.648144175956919"><ele>60.0</ele><time>2026-04-09T07:23:21.629Z</time></trkpt><trkpt lat="45.05256176849052" lon="9.64796802670162"><ele>60.0</ele><time>2026-04-09T07:23:30.517Z</time></trkpt><trkpt lat="45.05264375101022" lon="9.648048724317514"><ele>60.0</ele><time>2026-04-09T07:24:08.999Z</time></trkpt><trkpt lat="45.052877242549684" lon="9.64795788235519"><ele>60.0</ele><time>2026-04-09T07:24:21Z</time></trkpt><trkpt lat="45.05294511278455" lon="9.64793126367944"><ele>60.0</ele><time>2026-04-09T07:24:24Z</time></trkpt><trkpt lat="45.05296123964115" lon="9.648035731134476"><ele>60.0</ele><time>2026-04-09T07:24:27Z</time></trkpt><trkpt lat="45.05295111510172" lon="9.64815043666923"><ele>60.0</ele><time>2026-04-09T07:24:30Z</time></trkpt><trkpt lat="45.052948921474275" lon="9.648276805591822"><ele>60.0</ele><time>2026-04-09T07:24:33Z</time></trkpt><trkpt lat="45.052939078735044" lon="9.648407534799109"><ele>60.0</ele><time>2026-04-09T07:24:36Z</time></trkpt><trkpt lat="45.05292103821665" lon="9.648508274614477"><ele>60.0</ele><time>2026-04-09T07:24:39Z</time></trkpt><trkpt lat="45.052915473958855" lon="9.648615870126383"><ele>60.0</ele><time>2026-04-09T07:24:41Z</time></trkpt><trkpt lat="45.052907622630094" lon="9.64873466317342"><ele>60.0</ele><time>2026-04-09T07:24:43Z</time></trkpt><trkpt lat="45.052896643662535" lon="9.648846447901919"><ele>60.0</ele><time>2026-04-09T07:24:45Z</time></trkpt><trkpt lat="45.05288381983712" lon="9.64895449334615"><ele>60.0</ele><time>2026-04-09T07:24:47Z</time></trkpt><trkpt lat="45.052875817649955" lon="9.649074568286098"><ele>60.0</ele><time>2026-04-09T07:24:49Z</time></trkpt><trkpt lat="45.0528706392946" lon="9.649173364755068"><ele>60.0</ele><time>2026-04-09T07:24:51Z</time></trkpt><trkpt lat="45.05286413857258" lon="9.64927479471686"><ele>60.0</ele><time>2026-04-09T07:24:53Z</time></trkpt><trkpt lat="45.05285314768592" lon="9.649379543211113"><ele>60.0</ele><time>2026-04-09T07:24:55Z</time></trkpt><trkpt lat="45.05284350866144" lon="9.64949157124724"><ele>60.0</ele><time>2026-04-09T07:24:57Z</time></trkpt><trkpt lat="45.05284143050332" lon="9.649598694348564"><ele>60.0</ele><time>2026-04-09T07:24:59Z</time></trkpt><trkpt lat="45.05283465940376" lon="9.649704361919111"><ele>60.0</ele><time>2026-04-09T07:25:01Z</time></trkpt><trkpt lat="45.05282558304536" lon="9.649812267783208"><ele>59.85714285714286</ele><time>2026-04-09T07:25:03Z</time></trkpt><trkpt lat="45.05281224974473" lon="9.64991584326607"><ele>59.71428571428571</ele><time>2026-04-09T07:25:05Z</time></trkpt><trkpt lat="45.05283130574488" lon="9.65000953592675"><ele>59.57142857142857</ele><time>2026-04-09T07:25:07Z</time></trkpt><trkpt lat="45.05288768668678" lon="9.650062729477389"><ele>59.42857142857143</ele><time>2026-04-09T07:25:09Z</time></trkpt><trkpt lat="45.05297082177256" lon="9.650083444756648"><ele>59.28571428571429</ele><time>2026-04-09T07:25:11Z</time></trkpt><trkpt lat="45.05304098546038" lon="9.650083504405343"><ele>59.14285714285714</ele><time>2026-04-09T07:25:13Z</time></trkpt><trkpt lat="45.053117902191005" lon="9.650092459985329"><ele>59.0</ele><time>2026-04-09T07:25:15Z</time></trkpt><trkpt lat="45.05321352914867" lon="9.650099168988309"><ele>59.50000000000001</ele><time>2026-04-09T07:25:17Z</time></trkpt><trkpt lat="45.05329174064168" lon="9.650117478276417"><ele>60.0</ele><time>2026-04-09T07:25:19Z</time></trkpt><trkpt lat="45.0533787247988" lon="9.650131779220827"><ele>60.5</ele><time>2026-04-09T07:25:21Z</time></trkpt><trkpt lat="45.05346552327185" lon="9.650140984074717"><ele>61.0</ele><time>2026-04-09T07:25:23Z</time></trkpt><trkpt lat="45.053548475092505" lon="9.65017700519845"><ele>61.50000000000001</ele><time>2026-04-09T07:25:25Z</time></trkpt><trkpt lat="45.05363624517936" lon="9.65019868493381"><ele>62.0</ele><time>2026-04-09T07:25:27Z</time></trkpt><trkpt lat="45.05371968133892" lon="9.65022566984533"><ele>62.00000000000001</ele><time>2026-04-09T07:25:29Z</time></trkpt><trkpt lat="45.05379940491004" lon="9.650220265763316"><ele>62.0</ele><time>2026-04-09T07:25:31Z</time></trkpt><trkpt lat="45.05387710351769" lon="9.6502342152491"><ele>62.0</ele><time>2026-04-09T07:25:33Z</time></trkpt><trkpt lat="45.053961350584565" lon="9.650257478318693"><ele>62.0</ele><time>2026-04-09T07:25:35Z</time></trkpt><trkpt lat="45.05404219109951" lon="9.650262016248588"><ele>62.00000000000001</ele><time>2026-04-09T07:25:37Z</time></trkpt><trkpt lat="45.05412100507333" lon="9.650301204672301"><ele>62.0</ele><time>2026-04-09T07:25:39Z</time></trkpt><trkpt lat="45.054200618330164" lon="9.650336692481417"><ele>61.66666666666667</ele><time>2026-04-09T07:25:41Z</time></trkpt><trkpt lat="45.05428511513622" lon="9.650370872826958"><ele>61.333333333333336</ele><time>2026-04-09T07:25:43Z</time></trkpt><trkpt lat="45.05436470009492" lon="9.65039524111291"><ele>61.0</ele><time>2026-04-09T07:25:45Z</time></trkpt><trkpt lat="45.05444219777064" lon="9.650401596236831"><ele>60.66666666666667</ele><time>2026-04-09T07:25:47Z</time></trkpt><trkpt lat="45.05450603878548" lon="9.650417338819286"><ele>60.333333333333336</ele><time>2026-04-09T07:25:49Z</time></trkpt><trkpt lat="45.05458141764768" lon="9.650448780820724"><ele>60.0</ele><time>2026-04-09T07:25:51Z</time></trkpt><trkpt lat="45.05465988549972" lon="9.650470141049121"><ele>60.0</ele><time>2026-04-09T07:25:53Z</time></trkpt><trkpt lat="45.05473681855566" lon="9.650487380435726"><ele>60.0</ele><time>2026-04-09T07:25:55Z</time></trkpt><trkpt lat="45.05480189882983" lon="9.650508553321313"><ele>60.0</ele><time>2026-04-09T07:25:57Z</time></trkpt><trkpt lat="45.05486365428173" lon="9.650529676250327"><ele>60.0</ele><time>2026-04-09T07:25:59Z</time></trkpt><trkpt lat="45.054906690113995" lon="9.650597143011083"><ele>60.0</ele><time>2026-04-09T07:26:02Z</time></trkpt><trkpt lat="45.05497630305615" lon="9.65059411181664"><ele>60.0</ele><time>2026-04-09T07:26:12Z</time></trkpt><trkpt lat="45.05499044056691" lon="9.650466757124876"><ele>60.0</ele><time>2026-04-09T07:26:16Z</time></trkpt><trkpt lat="45.054987601313385" lon="9.650376306457854"><ele>59.666666666666664</ele><time>2026-04-09T07:26:18Z</time></trkpt><trkpt lat="45.054987060880904" lon="9.65027848160429"><ele>59.33333333333333</ele><time>2026-04-09T07:26:20Z</time></trkpt><trkpt lat="45.05499647462273" lon="9.650151757635745"><ele>59.0</ele><time>2026-04-09T07:26:22Z</time></trkpt><trkpt lat="45.05499505434928" lon="9.650033165247697"><ele>58.666666666666664</ele><time>2026-04-09T07:26:24Z</time></trkpt><trkpt lat="45.0549955785251" lon="9.649913912049788"><ele>58.33333333333333</ele><time>2026-04-09T07:26:26Z</time></trkpt><trkpt lat="45.05499411072211" lon="9.649800886424556"><ele>58.0</ele><time>2026-04-09T07:26:28Z</time></trkpt><trkpt lat="45.05500901906957" lon="9.649689688841146"><ele>57.99999999999999</ele><time>2026-04-09T07:26:30Z</time></trkpt><trkpt lat="45.055019350098476" lon="9.649594343536108"><ele>58.0</ele><time>2026-04-09T07:26:32Z</time></trkpt><trkpt lat="45.055080550762575" lon="9.649547429830372"><ele>58.0</ele><time>2026-04-09T07:26:34Z</time></trkpt><trkpt lat="45.05517783765391" lon="9.649546937868854"><ele>58.0</ele><time>2026-04-09T07:26:37Z</time></trkpt><trkpt lat="45.05524871398676" lon="9.649557212514397"><ele>57.99999999999999</ele><time>2026-04-09T07:26:39Z</time></trkpt><trkpt lat="45.05532683947837" lon="9.64956100282791"><ele>58.0</ele><time>2026-04-09T07:26:41Z</time></trkpt><trkpt lat="45.05541175453181" lon="9.649561835057026"><ele>57.99999999999999</ele><time>2026-04-09T07:26:43Z</time></trkpt><trkpt lat="45.055495440021694" lon="9.649566693815974"><ele>58.0</ele><time>2026-04-09T07:26:45Z</time></trkpt><trkpt lat="45.055578821192185" lon="9.649578712764201"><ele>58.0</ele><time>2026-04-09T07:26:47Z</time></trkpt><trkpt lat="45.055659031435844" lon="9.649605591183937"><ele>58.0</ele><time>2026-04-09T07:26:49Z</time></trkpt><trkpt lat="45.055745962633914" lon="9.649643403760864"><ele>57.99999999999999</ele><time>2026-04-09T07:26:51Z</time></trkpt><trkpt lat="45.0558454728281" lon="9.649677132158642"><ele>58.0</ele><time>2026-04-09T07:26:53Z</time></trkpt><trkpt lat="45.05597439135373" lon="9.649711000783109"><ele>57.83333333333333</ele><time>2026-04-09T07:26:55Z</time></trkpt><trkpt lat="45.05604466988923" lon="9.649726315641406"><ele>57.666666666666664</ele><time>2026-04-09T07:26:56Z</time></trkpt><trkpt lat="45.056120490905926" lon="9.649734945455611"><ele>57.5</ele><time>2026-04-09T07:26:57Z</time></trkpt><trkpt lat="45.05619775225931" lon="9.649735927757122"><ele>57.33333333333333</ele><time>2026-04-09T07:26:58Z</time></trkpt><trkpt lat="45.05626973776715" lon="9.649732304263118"><ele>57.166666666666664</ele><time>2026-04-09T07:26:59Z</time></trkpt><trkpt lat="45.05634622987127" lon="9.649703085765479"><ele>57.0</ele><time>2026-04-09T07:27:00Z</time></trkpt><trkpt lat="45.05645542183736" lon="9.649687692579738"><ele>57.0</ele><time>2026-04-09T07:27:02Z</time></trkpt><trkpt lat="45.056527296711415" lon="9.649674177542723"><ele>57.0</ele><time>2026-04-09T07:27:03Z</time></trkpt><trkpt lat="45.05660635019562" lon="9.649655785795193"><ele>57.0</ele><time>2026-04-09T07:27:04Z</time></trkpt><trkpt lat="45.05672659823866" lon="9.649644133239157"><ele>57.0</ele><time>2026-04-09T07:27:06Z</time></trkpt><trkpt lat="45.056835075658235" lon="9.649635256078966"><ele>57.0</ele><time>2026-04-09T07:27:08Z</time></trkpt><trkpt lat="45.05692743136432" lon="9.649638160623295"><ele>57.0</ele><time>2026-04-09T07:27:10Z</time></trkpt><trkpt lat="45.057013746683076" lon="9.649639289904139"><ele>57.0</ele><time>2026-04-09T07:27:12Z</time></trkpt><trkpt lat="45.057089854683156" lon="9.649655301606915"><ele>57.0</ele><time>2026-04-09T07:27:14Z</time></trkpt><trkpt lat="45.057155722333725" lon="9.649664012186305"><ele>57.0</ele><time>2026-04-09T07:27:16Z</time></trkpt><trkpt lat="45.057232351094974" lon="9.649674589923917"><ele>57.0</ele><time>2026-04-09T07:27:19Z</time></trkpt><trkpt lat="45.05730437046224" lon="9.649684531385292"><ele>57.0</ele><time>2026-04-09T07:27:22Z</time></trkpt><trkpt lat="45.05739583284313" lon="9.649679542329231"><ele>56.833333333333336</ele><time>2026-04-09T07:27:25Z</time></trkpt><trkpt lat="45.057468402104625" lon="9.64968205630262"><ele>56.66666666666667</ele><time>2026-04-09T07:27:27Z</time></trkpt><trkpt lat="45.057538773831254" lon="9.649679044039582"><ele>56.5</ele><time>2026-04-09T07:27:29Z</time></trkpt><trkpt lat="45.05761947818092" lon="9.6496496436347"><ele>56.333333333333336</ele><time>2026-04-09T07:27:32Z</time></trkpt><trkpt lat="45.05769008434132" lon="9.649677990943948"><ele>56.16666666666667</ele><time>2026-04-09T07:27:35Z</time></trkpt><trkpt lat="45.05777564114302" lon="9.649707514193732"><ele>56.0</ele><time>2026-04-09T07:27:38Z</time></trkpt><trkpt lat="45.05784575012624" lon="9.649736166501034"><ele>56.00000000000001</ele><time>2026-04-09T07:27:41Z</time></trkpt><trkpt lat="45.057936442634166" lon="9.64974601465603"><ele>56.0</ele><time>2026-04-09T07:27:44Z</time></trkpt><trkpt lat="45.058001389955834" lon="9.649778400860264"><ele>56.0</ele><time>2026-04-09T07:27:46Z</time></trkpt><trkpt lat="45.05807249944752" lon="9.649803223419921"><ele>56.0</ele><time>2026-04-09T07:27:48Z</time></trkpt><trkpt lat="45.058144206100216" lon="9.649820968758862"><ele>56.00000000000001</ele><time>2026-04-09T07:27:50Z</time></trkpt><trkpt lat="45.05822834394139" lon="9.649847098498732"><ele>56.0</ele><time>2026-04-09T07:27:52Z</time></trkpt><trkpt lat="45.05831094574171" lon="9.649877848578956"><ele>56.00000000000001</ele><time>2026-04-09T07:27:54Z</time></trkpt><trkpt lat="45.058389990248585" lon="9.64990479430752"><ele>56.0</ele><time>2026-04-09T07:27:56Z</time></trkpt><trkpt lat="45.05846149253506" lon="9.649932955929534"><ele>56.0</ele><time>2026-04-09T07:27:58Z</time></trkpt><trkpt lat="45.0585415419492" lon="9.649943137655137"><ele>56.0</ele><time>2026-04-09T07:28:00Z</time></trkpt><trkpt lat="45.05862674523895" lon="9.649966673126343"><ele>56.00000000000001</ele><time>2026-04-09T07:28:02Z</time></trkpt><trkpt lat="45.0587198804534" lon="9.649988287305879"><ele>56.0</ele><time>2026-04-09T07:28:04Z</time></trkpt><trkpt lat="45.058806929925204" lon="9.650017035211272"><ele>56.0</ele><time>2026-04-09T07:28:06Z</time></trkpt><trkpt lat="45.05887848962721" lon="9.650065678510222"><ele>56.0</ele><time>2026-04-09T07:28:08Z</time></trkpt><trkpt lat="45.05894527143005" lon="9.650096102001646"><ele>56.0</ele><time>2026-04-09T07:28:10Z</time></trkpt><trkpt lat="45.05901411120123" lon="9.650109668147921"><ele>56.0</ele><time>2026-04-09T07:28:12Z</time></trkpt><trkpt lat="45.05907624834666" lon="9.650135287792178"><ele>56.0</ele><time>2026-04-09T07:28:14Z</time></trkpt><trkpt lat="45.05916320342241" lon="9.650160463207325"><ele>56.0</ele><time>2026-04-09T07:28:17Z</time></trkpt><trkpt lat="45.059229449943196" lon="9.6501647785281"><ele>56.0</ele><time>2026-04-09T07:28:19Z</time></trkpt><trkpt lat="45.0592971979652" lon="9.650191200327837"><ele>55.833333333333336</ele><time>2026-04-09T07:28:21Z</time></trkpt><trkpt lat="45.05936340231369" lon="9.650220332050083"><ele>55.66666666666667</ele><time>2026-04-09T07:28:23Z</time></trkpt><trkpt lat="45.05944631066912" lon="9.650265861767668"><ele>55.5</ele><time>2026-04-09T07:28:26Z</time></trkpt><trkpt lat="45.05951197016088" lon="9.650283804894624"><ele>55.33333333333333</ele><time>2026-04-09T07:28:28Z</time></trkpt><trkpt lat="45.0596071028383" lon="9.650268431622258"><ele>55.166666666666664</ele><time>2026-04-09T07:28:31Z</time></trkpt><trkpt lat="45.05962553733505" lon="9.650163888152708"><ele>55.0</ele><time>2026-04-09T07:28:33Z</time></trkpt><trkpt lat="45.05964688189023" lon="9.65006150650697"><ele>54.99999999999999</ele><time>2026-04-09T07:28:35Z</time></trkpt><trkpt lat="45.059691434382664" lon="9.649958345763928"><ele>55.0</ele><time>2026-04-09T07:28:37Z</time></trkpt><trkpt lat="45.05976826062628" lon="9.649891555872282"><ele>55.0</ele><time>2026-04-09T07:28:39Z</time></trkpt><trkpt lat="45.05985649382401" lon="9.649876907278262"><ele>55.0</ele><time>2026-04-09T07:28:41Z</time></trkpt><trkpt lat="45.05994683335845" lon="9.649909186362862"><ele>54.99999999999999</ele><time>2026-04-09T07:28:43Z</time></trkpt><trkpt lat="45.0600284425371" lon="9.649923419928012"><ele>55.0</ele><time>2026-04-09T07:28:45Z</time></trkpt><trkpt lat="45.060108102773" lon="9.649926371958987"><ele>54.33333333333333</ele><time>2026-04-09T07:28:47Z</time></trkpt><trkpt lat="45.06018844259134" lon="9.649939643987304"><ele>53.666666666666664</ele><time>2026-04-09T07:28:49Z</time></trkpt><trkpt lat="45.060273143450445" lon="9.649944727377594"><ele>53.0</ele><time>2026-04-09T07:28:51Z</time></trkpt><trkpt lat="45.06035734969541" lon="9.649936116837813"><ele>52.33333333333333</ele><time>2026-04-09T07:28:53Z</time></trkpt><trkpt lat="45.060441561170116" lon="9.64994233303229"><ele>51.666666666666664</ele><time>2026-04-09T07:28:55Z</time></trkpt><trkpt lat="45.06052281791444" lon="9.649955918993221"><ele>51.0</ele><time>2026-04-09T07:28:57Z</time></trkpt><trkpt lat="45.060603687519105" lon="9.649966064079983"><ele>51.0</ele><time>2026-04-09T07:28:59Z</time></trkpt><trkpt lat="45.06068085781528" lon="9.64996707841182"><ele>51.0</ele><time>2026-04-09T07:29:01Z</time></trkpt><trkpt lat="45.060759818300326" lon="9.649972992983141"><ele>51.0</ele><time>2026-04-09T07:29:03Z</time></trkpt><trkpt lat="45.06084239621122" lon="9.649965015299008"><ele>51.0</ele><time>2026-04-09T07:29:05Z</time></trkpt><trkpt lat="45.060922341648684" lon="9.649977307176131"><ele>51.0</ele><time>2026-04-09T07:29:07Z</time></trkpt><trkpt lat="45.06100273481743" lon="9.64999028810897"><ele>51.0</ele><time>2026-04-09T07:29:09Z</time></trkpt><trkpt lat="45.06107867380643" lon="9.650001325998003"><ele>51.57142857142857</ele><time>2026-04-09T07:29:11Z</time></trkpt><trkpt lat="45.06115484558117" lon="9.650012054078111"><ele>52.142857142857146</ele><time>2026-04-09T07:29:13Z</time></trkpt><trkpt lat="45.06122119342129" lon="9.650016811523901"><ele>52.71428571428571</ele><time>2026-04-09T07:29:15Z</time></trkpt><trkpt lat="45.06129376240951" lon="9.650021465110871"><ele>53.285714285714285</ele><time>2026-04-09T07:29:17Z</time></trkpt><trkpt lat="45.061359860475505" lon="9.650024791851859"><ele>53.857142857142854</ele><time>2026-04-09T07:29:19Z</time></trkpt><trkpt lat="45.06143015206055" lon="9.65003455959856"><ele>54.42857142857142</ele><time>2026-04-09T07:29:21Z</time></trkpt><trkpt lat="45.06149797322641" lon="9.650045940402931"><ele>55.0</ele><time>2026-04-09T07:29:23Z</time></trkpt><trkpt lat="45.06156181906983" lon="9.650060401376935"><ele>55.166666666666664</ele><time>2026-04-09T07:29:25Z</time></trkpt><trkpt lat="45.06163527293882" lon="9.650064112872435"><ele>55.33333333333333</ele><time>2026-04-09T07:29:27Z</time></trkpt><trkpt lat="45.06170827156571" lon="9.65007778667854"><ele>55.5</ele><time>2026-04-09T07:29:29Z</time></trkpt><trkpt lat="45.061788794675095" lon="9.650081661795676"><ele>55.66666666666667</ele><time>2026-04-09T07:29:31Z</time></trkpt><trkpt lat="45.06186873098638" lon="9.650093834782458"><ele>55.833333333333336</ele><time>2026-04-09T07:29:33Z</time></trkpt><trkpt lat="45.0619532036559" lon="9.650108153480188"><ele>56.0</ele><time>2026-04-09T07:29:35Z</time></trkpt><trkpt lat="45.062049655953906" lon="9.650138835225322"><ele>56.00000000000001</ele><time>2026-04-09T07:29:37Z</time></trkpt><trkpt lat="45.06215238665456" lon="9.650197273964068"><ele>56.0</ele><time>2026-04-09T07:29:39Z</time></trkpt><trkpt lat="45.06225206090068" lon="9.65028170108497"><ele>56.0</ele><time>2026-04-09T07:29:41Z</time></trkpt><trkpt lat="45.06230302858259" lon="9.650334125959061"><ele>56.0</ele><time>2026-04-09T07:29:42Z</time></trkpt><trkpt lat="45.06235789432418" lon="9.650399437479612"><ele>56.00000000000001</ele><time>2026-04-09T07:29:43Z</time></trkpt><trkpt lat="45.06240347747325" lon="9.650473146118662"><ele>56.0</ele><time>2026-04-09T07:29:44Z</time></trkpt><trkpt lat="45.0624509537035" lon="9.650548148617412"><ele>55.66666666666667</ele><time>2026-04-09T07:29:45Z</time></trkpt><trkpt lat="45.06249989656678" lon="9.650626678411792"><ele>55.333333333333336</ele><time>2026-04-09T07:29:46Z</time></trkpt><trkpt lat="45.062550400307906" lon="9.65070947711978"><ele>55.0</ele><time>2026-04-09T07:29:47Z</time></trkpt><trkpt lat="45.06259874122981" lon="9.650796481510541"><ele>54.66666666666667</ele><time>2026-04-09T07:29:48Z</time></trkpt><trkpt lat="45.0626575309529" lon="9.650873165697021"><ele>54.333333333333336</ele><time>2026-04-09T07:29:49Z</time></trkpt><trkpt lat="45.062714038081396" lon="9.650954078403316"><ele>54.0</ele><time>2026-04-09T07:29:50Z</time></trkpt><trkpt lat="45.06277032813281" lon="9.651041127823742"><ele>54.166666666666664</ele><time>2026-04-09T07:29:51Z</time></trkpt><trkpt lat="45.062828086613806" lon="9.651128677220354"><ele>54.33333333333333</ele><time>2026-04-09T07:29:52Z</time></trkpt><trkpt lat="45.06288595115298" lon="9.651220686517872"><ele>54.5</ele><time>2026-04-09T07:29:53Z</time></trkpt><trkpt lat="45.0629417680445" lon="9.651312876296275"><ele>54.666666666666664</ele><time>2026-04-09T07:29:54Z</time></trkpt><trkpt lat="45.062995174118036" lon="9.651398130679485"><ele>54.83333333333333</ele><time>2026-04-09T07:29:55Z</time></trkpt><trkpt lat="45.06304641621397" lon="9.651473061074947"><ele>55.0</ele><time>2026-04-09T07:29:56Z</time></trkpt><trkpt lat="45.063097308472" lon="9.651542427350464"><ele>55.0</ele><time>2026-04-09T07:29:57Z</time></trkpt><trkpt lat="45.0631395557995" lon="9.651609482559552"><ele>55.0</ele><time>2026-04-09T07:29:58Z</time></trkpt><trkpt lat="45.06319550778627" lon="9.651768514745061"><ele>55.0</ele><time>2026-04-09T07:30:00Z</time></trkpt><trkpt lat="45.06317323313588" lon="9.651915257744339"><ele>55.0</ele><time>2026-04-09T07:30:02Z</time></trkpt><trkpt lat="45.06314075086093" lon="9.652033438227813"><ele>55.0</ele><time>2026-04-09T07:30:04Z</time></trkpt><trkpt lat="45.06310552512471" lon="9.652146416759964"><ele>54.99999999999999</ele><time>2026-04-09T07:30:06Z</time></trkpt><trkpt lat="45.063091269507986" lon="9.652262910872183"><ele>55.0</ele><time>2026-04-09T07:30:08Z</time></trkpt><trkpt lat="45.06305955431469" lon="9.65236925263654"><ele>55.0</ele><time>2026-04-09T07:30:10Z</time></trkpt><trkpt lat="45.063032055915464" lon="9.652471667160132"><ele>55.0</ele><time>2026-04-09T07:30:12Z</time></trkpt><trkpt lat="45.063009223153465" lon="9.652561753269495"><ele>54.99999999999999</ele><time>2026-04-09T07:30:14Z</time></trkpt><trkpt lat="45.06298374464689" lon="9.652658846172612"><ele>55.0</ele><time>2026-04-09T07:30:16Z</time></trkpt><trkpt lat="45.06297062283968" lon="9.65276479776445"><ele>55.33333333333333</ele><time>2026-04-09T07:30:18Z</time></trkpt><trkpt lat="45.062934722710594" lon="9.6528693541737"><ele>55.666666666666664</ele><time>2026-04-09T07:30:20Z</time></trkpt><trkpt lat="45.062903879090584" lon="9.652967606847007"><ele>56.0</ele><time>2026-04-09T07:30:22Z</time></trkpt><trkpt lat="45.06289318733037" lon="9.653067349186655"><ele>56.33333333333333</ele><time>2026-04-09T07:30:24Z</time></trkpt><trkpt lat="45.06286919510289" lon="9.653172076692234"><ele>56.666666666666664</ele><time>2026-04-09T07:30:26Z</time></trkpt><trkpt lat="45.06284504967477" lon="9.653281384298925"><ele>57.0</ele><time>2026-04-09T07:30:28Z</time></trkpt><trkpt lat="45.06281079611872" lon="9.653393204563066"><ele>57.0</ele><time>2026-04-09T07:30:30Z</time></trkpt><trkpt lat="45.06278635295851" lon="9.653500721220377"><ele>57.0</ele><time>2026-04-09T07:30:32Z</time></trkpt><trkpt lat="45.06275831699625" lon="9.653600085832139"><ele>57.0</ele><time>2026-04-09T07:30:34Z</time></trkpt><trkpt lat="45.06272604331693" lon="9.653709854601047"><ele>57.0</ele><time>2026-04-09T07:30:36Z</time></trkpt><trkpt lat="45.0627028534205" lon="9.653814290132338"><ele>57.0</ele><time>2026-04-09T07:30:38Z</time></trkpt><trkpt lat="45.062678210653004" lon="9.653923431808032"><ele>57.0</ele><time>2026-04-09T07:30:40Z</time></trkpt><trkpt lat="45.06265606177726" lon="9.654027019204449"><ele>57.166666666666664</ele><time>2026-04-09T07:30:42Z</time></trkpt><trkpt lat="45.06263245594166" lon="9.654137007476743"><ele>57.33333333333333</ele><time>2026-04-09T07:30:44Z</time></trkpt><trkpt lat="45.06260825742802" lon="9.654243449773103"><ele>57.5</ele><time>2026-04-09T07:30:46Z</time></trkpt><trkpt lat="45.06258353278884" lon="9.654353294142942"><ele>57.666666666666664</ele><time>2026-04-09T07:30:48Z</time></trkpt><trkpt lat="45.06255035426773" lon="9.654454217385078"><ele>57.83333333333333</ele><time>2026-04-09T07:30:50Z</time></trkpt><trkpt lat="45.06250952878841" lon="9.654564918995348"><ele>58.0</ele><time>2026-04-09T07:30:52Z</time></trkpt><trkpt lat="45.062483146975744" lon="9.65468251227683"><ele>57.49999999999999</ele><time>2026-04-09T07:30:54Z</time></trkpt><trkpt lat="45.062451181534584" lon="9.654799350822353"><ele>57.0</ele><time>2026-04-09T07:30:56Z</time></trkpt><trkpt lat="45.06242322092397" lon="9.654906118866071"><ele>56.5</ele><time>2026-04-09T07:30:58Z</time></trkpt><trkpt lat="45.06238895131871" lon="9.655018379449173"><ele>56.0</ele><time>2026-04-09T07:31:00Z</time></trkpt><trkpt lat="45.06235988475739" lon="9.655122123488892"><ele>55.49999999999999</ele><time>2026-04-09T07:31:02Z</time></trkpt><trkpt lat="45.06236637232722" lon="9.655238855145527"><ele>55.0</ele><time>2026-04-09T07:31:04Z</time></trkpt><trkpt lat="45.06241565801689" lon="9.655334312206042"><ele>54.6</ele><time>2026-04-09T07:31:06Z</time></trkpt><trkpt lat="45.062499987290586" lon="9.655394572960615"><ele>54.2</ele><time>2026-04-09T07:31:08Z</time></trkpt><trkpt lat="45.06258613794666" lon="9.655425677948376"><ele>53.8</ele><time>2026-04-09T07:31:10Z</time></trkpt><trkpt lat="45.06268211309291" lon="9.6554397473799"><ele>53.4</ele><time>2026-04-09T07:31:12Z</time></trkpt><trkpt lat="45.062776870516174" lon="9.655474153098602"><ele>53.0</ele><time>2026-04-09T07:31:14Z</time></trkpt><trkpt lat="45.06286927657682" lon="9.655499584834315"><ele>53.0</ele><time>2026-04-09T07:31:16Z</time></trkpt><trkpt lat="45.06296246144479" lon="9.655533233693324"><ele>53.0</ele><time>2026-04-09T07:31:18Z</time></trkpt><trkpt lat="45.06304497842917" lon="9.655598686521014"><ele>53.0</ele><time>2026-04-09T07:31:20Z</time></trkpt><trkpt lat="45.06311308787305" lon="9.65571151629245"><ele>53.0</ele><time>2026-04-09T07:31:22Z</time></trkpt><trkpt lat="45.06315195984192" lon="9.655854912595013"><ele>53.0</ele><time>2026-04-09T07:31:24Z</time></trkpt><trkpt lat="45.06312418555975" lon="9.656004699623864"><ele>53.0</ele><time>2026-04-09T07:31:26Z</time></trkpt><trkpt lat="45.06310553585645" lon="9.656153789771668"><ele>53.0</ele><time>2026-04-09T07:31:28Z</time></trkpt><trkpt lat="45.063094361998814" lon="9.656295719369927"><ele>53.0</ele><time>2026-04-09T07:31:30Z</time></trkpt><trkpt lat="45.06308358637027" lon="9.656422105603822"><ele>53.0</ele><time>2026-04-09T07:31:32Z</time></trkpt><trkpt lat="45.06308707310264" lon="9.656546124468573"><ele>53.0</ele><time>2026-04-09T07:31:34Z</time></trkpt><trkpt lat="45.06306372176137" lon="9.65663349148215"><ele>53.0</ele><time>2026-04-09T07:31:37Z</time></trkpt><trkpt lat="45.063205473366025" lon="9.656641913926313"><ele>53.0</ele><time>2026-04-09T07:31:39Z</time></trkpt><trkpt lat="45.06328538249157" lon="9.656657173713675"><ele>53.0</ele><time>2026-04-09T07:31:41Z</time></trkpt><trkpt lat="45.06336578351699" lon="9.656676085788568"><ele>53.0</ele><time>2026-04-09T07:31:43Z</time></trkpt><trkpt lat="45.063448047279174" lon="9.656714532239054"><ele>53.0</ele><time>2026-04-09T07:31:45Z</time></trkpt><trkpt lat="45.06354316829852" lon="9.656722066228388"><ele>52.8</ele><time>2026-04-09T07:31:47Z</time></trkpt><trkpt lat="45.063628712212584" lon="9.656737094855082"><ele>52.599999999999994</ele><time>2026-04-09T07:31:49Z</time></trkpt><trkpt lat="45.063717641924" lon="9.65675309898287"><ele>52.400000000000006</ele><time>2026-04-09T07:31:51Z</time></trkpt><trkpt lat="45.06380697516493" lon="9.656779673250405"><ele>52.2</ele><time>2026-04-09T07:31:53Z</time></trkpt><trkpt lat="45.063904121426766" lon="9.656794574792828"><ele>52.0</ele><time>2026-04-09T07:31:55Z</time></trkpt><trkpt lat="45.06399383415495" lon="9.656811899718829"><ele>52.0</ele><time>2026-04-09T07:31:57Z</time></trkpt><trkpt lat="45.064085118242176" lon="9.656827974666072"><ele>52.0</ele><time>2026-04-09T07:31:59Z</time></trkpt><trkpt lat="45.06417494834726" lon="9.656846890079711"><ele>52.0</ele><time>2026-04-09T07:32:01Z</time></trkpt><trkpt lat="45.064269240270924" lon="9.656866347632668"><ele>52.0</ele><time>2026-04-09T07:32:03Z</time></trkpt><trkpt lat="45.06435630393256" lon="9.656889920320868"><ele>52.0</ele><time>2026-04-09T07:32:05Z</time></trkpt><trkpt lat="45.06444741764367" lon="9.65690838172368"><ele>51.33333333333333</ele><time>2026-04-09T07:32:07Z</time></trkpt><trkpt lat="45.064534690204155" lon="9.65692523694171"><ele>50.666666666666664</ele><time>2026-04-09T07:32:09Z</time></trkpt><trkpt lat="45.06462884161074" lon="9.656947187045985"><ele>50.0</ele><time>2026-04-09T07:32:11Z</time></trkpt><trkpt lat="45.06470614179305" lon="9.656968294287937"><ele>49.33333333333333</ele><time>2026-04-09T07:32:13Z</time></trkpt><trkpt lat="45.064799888996966" lon="9.656988113072742"><ele>48.666666666666664</ele><time>2026-04-09T07:32:15Z</time></trkpt><trkpt lat="45.064891157178586" lon="9.657006794315773"><ele>48.0</ele><time>2026-04-09T07:32:17Z</time></trkpt><trkpt lat="45.064981778965354" lon="9.657020598573173"><ele>48.0</ele><time>2026-04-09T07:32:19Z</time></trkpt><trkpt lat="45.06507932226321" lon="9.657040485750876"><ele>48.0</ele><time>2026-04-09T07:32:21Z</time></trkpt><trkpt lat="45.06517769618483" lon="9.657069469687018"><ele>48.0</ele><time>2026-04-09T07:32:23Z</time></trkpt><trkpt lat="45.06526810471209" lon="9.65708129761896"><ele>48.0</ele><time>2026-04-09T07:32:25Z</time></trkpt><trkpt lat="45.06536408777862" lon="9.657101602259395"><ele>48.0</ele><time>2026-04-09T07:32:27Z</time></trkpt><trkpt lat="45.06545767679132" lon="9.657124868891271"><ele>48.0</ele><time>2026-04-09T07:32:29.001Z</time></trkpt><trkpt lat="45.065556616916794" lon="9.65714660836925"><ele>48.0</ele><time>2026-04-09T07:32:31.001Z</time></trkpt><trkpt lat="45.0656541594738" lon="9.657173975224568"><ele>48.0</ele><time>2026-04-09T07:32:33.001Z</time></trkpt><trkpt lat="45.065744394321136" lon="9.657219007720766"><ele>48.0</ele><time>2026-04-09T07:32:35.001Z</time></trkpt><trkpt lat="45.06583690661051" lon="9.657272024650162"><ele>48.0</ele><time>2026-04-09T07:32:37.001Z</time></trkpt><trkpt lat="45.06592896441046" lon="9.65733205911836"><ele>48.4</ele><time>2026-04-09T07:32:39.001Z</time></trkpt><trkpt lat="45.06601341583972" lon="9.657400776528359"><ele>48.8</ele><time>2026-04-09T07:32:41.001Z</time></trkpt><trkpt lat="45.06609987458494" lon="9.65746950743545"><ele>49.2</ele><time>2026-04-09T07:32:43.001Z</time></trkpt><trkpt lat="45.06618892907524" lon="9.657540272109697"><ele>49.6</ele><time>2026-04-09T07:32:45.001Z</time></trkpt><trkpt lat="45.06627103075454" lon="9.657618891512762"><ele>50.0</ele><time>2026-04-09T07:32:47.001Z</time></trkpt><trkpt lat="45.066357518646655" lon="9.657698322943617"><ele>49.6</ele><time>2026-04-09T07:32:49.001Z</time></trkpt><trkpt lat="45.06644033416441" lon="9.657787505454067"><ele>49.2</ele><time>2026-04-09T07:32:51.001Z</time></trkpt><trkpt lat="45.06652050838604" lon="9.65788308891974"><ele>48.8</ele><time>2026-04-09T07:32:53.001Z</time></trkpt><trkpt lat="45.06659442442206" lon="9.657980168507839"><ele>48.4</ele><time>2026-04-09T07:32:55.001Z</time></trkpt><trkpt lat="45.0666701467212" lon="9.65808235223099"><ele>48.0</ele><time>2026-04-09T07:32:57.001Z</time></trkpt><trkpt lat="45.06674137617663" lon="9.658188128101436"><ele>48.0</ele><time>2026-04-09T07:32:59.001Z</time></trkpt><trkpt lat="45.066814273374355" lon="9.658295908046325"><ele>48.0</ele><time>2026-04-09T07:33:01.001Z</time></trkpt><trkpt lat="45.06688045698084" lon="9.658411553508875"><ele>48.0</ele><time>2026-04-09T07:33:03.001Z</time></trkpt><trkpt lat="45.066942294291046" lon="9.65851795466326"><ele>48.0</ele><time>2026-04-09T07:33:05.001Z</time></trkpt><trkpt lat="45.067000698787965" lon="9.658630668536235"><ele>48.0</ele><time>2026-04-09T07:33:07.001Z</time></trkpt><trkpt lat="45.06705236900897" lon="9.65874463627384"><ele>48.4</ele><time>2026-04-09T07:33:09.001Z</time></trkpt><trkpt lat="45.06709894387087" lon="9.658867313792136"><ele>48.8</ele><time>2026-04-09T07:33:11.001Z</time></trkpt><trkpt lat="45.067136851301214" lon="9.659005742144913"><ele>49.2</ele><time>2026-04-09T07:33:13.001Z</time></trkpt><trkpt lat="45.06717346254678" lon="9.659134191323128"><ele>49.6</ele><time>2026-04-09T07:33:15.001Z</time></trkpt><trkpt lat="45.067208712455404" lon="9.659262266879288"><ele>50.0</ele><time>2026-04-09T07:33:17.001Z</time></trkpt><trkpt lat="45.06724611428982" lon="9.65939414386869"><ele>49.8</ele><time>2026-04-09T07:33:19.001Z</time></trkpt><trkpt lat="45.067283201701045" lon="9.659518181225742"><ele>49.6</ele><time>2026-04-09T07:33:21.001Z</time></trkpt><trkpt lat="45.06732133801181" lon="9.659649524205639"><ele>49.400000000000006</ele><time>2026-04-09T07:33:23.001Z</time></trkpt><trkpt lat="45.06736042836067" lon="9.659764911142489"><ele>49.2</ele><time>2026-04-09T07:33:25.001Z</time></trkpt><trkpt lat="45.06742345815285" lon="9.659864740081128"><ele>49.0</ele><time>2026-04-09T07:33:27.001Z</time></trkpt><trkpt lat="45.06752771667375" lon="9.659886657126643"><ele>49.0</ele><time>2026-04-09T07:33:29.001Z</time></trkpt><trkpt lat="45.06762654362549" lon="9.659891073812368"><ele>49.0</ele><time>2026-04-09T07:33:31.001Z</time></trkpt><trkpt lat="45.06773030560874" lon="9.659926907550435"><ele>49.0</ele><time>2026-04-09T07:33:33.001Z</time></trkpt><trkpt lat="45.067828943355224" lon="9.659916051780257"><ele>49.0</ele><time>2026-04-09T07:33:35.001Z</time></trkpt><trkpt lat="45.06792943957104" lon="9.659933366477178"><ele>49.0</ele><time>2026-04-09T07:33:37.001Z</time></trkpt><trkpt lat="45.06802708388729" lon="9.659962214967136"><ele>49.0</ele><time>2026-04-09T07:33:39.001Z</time></trkpt><trkpt lat="45.0681205082001" lon="9.659999794418919"><ele>49.0</ele><time>2026-04-09T07:33:41.001Z</time></trkpt><trkpt lat="45.068191386527516" lon="9.660104341522288"><ele>49.0</ele><time>2026-04-09T07:33:43.001Z</time></trkpt><trkpt lat="45.06822183318076" lon="9.660234426125248"><ele>49.0</ele><time>2026-04-09T07:33:45.001Z</time></trkpt><trkpt lat="45.06824632118582" lon="9.660363919939554"><ele>49.0</ele><time>2026-04-09T07:33:47.001Z</time></trkpt><trkpt lat="45.06827132317244" lon="9.660499118762917"><ele>49.0</ele><time>2026-04-09T07:33:49.001Z</time></trkpt><trkpt lat="45.068304587222514" lon="9.660638075781327"><ele>49.0</ele><time>2026-04-09T07:33:51.001Z</time></trkpt><trkpt lat="45.06834027974646" lon="9.660767340922183"><ele>49.0</ele><time>2026-04-09T07:33:53.001Z</time></trkpt><trkpt lat="45.06837233039915" lon="9.660897628565266"><ele>49.0</ele><time>2026-04-09T07:33:55.001Z</time></trkpt><trkpt lat="45.06840397872381" lon="9.661031609589077"><ele>49.0</ele><time>2026-04-09T07:33:57.001Z</time></trkpt><trkpt lat="45.06843985078072" lon="9.661163703707903"><ele>49.0</ele><time>2026-04-09T07:33:59.001Z</time></trkpt><trkpt lat="45.06847287310108" lon="9.661294051320619"><ele>49.0</ele><time>2026-04-09T07:34:01.001Z</time></trkpt><trkpt lat="45.068505425952615" lon="9.661426754953059"><ele>49.0</ele><time>2026-04-09T07:34:03.001Z</time></trkpt><trkpt lat="45.06854023730227" lon="9.661553388796664"><ele>49.0</ele><time>2026-04-09T07:34:05.001Z</time></trkpt><trkpt lat="45.068571603164315" lon="9.661681719871737"><ele>49.0</ele><time>2026-04-09T07:34:07.001Z</time></trkpt><trkpt lat="45.068604260948845" lon="9.661812752655106"><ele>49.0</ele><time>2026-04-09T07:34:09.001Z</time></trkpt><trkpt lat="45.068639824082425" lon="9.66194395330943"><ele>49.0</ele><time>2026-04-09T07:34:11.001Z</time></trkpt><trkpt lat="45.06867480363815" lon="9.662077315789125"><ele>49.0</ele><time>2026-04-09T07:34:13.001Z</time></trkpt><trkpt lat="45.06870959937476" lon="9.662212178589407"><ele>49.0</ele><time>2026-04-09T07:34:15.001Z</time></trkpt><trkpt lat="45.06874512220028" lon="9.662338013785636"><ele>49.0</ele><time>2026-04-09T07:34:17.001Z</time></trkpt><trkpt lat="45.06878026667178" lon="9.662462373521853"><ele>49.0</ele><time>2026-04-09T07:34:19.001Z</time></trkpt><trkpt lat="45.06881412289437" lon="9.662584824098818"><ele>49.0</ele><time>2026-04-09T07:34:21.001Z</time></trkpt><trkpt lat="45.06884312010836" lon="9.662713411045823"><ele>49.0</ele><time>2026-04-09T07:34:23.001Z</time></trkpt><trkpt lat="45.06888303655271" lon="9.662842449445085"><ele>49.0</ele><time>2026-04-09T07:34:25.001Z</time></trkpt><trkpt lat="45.06891337353984" lon="9.662973280416352"><ele>49.0</ele><time>2026-04-09T07:34:27.001Z</time></trkpt><trkpt lat="45.06894844536146" lon="9.66310480168177"><ele>48.6</ele><time>2026-04-09T07:34:29.001Z</time></trkpt><trkpt lat="45.06897956236318" lon="9.663248129316669"><ele>48.2</ele><time>2026-04-09T07:34:31.001Z</time></trkpt><trkpt lat="45.069015563936894" lon="9.663380411614183"><ele>47.800000000000004</ele><time>2026-04-09T07:34:33.001Z</time></trkpt><trkpt lat="45.069050077071545" lon="9.663517586113127"><ele>47.400000000000006</ele><time>2026-04-09T07:34:35.001Z</time></trkpt><trkpt lat="45.06908714091932" lon="9.663652999470727"><ele>47.0</ele><time>2026-04-09T07:34:37.001Z</time></trkpt><trkpt lat="45.06914405131097" lon="9.663760920477493"><ele>47.0</ele><time>2026-04-09T07:34:39.001Z</time></trkpt><trkpt lat="45.069221926551656" lon="9.663850159380406"><ele>47.0</ele><time>2026-04-09T07:34:41.001Z</time></trkpt><trkpt lat="45.069298643765066" lon="9.66394242053743"><ele>47.0</ele><time>2026-04-09T07:34:43.001Z</time></trkpt><trkpt lat="45.069377647343565" lon="9.664034477986622"><ele>47.0</ele><time>2026-04-09T07:34:45.001Z</time></trkpt><trkpt lat="45.06945545430605" lon="9.664129929645814"><ele>47.0</ele><time>2026-04-09T07:34:47.001Z</time></trkpt><trkpt lat="45.069532233065566" lon="9.664218260586871"><ele>47.0</ele><time>2026-04-09T07:34:49.001Z</time></trkpt><trkpt lat="45.06961331465923" lon="9.664310648352995"><ele>47.0</ele><time>2026-04-09T07:34:51.001Z</time></trkpt><trkpt lat="45.069693823463886" lon="9.664402825207329"><ele>47.0</ele><time>2026-04-09T07:34:53.001Z</time></trkpt><trkpt lat="45.0697727216782" lon="9.664495734053194"><ele>47.0</ele><time>2026-04-09T07:34:55.001Z</time></trkpt><trkpt lat="45.06985356659863" lon="9.664586016310828"><ele>47.0</ele><time>2026-04-09T07:34:57.001Z</time></trkpt><trkpt lat="45.06993100101408" lon="9.664673063778707"><ele>47.400000000000006</ele><time>2026-04-09T07:34:59.001Z</time></trkpt><trkpt lat="45.07000654275747" lon="9.664760892778453"><ele>47.800000000000004</ele><time>2026-04-09T07:35:01.001Z</time></trkpt><trkpt lat="45.07008317016005" lon="9.66484462853905"><ele>48.2</ele><time>2026-04-09T07:35:03.001Z</time></trkpt><trkpt lat="45.070159934060875" lon="9.664931079570716"><ele>48.6</ele><time>2026-04-09T07:35:05.001Z</time></trkpt><trkpt lat="45.07023731413266" lon="9.665024387544008"><ele>49.0</ele><time>2026-04-09T07:35:07.001Z</time></trkpt><trkpt lat="45.070315718819494" lon="9.665105613693674"><ele>49.0</ele><time>2026-04-09T07:35:09.001Z</time></trkpt><trkpt lat="45.07039022853585" lon="9.665193077323362"><ele>49.0</ele><time>2026-04-09T07:35:11.001Z</time></trkpt><trkpt lat="45.070465538638196" lon="9.66528309916324"><ele>49.0</ele><time>2026-04-09T07:35:13.001Z</time></trkpt><trkpt lat="45.07054437397382" lon="9.665371399444725"><ele>49.0</ele><time>2026-04-09T07:35:15.001Z</time></trkpt><trkpt lat="45.0706179589244" lon="9.665459763338907"><ele>49.0</ele><time>2026-04-09T07:35:17.001Z</time></trkpt><trkpt lat="45.07068871507018" lon="9.665562841027093"><ele>48.800000000000004</ele><time>2026-04-09T07:35:19.001Z</time></trkpt><trkpt lat="45.07074907218401" lon="9.665663660935495"><ele>48.6</ele><time>2026-04-09T07:35:21.001Z</time></trkpt><trkpt lat="45.07081049603663" lon="9.665781578196173"><ele>48.4</ele><time>2026-04-09T07:35:23.001Z</time></trkpt><trkpt lat="45.07086276719378" lon="9.665898131595885"><ele>48.2</ele><time>2026-04-09T07:35:25.001Z</time></trkpt><trkpt lat="45.07091143581454" lon="9.666021560992673"><ele>48.0</ele><time>2026-04-09T07:35:27.001Z</time></trkpt><trkpt lat="45.07096384085968" lon="9.666143970069998"><ele>48.0</ele><time>2026-04-09T07:35:29.001Z</time></trkpt><trkpt lat="45.07101832796251" lon="9.66626134513815"><ele>48.0</ele><time>2026-04-09T07:35:31.001Z</time></trkpt><trkpt lat="45.07107125678459" lon="9.66637929548933"><ele>48.0</ele><time>2026-04-09T07:35:33.001Z</time></trkpt><trkpt lat="45.07112257297615" lon="9.666503042780436"><ele>48.0</ele><time>2026-04-09T07:35:35.001Z</time></trkpt><trkpt lat="45.07117274730225" lon="9.666626261545442"><ele>48.0</ele><time>2026-04-09T07:35:37.001Z</time></trkpt><trkpt lat="45.07120724744825" lon="9.66675553241252"><ele>48.0</ele><time>2026-04-09T07:35:39.001Z</time></trkpt><trkpt lat="45.07122128689756" lon="9.66689384273886"><ele>48.0</ele><time>2026-04-09T07:35:41.001Z</time></trkpt><trkpt lat="45.07120841024689" lon="9.667037441232804"><ele>48.0</ele><time>2026-04-09T07:35:43.001Z</time></trkpt><trkpt lat="45.07117559076556" lon="9.667176065083396"><ele>48.0</ele><time>2026-04-09T07:35:45.001Z</time></trkpt><trkpt lat="45.07114157093445" lon="9.667312511630998"><ele>48.0</ele><time>2026-04-09T07:35:47.001Z</time></trkpt><trkpt lat="45.071116178233176" lon="9.667447948797486"><ele>48.0</ele><time>2026-04-09T07:35:49.001Z</time></trkpt><trkpt lat="45.07109190166508" lon="9.667584015290362"><ele>48.0</ele><time>2026-04-09T07:35:51.001Z</time></trkpt><trkpt lat="45.071067610541995" lon="9.667721852853127"><ele>48.0</ele><time>2026-04-09T07:35:53.001Z</time></trkpt><trkpt lat="45.07103997265349" lon="9.667858390653302"><ele>48.0</ele><time>2026-04-09T07:35:55.001Z</time></trkpt><trkpt lat="45.07101387665907" lon="9.667993183184858"><ele>48.0</ele><time>2026-04-09T07:35:57.001Z</time></trkpt><trkpt lat="45.07098874063997" lon="9.668133573140794"><ele>48.0</ele><time>2026-04-09T07:35:59.001Z</time></trkpt><trkpt lat="45.07096334466932" lon="9.668269983348459"><ele>48.0</ele><time>2026-04-09T07:36:01.001Z</time></trkpt><trkpt lat="45.07093931319919" lon="9.668407484503634"><ele>48.0</ele><time>2026-04-09T07:36:03.001Z</time></trkpt><trkpt lat="45.07091325160434" lon="9.668546840778149"><ele>48.0</ele><time>2026-04-09T07:36:05.001Z</time></trkpt><trkpt lat="45.07088975104127" lon="9.668688053037826"><ele>48.0</ele><time>2026-04-09T07:36:07.001Z</time></trkpt><trkpt lat="45.070864456479306" lon="9.668824056822546"><ele>48.0</ele><time>2026-04-09T07:36:09.001Z</time></trkpt><trkpt lat="45.07084308728941" lon="9.668965087507493"><ele>48.0</ele><time>2026-04-09T07:36:11.001Z</time></trkpt><trkpt lat="45.070817799903416" lon="9.669103659127677"><ele>48.0</ele><time>2026-04-09T07:36:13.001Z</time></trkpt><trkpt lat="45.07079605013088" lon="9.66924119096475"><ele>48.0</ele><time>2026-04-09T07:36:15.001Z</time></trkpt><trkpt lat="45.07077663176882" lon="9.669379274917318"><ele>48.0</ele><time>2026-04-09T07:36:17.001Z</time></trkpt><trkpt lat="45.07076057427866" lon="9.669517715287139"><ele>47.8</ele><time>2026-04-09T07:36:19.001Z</time></trkpt><trkpt lat="45.07074494189502" lon="9.669652786074561"><ele>47.599999999999994</ele><time>2026-04-09T07:36:21.001Z</time></trkpt><trkpt lat="45.07072843565377" lon="9.669795385406657"><ele>47.400000000000006</ele><time>2026-04-09T07:36:23.001Z</time></trkpt><trkpt lat="45.0707160584782" lon="9.669928180754825"><ele>47.2</ele><time>2026-04-09T07:36:25.001Z</time></trkpt><trkpt lat="45.07069552382285" lon="9.670066143069024"><ele>47.0</ele><time>2026-04-09T07:36:27.001Z</time></trkpt><trkpt lat="45.070684043978304" lon="9.670202465421342"><ele>47.0</ele><time>2026-04-09T07:36:29.001Z</time></trkpt><trkpt lat="45.07067277360658" lon="9.67033603829601"><ele>47.0</ele><time>2026-04-09T07:36:31.001Z</time></trkpt><trkpt lat="45.07065639003764" lon="9.670471178810457"><ele>47.0</ele><time>2026-04-09T07:36:33.001Z</time></trkpt><trkpt lat="45.07064458154063" lon="9.670607676628098"><ele>47.0</ele><time>2026-04-09T07:36:35.001Z</time></trkpt><trkpt lat="45.070626172355276" lon="9.670741548431968"><ele>47.0</ele><time>2026-04-09T07:36:37.001Z</time></trkpt><trkpt lat="45.07061599049554" lon="9.670878700093109"><ele>47.0</ele><time>2026-04-09T07:36:39.001Z</time></trkpt><trkpt lat="45.07060501659859" lon="9.67100987453755"><ele>47.0</ele><time>2026-04-09T07:36:41.001Z</time></trkpt><trkpt lat="45.07059068421071" lon="9.671137704611636"><ele>47.0</ele><time>2026-04-09T07:36:43.001Z</time></trkpt><trkpt lat="45.07057626953034" lon="9.67126863257577"><ele>47.0</ele><time>2026-04-09T07:36:45.001Z</time></trkpt><trkpt lat="45.07056530513266" lon="9.671393457611867"><ele>47.0</ele><time>2026-04-09T07:36:47.001Z</time></trkpt><trkpt lat="45.070555901236624" lon="9.671516300144697"><ele>47.0</ele><time>2026-04-09T07:36:49.001Z</time></trkpt><trkpt lat="45.070539157379315" lon="9.671640103623325"><ele>47.0</ele><time>2026-04-09T07:36:51.001Z</time></trkpt><trkpt lat="45.07052446292282" lon="9.6717681084099"><ele>47.0</ele><time>2026-04-09T07:36:53.001Z</time></trkpt><trkpt lat="45.070510525760675" lon="9.67190007032271"><ele>47.0</ele><time>2026-04-09T07:36:55.001Z</time></trkpt><trkpt lat="45.07049685876711" lon="9.67203629985248"><ele>47.0</ele><time>2026-04-09T07:36:57.001Z</time></trkpt><trkpt lat="45.07048740260461" lon="9.67216031834529"><ele>47.0</ele><time>2026-04-09T07:36:59.001Z</time></trkpt><trkpt lat="45.070481332482416" lon="9.672296133645826"><ele>47.0</ele><time>2026-04-09T07:37:01.001Z</time></trkpt><trkpt lat="45.0704838245924" lon="9.6724305227735"><ele>47.0</ele><time>2026-04-09T07:37:03.001Z</time></trkpt><trkpt lat="45.07049196112562" lon="9.672558446586915"><ele>47.0</ele><time>2026-04-09T07:37:05.001Z</time></trkpt><trkpt lat="45.07050410356695" lon="9.672688123304162"><ele>47.0</ele><time>2026-04-09T07:37:07.001Z</time></trkpt><trkpt lat="45.07051441293591" lon="9.672814001503811"><ele>46.666666666666664</ele><time>2026-04-09T07:37:09.001Z</time></trkpt><trkpt lat="45.07052509525126" lon="9.672934672118034"><ele>46.33333333333333</ele><time>2026-04-09T07:37:11.001Z</time></trkpt><trkpt lat="45.070536160638405" lon="9.6730607500032"><ele>46.0</ele><time>2026-04-09T07:37:13.001Z</time></trkpt><trkpt lat="45.070548143657916" lon="9.67318765554659"><ele>45.666666666666664</ele><time>2026-04-09T07:37:15.001Z</time></trkpt><trkpt lat="45.07055011055593" lon="9.673312858601356"><ele>45.333333333333336</ele><time>2026-04-09T07:37:17.001Z</time></trkpt><trkpt lat="45.07055699004247" lon="9.673431906979255"><ele>45.0</ele><time>2026-04-09T07:37:19.001Z</time></trkpt><trkpt lat="45.0705667199684" lon="9.673554319072986"><ele>45.0</ele><time>2026-04-09T07:37:21.001Z</time></trkpt><trkpt lat="45.07057539221994" lon="9.673680164778263"><ele>45.0</ele><time>2026-04-09T07:37:23.001Z</time></trkpt><trkpt lat="45.07058206811448" lon="9.673808530415512"><ele>45.0</ele><time>2026-04-09T07:37:25.001Z</time></trkpt><trkpt lat="45.070594505635675" lon="9.673938178014197"><ele>45.0</ele><time>2026-04-09T07:37:27.001Z</time></trkpt><trkpt lat="45.07059747232013" lon="9.674061129458858"><ele>45.0</ele><time>2026-04-09T07:37:29.001Z</time></trkpt><trkpt lat="45.07060493771786" lon="9.674183697593188"><ele>45.0</ele><time>2026-04-09T07:37:31.001Z</time></trkpt><trkpt lat="45.07061783258836" lon="9.674312742094633"><ele>45.0</ele><time>2026-04-09T07:37:33.001Z</time></trkpt><trkpt lat="45.07062813719875" lon="9.674443969345349"><ele>45.0</ele><time>2026-04-09T07:37:35.001Z</time></trkpt><trkpt lat="45.07063760657538" lon="9.674581121745343"><ele>45.0</ele><time>2026-04-09T07:37:37.001Z</time></trkpt><trkpt lat="45.070647428052744" lon="9.67471730334028"><ele>45.0</ele><time>2026-04-09T07:37:39.001Z</time></trkpt><trkpt lat="45.07066228931326" lon="9.674849893431157"><ele>45.0</ele><time>2026-04-09T07:37:41.001Z</time></trkpt><trkpt lat="45.07066900366572" lon="9.674979714246437"><ele>45.0</ele><time>2026-04-09T07:37:43.001Z</time></trkpt><trkpt lat="45.07067656224428" lon="9.675109674121895"><ele>45.0</ele><time>2026-04-09T07:37:45.001Z</time></trkpt><trkpt lat="45.07068404727888" lon="9.675238682111457"><ele>45.0</ele><time>2026-04-09T07:37:47.001Z</time></trkpt><trkpt lat="45.07069191197227" lon="9.675371956140836"><ele>45.0</ele><time>2026-04-09T07:37:49.001Z</time></trkpt><trkpt lat="45.0707044669669" lon="9.675501299270675"><ele>45.0</ele><time>2026-04-09T07:37:51.001Z</time></trkpt><trkpt lat="45.070712400017506" lon="9.675627420891622"><ele>45.2</ele><time>2026-04-09T07:37:53.001Z</time></trkpt><trkpt lat="45.070718942616615" lon="9.675757697635522"><ele>45.4</ele><time>2026-04-09T07:37:55.001Z</time></trkpt><trkpt lat="45.0707327558119" lon="9.675887997255945"><ele>45.599999999999994</ele><time>2026-04-09T07:37:57.001Z</time></trkpt><trkpt lat="45.0707426078122" lon="9.676013985814302"><ele>45.8</ele><time>2026-04-09T07:37:59.001Z</time></trkpt><trkpt lat="45.070750009838044" lon="9.676146467757446"><ele>46.0</ele><time>2026-04-09T07:38:01.001Z</time></trkpt><trkpt lat="45.07075827783105" lon="9.676276180752795"><ele>46.0</ele><time>2026-04-09T07:38:03.001Z</time></trkpt><trkpt lat="45.070768563591564" lon="9.67640205974472"><ele>46.0</ele><time>2026-04-09T07:38:05.001Z</time></trkpt><trkpt lat="45.07077971439511" lon="9.676531549812289"><ele>46.0</ele><time>2026-04-09T07:38:07.001Z</time></trkpt><trkpt lat="45.07078928646106" lon="9.67666521351553"><ele>46.0</ele><time>2026-04-09T07:38:09.001Z</time></trkpt><trkpt lat="45.07079699663529" lon="9.676795320087463"><ele>46.0</ele><time>2026-04-09T07:38:11.001Z</time></trkpt><trkpt lat="45.070805805131236" lon="9.676925607476276"><ele>46.199999999999996</ele><time>2026-04-09T07:38:13.001Z</time></trkpt><trkpt lat="45.070811212052085" lon="9.677059107832498"><ele>46.4</ele><time>2026-04-09T07:38:15.001Z</time></trkpt><trkpt lat="45.0708120964355" lon="9.677187689273994"><ele>46.6</ele><time>2026-04-09T07:38:17.001Z</time></trkpt><trkpt lat="45.07081098064309" lon="9.677317050444525"><ele>46.8</ele><time>2026-04-09T07:38:19.001Z</time></trkpt><trkpt lat="45.07081152130416" lon="9.677447571587514"><ele>47.0</ele><time>2026-04-09T07:38:21.001Z</time></trkpt><trkpt lat="45.07080479337991" lon="9.677573900296151"><ele>47.0</ele><time>2026-04-09T07:38:23.001Z</time></trkpt><trkpt lat="45.07079162642703" lon="9.677708813762468"><ele>47.0</ele><time>2026-04-09T07:38:25.001Z</time></trkpt><trkpt lat="45.07077748303645" lon="9.677846657198556"><ele>47.0</ele><time>2026-04-09T07:38:27.001Z</time></trkpt><trkpt lat="45.07075348840896" lon="9.677977508457246"><ele>47.0</ele><time>2026-04-09T07:38:29.001Z</time></trkpt><trkpt lat="45.07070165841746" lon="9.678094049555398"><ele>47.0</ele><time>2026-04-09T07:38:31.001Z</time></trkpt><trkpt lat="45.07063293714653" lon="9.678181871591013"><ele>47.0</ele><time>2026-04-09T07:38:33.001Z</time></trkpt><trkpt lat="45.070555632828345" lon="9.678267722567046"><ele>47.0</ele><time>2026-04-09T07:38:35.001Z</time></trkpt><trkpt lat="45.07047473743321" lon="9.678343596843119"><ele>47.0</ele><time>2026-04-09T07:38:37.001Z</time></trkpt><trkpt lat="45.07039654015007" lon="9.678425918327598"><ele>47.0</ele><time>2026-04-09T07:38:39.001Z</time></trkpt><trkpt lat="45.070317622304415" lon="9.678499420721208"><ele>47.0</ele><time>2026-04-09T07:38:41.001Z</time></trkpt><trkpt lat="45.07023981642913" lon="9.678576072586933"><ele>47.0</ele><time>2026-04-09T07:38:43.001Z</time></trkpt><trkpt lat="45.070158499027684" lon="9.678651061997794"><ele>47.0</ele><time>2026-04-09T07:38:45.001Z</time></trkpt><trkpt lat="45.070086875061335" lon="9.678735632364768"><ele>47.0</ele><time>2026-04-09T07:38:47.001Z</time></trkpt><trkpt lat="45.07000904218188" lon="9.678808636328741"><ele>47.0</ele><time>2026-04-09T07:38:49.001Z</time></trkpt><trkpt lat="45.06992861271205" lon="9.678886350013949"><ele>47.0</ele><time>2026-04-09T07:38:51.001Z</time></trkpt><trkpt lat="45.069849184197004" lon="9.678966720870811"><ele>46.6</ele><time>2026-04-09T07:38:53.001Z</time></trkpt><trkpt lat="45.06977279054946" lon="9.679051133982188"><ele>46.2</ele><time>2026-04-09T07:38:55.001Z</time></trkpt><trkpt lat="45.06968830831317" lon="9.679130905798207"><ele>45.8</ele><time>2026-04-09T07:38:57.001Z</time></trkpt><trkpt lat="45.069610084546525" lon="9.679217176616227"><ele>45.4</ele><time>2026-04-09T07:38:59.001Z</time></trkpt><trkpt lat="45.06953333793751" lon="9.679299233158991"><ele>45.0</ele><time>2026-04-09T07:39:01.001Z</time></trkpt><trkpt lat="45.069454502276855" lon="9.679380053381767"><ele>45.0</ele><time>2026-04-09T07:39:03.001Z</time></trkpt><trkpt lat="45.069379518074996" lon="9.679449845981"><ele>45.0</ele><time>2026-04-09T07:39:05.001Z</time></trkpt><trkpt lat="45.06930315778458" lon="9.679529526149471"><ele>45.0</ele><time>2026-04-09T07:39:07.001Z</time></trkpt><trkpt lat="45.06923087623628" lon="9.679610553060398"><ele>45.0</ele><time>2026-04-09T07:39:09.001Z</time></trkpt><trkpt lat="45.06915533106355" lon="9.679696808938282"><ele>45.0</ele><time>2026-04-09T07:39:11.001Z</time></trkpt><trkpt lat="45.069079612046906" lon="9.679769003244118"><ele>45.2</ele><time>2026-04-09T07:39:13.001Z</time></trkpt><trkpt lat="45.06901036596822" lon="9.679851285637069"><ele>45.4</ele><time>2026-04-09T07:39:15.001Z</time></trkpt><trkpt lat="45.0689329153769" lon="9.679930293429532"><ele>45.599999999999994</ele><time>2026-04-09T07:39:17.001Z</time></trkpt><trkpt lat="45.06885669311139" lon="9.680011424542123"><ele>45.8</ele><time>2026-04-09T07:39:19.001Z</time></trkpt><trkpt lat="45.06877817709129" lon="9.680089333369947"><ele>46.0</ele><time>2026-04-09T07:39:21.001Z</time></trkpt><trkpt lat="45.068698043912384" lon="9.680171429340604"><ele>46.0</ele><time>2026-04-09T07:39:23.001Z</time></trkpt><trkpt lat="45.06862821723613" lon="9.68024854394791"><ele>46.0</ele><time>2026-04-09T07:39:25.001Z</time></trkpt><trkpt lat="45.06855422826645" lon="9.680336676136609"><ele>46.0</ele><time>2026-04-09T07:39:27.001Z</time></trkpt><trkpt lat="45.068480120653916" lon="9.680406610955009"><ele>46.0</ele><time>2026-04-09T07:39:29.001Z</time></trkpt><trkpt lat="45.06840165460051" lon="9.680488529901194"><ele>46.0</ele><time>2026-04-09T07:39:31.001Z</time></trkpt><trkpt lat="45.06832715588229" lon="9.680564008408883"><ele>46.199999999999996</ele><time>2026-04-09T07:39:33.001Z</time></trkpt><trkpt lat="45.0682505929629" lon="9.680647040896565"><ele>46.4</ele><time>2026-04-09T07:39:35.001Z</time></trkpt><trkpt lat="45.06817222991291" lon="9.680729385852743"><ele>46.6</ele><time>2026-04-09T07:39:37.001Z</time></trkpt><trkpt lat="45.068098321980365" lon="9.680814494835488"><ele>46.8</ele><time>2026-04-09T07:39:39.001Z</time></trkpt><trkpt lat="45.068023716459976" lon="9.680895563143094"><ele>47.0</ele><time>2026-04-09T07:39:41.001Z</time></trkpt><trkpt lat="45.06794677824432" lon="9.680975719593485"><ele>47.0</ele><time>2026-04-09T07:39:43.001Z</time></trkpt><trkpt lat="45.06787000641186" lon="9.681056532893969"><ele>47.0</ele><time>2026-04-09T07:39:45.001Z</time></trkpt><trkpt lat="45.06779304512955" lon="9.681139767950878"><ele>47.0</ele><time>2026-04-09T07:39:47.001Z</time></trkpt><trkpt lat="45.06771247485362" lon="9.68122042260083"><ele>47.0</ele><time>2026-04-09T07:39:49.001Z</time></trkpt><trkpt lat="45.067632108722975" lon="9.681300227479378"><ele>47.0</ele><time>2026-04-09T07:39:51.001Z</time></trkpt><trkpt lat="45.06754860163096" lon="9.681368755433567"><ele>46.400000000000006</ele><time>2026-04-09T07:39:53.001Z</time></trkpt><trkpt lat="45.06745798951143" lon="9.681434031434401"><ele>45.800000000000004</ele><time>2026-04-09T07:39:55.001Z</time></trkpt><trkpt lat="45.06736952025132" lon="9.681478369818135"><ele>45.2</ele><time>2026-04-09T07:39:57.001Z</time></trkpt><trkpt lat="45.06728080643357" lon="9.681515260507268"><ele>44.6</ele><time>2026-04-09T07:39:59.001Z</time></trkpt><trkpt lat="45.06718475439173" lon="9.6815164325445"><ele>44.0</ele><time>2026-04-09T07:40:01.001Z</time></trkpt><trkpt lat="45.06709250746798" lon="9.681545837701373"><ele>44.0</ele><time>2026-04-09T07:40:03.001Z</time></trkpt><trkpt lat="45.066998316615674" lon="9.681555281329084"><ele>44.0</ele><time>2026-04-09T07:40:05.001Z</time></trkpt><trkpt lat="45.06689971770372" lon="9.681560060937448"><ele>44.0</ele><time>2026-04-09T07:40:07.001Z</time></trkpt><trkpt lat="45.06680400825017" lon="9.681563368397352"><ele>44.0</ele><time>2026-04-09T07:40:09.001Z</time></trkpt><trkpt lat="45.06670954787218" lon="9.68156678077653"><ele>44.0</ele><time>2026-04-09T07:40:11.001Z</time></trkpt><trkpt lat="45.06661860043636" lon="9.681565607775337"><ele>44.2</ele><time>2026-04-09T07:40:13.001Z</time></trkpt><trkpt lat="45.06652641502734" lon="9.681566910502493"><ele>44.400000000000006</ele><time>2026-04-09T07:40:15.001Z</time></trkpt><trkpt lat="45.06643005484734" lon="9.68156835902468"><ele>44.6</ele><time>2026-04-09T07:40:17.001Z</time></trkpt><trkpt lat="45.06633903848604" lon="9.681568135714462"><ele>44.8</ele><time>2026-04-09T07:40:19.001Z</time></trkpt><trkpt lat="45.06624291200572" lon="9.681566893539282"><ele>45.0</ele><time>2026-04-09T07:40:21.001Z</time></trkpt><trkpt lat="45.066147142373886" lon="9.681570924098839"><ele>45.0</ele><time>2026-04-09T07:40:23.001Z</time></trkpt><trkpt lat="45.066056631450216" lon="9.681569230016644"><ele>45.0</ele><time>2026-04-09T07:40:25.001Z</time></trkpt><trkpt lat="45.065964271571325" lon="9.681569883990377"><ele>45.0</ele><time>2026-04-09T07:40:27.001Z</time></trkpt><trkpt lat="45.0658729649015" lon="9.6815748865101"><ele>45.0</ele><time>2026-04-09T07:40:29.001Z</time></trkpt><trkpt lat="45.0657782254273" lon="9.68157532400544"><ele>45.0</ele><time>2026-04-09T07:40:31.001Z</time></trkpt><trkpt lat="45.06569391743358" lon="9.681589843207458"><ele>45.0</ele><time>2026-04-09T07:40:33.001Z</time></trkpt><trkpt lat="45.065601360239135" lon="9.68158923875635"><ele>45.0</ele><time>2026-04-09T07:40:35.001Z</time></trkpt><trkpt lat="45.065506699099075" lon="9.6815845994925"><ele>45.0</ele><time>2026-04-09T07:40:37.001Z</time></trkpt><trkpt lat="45.065410000986795" lon="9.681589564064089"><ele>45.0</ele><time>2026-04-09T07:40:39.001Z</time></trkpt><trkpt lat="45.06531817407852" lon="9.681592012096981"><ele>45.0</ele><time>2026-04-09T07:40:41.001Z</time></trkpt><trkpt lat="45.06521794258979" lon="9.681594169983924"><ele>45.0</ele><time>2026-04-09T07:40:43.002Z</time></trkpt><trkpt lat="45.06512488058241" lon="9.68160007502748"><ele>45.0</ele><time>2026-04-09T07:40:45.002Z</time></trkpt><trkpt lat="45.06502626900035" lon="9.681596590885379"><ele>45.0</ele><time>2026-04-09T07:40:47.002Z</time></trkpt><trkpt lat="45.06492620509531" lon="9.681601032791662"><ele>45.0</ele><time>2026-04-09T07:40:49.002Z</time></trkpt><trkpt lat="45.06483357436973" lon="9.68160664489923"><ele>45.0</ele><time>2026-04-09T07:40:51.002Z</time></trkpt><trkpt lat="45.06473588588008" lon="9.681609978076468"><ele>45.2</ele><time>2026-04-09T07:40:53.002Z</time></trkpt><trkpt lat="45.06463785036568" lon="9.681628536198916"><ele>45.4</ele><time>2026-04-09T07:40:55.002Z</time></trkpt><trkpt lat="45.064544312002035" lon="9.68164649518295"><ele>45.599999999999994</ele><time>2026-04-09T07:40:57.002Z</time></trkpt><trkpt lat="45.064450636728125" lon="9.681672519422674"><ele>45.8</ele><time>2026-04-09T07:40:59.002Z</time></trkpt><trkpt lat="45.0643616031032" lon="9.681708177313658"><ele>46.0</ele><time>2026-04-09T07:41:01.002Z</time></trkpt><trkpt lat="45.06427194758503" lon="9.681758586694798"><ele>46.0</ele><time>2026-04-09T07:41:03.002Z</time></trkpt><trkpt lat="45.064185545863786" lon="9.681819966246833"><ele>46.0</ele><time>2026-04-09T07:41:05.002Z</time></trkpt><trkpt lat="45.064109237945786" lon="9.681899500708925"><ele>46.0</ele><time>2026-04-09T07:41:07.002Z</time></trkpt><trkpt lat="45.06403509138459" lon="9.681984168260188"><ele>46.0</ele><time>2026-04-09T07:41:09.002Z</time></trkpt><trkpt lat="45.06396753383407" lon="9.682072200160802"><ele>46.0</ele><time>2026-04-09T07:41:11.002Z</time></trkpt><trkpt lat="45.063901731414575" lon="9.682166340140478"><ele>46.4</ele><time>2026-04-09T07:41:13.002Z</time></trkpt><trkpt lat="45.06384357717023" lon="9.682268792388808"><ele>46.8</ele><time>2026-04-09T07:41:15.002Z</time></trkpt><trkpt lat="45.06379488351588" lon="9.682383299675832"><ele>47.199999999999996</ele><time>2026-04-09T07:41:17.002Z</time></trkpt><trkpt lat="45.063744928406564" lon="9.682491255358267"><ele>47.599999999999994</ele><time>2026-04-09T07:41:19.002Z</time></trkpt><trkpt lat="45.063710517458084" lon="9.682603569772096"><ele>48.0</ele><time>2026-04-09T07:41:21.002Z</time></trkpt><trkpt lat="45.06367769796762" lon="9.682723934367882"><ele>47.8</ele><time>2026-04-09T07:41:23.002Z</time></trkpt><trkpt lat="45.06365062671814" lon="9.682845426897893"><ele>47.599999999999994</ele><time>2026-04-09T07:41:25.002Z</time></trkpt><trkpt lat="45.063624424497974" lon="9.682977002502698"><ele>47.400000000000006</ele><time>2026-04-09T07:41:27.002Z</time></trkpt><trkpt lat="45.06360202691914" lon="9.68309093151276"><ele>47.2</ele><time>2026-04-09T07:41:29.002Z</time></trkpt><trkpt lat="45.06357973001777" lon="9.683210550687129"><ele>47.0</ele><time>2026-04-09T07:41:31.002Z</time></trkpt><trkpt lat="45.06355384015765" lon="9.68333576184169"><ele>47.0</ele><time>2026-04-09T07:41:33.002Z</time></trkpt><trkpt lat="45.06352332209863" lon="9.683457216531062"><ele>47.0</ele><time>2026-04-09T07:41:35.002Z</time></trkpt><trkpt lat="45.063500093169154" lon="9.68358004840253"><ele>47.0</ele><time>2026-04-09T07:41:37.002Z</time></trkpt><trkpt lat="45.063471856406" lon="9.683702012167984"><ele>47.0</ele><time>2026-04-09T07:41:39.002Z</time></trkpt><trkpt lat="45.063441185988" lon="9.683822973528214"><ele>47.0</ele><time>2026-04-09T07:41:41.002Z</time></trkpt><trkpt lat="45.063406524313" lon="9.683938971717831"><ele>47.0</ele><time>2026-04-09T07:41:43.002Z</time></trkpt><trkpt lat="45.06336135323843" lon="9.684058952353492"><ele>47.0</ele><time>2026-04-09T07:41:45.002Z</time></trkpt><trkpt lat="45.06332324804504" lon="9.684181035553577"><ele>47.0</ele><time>2026-04-09T07:41:47.002Z</time></trkpt><trkpt lat="45.063274371687775" lon="9.684284594356713"><ele>47.0</ele><time>2026-04-09T07:41:49.002Z</time></trkpt><trkpt lat="45.06321704172674" lon="9.684383192205999"><ele>47.0</ele><time>2026-04-09T07:41:51.002Z</time></trkpt><trkpt lat="45.06316100791233" lon="9.684489418538192"><ele>46.400000000000006</ele><time>2026-04-09T07:41:53.002Z</time></trkpt><trkpt lat="45.06310431537538" lon="9.684583002097483"><ele>45.800000000000004</ele><time>2026-04-09T07:41:55.002Z</time></trkpt><trkpt lat="45.06303941784929" lon="9.684686047018092"><ele>45.2</ele><time>2026-04-09T07:41:57.002Z</time></trkpt><trkpt lat="45.06297539017904" lon="9.684781861734255"><ele>44.6</ele><time>2026-04-09T07:41:59.002Z</time></trkpt><trkpt lat="45.062912095265595" lon="9.68487746830866"><ele>44.0</ele><time>2026-04-09T07:42:01.002Z</time></trkpt><trkpt lat="45.062854341711095" lon="9.684982272364069"><ele>44.0</ele><time>2026-04-09T07:42:03.002Z</time></trkpt><trkpt lat="45.062791197517676" lon="9.685079578615927"><ele>44.0</ele><time>2026-04-09T07:42:05.002Z</time></trkpt><trkpt lat="45.06273149567649" lon="9.685185375659769"><ele>44.0</ele><time>2026-04-09T07:42:07.002Z</time></trkpt><trkpt lat="45.0626725574096" lon="9.685287900316066"><ele>44.0</ele><time>2026-04-09T07:42:09.002Z</time></trkpt><trkpt lat="45.0626196399826" lon="9.685393886052724"><ele>44.0</ele><time>2026-04-09T07:42:11.002Z</time></trkpt><trkpt lat="45.0625732753241" lon="9.685515340386013"><ele>44.2</ele><time>2026-04-09T07:42:13.002Z</time></trkpt><trkpt lat="45.062532797206686" lon="9.68563868111063"><ele>44.400000000000006</ele><time>2026-04-09T07:42:15.002Z</time></trkpt><trkpt lat="45.06249322034832" lon="9.685751164139493"><ele>44.6</ele><time>2026-04-09T07:42:17.002Z</time></trkpt><trkpt lat="45.06246312080009" lon="9.685866739330729"><ele>44.8</ele><time>2026-04-09T07:42:19.002Z</time></trkpt><trkpt lat="45.06244399802568" lon="9.685996447331666"><ele>45.0</ele><time>2026-04-09T07:42:21.002Z</time></trkpt><trkpt lat="45.06242771809117" lon="9.686119516551734"><ele>45.6</ele><time>2026-04-09T07:42:23.002Z</time></trkpt><trkpt lat="45.062413011283944" lon="9.686248970972263"><ele>46.2</ele><time>2026-04-09T07:42:25.002Z</time></trkpt><trkpt lat="45.06239955981719" lon="9.686374441817941"><ele>46.8</ele><time>2026-04-09T07:42:27.002Z</time></trkpt><trkpt lat="45.062388969595496" lon="9.686503740187144"><ele>47.4</ele><time>2026-04-09T07:42:29.002Z</time></trkpt><trkpt lat="45.0623823112803" lon="9.686631872681241"><ele>48.0</ele><time>2026-04-09T07:42:31.002Z</time></trkpt><trkpt lat="45.06237220557572" lon="9.686766316479138"><ele>48.0</ele><time>2026-04-09T07:42:33.002Z</time></trkpt><trkpt lat="45.06236963247077" lon="9.68689527206963"><ele>48.0</ele><time>2026-04-09T07:42:35.002Z</time></trkpt><trkpt lat="45.06236289919899" lon="9.687020602674163"><ele>48.0</ele><time>2026-04-09T07:42:37.002Z</time></trkpt><trkpt lat="45.062355840867085" lon="9.687142635162935"><ele>48.0</ele><time>2026-04-09T07:42:39.002Z</time></trkpt><trkpt lat="45.06235509321462" lon="9.687263679879822"><ele>48.0</ele><time>2026-04-09T07:42:41.002Z</time></trkpt><trkpt lat="45.0623480332206" lon="9.687383495760505"><ele>48.0</ele><time>2026-04-09T07:42:43.002Z</time></trkpt><trkpt lat="45.06234087162717" lon="9.68750278824944"><ele>48.0</ele><time>2026-04-09T07:42:45.002Z</time></trkpt><trkpt lat="45.06233148677984" lon="9.687623490243483"><ele>48.0</ele><time>2026-04-09T07:42:47.002Z</time></trkpt><trkpt lat="45.06231963541376" lon="9.687748809512565"><ele>48.0</ele><time>2026-04-09T07:42:49.002Z</time></trkpt><trkpt lat="45.06231289705896" lon="9.687873021702483"><ele>48.0</ele><time>2026-04-09T07:42:51.002Z</time></trkpt><trkpt lat="45.06230752298689" lon="9.688008196653113"><ele>48.0</ele><time>2026-04-09T07:42:53.002Z</time></trkpt><trkpt lat="45.06229777511801" lon="9.688141991034255"><ele>48.0</ele><time>2026-04-09T07:42:55.002Z</time></trkpt><trkpt lat="45.062291162614365" lon="9.688272306767828"><ele>48.0</ele><time>2026-04-09T07:42:57.002Z</time></trkpt><trkpt lat="45.062280291786365" lon="9.68839846035479"><ele>48.0</ele><time>2026-04-09T07:42:59.002Z</time></trkpt><trkpt lat="45.06227023343802" lon="9.688527231687184"><ele>48.0</ele><time>2026-04-09T07:43:01.002Z</time></trkpt><trkpt lat="45.062264095626816" lon="9.688661868358183"><ele>48.0</ele><time>2026-04-09T07:43:03.002Z</time></trkpt><trkpt lat="45.062256806880015" lon="9.688791115916715"><ele>48.0</ele><time>2026-04-09T07:43:05.002Z</time></trkpt><trkpt lat="45.06225106206336" lon="9.688920089797637"><ele>48.0</ele><time>2026-04-09T07:43:07.002Z</time></trkpt><trkpt lat="45.06224344658337" lon="9.689048874441127"><ele>48.0</ele><time>2026-04-09T07:43:09.002Z</time></trkpt><trkpt lat="45.06223150480869" lon="9.68917607359637"><ele>48.0</ele><time>2026-04-09T07:43:11.002Z</time></trkpt><trkpt lat="45.06222625020263" lon="9.689303413794645"><ele>48.0</ele><time>2026-04-09T07:43:13.002Z</time></trkpt><trkpt lat="45.06221822008974" lon="9.689432853625704"><ele>47.833333333333336</ele><time>2026-04-09T07:43:15.002Z</time></trkpt><trkpt lat="45.06221540591689" lon="9.689565893338067"><ele>47.666666666666664</ele><time>2026-04-09T07:43:17.002Z</time></trkpt><trkpt lat="45.06220466591333" lon="9.689692253446403"><ele>47.5</ele><time>2026-04-09T07:43:19.002Z</time></trkpt><trkpt lat="45.06219454956531" lon="9.689820592686798"><ele>47.33333333333333</ele><time>2026-04-09T07:43:21.002Z</time></trkpt><trkpt lat="45.062186620069184" lon="9.689943740788031"><ele>47.166666666666664</ele><time>2026-04-09T07:43:23.002Z</time></trkpt><trkpt lat="45.062176715905665" lon="9.69006476532156"><ele>47.0</ele><time>2026-04-09T07:43:25.002Z</time></trkpt><trkpt lat="45.06216883915248" lon="9.690176949446487"><ele>47.166666666666664</ele><time>2026-04-09T07:43:27.002Z</time></trkpt><trkpt lat="45.0621529323092" lon="9.690297135298987"><ele>47.33333333333333</ele><time>2026-04-09T07:43:29.002Z</time></trkpt><trkpt lat="45.06213672119388" lon="9.690406975425512"><ele>47.5</ele><time>2026-04-09T07:43:31.002Z</time></trkpt><trkpt lat="45.0621133276664" lon="9.690520993101591"><ele>47.666666666666664</ele><time>2026-04-09T07:43:33.002Z</time></trkpt><trkpt lat="45.062086301344074" lon="9.69062986723903"><ele>47.833333333333336</ele><time>2026-04-09T07:43:35.002Z</time></trkpt><trkpt lat="45.062052854954736" lon="9.690739615127297"><ele>48.0</ele><time>2026-04-09T07:43:37.002Z</time></trkpt><trkpt lat="45.06202748426568" lon="9.690849759780226"><ele>48.0</ele><time>2026-04-09T07:43:39.002Z</time></trkpt><trkpt lat="45.06200215721541" lon="9.690954606568075"><ele>48.0</ele><time>2026-04-09T07:43:41.006Z</time></trkpt><trkpt lat="45.06198776820544" lon="9.691050358618428"><ele>48.0</ele><time>2026-04-09T07:43:43.006Z</time></trkpt><trkpt lat="45.06197654361708" lon="9.691161474588618"><ele>48.0</ele><time>2026-04-09T07:43:45.006Z</time></trkpt><trkpt lat="45.06199884269791" lon="9.691283840109811"><ele>48.0</ele><time>2026-04-09T07:43:47.006Z</time></trkpt><trkpt lat="45.06205632545519" lon="9.691353542136248"><ele>48.0</ele><time>2026-04-09T07:43:49.006Z</time></trkpt><trkpt lat="45.06213943818512" lon="9.691378849022607"><ele>48.0</ele><time>2026-04-09T07:43:52.006Z</time></trkpt><trkpt lat="45.062203537670655" lon="9.691380261305092"><ele>48.0</ele><time>2026-04-09T07:43:54.006Z</time></trkpt><trkpt lat="45.06228391093949" lon="9.691467468194896"><ele>48.0</ele><time>2026-04-09T07:43:57.006Z</time></trkpt><trkpt lat="45.06232143713187" lon="9.691580505276095"><ele>48.0</ele><time>2026-04-09T07:43:59.006Z</time></trkpt><trkpt lat="45.06235204413307" lon="9.6917024831848"><ele>48.0</ele><time>2026-04-09T07:44:01.006Z</time></trkpt><trkpt lat="45.06236210055044" lon="9.691825899700692"><ele>48.0</ele><time>2026-04-09T07:44:03.006Z</time></trkpt><trkpt lat="45.06236397829533" lon="9.691940724365056"><ele>48.0</ele><time>2026-04-09T07:44:05.006Z</time></trkpt><trkpt lat="45.06237171153198" lon="9.692060316974437"><ele>48.0</ele><time>2026-04-09T07:44:07.006Z</time></trkpt><trkpt lat="45.06235982384273" lon="9.692183004514558"><ele>48.0</ele><time>2026-04-09T07:44:09.006Z</time></trkpt><trkpt lat="45.062363841258936" lon="9.69230535646358"><ele>48.0</ele><time>2026-04-09T07:44:11.006Z</time></trkpt><trkpt lat="45.062372653213494" lon="9.692417567614305"><ele>48.0</ele><time>2026-04-09T07:44:13.006Z</time></trkpt><trkpt lat="45.0623713880885" lon="9.6925340031978"><ele>48.0</ele><time>2026-04-09T07:44:15.006Z</time></trkpt><trkpt lat="45.062375068732685" lon="9.692648288878598"><ele>48.0</ele><time>2026-04-09T07:44:17.006Z</time></trkpt><trkpt lat="45.06237381897924" lon="9.692773072733162"><ele>48.0</ele><time>2026-04-09T07:44:19.006Z</time></trkpt><trkpt lat="45.062375146463275" lon="9.69288560371175"><ele>48.0</ele><time>2026-04-09T07:44:21.006Z</time></trkpt><trkpt lat="45.06237839958299" lon="9.693009455709841"><ele>48.0</ele><time>2026-04-09T07:44:23.006Z</time></trkpt><trkpt lat="45.06238199147719" lon="9.69312809361216"><ele>48.0</ele><time>2026-04-09T07:44:25.006Z</time></trkpt><trkpt lat="45.06238421087727" lon="9.69325432780048"><ele>48.0</ele><time>2026-04-09T07:44:27.006Z</time></trkpt><trkpt lat="45.06238649315691" lon="9.69337451482066"><ele>48.0</ele><time>2026-04-09T07:44:29.006Z</time></trkpt><trkpt lat="45.06239407666822" lon="9.693492074019456"><ele>48.0</ele><time>2026-04-09T07:44:31.007Z</time></trkpt><trkpt lat="45.0624016990972" lon="9.69360786643628"><ele>48.0</ele><time>2026-04-09T07:44:33.007Z</time></trkpt><trkpt lat="45.062404812878626" lon="9.693721245271991"><ele>48.0</ele><time>2026-04-09T07:44:35.006Z</time></trkpt><trkpt lat="45.062411515686094" lon="9.69383400965979"><ele>48.0</ele><time>2026-04-09T07:44:37.006Z</time></trkpt><trkpt lat="45.06241381666869" lon="9.693947392505358"><ele>48.0</ele><time>2026-04-09T07:44:39.007Z</time></trkpt><trkpt lat="45.062424293534676" lon="9.694082419106294"><ele>48.2</ele><time>2026-04-09T07:44:41.007Z</time></trkpt><trkpt lat="45.06242257477708" lon="9.694249969944272"><ele>48.4</ele><time>2026-04-09T07:44:43.007Z</time></trkpt><trkpt lat="45.06242735255156" lon="9.694408321946064"><ele>48.6</ele><time>2026-04-09T07:44:45.007Z</time></trkpt><trkpt lat="45.062403392316064" lon="9.694548316769911"><ele>48.800000000000004</ele><time>2026-04-09T07:44:47.007Z</time></trkpt><trkpt lat="45.06238142521167" lon="9.694668479189325"><ele>49.0</ele><time>2026-04-09T07:44:49.007Z</time></trkpt><trkpt lat="45.06235015165253" lon="9.694768848171272"><ele>48.99999999999999</ele><time>2026-04-09T07:44:51.007Z</time></trkpt><trkpt lat="45.06230928018185" lon="9.694868609347704"><ele>49.0</ele><time>2026-04-09T07:44:53.007Z</time></trkpt><trkpt lat="45.06226231565014" lon="9.694971283003216"><ele>49.0</ele><time>2026-04-09T07:44:55.007Z</time></trkpt><trkpt lat="45.06221185075172" lon="9.695072411341618"><ele>49.0</ele><time>2026-04-09T07:44:57.007Z</time></trkpt><trkpt lat="45.06216796560762" lon="9.695173043971131"><ele>48.99999999999999</ele><time>2026-04-09T07:44:59.007Z</time></trkpt><trkpt lat="45.062127629657724" lon="9.695279613921588"><ele>49.0</ele><time>2026-04-09T07:45:01.007Z</time></trkpt><trkpt lat="45.06208577398073" lon="9.695393549328541"><ele>48.99999999999999</ele><time>2026-04-09T07:45:03.007Z</time></trkpt><trkpt lat="45.06203670706806" lon="9.695502681649728"><ele>49.0</ele><time>2026-04-09T07:45:05.007Z</time></trkpt><trkpt lat="45.06199083455044" lon="9.695612962171552"><ele>49.0</ele><time>2026-04-09T07:45:07.007Z</time></trkpt><trkpt lat="45.06194893393994" lon="9.695724458216876"><ele>49.0</ele><time>2026-04-09T07:45:09.007Z</time></trkpt><trkpt lat="45.06190131074849" lon="9.695837665451172"><ele>48.99999999999999</ele><time>2026-04-09T07:45:11.006Z</time></trkpt><trkpt lat="45.06186322840036" lon="9.695936586720066"><ele>49.0</ele><time>2026-04-09T07:45:13.001Z</time></trkpt><trkpt lat="45.061835700488025" lon="9.696045272388167"><ele>48.33333333333333</ele><time>2026-04-09T07:45:14.998Z</time></trkpt><trkpt lat="45.06181195370802" lon="9.696159169501682"><ele>47.666666666666664</ele><time>2026-04-09T07:45:16.994Z</time></trkpt><trkpt lat="45.06178017049135" lon="9.696267738345655"><ele>47.0</ele><time>2026-04-09T07:45:18.991Z</time></trkpt><trkpt lat="45.061743589504026" lon="9.696376975398543"><ele>46.33333333333333</ele><time>2026-04-09T07:45:20.989Z</time></trkpt><trkpt lat="45.061704300249666" lon="9.696468697426221"><ele>45.666666666666664</ele><time>2026-04-09T07:45:22.987Z</time></trkpt><trkpt lat="45.06168077603184" lon="9.69655268444797"><ele>45.0</ele><time>2026-04-09T07:45:24.985Z</time></trkpt><trkpt lat="45.06164683216708" lon="9.696678140740161"><ele>45.0</ele><time>2026-04-09T07:45:27.982Z</time></trkpt><trkpt lat="45.06162397874469" lon="9.696774842998186"><ele>45.0</ele><time>2026-04-09T07:45:29.981Z</time></trkpt><trkpt lat="45.06160230617342" lon="9.696879055364109"><ele>45.0</ele><time>2026-04-09T07:45:31.979Z</time></trkpt><trkpt lat="45.0615776272151" lon="9.69697909307238"><ele>45.0</ele><time>2026-04-09T07:45:33.978Z</time></trkpt><trkpt lat="45.06154884247703" lon="9.697094375298693"><ele>45.0</ele><time>2026-04-09T07:45:35.977Z</time></trkpt><trkpt lat="45.06151640385805" lon="9.697188051160271"><ele>45.0</ele><time>2026-04-09T07:45:37.976Z</time></trkpt><trkpt lat="45.061473245653616" lon="9.697292452104897"><ele>45.6</ele><time>2026-04-09T07:45:39.976Z</time></trkpt><trkpt lat="45.06145457114012" lon="9.69741341945317"><ele>46.2</ele><time>2026-04-09T07:45:41.975Z</time></trkpt><trkpt lat="45.06141635993876" lon="9.697531491104254"><ele>46.8</ele><time>2026-04-09T07:45:43.974Z</time></trkpt><trkpt lat="45.0613718622728" lon="9.697645845980654"><ele>47.4</ele><time>2026-04-09T07:45:45.974Z</time></trkpt><trkpt lat="45.06132015947868" lon="9.697759105543055"><ele>48.0</ele><time>2026-04-09T07:45:47.973Z</time></trkpt><trkpt lat="45.06126664104328" lon="9.697863122518813"><ele>48.0</ele><time>2026-04-09T07:45:49.973Z</time></trkpt><trkpt lat="45.06120790524279" lon="9.697969324703973"><ele>48.0</ele><time>2026-04-09T07:45:51.972Z</time></trkpt><trkpt lat="45.06115060857225" lon="9.698071530157826"><ele>48.0</ele><time>2026-04-09T07:45:53.972Z</time></trkpt><trkpt lat="45.06109463927833" lon="9.698168059644122"><ele>48.0</ele><time>2026-04-09T07:45:55.972Z</time></trkpt><trkpt lat="45.061036767309595" lon="9.69826777587488"><ele>48.0</ele><time>2026-04-09T07:45:57.971Z</time></trkpt><trkpt lat="45.0609820186485" lon="9.698377884561149"><ele>48.0</ele><time>2026-04-09T07:45:59.971Z</time></trkpt><trkpt lat="45.060922833721946" lon="9.698483371117467"><ele>48.0</ele><time>2026-04-09T07:46:01.971Z</time></trkpt><trkpt lat="45.060869810531386" lon="9.698583185325498"><ele>48.0</ele><time>2026-04-09T07:46:03.971Z</time></trkpt><trkpt lat="45.0608121857033" lon="9.69868606534309"><ele>48.0</ele><time>2026-04-09T07:46:05.97Z</time></trkpt><trkpt lat="45.06075651669879" lon="9.698788095088599"><ele>48.0</ele><time>2026-04-09T07:46:07.97Z</time></trkpt><trkpt lat="45.060703441284986" lon="9.698890046626499"><ele>48.2</ele><time>2026-04-09T07:46:09.97Z</time></trkpt><trkpt lat="45.060642114585455" lon="9.698998814164408"><ele>48.4</ele><time>2026-04-09T07:46:11.97Z</time></trkpt><trkpt lat="45.060582597581146" lon="9.699110202829605"><ele>48.6</ele><time>2026-04-09T07:46:13.97Z</time></trkpt><trkpt lat="45.06052890795071" lon="9.699219691166153"><ele>48.800000000000004</ele><time>2026-04-09T07:46:15.97Z</time></trkpt><trkpt lat="45.06046370345021" lon="9.699325188904421"><ele>49.0</ele><time>2026-04-09T07:46:17.97Z</time></trkpt><trkpt lat="45.06039696812997" lon="9.699423290682033"><ele>49.0</ele><time>2026-04-09T07:46:19.97Z</time></trkpt><trkpt lat="45.060337938072145" lon="9.69952776183194"><ele>49.0</ele><time>2026-04-09T07:46:21.969Z</time></trkpt><trkpt lat="45.06027557373408" lon="9.699618795016688"><ele>49.0</ele><time>2026-04-09T07:46:23.969Z</time></trkpt><trkpt lat="45.06021613322244" lon="9.6997206798506"><ele>49.0</ele><time>2026-04-09T07:46:25.969Z</time></trkpt><trkpt lat="45.060163888233035" lon="9.699823995220548"><ele>49.0</ele><time>2026-04-09T07:46:27.969Z</time></trkpt><trkpt lat="45.060110983354086" lon="9.699921902435047"><ele>48.99999999999999</ele><time>2026-04-09T07:46:29.969Z</time></trkpt><trkpt lat="45.06005203132085" lon="9.700009748520081"><ele>49.0</ele><time>2026-04-09T07:46:31.969Z</time></trkpt><trkpt lat="45.0600167156328" lon="9.70008957354865"><ele>49.0</ele><time>2026-04-09T07:46:33.969Z</time></trkpt><trkpt lat="45.05996844556739" lon="9.700174185437527"><ele>49.0</ele><time>2026-04-09T07:46:35.969Z</time></trkpt><trkpt lat="45.05991927943887" lon="9.700272074618479"><ele>48.99999999999999</ele><time>2026-04-09T07:46:37.969Z</time></trkpt><trkpt lat="45.059869852791984" lon="9.700379449394585"><ele>49.0</ele><time>2026-04-09T07:46:39.969Z</time></trkpt><trkpt lat="45.059808125051504" lon="9.700470854574373"><ele>49.33333333333333</ele><time>2026-04-09T07:46:41.968Z</time></trkpt><trkpt lat="45.05975257246964" lon="9.700566059934136"><ele>49.666666666666664</ele><time>2026-04-09T07:46:43.968Z</time></trkpt><trkpt lat="45.059708785777474" lon="9.700675856456604"><ele>50.0</ele><time>2026-04-09T07:46:45.968Z</time></trkpt><trkpt lat="45.059663554585015" lon="9.700786601919441"><ele>50.33333333333333</ele><time>2026-04-09T07:46:47.968Z</time></trkpt><trkpt lat="45.05963264674177" lon="9.700900777313134"><ele>50.666666666666664</ele><time>2026-04-09T07:46:49.968Z</time></trkpt><trkpt lat="45.05959731290091" lon="9.701007620360645"><ele>51.0</ele><time>2026-04-09T07:46:51.968Z</time></trkpt><trkpt lat="45.05958334219129" lon="9.701137503360252"><ele>51.599999999999994</ele><time>2026-04-09T07:46:53.968Z</time></trkpt><trkpt lat="45.05954683085392" lon="9.70125475958235"><ele>52.2</ele><time>2026-04-09T07:46:55.968Z</time></trkpt><trkpt lat="45.05950354068383" lon="9.701371725505602"><ele>52.800000000000004</ele><time>2026-04-09T07:46:57.968Z</time></trkpt><trkpt lat="45.05946818907898" lon="9.701490670163551"><ele>53.400000000000006</ele><time>2026-04-09T07:46:59.968Z</time></trkpt><trkpt lat="45.05943314993511" lon="9.701609439866118"><ele>54.0</ele><time>2026-04-09T07:47:01.968Z</time></trkpt><trkpt lat="45.059394039969746" lon="9.701721403049664"><ele>54.0</ele><time>2026-04-09T07:47:03.968Z</time></trkpt><trkpt lat="45.05935878929384" lon="9.701846982749524"><ele>54.00000000000001</ele><time>2026-04-09T07:47:05.968Z</time></trkpt><trkpt lat="45.05933135145362" lon="9.701977665769917"><ele>54.00000000000001</ele><time>2026-04-09T07:47:07.967Z</time></trkpt><trkpt lat="45.059300275394314" lon="9.702107509131215"><ele>54.0</ele><time>2026-04-09T07:47:09.967Z</time></trkpt><trkpt lat="45.059250246538966" lon="9.702230454695798"><ele>54.0</ele><time>2026-04-09T07:47:11.967Z</time></trkpt><trkpt lat="45.059205279716494" lon="9.702351569582842"><ele>53.833333333333336</ele><time>2026-04-09T07:47:13.967Z</time></trkpt><trkpt lat="45.05913671715958" lon="9.702427395699717"><ele>53.66666666666667</ele><time>2026-04-09T07:47:15.967Z</time></trkpt><trkpt lat="45.05905323270338" lon="9.702355952392702"><ele>53.5</ele><time>2026-04-09T07:47:17.967Z</time></trkpt><trkpt lat="45.05899319591936" lon="9.702261939847297"><ele>53.333333333333336</ele><time>2026-04-09T07:47:19.967Z</time></trkpt><trkpt lat="45.05892821645253" lon="9.702173287436956"><ele>53.16666666666667</ele><time>2026-04-09T07:47:21.967Z</time></trkpt><trkpt lat="45.05887516290598" lon="9.702107273412043"><ele>53.0</ele><time>2026-04-09T07:47:23.967Z</time></trkpt><trkpt lat="45.058798293446635" lon="9.702078050068835"><ele>52.8</ele><time>2026-04-09T07:47:25.967Z</time></trkpt><trkpt lat="45.05872872864586" lon="9.702039064067057"><ele>52.599999999999994</ele><time>2026-04-09T07:47:27.967Z</time></trkpt><trkpt lat="45.05866688770839" lon="9.702004406759817"><ele>52.400000000000006</ele><time>2026-04-09T07:47:29.967Z</time></trkpt><trkpt lat="45.05860354249767" lon="9.701968906379035"><ele>52.2</ele><time>2026-04-09T07:47:31.967Z</time></trkpt><trkpt lat="45.05865911345147" lon="9.702096523190683"><ele>52.0</ele><time>2026-04-09T07:47:33.967Z</time></trkpt><trkpt lat="45.05846163062771" lon="9.701643876557867"><ele>51.83333333333333</ele><time>2026-04-09T07:47:40.967Z</time></trkpt><trkpt lat="45.05847374445143" lon="9.701546459046481"><ele>51.666666666666664</ele><time>2026-04-09T07:47:42.967Z</time></trkpt><trkpt lat="45.05849024449453" lon="9.701460243442648"><ele>51.5</ele><time>2026-04-09T07:47:44.966Z</time></trkpt><trkpt lat="45.058502229707834" lon="9.701354346763422"><ele>51.33333333333333</ele><time>2026-04-09T07:47:47.966Z</time></trkpt><trkpt lat="45.058584832382294" lon="9.70140595498376"><ele>51.166666666666664</ele><time>2026-04-09T07:47:51.966Z</time></trkpt><trkpt lat="45.05863717811367" lon="9.701480087812687"><ele>51.0</ele><time>2026-04-09T07:47:53.966Z</time></trkpt><trkpt lat="45.05870441391487" lon="9.70155332711313"><ele>51.0</ele><time>2026-04-09T07:47:55.966Z</time></trkpt><trkpt lat="45.058760090453895" lon="9.701629032502284"><ele>51.0</ele><time>2026-04-09T07:47:57.966Z</time></trkpt><trkpt lat="45.05880939407064" lon="9.701690149189137"><ele>51.0</ele><time>2026-04-09T07:47:59.966Z</time></trkpt><trkpt lat="45.05886159701769" lon="9.7017581754038"><ele>51.0</ele><time>2026-04-09T07:48:01.966Z</time></trkpt><trkpt lat="45.05891871304335" lon="9.70182432577263"><ele>51.0</ele><time>2026-04-09T07:48:03.966Z</time></trkpt><trkpt lat="45.058977028579456" lon="9.701893988426907"><ele>51.0</ele><time>2026-04-09T07:48:05.966Z</time></trkpt><trkpt lat="45.059031851853156" lon="9.701957540880793"><ele>51.0</ele><time>2026-04-09T07:48:07.966Z</time></trkpt><trkpt lat="45.05908882706887" lon="9.70201964251926"><ele>51.285714285714285</ele><time>2026-04-09T07:48:09.966Z</time></trkpt><trkpt lat="45.059139848908714" lon="9.7020769188422"><ele>51.57142857142857</ele><time>2026-04-09T07:48:11.966Z</time></trkpt><trkpt lat="45.059198648619464" lon="9.702141950663341"><ele>51.85714285714286</ele><time>2026-04-09T07:48:13.966Z</time></trkpt><trkpt lat="45.05925725736745" lon="9.70220695455874"><ele>52.14285714285714</ele><time>2026-04-09T07:48:15.966Z</time></trkpt><trkpt lat="45.05931489709277" lon="9.702274057403864"><ele>52.42857142857142</ele><time>2026-04-09T07:48:17.966Z</time></trkpt><trkpt lat="45.059370320440124" lon="9.702329589156884"><ele>52.714285714285715</ele><time>2026-04-09T07:48:19.966Z</time></trkpt><trkpt lat="45.059434008268525" lon="9.702392411360655"><ele>53.0</ele><time>2026-04-09T07:48:21.966Z</time></trkpt><trkpt lat="45.05949300499297" lon="9.70244077266998"><ele>53.00000000000001</ele><time>2026-04-09T07:48:23.965Z</time></trkpt><trkpt lat="45.05955884558511" lon="9.702491511408208"><ele>53.0</ele><time>2026-04-09T07:48:25.965Z</time></trkpt><trkpt lat="45.05962985844763" lon="9.702543356990248"><ele>53.0</ele><time>2026-04-09T07:48:27.965Z</time></trkpt><trkpt lat="45.059703876633996" lon="9.702602826421849"><ele>53.0</ele><time>2026-04-09T07:48:29.965Z</time></trkpt><trkpt lat="45.05978050541162" lon="9.702653284994074"><ele>53.00000000000001</ele><time>2026-04-09T07:48:31.965Z</time></trkpt><trkpt lat="45.05985247230786" lon="9.702712105386059"><ele>53.0</ele><time>2026-04-09T07:48:33.965Z</time></trkpt><trkpt lat="45.05992734671563" lon="9.702758817803929"><ele>51.00000000000001</ele><time>2026-04-09T07:48:35.965Z</time></trkpt><trkpt lat="45.06000354890205" lon="9.702814297371303"><ele>49.0</ele><time>2026-04-09T07:48:37.966Z</time></trkpt><trkpt lat="45.06007660245455" lon="9.70286786248851"><ele>47.0</ele><time>2026-04-09T07:48:39.966Z</time></trkpt><trkpt lat="45.060150398738024" lon="9.702910534181475"><ele>45.0</ele><time>2026-04-09T07:48:41.966Z</time></trkpt><trkpt lat="45.06022297991622" lon="9.702961993734162"><ele>43.0</ele><time>2026-04-09T07:48:43.967Z</time></trkpt><trkpt lat="45.06029855161178" lon="9.703022104892474"><ele>41.0</ele><time>2026-04-09T07:48:45.966Z</time></trkpt><trkpt lat="45.06037106200202" lon="9.703080500403338"><ele>41.0</ele><time>2026-04-09T07:48:47.966Z</time></trkpt><trkpt lat="45.060444310393045" lon="9.703127154416714"><ele>41.0</ele><time>2026-04-09T07:48:49.965Z</time></trkpt><trkpt lat="45.06051600648999" lon="9.703185716754334"><ele>41.0</ele><time>2026-04-09T07:48:51.965Z</time></trkpt><trkpt lat="45.06058546845008" lon="9.703235191224662"><ele>41.0</ele><time>2026-04-09T07:48:53.965Z</time></trkpt><trkpt lat="45.06065968680335" lon="9.703287050057051"><ele>41.0</ele><time>2026-04-09T07:48:55.965Z</time></trkpt><trkpt lat="45.06073464236886" lon="9.703334769736044"><ele>41.0</ele><time>2026-04-09T07:48:57.965Z</time></trkpt><trkpt lat="45.060810532494294" lon="9.703391830846725"><ele>41.0</ele><time>2026-04-09T07:48:59.965Z</time></trkpt><trkpt lat="45.06088479123765" lon="9.703448297139412"><ele>41.0</ele><time>2026-04-09T07:49:01.965Z</time></trkpt><trkpt lat="45.060958308098805" lon="9.703503335184623"><ele>41.0</ele><time>2026-04-09T07:49:03.965Z</time></trkpt><trkpt lat="45.061037798582404" lon="9.70355260824293"><ele>41.0</ele><time>2026-04-09T07:49:05.965Z</time></trkpt><trkpt lat="45.06110931678414" lon="9.703604553677348"><ele>41.0</ele><time>2026-04-09T07:49:07.965Z</time></trkpt><trkpt lat="45.061174815515365" lon="9.703652100546831"><ele>41.0</ele><time>2026-04-09T07:49:09.965Z</time></trkpt><trkpt lat="45.061247727334774" lon="9.703712640911396"><ele>41.166666666666664</ele><time>2026-04-09T07:49:11.965Z</time></trkpt><trkpt lat="45.061310051934065" lon="9.703772411751665"><ele>41.33333333333333</ele><time>2026-04-09T07:49:13.965Z</time></trkpt><trkpt lat="45.06137425915943" lon="9.703827947218953"><ele>41.5</ele><time>2026-04-09T07:49:15.965Z</time></trkpt><trkpt lat="45.06144915537706" lon="9.70388243748713"><ele>41.666666666666664</ele><time>2026-04-09T07:49:17.965Z</time></trkpt><trkpt lat="45.06152502017736" lon="9.703927399591082"><ele>41.833333333333336</ele><time>2026-04-09T07:49:19.965Z</time></trkpt><trkpt lat="45.06159719064726" lon="9.703987118686683"><ele>42.0</ele><time>2026-04-09T07:49:21.965Z</time></trkpt><trkpt lat="45.06167271611174" lon="9.704044672696797"><ele>42.833333333333336</ele><time>2026-04-09T07:49:23.966Z</time></trkpt><trkpt lat="45.06174639810171" lon="9.704100546666393"><ele>43.666666666666664</ele><time>2026-04-09T07:49:25.965Z</time></trkpt><trkpt lat="45.061825294654106" lon="9.70416082688204"><ele>44.5</ele><time>2026-04-09T07:49:27.965Z</time></trkpt><trkpt lat="45.061907405534186" lon="9.70421126072423"><ele>45.33333333333333</ele><time>2026-04-09T07:49:29.965Z</time></trkpt><trkpt lat="45.06198207048668" lon="9.704272380623985"><ele>46.166666666666664</ele><time>2026-04-09T07:49:31.965Z</time></trkpt><trkpt lat="45.0620626808531" lon="9.70431765733753"><ele>47.0</ele><time>2026-04-09T07:49:33.965Z</time></trkpt><trkpt lat="45.06214201008704" lon="9.704383293178166"><ele>46.8</ele><time>2026-04-09T07:49:35.965Z</time></trkpt><trkpt lat="45.062223203825646" lon="9.704449750445354"><ele>46.6</ele><time>2026-04-09T07:49:37.965Z</time></trkpt><trkpt lat="45.062300066909714" lon="9.704502114742445"><ele>46.4</ele><time>2026-04-09T07:49:39.965Z</time></trkpt><trkpt lat="45.06237835740822" lon="9.704550491152053"><ele>46.199999999999996</ele><time>2026-04-09T07:49:41.965Z</time></trkpt><trkpt lat="45.06246388114729" lon="9.70460824393961"><ele>46.0</ele><time>2026-04-09T07:49:43.965Z</time></trkpt><trkpt lat="45.06254320541469" lon="9.704674097617051"><ele>46.66666666666667</ele><time>2026-04-09T07:49:45.965Z</time></trkpt><trkpt lat="45.062620601998624" lon="9.704732474959252"><ele>47.333333333333336</ele><time>2026-04-09T07:49:47.965Z</time></trkpt><trkpt lat="45.06269747561414" lon="9.704788361528507"><ele>48.0</ele><time>2026-04-09T07:49:49.965Z</time></trkpt><trkpt lat="45.062774951337154" lon="9.704845562527485"><ele>48.66666666666667</ele><time>2026-04-09T07:49:51.965Z</time></trkpt><trkpt lat="45.062851320369" lon="9.704902176165595"><ele>49.333333333333336</ele><time>2026-04-09T07:49:53.965Z</time></trkpt><trkpt lat="45.062927440014576" lon="9.704957891183321"><ele>50.0</ele><time>2026-04-09T07:49:55.965Z</time></trkpt><trkpt lat="45.06299835135654" lon="9.705010877974615"><ele>50.00000000000001</ele><time>2026-04-09T07:49:57.965Z</time></trkpt><trkpt lat="45.06307685110303" lon="9.705062284097194"><ele>50.0</ele><time>2026-04-09T07:49:59.965Z</time></trkpt><trkpt lat="45.06315929160824" lon="9.705119814516548"><ele>50.0</ele><time>2026-04-09T07:50:01.965Z</time></trkpt><trkpt lat="45.063241785218686" lon="9.705165656959077"><ele>50.0</ele><time>2026-04-09T07:50:03.964Z</time></trkpt><trkpt lat="45.0633137497418" lon="9.705223185100465"><ele>50.00000000000001</ele><time>2026-04-09T07:50:05.964Z</time></trkpt><trkpt lat="45.063388847000546" lon="9.705275205825457"><ele>50.0</ele><time>2026-04-09T07:50:07.964Z</time></trkpt><trkpt lat="45.06346740407836" lon="9.705335881763617"><ele>49.333333333333336</ele><time>2026-04-09T07:50:09.964Z</time></trkpt><trkpt lat="45.06353129592006" lon="9.70539840781747"><ele>48.66666666666667</ele><time>2026-04-09T07:50:11.964Z</time></trkpt><trkpt lat="45.063615547631976" lon="9.705452022456429"><ele>48.0</ele><time>2026-04-09T07:50:13.964Z</time></trkpt><trkpt lat="45.06369844582575" lon="9.705504817200515"><ele>47.333333333333336</ele><time>2026-04-09T07:50:15.964Z</time></trkpt><trkpt lat="45.06376854956301" lon="9.705561887741771"><ele>46.66666666666667</ele><time>2026-04-09T07:50:17.964Z</time></trkpt><trkpt lat="45.06384097945863" lon="9.70561235507535"><ele>46.0</ele><time>2026-04-09T07:50:19.964Z</time></trkpt><trkpt lat="45.06392068481504" lon="9.705670856455828"><ele>46.0</ele><time>2026-04-09T07:50:21.964Z</time></trkpt><trkpt lat="45.06399889862096" lon="9.705728255029664"><ele>46.0</ele><time>2026-04-09T07:50:23.964Z</time></trkpt><trkpt lat="45.06407862040549" lon="9.705787048630448"><ele>46.0</ele><time>2026-04-09T07:50:25.964Z</time></trkpt><trkpt lat="45.06416334708266" lon="9.70584353079662"><ele>46.0</ele><time>2026-04-09T07:50:27.964Z</time></trkpt><trkpt lat="45.06424346855116" lon="9.705905312646097"><ele>46.0</ele><time>2026-04-09T07:50:29.964Z</time></trkpt><trkpt lat="45.06432364580276" lon="9.70597395027732"><ele>46.199999999999996</ele><time>2026-04-09T07:50:31.964Z</time></trkpt><trkpt lat="45.06440507503875" lon="9.706035423330633"><ele>46.4</ele><time>2026-04-09T07:50:33.964Z</time></trkpt><trkpt lat="45.0644894556128" lon="9.70609548732954"><ele>46.6</ele><time>2026-04-09T07:50:35.964Z</time></trkpt><trkpt lat="45.0645732185976" lon="9.70615569778091"><ele>46.8</ele><time>2026-04-09T07:50:37.964Z</time></trkpt><trkpt lat="45.06466552336622" lon="9.706216649186715"><ele>47.0</ele><time>2026-04-09T07:50:39.964Z</time></trkpt><trkpt lat="45.06474573123448" lon="9.70627885236909"><ele>47.0</ele><time>2026-04-09T07:50:41.964Z</time></trkpt><trkpt lat="45.064826518483706" lon="9.706335774575768"><ele>47.0</ele><time>2026-04-09T07:50:43.964Z</time></trkpt><trkpt lat="45.064900219894675" lon="9.706393217400898"><ele>47.0</ele><time>2026-04-09T07:50:45.964Z</time></trkpt><trkpt lat="45.0649908413131" lon="9.706453993150232"><ele>47.0</ele><time>2026-04-09T07:50:47.964Z</time></trkpt><trkpt lat="45.06508054276384" lon="9.706518668971471"><ele>47.0</ele><time>2026-04-09T07:50:49.964Z</time></trkpt><trkpt lat="45.06517045096772" lon="9.706579237997364"><ele>46.6</ele><time>2026-04-09T07:50:51.964Z</time></trkpt><trkpt lat="45.065257881498304" lon="9.706642531783277"><ele>46.2</ele><time>2026-04-09T07:50:53.964Z</time></trkpt><trkpt lat="45.06533674565592" lon="9.706697332667067"><ele>45.8</ele><time>2026-04-09T07:50:55.964Z</time></trkpt><trkpt lat="45.06541854845285" lon="9.706760680001304"><ele>45.4</ele><time>2026-04-09T07:50:57.963Z</time></trkpt><trkpt lat="45.06549861085617" lon="9.706820548063567"><ele>45.0</ele><time>2026-04-09T07:50:59.963Z</time></trkpt><trkpt lat="45.06557557262104" lon="9.706876742970323"><ele>45.2</ele><time>2026-04-09T07:51:01.963Z</time></trkpt><trkpt lat="45.06565788202525" lon="9.70693285771023"><ele>45.4</ele><time>2026-04-09T07:51:03.963Z</time></trkpt><trkpt lat="45.065744357472" lon="9.706996978000971"><ele>45.599999999999994</ele><time>2026-04-09T07:51:05.963Z</time></trkpt><trkpt lat="45.06582852707448" lon="9.707063602172218"><ele>45.8</ele><time>2026-04-09T07:51:07.963Z</time></trkpt><trkpt lat="45.06591992067074" lon="9.70713288271101"><ele>46.0</ele><time>2026-04-09T07:51:09.963Z</time></trkpt><trkpt lat="45.06600675634574" lon="9.707197833543555"><ele>46.0</ele><time>2026-04-09T07:51:11.963Z</time></trkpt><trkpt lat="45.06608654368892" lon="9.707251018469188"><ele>46.0</ele><time>2026-04-09T07:51:13.963Z</time></trkpt><trkpt lat="45.066163367157074" lon="9.707300530822282"><ele>46.0</ele><time>2026-04-09T07:51:15.963Z</time></trkpt><trkpt lat="45.066242193566964" lon="9.707369196643059"><ele>46.0</ele><time>2026-04-09T07:51:17.963Z</time></trkpt><trkpt lat="45.06633798440517" lon="9.707429685136695"><ele>46.0</ele><time>2026-04-09T07:51:19.963Z</time></trkpt><trkpt lat="45.06642453051204" lon="9.707500543503338"><ele>46.0</ele><time>2026-04-09T07:51:21.963Z</time></trkpt><trkpt lat="45.066515353238955" lon="9.70756381543956"><ele>46.0</ele><time>2026-04-09T07:51:23.963Z</time></trkpt><trkpt lat="45.06660426201226" lon="9.707620985993072"><ele>46.0</ele><time>2026-04-09T07:51:25.963Z</time></trkpt><trkpt lat="45.066690248505495" lon="9.70768960240766"><ele>46.0</ele><time>2026-04-09T07:51:27.963Z</time></trkpt><trkpt lat="45.0667813589698" lon="9.70775988712891"><ele>46.0</ele><time>2026-04-09T07:51:29.963Z</time></trkpt><trkpt lat="45.06687440794799" lon="9.707827715131671"><ele>46.4</ele><time>2026-04-09T07:51:31.963Z</time></trkpt><trkpt lat="45.066968963335995" lon="9.707897952685402"><ele>46.8</ele><time>2026-04-09T07:51:33.962Z</time></trkpt><trkpt lat="45.067064801327824" lon="9.707966352787935"><ele>47.199999999999996</ele><time>2026-04-09T07:51:35.962Z</time></trkpt><trkpt lat="45.06716330111648" lon="9.708033403291811"><ele>47.599999999999994</ele><time>2026-04-09T07:51:37.962Z</time></trkpt><trkpt lat="45.067256827267535" lon="9.708109981160291"><ele>48.0</ele><time>2026-04-09T07:51:39.962Z</time></trkpt><trkpt lat="45.067355595996936" lon="9.708183694001908"><ele>48.0</ele><time>2026-04-09T07:51:41.962Z</time></trkpt><trkpt lat="45.067452378644475" lon="9.708261773424136"><ele>48.0</ele><time>2026-04-09T07:51:43.962Z</time></trkpt><trkpt lat="45.06754178561634" lon="9.708340521946978"><ele>48.0</ele><time>2026-04-09T07:51:45.962Z</time></trkpt><trkpt lat="45.06763529865693" lon="9.708414530238104"><ele>48.0</ele><time>2026-04-09T07:51:47.962Z</time></trkpt><trkpt lat="45.06772817059201" lon="9.70849786131438"><ele>48.0</ele><time>2026-04-09T07:51:49.962Z</time></trkpt><trkpt lat="45.06782890135858" lon="9.708581914545192"><ele>49.0</ele><time>2026-04-09T07:51:51.962Z</time></trkpt><trkpt lat="45.067925716363845" lon="9.708651901595253"><ele>50.0</ele><time>2026-04-09T07:51:53.962Z</time></trkpt><trkpt lat="45.06802449975108" lon="9.7087297248188"><ele>51.0</ele><time>2026-04-09T07:51:55.962Z</time></trkpt><trkpt lat="45.06812138934315" lon="9.708812497262686"><ele>52.0</ele><time>2026-04-09T07:51:57.962Z</time></trkpt><trkpt lat="45.06822425112219" lon="9.708898095657316"><ele>51.666666666666664</ele><time>2026-04-09T07:51:59.962Z</time></trkpt><trkpt lat="45.06828633779218" lon="9.70892042217293"><ele>51.33333333333333</ele><time>2026-04-09T07:52:00.962Z</time></trkpt><trkpt lat="45.06839480456452" lon="9.70900077857768"><ele>51.0</ele><time>2026-04-09T07:52:02.962Z</time></trkpt><trkpt lat="45.06845327431447" lon="9.70904425245235"><ele>50.66666666666667</ele><time>2026-04-09T07:52:03.962Z</time></trkpt><trkpt lat="45.068509461297495" lon="9.7091572603152"><ele>50.333333333333336</ele><time>2026-04-09T07:52:04.962Z</time></trkpt><trkpt lat="45.06854308124611" lon="9.709253448364858"><ele>50.0</ele><time>2026-04-09T07:52:05.962Z</time></trkpt><trkpt lat="45.06857010613308" lon="9.709349785374297"><ele>50.4</ele><time>2026-04-09T07:52:06.962Z</time></trkpt><trkpt lat="45.06860423368531" lon="9.709506775729372"><ele>50.8</ele><time>2026-04-09T07:52:08.962Z</time></trkpt><trkpt lat="45.06863628668246" lon="9.70964523145587"><ele>51.2</ele><time>2026-04-09T07:52:10.962Z</time></trkpt><trkpt lat="45.06866749199874" lon="9.70976608921635"><ele>51.6</ele><time>2026-04-09T07:52:12.961Z</time></trkpt><trkpt lat="45.06870667397939" lon="9.709874024961573"><ele>52.0</ele><time>2026-04-09T07:52:14.961Z</time></trkpt><trkpt lat="45.06876002186503" lon="9.709982448903983"><ele>52.0</ele><time>2026-04-09T07:52:16.961Z</time></trkpt><trkpt lat="45.068820940090326" lon="9.710079413482083"><ele>52.0</ele><time>2026-04-09T07:52:18.961Z</time></trkpt><trkpt lat="45.06888765122723" lon="9.710172652280635"><ele>52.0</ele><time>2026-04-09T07:52:20.961Z</time></trkpt><trkpt lat="45.06893891898361" lon="9.710284735841958"><ele>52.0</ele><time>2026-04-09T07:52:22.961Z</time></trkpt><trkpt lat="45.06900283612589" lon="9.71037659159001"><ele>52.0</ele><time>2026-04-09T07:52:24.961Z</time></trkpt><trkpt lat="45.069057681358466" lon="9.710460434015873"><ele>51.714285714285715</ele><time>2026-04-09T07:52:26.961Z</time></trkpt><trkpt lat="45.06911048198341" lon="9.710533305123645"><ele>51.42857142857143</ele><time>2026-04-09T07:52:28.961Z</time></trkpt><trkpt lat="45.06915827627922" lon="9.710600222212843"><ele>51.142857142857146</ele><time>2026-04-09T07:52:30.961Z</time></trkpt><trkpt lat="45.069210275271544" lon="9.710538562757069"><ele>50.85714285714286</ele><time>2026-04-09T07:52:34.961Z</time></trkpt><trkpt lat="45.0692594360748" lon="9.710478584412675"><ele>50.57142857142857</ele><time>2026-04-09T07:52:36.961Z</time></trkpt><trkpt lat="45.06929008620014" lon="9.710399026097303"><ele>50.28571428571429</ele><time>2026-04-09T07:52:38.961Z</time></trkpt><trkpt lat="45.06923204379174" lon="9.710327556159331"><ele>50.0</ele><time>2026-04-09T07:52:40.961Z</time></trkpt><trkpt lat="45.06914562243011" lon="9.710284205695682"><ele>50.4</ele><time>2026-04-09T07:52:42.961Z</time></trkpt><trkpt lat="45.069058047945745" lon="9.71022061921427"><ele>50.8</ele><time>2026-04-09T07:52:44.961Z</time></trkpt><trkpt lat="45.06896933138129" lon="9.710127203475684"><ele>51.2</ele><time>2026-04-09T07:52:46.961Z</time></trkpt><trkpt lat="45.06895821608611" lon="9.709921753511175"><ele>51.6</ele><time>2026-04-09T07:52:48.961Z</time></trkpt><trkpt lat="45.06891721457113" lon="9.709845956118203"><ele>52.0</ele><time>2026-04-09T07:52:49.962Z</time></trkpt><trkpt lat="45.06888436116396" lon="9.709711757860555"><ele>51.99999999999999</ele><time>2026-04-09T07:52:51.961Z</time></trkpt><trkpt lat="45.06888648159352" lon="9.709560600065196"><ele>52.0</ele><time>2026-04-09T07:52:53.961Z</time></trkpt><trkpt lat="45.06889793396825" lon="9.70946784238765"><ele>52.0</ele><time>2026-04-09T07:52:54.961Z</time></trkpt><trkpt lat="45.06895179589344" lon="9.709307258849709"><ele>52.0</ele><time>2026-04-09T07:52:56.962Z</time></trkpt><trkpt lat="45.068985968300154" lon="9.709214309311015"><ele>51.99999999999999</ele><time>2026-04-09T07:52:57.962Z</time></trkpt><trkpt lat="45.06902069478132" lon="9.70912074406016"><ele>52.0</ele><time>2026-04-09T07:52:58.961Z</time></trkpt><trkpt lat="45.06905642807906" lon="9.709024383270851"><ele>51.666666666666664</ele><time>2026-04-09T07:52:59.961Z</time></trkpt><trkpt lat="45.06909041257703" lon="9.708932738396998"><ele>51.33333333333333</ele><time>2026-04-09T07:53:00.961Z</time></trkpt><trkpt lat="45.06914195181994" lon="9.708796340668746"><ele>51.0</ele><time>2026-04-09T07:53:02.962Z</time></trkpt><trkpt lat="45.069186869709135" lon="9.70871301108009"><ele>50.66666666666667</ele><time>2026-04-09T07:53:04.962Z</time></trkpt><trkpt lat="45.06926840024106" lon="9.708667529211528"><ele>50.333333333333336</ele><time>2026-04-09T07:53:07.961Z</time></trkpt><trkpt lat="45.06934190820258" lon="9.708641195995998"><ele>50.0</ele><time>2026-04-09T07:53:09.961Z</time></trkpt><trkpt lat="45.069423685920604" lon="9.70868353818481"><ele>49.66666666666667</ele><time>2026-04-09T07:53:12.961Z</time></trkpt><trkpt lat="45.06948965156926" lon="9.708734393065772"><ele>49.333333333333336</ele><time>2026-04-09T07:53:14.961Z</time></trkpt><trkpt lat="45.069544750072765" lon="9.708812682389741"><ele>49.0</ele><time>2026-04-09T07:53:16.961Z</time></trkpt><trkpt lat="45.06957166317202" lon="9.708904438737957"><ele>48.66666666666667</ele><time>2026-04-09T07:53:18.961Z</time></trkpt><trkpt lat="45.069596866642605" lon="9.709009505226373"><ele>48.333333333333336</ele><time>2026-04-09T07:53:20.961Z</time></trkpt><trkpt lat="45.06963154975776" lon="9.70913324896774"><ele>48.0</ele><time>2026-04-09T07:53:22.961Z</time></trkpt><trkpt lat="45.06966139348312" lon="9.709239726554243"><ele>48.0</ele><time>2026-04-09T07:53:24.961Z</time></trkpt><trkpt lat="45.06969884641888" lon="9.709339470956012"><ele>48.0</ele><time>2026-04-09T07:53:26.961Z</time></trkpt><trkpt lat="45.07006393355136" lon="9.709193866069478"><ele>48.2</ele><time>2026-04-09T07:53:27.961Z</time></trkpt><trkpt lat="45.070165762689896" lon="9.70923915502693"><ele>48.4</ele><time>2026-04-09T07:53:29.961Z</time></trkpt><trkpt lat="45.07026950428556" lon="9.70926599862485"><ele>48.6</ele><time>2026-04-09T07:53:31.961Z</time></trkpt><trkpt lat="45.07037760422035" lon="9.709294740720596"><ele>48.800000000000004</ele><time>2026-04-09T07:53:33.961Z</time></trkpt><trkpt lat="45.07047701100012" lon="9.70929154604749"><ele>49.0</ele><time>2026-04-09T07:53:35.961Z</time></trkpt><trkpt lat="45.07059849947605" lon="9.709477069048194"><ele>49.0</ele><time>2026-04-09T07:53:36.961Z</time></trkpt><trkpt lat="45.07066443843715" lon="9.709426074527753"><ele>49.0</ele><time>2026-04-09T07:53:38.961Z</time></trkpt><trkpt lat="45.07072629676392" lon="9.709374140205849"><ele>49.0</ele><time>2026-04-09T07:53:40.961Z</time></trkpt><trkpt lat="45.07079495018023" lon="9.7093167356239"><ele>49.0</ele><time>2026-04-09T07:53:44.96Z</time></trkpt><trkpt lat="45.07075308087191" lon="9.709083198717062"><ele>49.0</ele><time>2026-04-09T07:53:46.96Z</time></trkpt><trkpt lat="45.07083346332111" lon="9.709055437435934"><ele>49.0</ele><time>2026-04-09T07:53:49.96Z</time></trkpt><trkpt lat="45.07089225020213" lon="9.709019108888931"><ele>49.0</ele><time>2026-04-09T07:53:51.96Z</time></trkpt><trkpt lat="45.07095368043104" lon="9.708969986321492"><ele>49.0</ele><time>2026-04-09T07:53:53.96Z</time></trkpt><trkpt lat="45.071012862029505" lon="9.708925426767673"><ele>49.0</ele><time>2026-04-09T07:53:55.96Z</time></trkpt><trkpt lat="45.07107988187768" lon="9.708884522052076"><ele>49.0</ele><time>2026-04-09T07:53:57.96Z</time></trkpt><trkpt lat="45.071141781130024" lon="9.708827503735856"><ele>49.0</ele><time>2026-04-09T07:53:59.96Z</time></trkpt><trkpt lat="45.07120602993305" lon="9.708777972456074"><ele>49.0</ele><time>2026-04-09T07:54:01.96Z</time></trkpt><trkpt lat="45.071270717161184" lon="9.70872376434125"><ele>48.99999999999999</ele><time>2026-04-09T07:54:03.96Z</time></trkpt><trkpt lat="45.07133343829069" lon="9.70867371259304"><ele>49.0</ele><time>2026-04-09T07:54:05.96Z</time></trkpt><trkpt lat="45.07139663323067" lon="9.70862097879589"><ele>49.0</ele><time>2026-04-09T07:54:07.96Z</time></trkpt><trkpt lat="45.071467018834575" lon="9.708566894530323"><ele>49.0</ele><time>2026-04-09T07:54:09.96Z</time></trkpt><trkpt lat="45.071528572897755" lon="9.70850883821786"><ele>48.99999999999999</ele><time>2026-04-09T07:54:11.96Z</time></trkpt><trkpt lat="45.07159524920992" lon="9.708451495777636"><ele>49.0</ele><time>2026-04-09T07:54:13.96Z</time></trkpt><trkpt lat="45.07166242411718" lon="9.708396046962264"><ele>48.666666666666664</ele><time>2026-04-09T07:54:15.96Z</time></trkpt><trkpt lat="45.071739573292504" lon="9.708341557252261"><ele>48.33333333333333</ele><time>2026-04-09T07:54:17.96Z</time></trkpt><trkpt lat="45.07180803284166" lon="9.708286385116775"><ele>48.0</ele><time>2026-04-09T07:54:19.96Z</time></trkpt><trkpt lat="45.0718830229896" lon="9.708228197415819"><ele>47.666666666666664</ele><time>2026-04-09T07:54:21.96Z</time></trkpt><trkpt lat="45.07195913849054" lon="9.708172700697201"><ele>47.33333333333333</ele><time>2026-04-09T07:54:23.959Z</time></trkpt><trkpt lat="45.07202554159482" lon="9.70811944413453"><ele>47.0</ele><time>2026-04-09T07:54:25.959Z</time></trkpt><trkpt lat="45.07209069348662" lon="9.708063937107271"><ele>47.0</ele><time>2026-04-09T07:54:27.959Z</time></trkpt><trkpt lat="45.07216295169441" lon="9.708011193771513"><ele>47.0</ele><time>2026-04-09T07:54:29.959Z</time></trkpt><trkpt lat="45.07222934441516" lon="9.707956255432489"><ele>47.0</ele><time>2026-04-09T07:54:31.959Z</time></trkpt><trkpt lat="45.07229936169505" lon="9.707899236768252"><ele>47.0</ele><time>2026-04-09T07:54:33.959Z</time></trkpt><trkpt lat="45.072373027634875" lon="9.707842779645489"><ele>47.0</ele><time>2026-04-09T07:54:35.959Z</time></trkpt><trkpt lat="45.07244391993993" lon="9.707784200525307"><ele>47.0</ele><time>2026-04-09T07:54:37.959Z</time></trkpt><trkpt lat="45.07251810154927" lon="9.707727809675285"><ele>46.666666666666664</ele><time>2026-04-09T07:54:39.959Z</time></trkpt><trkpt lat="45.07259160182283" lon="9.707672184881758"><ele>46.33333333333333</ele><time>2026-04-09T07:54:41.959Z</time></trkpt><trkpt lat="45.07266041570755" lon="9.707611064004078"><ele>46.0</ele><time>2026-04-09T07:54:43.959Z</time></trkpt><trkpt lat="45.07274002638403" lon="9.707549383937598"><ele>45.666666666666664</ele><time>2026-04-09T07:54:45.959Z</time></trkpt><trkpt lat="45.07281269313651" lon="9.707496684104896"><ele>45.333333333333336</ele><time>2026-04-09T07:54:47.959Z</time></trkpt><trkpt lat="45.072892837677315" lon="9.70743115267511"><ele>45.0</ele><time>2026-04-09T07:54:49.959Z</time></trkpt><trkpt lat="45.07297252060166" lon="9.707363927711514"><ele>45.0</ele><time>2026-04-09T07:54:51.959Z</time></trkpt><trkpt lat="45.073051469363264" lon="9.707297612946473"><ele>45.0</ele><time>2026-04-09T07:54:53.959Z</time></trkpt><trkpt lat="45.07313059050088" lon="9.70723332503069"><ele>45.0</ele><time>2026-04-09T07:54:55.959Z</time></trkpt><trkpt lat="45.0732112132349" lon="9.70717176257865"><ele>45.0</ele><time>2026-04-09T07:54:57.958Z</time></trkpt><trkpt lat="45.073292677812894" lon="9.707110571842728"><ele>45.0</ele><time>2026-04-09T07:54:59.959Z</time></trkpt><trkpt lat="45.0733711976812" lon="9.707046976121925"><ele>44.8</ele><time>2026-04-09T07:55:01.959Z</time></trkpt><trkpt lat="45.073452307693735" lon="9.70697829613273"><ele>44.6</ele><time>2026-04-09T07:55:03.959Z</time></trkpt><trkpt lat="45.07353442826306" lon="9.70691847105966"><ele>44.400000000000006</ele><time>2026-04-09T07:55:05.959Z</time></trkpt><trkpt lat="45.073612974266204" lon="9.70685163261521"><ele>44.2</ele><time>2026-04-09T07:55:07.958Z</time></trkpt><trkpt lat="45.07369383078312" lon="9.70679018598466"><ele>44.0</ele><time>2026-04-09T07:55:09.958Z</time></trkpt><trkpt lat="45.07377330079731" lon="9.706726138520551"><ele>44.0</ele><time>2026-04-09T07:55:11.958Z</time></trkpt><trkpt lat="45.07385065874966" lon="9.706661798813101"><ele>44.0</ele><time>2026-04-09T07:55:13.958Z</time></trkpt><trkpt lat="45.07393353180892" lon="9.706595611603811"><ele>44.0</ele><time>2026-04-09T07:55:15.958Z</time></trkpt><trkpt lat="45.07401233251854" lon="9.70653259793825"><ele>44.0</ele><time>2026-04-09T07:55:17.958Z</time></trkpt><trkpt lat="45.074093909350424" lon="9.706468373725645"><ele>44.0</ele><time>2026-04-09T07:55:19.958Z</time></trkpt><trkpt lat="45.074175224706536" lon="9.706406814994153"><ele>44.166666666666664</ele><time>2026-04-09T07:55:21.958Z</time></trkpt><trkpt lat="45.074252822518375" lon="9.706344943987085"><ele>44.33333333333333</ele><time>2026-04-09T07:55:23.958Z</time></trkpt><trkpt lat="45.07432603254066" lon="9.706283915267809"><ele>44.5</ele><time>2026-04-09T07:55:25.958Z</time></trkpt><trkpt lat="45.0743954109195" lon="9.706220140298461"><ele>44.666666666666664</ele><time>2026-04-09T07:55:27.958Z</time></trkpt><trkpt lat="45.074471611660705" lon="9.706161971260556"><ele>44.833333333333336</ele><time>2026-04-09T07:55:29.958Z</time></trkpt><trkpt lat="45.07454033555254" lon="9.70610138015542"><ele>45.0</ele><time>2026-04-09T07:55:31.957Z</time></trkpt><trkpt lat="45.07459541896898" lon="9.706021522189834"><ele>45.0</ele><time>2026-04-09T07:55:33.957Z</time></trkpt><trkpt lat="45.07462678229646" lon="9.705928180460406"><ele>45.0</ele><time>2026-04-09T07:55:35.957Z</time></trkpt><trkpt lat="45.074652207941284" lon="9.705829279998728"><ele>45.0</ele><time>2026-04-09T07:55:37.957Z</time></trkpt><trkpt lat="45.07470038117521" lon="9.705762226798399"><ele>45.0</ele><time>2026-04-09T07:55:39.957Z</time></trkpt><trkpt lat="45.074778693084376" lon="9.705749270702201"><ele>45.0</ele><time>2026-04-09T07:55:41.957Z</time></trkpt><trkpt lat="45.07485635318005" lon="9.705775383606271"><ele>45.0</ele><time>2026-04-09T07:55:43.957Z</time></trkpt><trkpt lat="45.074933674863566" lon="9.70578240548826"><ele>45.5</ele><time>2026-04-09T07:55:45.957Z</time></trkpt><trkpt lat="45.07501162651855" lon="9.705733184284162"><ele>46.0</ele><time>2026-04-09T07:55:47.957Z</time></trkpt><trkpt lat="45.07509125726268" lon="9.705669786035998"><ele>46.5</ele><time>2026-04-09T07:55:49.957Z</time></trkpt><trkpt lat="45.075173176789285" lon="9.705603796990278"><ele>47.0</ele><time>2026-04-09T07:55:51.957Z</time></trkpt><trkpt lat="45.07525258541687" lon="9.705544473513429"><ele>47.5</ele><time>2026-04-09T07:55:53.957Z</time></trkpt><trkpt lat="45.075329050442036" lon="9.705483021014512"><ele>48.0</ele><time>2026-04-09T07:55:55.957Z</time></trkpt><trkpt lat="45.075407440905124" lon="9.705422463965524"><ele>48.0</ele><time>2026-04-09T07:55:57.957Z</time></trkpt><trkpt lat="45.075483088842525" lon="9.705352884678064"><ele>48.0</ele><time>2026-04-09T07:55:59.957Z</time></trkpt><trkpt lat="45.07555994043741" lon="9.705293068254388"><ele>48.0</ele><time>2026-04-09T07:56:01.957Z</time></trkpt><trkpt lat="45.07564063566405" lon="9.705223433111442"><ele>48.0</ele><time>2026-04-09T07:56:03.957Z</time></trkpt><trkpt lat="45.075716558387725" lon="9.705161486221122"><ele>48.0</ele><time>2026-04-09T07:56:05.957Z</time></trkpt><trkpt lat="45.07579387783811" lon="9.705090671622711"><ele>48.0</ele><time>2026-04-09T07:56:07.957Z</time></trkpt><trkpt lat="45.075874558818356" lon="9.70502530631015"><ele>48.0</ele><time>2026-04-09T07:56:09.956Z</time></trkpt><trkpt lat="45.07595083107808" lon="9.704957051343639"><ele>48.0</ele><time>2026-04-09T07:56:11.956Z</time></trkpt><trkpt lat="45.076020588627706" lon="9.704882002906075"><ele>48.0</ele><time>2026-04-09T07:56:13.956Z</time></trkpt><trkpt lat="45.07608982176662" lon="9.70481162658921"><ele>48.0</ele><time>2026-04-09T07:56:15.956Z</time></trkpt><trkpt lat="45.07616511887428" lon="9.70472802157799"><ele>48.0</ele><time>2026-04-09T07:56:17.956Z</time></trkpt><trkpt lat="45.07624363236461" lon="9.704651575876174"><ele>48.0</ele><time>2026-04-09T07:56:19.956Z</time></trkpt><trkpt lat="45.076320078643846" lon="9.7045707949752"><ele>48.0</ele><time>2026-04-09T07:56:21.956Z</time></trkpt><trkpt lat="45.07639299233827" lon="9.704487398609215"><ele>48.0</ele><time>2026-04-09T07:56:23.956Z</time></trkpt><trkpt lat="45.076465484123595" lon="9.704404866103285"><ele>48.0</ele><time>2026-04-09T07:56:25.956Z</time></trkpt><trkpt lat="45.076536895025825" lon="9.704316449796549"><ele>47.4</ele><time>2026-04-09T07:56:27.956Z</time></trkpt><trkpt lat="45.07660673230899" lon="9.704228814709392"><ele>46.8</ele><time>2026-04-09T07:56:29.956Z</time></trkpt><trkpt lat="45.076680125547526" lon="9.704135933196"><ele>46.2</ele><time>2026-04-09T07:56:31.956Z</time></trkpt><trkpt lat="45.07674436239811" lon="9.704045832237705"><ele>45.6</ele><time>2026-04-09T07:56:33.956Z</time></trkpt><trkpt lat="45.076812025358194" lon="9.703957358310769"><ele>45.0</ele><time>2026-04-09T07:56:35.956Z</time></trkpt><trkpt lat="45.076884681030926" lon="9.70386578368819"><ele>45.0</ele><time>2026-04-09T07:56:37.956Z</time></trkpt><trkpt lat="45.07695549540523" lon="9.703772523692772"><ele>45.0</ele><time>2026-04-09T07:56:39.956Z</time></trkpt><trkpt lat="45.07702301107786" lon="9.703682546161351"><ele>45.0</ele><time>2026-04-09T07:56:41.956Z</time></trkpt><trkpt lat="45.07708413061702" lon="9.703594440914857"><ele>45.0</ele><time>2026-04-09T07:56:43.956Z</time></trkpt><trkpt lat="45.077139277631076" lon="9.70350216003301"><ele>45.0</ele><time>2026-04-09T07:56:45.956Z</time></trkpt><trkpt lat="45.07720283171096" lon="9.70339409981744"><ele>44.8</ele><time>2026-04-09T07:56:47.955Z</time></trkpt><trkpt lat="45.077266260670605" lon="9.703286935233798"><ele>44.6</ele><time>2026-04-09T07:56:49.955Z</time></trkpt><trkpt lat="45.07733141536642" lon="9.703177645096407"><ele>44.400000000000006</ele><time>2026-04-09T07:56:51.955Z</time></trkpt><trkpt lat="45.077396930019745" lon="9.703070068682601"><ele>44.2</ele><time>2026-04-09T07:56:53.955Z</time></trkpt><trkpt lat="45.07745859103112" lon="9.702955529212527"><ele>44.0</ele><time>2026-04-09T07:56:55.955Z</time></trkpt><trkpt lat="45.07751653923732" lon="9.702839596401542"><ele>44.0</ele><time>2026-04-09T07:56:57.955Z</time></trkpt><trkpt lat="45.07766118810751" lon="9.702895989064299"><ele>44.0</ele><time>2026-04-09T07:56:58.955Z</time></trkpt><trkpt lat="45.077719049427756" lon="9.702775377367326"><ele>44.0</ele><time>2026-04-09T07:57:00.955Z</time></trkpt><trkpt lat="45.07777257174833" lon="9.702654673631255"><ele>44.0</ele><time>2026-04-09T07:57:02.956Z</time></trkpt><trkpt lat="45.0778247775019" lon="9.702529953329325"><ele>44.0</ele><time>2026-04-09T07:57:04.956Z</time></trkpt><trkpt lat="45.07787294475049" lon="9.702408508300165"><ele>44.0</ele><time>2026-04-09T07:57:06.956Z</time></trkpt><trkpt lat="45.07791926293814" lon="9.702290549943092"><ele>44.0</ele><time>2026-04-09T07:57:08.956Z</time></trkpt><trkpt lat="45.077963702037415" lon="9.702174330443075"><ele>44.0</ele><time>2026-04-09T07:57:10.955Z</time></trkpt><trkpt lat="45.0780080992537" lon="9.702059398144531"><ele>44.0</ele><time>2026-04-09T07:57:12.955Z</time></trkpt><trkpt lat="45.07805444674965" lon="9.701938274730487"><ele>44.400000000000006</ele><time>2026-04-09T07:57:14.956Z</time></trkpt><trkpt lat="45.07810024063467" lon="9.701815846152648"><ele>44.8</ele><time>2026-04-09T07:57:16.956Z</time></trkpt><trkpt lat="45.07814590239075" lon="9.701692566375284"><ele>45.2</ele><time>2026-04-09T07:57:18.956Z</time></trkpt><trkpt lat="45.0781910810792" lon="9.701566453209727"><ele>45.599999999999994</ele><time>2026-04-09T07:57:20.956Z</time></trkpt><trkpt lat="45.0782322896046" lon="9.701446722960705"><ele>46.0</ele><time>2026-04-09T07:57:22.955Z</time></trkpt><trkpt lat="45.07816982138691" lon="9.701260730843263"><ele>46.0</ele><time>2026-04-09T07:57:24.955Z</time></trkpt><trkpt lat="45.07821101693391" lon="9.701143228214397"><ele>46.0</ele><time>2026-04-09T07:57:26.955Z</time></trkpt><trkpt lat="45.07824961510725" lon="9.701022921261654"><ele>46.0</ele><time>2026-04-09T07:57:28.955Z</time></trkpt><trkpt lat="45.07829539854361" lon="9.700904724104936"><ele>46.0</ele><time>2026-04-09T07:57:30.955Z</time></trkpt><trkpt lat="45.078329598759076" lon="9.7007846262897"><ele>46.0</ele><time>2026-04-09T07:57:32.955Z</time></trkpt><trkpt lat="45.07836330566026" lon="9.700663943774362"><ele>45.8</ele><time>2026-04-09T07:57:34.955Z</time></trkpt><trkpt lat="45.07839918686134" lon="9.700536591996773"><ele>45.599999999999994</ele><time>2026-04-09T07:57:36.955Z</time></trkpt><trkpt lat="45.07843190230158" lon="9.700412346031374"><ele>45.4</ele><time>2026-04-09T07:57:38.955Z</time></trkpt><trkpt lat="45.07846704845226" lon="9.700281983578279"><ele>45.2</ele><time>2026-04-09T07:57:40.955Z</time></trkpt><trkpt lat="45.07850289891885" lon="9.700157034880027"><ele>45.0</ele><time>2026-04-09T07:57:42.955Z</time></trkpt><trkpt lat="45.07853439674624" lon="9.70002533833129"><ele>45.0</ele><time>2026-04-09T07:57:44.955Z</time></trkpt><trkpt lat="45.07857132936226" lon="9.69989660059256"><ele>45.0</ele><time>2026-04-09T07:57:46.955Z</time></trkpt><trkpt lat="45.07860700907528" lon="9.699771131269992"><ele>45.0</ele><time>2026-04-09T07:57:48.955Z</time></trkpt><trkpt lat="45.07863999753721" lon="9.699646084068727"><ele>45.0</ele><time>2026-04-09T07:57:50.955Z</time></trkpt><trkpt lat="45.078674811509714" lon="9.699531207045887"><ele>45.0</ele><time>2026-04-09T07:57:52.955Z</time></trkpt><trkpt lat="45.078708471954975" lon="9.699412909493315"><ele>45.0</ele><time>2026-04-09T07:57:54.955Z</time></trkpt><trkpt lat="45.07874125115811" lon="9.69929122001878"><ele>45.0</ele><time>2026-04-09T07:57:56.955Z</time></trkpt><trkpt lat="45.07877408205699" lon="9.699169214163781"><ele>45.0</ele><time>2026-04-09T07:57:58.955Z</time></trkpt><trkpt lat="45.078805095790706" lon="9.69904760274704"><ele>45.0</ele><time>2026-04-09T07:58:00.954Z</time></trkpt><trkpt lat="45.078840654957965" lon="9.698925859974038"><ele>45.0</ele><time>2026-04-09T07:58:02.954Z</time></trkpt><trkpt lat="45.078874687207076" lon="9.6988029982627"><ele>45.0</ele><time>2026-04-09T07:58:04.954Z</time></trkpt><trkpt lat="45.07890879843052" lon="9.69868203202305"><ele>45.0</ele><time>2026-04-09T07:58:06.954Z</time></trkpt><trkpt lat="45.0789375493684" lon="9.69855928803234"><ele>45.0</ele><time>2026-04-09T07:58:08.954Z</time></trkpt><trkpt lat="45.07897410446393" lon="9.698435985105803"><ele>45.0</ele><time>2026-04-09T07:58:10.954Z</time></trkpt><trkpt lat="45.07900837795144" lon="9.698308237717365"><ele>45.0</ele><time>2026-04-09T07:58:12.954Z</time></trkpt><trkpt lat="45.07903830134015" lon="9.69818787880015"><ele>45.0</ele><time>2026-04-09T07:58:14.954Z</time></trkpt><trkpt lat="45.079074305862875" lon="9.698070891079315"><ele>45.0</ele><time>2026-04-09T07:58:16.954Z</time></trkpt><trkpt lat="45.07910788563638" lon="9.697949168420553"><ele>45.0</ele><time>2026-04-09T07:58:18.954Z</time></trkpt><trkpt lat="45.07914239695567" lon="9.697826360752444"><ele>45.0</ele><time>2026-04-09T07:58:20.954Z</time></trkpt><trkpt lat="45.079177980922886" lon="9.697702532356963"><ele>45.0</ele><time>2026-04-09T07:58:22.954Z</time></trkpt><trkpt lat="45.0792155253248" lon="9.697580288138656"><ele>45.6</ele><time>2026-04-09T07:58:24.954Z</time></trkpt><trkpt lat="45.07924572751359" lon="9.697454749658432"><ele>46.2</ele><time>2026-04-09T07:58:26.954Z</time></trkpt><trkpt lat="45.07927825946721" lon="9.697331208154559"><ele>46.8</ele><time>2026-04-09T07:58:28.954Z</time></trkpt><trkpt lat="45.07931622387095" lon="9.697205984015326"><ele>47.4</ele><time>2026-04-09T07:58:30.954Z</time></trkpt><trkpt lat="45.07934911480837" lon="9.697080002394095"><ele>48.0</ele><time>2026-04-09T07:58:32.954Z</time></trkpt><trkpt lat="45.079378956135756" lon="9.696958856792804"><ele>47.599999999999994</ele><time>2026-04-09T07:58:34.954Z</time></trkpt><trkpt lat="45.0794206669857" lon="9.696838430845741"><ele>47.199999999999996</ele><time>2026-04-09T07:58:36.954Z</time></trkpt><trkpt lat="45.079456018161416" lon="9.696708321136896"><ele>46.8</ele><time>2026-04-09T07:58:38.953Z</time></trkpt><trkpt lat="45.07949073718533" lon="9.69658383215658"><ele>46.4</ele><time>2026-04-09T07:58:40.953Z</time></trkpt><trkpt lat="45.0795232095476" lon="9.696458505659363"><ele>46.0</ele><time>2026-04-09T07:58:42.953Z</time></trkpt><trkpt lat="45.07955414225565" lon="9.696329419885522"><ele>46.0</ele><time>2026-04-09T07:58:44.953Z</time></trkpt><trkpt lat="45.079591880183024" lon="9.696207196426837"><ele>46.0</ele><time>2026-04-09T07:58:46.953Z</time></trkpt><trkpt lat="45.07963061895046" lon="9.696085653325747"><ele>46.0</ele><time>2026-04-09T07:58:48.953Z</time></trkpt><trkpt lat="45.07965988488611" lon="9.695971022638982"><ele>46.0</ele><time>2026-04-09T07:58:50.953Z</time></trkpt><trkpt lat="45.07969533316932" lon="9.695856866463862"><ele>46.0</ele><time>2026-04-09T07:58:52.953Z</time></trkpt><trkpt lat="45.079718778452865" lon="9.69573155171895"><ele>45.8</ele><time>2026-04-09T07:58:54.953Z</time></trkpt><trkpt lat="45.079749838806954" lon="9.69560846077403"><ele>45.599999999999994</ele><time>2026-04-09T07:58:56.953Z</time></trkpt><trkpt lat="45.079784451986335" lon="9.69548190395815"><ele>45.4</ele><time>2026-04-09T07:58:58.953Z</time></trkpt><trkpt lat="45.079817552784355" lon="9.695344746747432"><ele>45.2</ele><time>2026-04-09T07:59:00.953Z</time></trkpt><trkpt lat="45.07985768691279" lon="9.69521460393857"><ele>45.0</ele><time>2026-04-09T07:59:02.953Z</time></trkpt><trkpt lat="45.07990273039152" lon="9.695083748608218"><ele>45.4</ele><time>2026-04-09T07:59:04.953Z</time></trkpt><trkpt lat="45.079941738006326" lon="9.694958005322828"><ele>45.8</ele><time>2026-04-09T07:59:06.953Z</time></trkpt><trkpt lat="45.07997206286787" lon="9.69482553379473"><ele>46.2</ele><time>2026-04-09T07:59:08.953Z</time></trkpt><trkpt lat="45.08000803659374" lon="9.69469858384763"><ele>46.6</ele><time>2026-04-09T07:59:10.954Z</time></trkpt><trkpt lat="45.08004072577557" lon="9.694577063866477"><ele>47.0</ele><time>2026-04-09T07:59:12.953Z</time></trkpt><trkpt lat="45.080074372584406" lon="9.694462061119093"><ele>46.8</ele><time>2026-04-09T07:59:14.952Z</time></trkpt><trkpt lat="45.08010092156262" lon="9.694343424056857"><ele>46.6</ele><time>2026-04-09T07:59:16.953Z</time></trkpt><trkpt lat="45.080134081944585" lon="9.694219965590701"><ele>46.4</ele><time>2026-04-09T07:59:18.953Z</time></trkpt><trkpt lat="45.08016325304023" lon="9.694094256113823"><ele>46.199999999999996</ele><time>2026-04-09T07:59:20.952Z</time></trkpt><trkpt lat="45.0801925129839" lon="9.693971581843789"><ele>46.0</ele><time>2026-04-09T07:59:22.952Z</time></trkpt><trkpt lat="45.080230100111194" lon="9.693853042651359"><ele>46.0</ele><time>2026-04-09T07:59:24.952Z</time></trkpt><trkpt lat="45.08025985793281" lon="9.69374146437599"><ele>46.0</ele><time>2026-04-09T07:59:26.952Z</time></trkpt><trkpt lat="45.08030070440324" lon="9.693620087621907"><ele>46.0</ele><time>2026-04-09T07:59:28.952Z</time></trkpt><trkpt lat="45.08033541968211" lon="9.693493757303626"><ele>46.0</ele><time>2026-04-09T07:59:30.952Z</time></trkpt><trkpt lat="45.080365921435906" lon="9.69337606586865"><ele>46.0</ele><time>2026-04-09T07:59:32.952Z</time></trkpt><trkpt lat="45.08040624589309" lon="9.69325611464747"><ele>46.199999999999996</ele><time>2026-04-09T07:59:34.952Z</time></trkpt><trkpt lat="45.08043778282601" lon="9.693132430203287"><ele>46.4</ele><time>2026-04-09T07:59:36.952Z</time></trkpt><trkpt lat="45.08047597741875" lon="9.693015589399659"><ele>46.6</ele><time>2026-04-09T07:59:38.952Z</time></trkpt><trkpt lat="45.0805117506833" lon="9.692896282986155"><ele>46.8</ele><time>2026-04-09T07:59:40.952Z</time></trkpt><trkpt lat="45.080559943548884" lon="9.692789662350728"><ele>47.0</ele><time>2026-04-09T07:59:42.952Z</time></trkpt><trkpt lat="45.0806076790972" lon="9.692685170990995"><ele>46.8</ele><time>2026-04-09T07:59:44.952Z</time></trkpt><trkpt lat="45.08065734454236" lon="9.692576386110314"><ele>46.6</ele><time>2026-04-09T07:59:46.952Z</time></trkpt><trkpt lat="45.08071588751368" lon="9.692476901353732"><ele>46.4</ele><time>2026-04-09T07:59:48.952Z</time></trkpt><trkpt lat="45.08078007512654" lon="9.692385854824014"><ele>46.199999999999996</ele><time>2026-04-09T07:59:50.952Z</time></trkpt><trkpt lat="45.08085600222082" lon="9.692317259793349"><ele>46.0</ele><time>2026-04-09T07:59:52.952Z</time></trkpt><trkpt lat="45.080938448457324" lon="9.692272914546923"><ele>46.0</ele><time>2026-04-09T07:59:54.951Z</time></trkpt><trkpt lat="45.0810221513221" lon="9.692232454250686"><ele>46.0</ele><time>2026-04-09T07:59:56.951Z</time></trkpt><trkpt lat="45.08111735110681" lon="9.692206008147267"><ele>46.0</ele><time>2026-04-09T07:59:58.951Z</time></trkpt><trkpt lat="45.081209401371346" lon="9.692184487877775"><ele>46.0</ele><time>2026-04-09T08:00:00.951Z</time></trkpt><trkpt lat="45.0813034019828" lon="9.692157827121536"><ele>46.0</ele><time>2026-04-09T08:00:02.951Z</time></trkpt><trkpt lat="45.08139933945021" lon="9.692128815319242"><ele>46.0</ele><time>2026-04-09T08:00:04.951Z</time></trkpt><trkpt lat="45.08149969964039" lon="9.692110217512885"><ele>46.0</ele><time>2026-04-09T08:00:06.951Z</time></trkpt><trkpt lat="45.08159197942189" lon="9.692090610880596"><ele>46.0</ele><time>2026-04-09T08:00:08.951Z</time></trkpt><trkpt lat="45.08168582946756" lon="9.692061058305613"><ele>46.0</ele><time>2026-04-09T08:00:10.951Z</time></trkpt><trkpt lat="45.08178212742337" lon="9.692026861753243"><ele>46.0</ele><time>2026-04-09T08:00:12.951Z</time></trkpt><trkpt lat="45.0818764445156" lon="9.69200102705886"><ele>46.199999999999996</ele><time>2026-04-09T08:00:14.951Z</time></trkpt><trkpt lat="45.08196595461642" lon="9.69197459481686"><ele>46.4</ele><time>2026-04-09T08:00:16.951Z</time></trkpt><trkpt lat="45.08205847552618" lon="9.691941868053743"><ele>46.6</ele><time>2026-04-09T08:00:18.951Z</time></trkpt><trkpt lat="45.08214849281439" lon="9.691911318735338"><ele>46.8</ele><time>2026-04-09T08:00:20.951Z</time></trkpt><trkpt lat="45.08223126876596" lon="9.691887010106583"><ele>47.0</ele><time>2026-04-09T08:00:22.951Z</time></trkpt><trkpt lat="45.082318701549305" lon="9.691856298516875"><ele>47.0</ele><time>2026-04-09T08:00:24.951Z</time></trkpt><trkpt lat="45.082402208981144" lon="9.691807667539742"><ele>47.0</ele><time>2026-04-09T08:00:26.951Z</time></trkpt><trkpt lat="45.082484853926054" lon="9.691766566227942"><ele>47.0</ele><time>2026-04-09T08:00:28.951Z</time></trkpt><trkpt lat="45.082572288260664" lon="9.691722436723527"><ele>47.0</ele><time>2026-04-09T08:00:30.951Z</time></trkpt><trkpt lat="45.08266065409231" lon="9.691668115293862"><ele>47.0</ele><time>2026-04-09T08:00:32.95Z</time></trkpt><trkpt lat="45.082749001538325" lon="9.691620299464791"><ele>47.2</ele><time>2026-04-09T08:00:34.95Z</time></trkpt><trkpt lat="45.08283732381017" lon="9.691571075312076"><ele>47.400000000000006</ele><time>2026-04-09T08:00:36.95Z</time></trkpt><trkpt lat="45.08292131035646" lon="9.691520916025903"><ele>47.599999999999994</ele><time>2026-04-09T08:00:38.95Z</time></trkpt><trkpt lat="45.083011996772456" lon="9.691467847312543"><ele>47.8</ele><time>2026-04-09T08:00:40.95Z</time></trkpt><trkpt lat="45.08309600715675" lon="9.691415826439925"><ele>48.0</ele><time>2026-04-09T08:00:42.95Z</time></trkpt><trkpt lat="45.0831848735903" lon="9.691357953261425"><ele>48.0</ele><time>2026-04-09T08:00:44.95Z</time></trkpt><trkpt lat="45.08327468028556" lon="9.69130205168572"><ele>48.0</ele><time>2026-04-09T08:00:46.95Z</time></trkpt><trkpt lat="45.083365473890666" lon="9.691250824359459"><ele>48.0</ele><time>2026-04-09T08:00:48.95Z</time></trkpt><trkpt lat="45.083451882340455" lon="9.691198593456942"><ele>48.0</ele><time>2026-04-09T08:00:50.95Z</time></trkpt><trkpt lat="45.08354437788782" lon="9.691145394691269"><ele>48.0</ele><time>2026-04-09T08:00:52.95Z</time></trkpt><trkpt lat="45.083635551413415" lon="9.691088594503366"><ele>48.0</ele><time>2026-04-09T08:00:54.95Z</time></trkpt><trkpt lat="45.08372848718003" lon="9.691027910402616"><ele>48.0</ele><time>2026-04-09T08:00:56.95Z</time></trkpt><trkpt lat="45.08382309526344" lon="9.690972598619778"><ele>48.0</ele><time>2026-04-09T08:00:58.95Z</time></trkpt><trkpt lat="45.08391413236687" lon="9.691087723822903"><ele>48.0</ele><time>2026-04-09T08:00:59.95Z</time></trkpt><trkpt lat="45.084001889406636" lon="9.691031975517639"><ele>48.0</ele><time>2026-04-09T08:01:01.95Z</time></trkpt><trkpt lat="45.0840896009174" lon="9.690976256061413"><ele>47.599999999999994</ele><time>2026-04-09T08:01:03.95Z</time></trkpt><trkpt lat="45.084183934675515" lon="9.69091488198108"><ele>47.199999999999996</ele><time>2026-04-09T08:01:05.95Z</time></trkpt><trkpt lat="45.08427048066996" lon="9.690852042366926"><ele>46.8</ele><time>2026-04-09T08:01:07.95Z</time></trkpt><trkpt lat="45.084355510012664" lon="9.69079157399855"><ele>46.4</ele><time>2026-04-09T08:01:09.95Z</time></trkpt><trkpt lat="45.08443760847186" lon="9.69073316998294"><ele>46.0</ele><time>2026-04-09T08:01:11.952Z</time></trkpt><trkpt lat="45.08452178567501" lon="9.690673039625507"><ele>46.0</ele><time>2026-04-09T08:01:13.954Z</time></trkpt><trkpt lat="45.08460894857586" lon="9.690610776617978"><ele>46.0</ele><time>2026-04-09T08:01:15.955Z</time></trkpt><trkpt lat="45.08469371621568" lon="9.690550224758356"><ele>46.0</ele><time>2026-04-09T08:01:17.956Z</time></trkpt><trkpt lat="45.084777918570936" lon="9.690490076567828"><ele>46.0</ele><time>2026-04-09T08:01:19.957Z</time></trkpt><trkpt lat="45.084859818786406" lon="9.690431572822343"><ele>46.0</ele><time>2026-04-09T08:01:21.957Z</time></trkpt><trkpt lat="45.08492769325516" lon="9.690383088197988"><ele>46.0</ele><time>2026-04-09T08:01:23.958Z</time></trkpt><trkpt lat="45.08487148259584" lon="9.690007516361675"><ele>46.0</ele><time>2026-04-09T08:01:25.959Z</time></trkpt><trkpt lat="45.08491160634371" lon="9.689891641500434"><ele>46.0</ele><time>2026-04-09T08:01:27.959Z</time></trkpt><trkpt lat="45.084971253516336" lon="9.689782638400464"><ele>46.0</ele><time>2026-04-09T08:01:29.959Z</time></trkpt><trkpt lat="45.08503524977757" lon="9.689693793184059"><ele>46.0</ele><time>2026-04-09T08:01:31.959Z</time></trkpt><trkpt lat="45.08512416608494" lon="9.689633418506718"><ele>46.0</ele><time>2026-04-09T08:01:33.96Z</time></trkpt><trkpt lat="45.08521536225103" lon="9.689614714662452"><ele>46.0</ele><time>2026-04-09T08:01:35.96Z</time></trkpt><trkpt lat="45.08530687968683" lon="9.689591927415742"><ele>46.0</ele><time>2026-04-09T08:01:37.96Z</time></trkpt><trkpt lat="45.08540126547755" lon="9.6895804148457"><ele>46.0</ele><time>2026-04-09T08:01:39.96Z</time></trkpt><trkpt lat="45.085497641565986" lon="9.689588154133034"><ele>46.0</ele><time>2026-04-09T08:01:41.961Z</time></trkpt><trkpt lat="45.08559178221794" lon="9.689595095954889"><ele>46.0</ele><time>2026-04-09T08:01:43.961Z</time></trkpt><trkpt lat="45.08568402430512" lon="9.689603293589554"><ele>46.0</ele><time>2026-04-09T08:01:45.961Z</time></trkpt><trkpt lat="45.08577067650271" lon="9.689595816187996"><ele>46.0</ele><time>2026-04-09T08:01:47.961Z</time></trkpt><trkpt lat="45.08585579242937" lon="9.689549746174864"><ele>45.833333333333336</ele><time>2026-04-09T08:01:49.961Z</time></trkpt><trkpt lat="45.085929380234354" lon="9.689484528532434"><ele>45.66666666666667</ele><time>2026-04-09T08:01:51.961Z</time></trkpt><trkpt lat="45.0860069775952" lon="9.689427651317764"><ele>45.5</ele><time>2026-04-09T08:01:53.961Z</time></trkpt><trkpt lat="45.086087457828306" lon="9.689372894461613"><ele>45.333333333333336</ele><time>2026-04-09T08:01:55.961Z</time></trkpt><trkpt lat="45.08616419316606" lon="9.689311301493087"><ele>45.166666666666664</ele><time>2026-04-09T08:01:57.961Z</time></trkpt><trkpt lat="45.08623487004877" lon="9.689249190992875"><ele>45.0</ele><time>2026-04-09T08:01:59.961Z</time></trkpt><trkpt lat="45.08630931157804" lon="9.689191838087309"><ele>45.0</ele><time>2026-04-09T08:02:01.961Z</time></trkpt><trkpt lat="45.08637702226478" lon="9.689132071017157"><ele>45.0</ele><time>2026-04-09T08:02:03.961Z</time></trkpt><trkpt lat="45.08644693071954" lon="9.689055603071909"><ele>45.0</ele><time>2026-04-09T08:02:05.961Z</time></trkpt><trkpt lat="45.086529499905375" lon="9.689016326579015"><ele>45.0</ele><time>2026-04-09T08:02:07.961Z</time></trkpt><trkpt lat="45.08660637829943" lon="9.689029885179798"><ele>45.0</ele><time>2026-04-09T08:02:09.961Z</time></trkpt><trkpt lat="45.08667996019344" lon="9.689029096191534"><ele>45.0</ele><time>2026-04-09T08:02:11.961Z</time></trkpt><trkpt lat="45.086760775534735" lon="9.689032568590747"><ele>45.0</ele><time>2026-04-09T08:02:13.961Z</time></trkpt><trkpt lat="45.08683918205008" lon="9.689024458205283"><ele>45.0</ele><time>2026-04-09T08:02:15.961Z</time></trkpt><trkpt lat="45.086919566949746" lon="9.689027102013382"><ele>45.0</ele><time>2026-04-09T08:02:17.961Z</time></trkpt><trkpt lat="45.08700471325813" lon="9.689022695528053"><ele>45.0</ele><time>2026-04-09T08:02:19.961Z</time></trkpt><trkpt lat="45.087089589462785" lon="9.68902369222173"><ele>45.0</ele><time>2026-04-09T08:02:21.961Z</time></trkpt><trkpt lat="45.0871739856349" lon="9.689045540340805"><ele>45.0</ele><time>2026-04-09T08:02:23.961Z</time></trkpt><trkpt lat="45.087258665340784" lon="9.689068006720651"><ele>45.0</ele><time>2026-04-09T08:02:25.961Z</time></trkpt><trkpt lat="45.08735425651447" lon="9.689092106859702"><ele>45.0</ele><time>2026-04-09T08:02:27.961Z</time></trkpt><trkpt lat="45.08744578797522" lon="9.689118401151417"><ele>45.0</ele><time>2026-04-09T08:02:29.961Z</time></trkpt><trkpt lat="45.08752843991195" lon="9.689129850186358"><ele>45.0</ele><time>2026-04-09T08:02:31.961Z</time></trkpt><trkpt lat="45.08760963608465" lon="9.689160037004488"><ele>45.0</ele><time>2026-04-09T08:02:33.961Z</time></trkpt><trkpt lat="45.08769257081085" lon="9.689172687642285"><ele>45.0</ele><time>2026-04-09T08:02:35.961Z</time></trkpt><trkpt lat="45.08777773057135" lon="9.689196706281775"><ele>45.2</ele><time>2026-04-09T08:02:37.961Z</time></trkpt><trkpt lat="45.08786548381179" lon="9.689214478126235"><ele>45.4</ele><time>2026-04-09T08:02:39.961Z</time></trkpt><trkpt lat="45.08795074906967" lon="9.689226023899492"><ele>45.599999999999994</ele><time>2026-04-09T08:02:41.961Z</time></trkpt><trkpt lat="45.08803941903129" lon="9.689254134761653"><ele>45.8</ele><time>2026-04-09T08:02:43.961Z</time></trkpt><trkpt lat="45.08813166026021" lon="9.689273987751829"><ele>46.0</ele><time>2026-04-09T08:02:45.961Z</time></trkpt><trkpt lat="45.08822437687244" lon="9.689295438390165"><ele>45.8</ele><time>2026-04-09T08:02:47.961Z</time></trkpt><trkpt lat="45.08831653460232" lon="9.689314775741192"><ele>45.599999999999994</ele><time>2026-04-09T08:02:49.961Z</time></trkpt><trkpt lat="45.08840573855733" lon="9.68932369605336"><ele>45.4</ele><time>2026-04-09T08:02:51.961Z</time></trkpt><trkpt lat="45.088493756407495" lon="9.689352344120856"><ele>45.2</ele><time>2026-04-09T08:02:53.961Z</time></trkpt><trkpt lat="45.08858016593743" lon="9.689373722681804"><ele>45.0</ele><time>2026-04-09T08:02:55.96Z</time></trkpt><trkpt lat="45.08867358768272" lon="9.68940067363244"><ele>45.2</ele><time>2026-04-09T08:02:57.96Z</time></trkpt><trkpt lat="45.08876498285712" lon="9.68942588122983"><ele>45.4</ele><time>2026-04-09T08:02:59.96Z</time></trkpt><trkpt lat="45.08885990577255" lon="9.689450570817035"><ele>45.599999999999994</ele><time>2026-04-09T08:03:01.96Z</time></trkpt><trkpt lat="45.088958039530134" lon="9.689469813474721"><ele>45.8</ele><time>2026-04-09T08:03:03.96Z</time></trkpt><trkpt lat="45.089050708097616" lon="9.689494211023387"><ele>46.0</ele><time>2026-04-09T08:03:05.96Z</time></trkpt><trkpt lat="45.089144386447785" lon="9.689520284404008"><ele>46.199999999999996</ele><time>2026-04-09T08:03:07.96Z</time></trkpt><trkpt lat="45.089238471380355" lon="9.689539231199934"><ele>46.4</ele><time>2026-04-09T08:03:09.96Z</time></trkpt><trkpt lat="45.0893319116362" lon="9.689561180284091"><ele>46.6</ele><time>2026-04-09T08:03:11.96Z</time></trkpt><trkpt lat="45.08942433503937" lon="9.689586517387104"><ele>46.8</ele><time>2026-04-09T08:03:13.96Z</time></trkpt><trkpt lat="45.08951605054603" lon="9.689606458299863"><ele>47.0</ele><time>2026-04-09T08:03:15.96Z</time></trkpt><trkpt lat="45.08960713158824" lon="9.689627595735992"><ele>47.0</ele><time>2026-04-09T08:03:17.96Z</time></trkpt><trkpt lat="45.08970218745065" lon="9.689651065868594"><ele>47.0</ele><time>2026-04-09T08:03:19.961Z</time></trkpt><trkpt lat="45.08978983161519" lon="9.689666130959075"><ele>47.0</ele><time>2026-04-09T08:03:21.96Z</time></trkpt><trkpt lat="45.08988154204783" lon="9.689684881497955"><ele>47.0</ele><time>2026-04-09T08:03:23.96Z</time></trkpt><trkpt lat="45.08996452902311" lon="9.689705088258902"><ele>47.0</ele><time>2026-04-09T08:03:25.961Z</time></trkpt><trkpt lat="45.09005653446082" lon="9.689738035243508"><ele>47.0</ele><time>2026-04-09T08:03:27.961Z</time></trkpt><trkpt lat="45.090150802881524" lon="9.689753251267309"><ele>47.0</ele><time>2026-04-09T08:03:29.96Z</time></trkpt><trkpt lat="45.09023808602546" lon="9.689773336546242"><ele>47.0</ele><time>2026-04-09T08:03:31.961Z</time></trkpt><trkpt lat="45.09033203497328" lon="9.689788143226552"><ele>47.0</ele><time>2026-04-09T08:03:33.96Z</time></trkpt><trkpt lat="45.090420871170714" lon="9.689818343414455"><ele>47.0</ele><time>2026-04-09T08:03:35.96Z</time></trkpt><trkpt lat="45.090508332555146" lon="9.68984006809894"><ele>47.0</ele><time>2026-04-09T08:03:37.96Z</time></trkpt><trkpt lat="45.0906004469272" lon="9.689854326473307"><ele>47.0</ele><time>2026-04-09T08:03:39.96Z</time></trkpt><trkpt lat="45.09068848661823" lon="9.689882527362922"><ele>47.0</ele><time>2026-04-09T08:03:41.96Z</time></trkpt><trkpt lat="45.0907765576188" lon="9.689902627079428"><ele>47.0</ele><time>2026-04-09T08:03:43.96Z</time></trkpt><trkpt lat="45.09086452060438" lon="9.689923778276327"><ele>47.0</ele><time>2026-04-09T08:03:45.96Z</time></trkpt><trkpt lat="45.090958859571934" lon="9.689921725950937"><ele>46.6</ele><time>2026-04-09T08:03:47.96Z</time></trkpt><trkpt lat="45.09104947098838" lon="9.689926787190856"><ele>46.2</ele><time>2026-04-09T08:03:49.96Z</time></trkpt><trkpt lat="45.09113605269296" lon="9.689917318397535"><ele>45.8</ele><time>2026-04-09T08:03:51.96Z</time></trkpt><trkpt lat="45.09122553565165" lon="9.689895320418206"><ele>45.4</ele><time>2026-04-09T08:03:53.96Z</time></trkpt><trkpt lat="45.091314768416304" lon="9.68987523085265"><ele>45.0</ele><time>2026-04-09T08:03:55.96Z</time></trkpt><trkpt lat="45.09140372210777" lon="9.689844216555104"><ele>45.0</ele><time>2026-04-09T08:03:57.96Z</time></trkpt><trkpt lat="45.09147749162129" lon="9.689791913776792"><ele>45.0</ele><time>2026-04-09T08:03:59.96Z</time></trkpt><trkpt lat="45.09152977733256" lon="9.689701974648917"><ele>45.0</ele><time>2026-04-09T08:04:01.96Z</time></trkpt><trkpt lat="45.091599556810884" lon="9.68963811554736"><ele>45.0</ele><time>2026-04-09T08:04:03.96Z</time></trkpt><trkpt lat="45.09168815302956" lon="9.689651952346884"><ele>45.0</ele><time>2026-04-09T08:04:05.96Z</time></trkpt><trkpt lat="45.09177201915428" lon="9.689723367839932"><ele>45.0</ele><time>2026-04-09T08:04:07.96Z</time></trkpt><trkpt lat="45.09186377570788" lon="9.689709511525194"><ele>45.0</ele><time>2026-04-09T08:04:09.96Z</time></trkpt><trkpt lat="45.09195529561945" lon="9.689677090434888"><ele>45.0</ele><time>2026-04-09T08:04:11.959Z</time></trkpt><trkpt lat="45.092031288663435" lon="9.689645934518177"><ele>45.0</ele><time>2026-04-09T08:04:13.959Z</time></trkpt><trkpt lat="45.09211949747619" lon="9.689622606392422"><ele>45.0</ele><time>2026-04-09T08:04:15.959Z</time></trkpt><trkpt lat="45.09220128234657" lon="9.689591359090734"><ele>45.0</ele><time>2026-04-09T08:04:17.959Z</time></trkpt><trkpt lat="45.09229278909112" lon="9.689559530927156"><ele>45.0</ele><time>2026-04-09T08:04:19.959Z</time></trkpt><trkpt lat="45.09238192767664" lon="9.689532757698617"><ele>44.833333333333336</ele><time>2026-04-09T08:04:21.959Z</time></trkpt><trkpt lat="45.09246694746013" lon="9.689506330238743"><ele>44.666666666666664</ele><time>2026-04-09T08:04:23.959Z</time></trkpt><trkpt lat="45.09255240686909" lon="9.68948228116155"><ele>44.5</ele><time>2026-04-09T08:04:25.959Z</time></trkpt><trkpt lat="45.09263253409025" lon="9.689458494199137"><ele>44.33333333333333</ele><time>2026-04-09T08:04:27.959Z</time></trkpt><trkpt lat="45.092711807934315" lon="9.689429119104565"><ele>44.166666666666664</ele><time>2026-04-09T08:04:29.959Z</time></trkpt><trkpt lat="45.092792673382235" lon="9.689403379543533"><ele>44.0</ele><time>2026-04-09T08:04:31.959Z</time></trkpt><trkpt lat="45.092876623014114" lon="9.689371590470579"><ele>43.83333333333333</ele><time>2026-04-09T08:04:33.959Z</time></trkpt><trkpt lat="45.09296222743947" lon="9.689342998789904"><ele>43.666666666666664</ele><time>2026-04-09T08:04:35.959Z</time></trkpt><trkpt lat="45.09304490785819" lon="9.6893155399132"><ele>43.5</ele><time>2026-04-09T08:04:37.959Z</time></trkpt><trkpt lat="45.09312930612381" lon="9.689290173193468"><ele>43.333333333333336</ele><time>2026-04-09T08:04:39.959Z</time></trkpt><trkpt lat="45.09321275498739" lon="9.68926481693272"><ele>43.16666666666667</ele><time>2026-04-09T08:04:41.959Z</time></trkpt><trkpt lat="45.093291522330716" lon="9.689238476678133"><ele>43.0</ele><time>2026-04-09T08:04:43.959Z</time></trkpt><trkpt lat="45.09337798575485" lon="9.689208507798492"><ele>43.333333333333336</ele><time>2026-04-09T08:04:45.959Z</time></trkpt><trkpt lat="45.09346731651088" lon="9.689179604601474"><ele>43.66666666666667</ele><time>2026-04-09T08:04:47.959Z</time></trkpt><trkpt lat="45.09355200230524" lon="9.68914591273886"><ele>44.0</ele><time>2026-04-09T08:04:49.959Z</time></trkpt><trkpt lat="45.09363716769366" lon="9.689121622917423"><ele>44.333333333333336</ele><time>2026-04-09T08:04:51.959Z</time></trkpt><trkpt lat="45.09372595221322" lon="9.68909809694661"><ele>44.666666666666664</ele><time>2026-04-09T08:04:53.959Z</time></trkpt><trkpt lat="45.09380403666264" lon="9.689031943899584"><ele>45.0</ele><time>2026-04-09T08:04:55.959Z</time></trkpt><trkpt lat="45.093878701638815" lon="9.688956344894295"><ele>45.0</ele><time>2026-04-09T08:04:57.959Z</time></trkpt><trkpt lat="45.09395059906561" lon="9.688878263044073"><ele>45.0</ele><time>2026-04-09T08:04:59.958Z</time></trkpt><trkpt lat="45.09401276412707" lon="9.688785142856268"><ele>45.0</ele><time>2026-04-09T08:05:01.958Z</time></trkpt><trkpt lat="45.09407565763753" lon="9.688711727676234"><ele>45.0</ele><time>2026-04-09T08:05:03.958Z</time></trkpt><trkpt lat="45.094134261196324" lon="9.68862030107217"><ele>45.0</ele><time>2026-04-09T08:05:05.958Z</time></trkpt><trkpt lat="45.09420622378283" lon="9.688536974024712"><ele>45.0</ele><time>2026-04-09T08:05:07.958Z</time></trkpt><trkpt lat="45.094272338982144" lon="9.68844899600748"><ele>45.4</ele><time>2026-04-09T08:05:09.958Z</time></trkpt><trkpt lat="45.094347597692774" lon="9.688364616007043"><ele>45.8</ele><time>2026-04-09T08:05:11.958Z</time></trkpt><trkpt lat="45.0944238657559" lon="9.688277604090633"><ele>46.2</ele><time>2026-04-09T08:05:13.958Z</time></trkpt><trkpt lat="45.09450043789632" lon="9.6881814709345"><ele>46.6</ele><time>2026-04-09T08:05:15.958Z</time></trkpt><trkpt lat="45.09457031357371" lon="9.688086796624264"><ele>47.0</ele><time>2026-04-09T08:05:17.958Z</time></trkpt><trkpt lat="45.09465774406021" lon="9.68802794754219"><ele>47.0</ele><time>2026-04-09T08:05:19.958Z</time></trkpt><trkpt lat="45.09473241944684" lon="9.687934096307126"><ele>47.0</ele><time>2026-04-09T08:05:21.958Z</time></trkpt><trkpt lat="45.09480184835158" lon="9.687835863890564"><ele>47.0</ele><time>2026-04-09T08:05:23.958Z</time></trkpt><trkpt lat="45.09486830146113" lon="9.68772257826943"><ele>47.0</ele><time>2026-04-09T08:05:25.959Z</time></trkpt><trkpt lat="45.094932818156224" lon="9.687607070743619"><ele>47.0</ele><time>2026-04-09T08:05:27.959Z</time></trkpt><trkpt lat="45.09499359247788" lon="9.687493816737243"><ele>46.8</ele><time>2026-04-09T08:05:29.959Z</time></trkpt><trkpt lat="45.09505219383817" lon="9.68737230767475"><ele>46.6</ele><time>2026-04-09T08:05:31.958Z</time></trkpt><trkpt lat="45.0950997475122" lon="9.687257987859152"><ele>46.4</ele><time>2026-04-09T08:05:33.958Z</time></trkpt><trkpt lat="45.095148056698726" lon="9.687130814021453"><ele>46.199999999999996</ele><time>2026-04-09T08:05:35.958Z</time></trkpt><trkpt lat="45.09519066684439" lon="9.687008343406362"><ele>46.0</ele><time>2026-04-09T08:05:37.958Z</time></trkpt><trkpt lat="45.09523127240452" lon="9.686889703113438"><ele>46.0</ele><time>2026-04-09T08:05:39.958Z</time></trkpt><trkpt lat="45.09527126398016" lon="9.686769440645019"><ele>46.0</ele><time>2026-04-09T08:05:41.958Z</time></trkpt><trkpt lat="45.09530974416379" lon="9.68664418381557"><ele>46.0</ele><time>2026-04-09T08:05:43.958Z</time></trkpt><trkpt lat="45.09533306637554" lon="9.686505329179466"><ele>46.0</ele><time>2026-04-09T08:05:45.958Z</time></trkpt><trkpt lat="45.09537804123745" lon="9.686380180824447"><ele>46.0</ele><time>2026-04-09T08:05:47.958Z</time></trkpt><trkpt lat="45.09541478436959" lon="9.686254030405584"><ele>46.0</ele><time>2026-04-09T08:05:49.958Z</time></trkpt><trkpt lat="45.09545197112794" lon="9.686130459614136"><ele>46.0</ele><time>2026-04-09T08:05:51.958Z</time></trkpt><trkpt lat="45.095499382248406" lon="9.686011126914853"><ele>46.0</ele><time>2026-04-09T08:05:53.958Z</time></trkpt><trkpt lat="45.09554273448651" lon="9.685893914464971"><ele>46.0</ele><time>2026-04-09T08:05:55.958Z</time></trkpt><trkpt lat="45.09559680134875" lon="9.685790252057327"><ele>46.0</ele><time>2026-04-09T08:05:57.958Z</time></trkpt><trkpt lat="45.09565234093143" lon="9.685690979648683"><ele>45.833333333333336</ele><time>2026-04-09T08:05:59.958Z</time></trkpt><trkpt lat="45.095709520031576" lon="9.685589420088238"><ele>45.66666666666667</ele><time>2026-04-09T08:06:01.958Z</time></trkpt><trkpt lat="45.0957731138178" lon="9.685497451534202"><ele>45.5</ele><time>2026-04-09T08:06:03.958Z</time></trkpt><trkpt lat="45.095837117508125" lon="9.685415124025768"><ele>45.333333333333336</ele><time>2026-04-09T08:06:05.958Z</time></trkpt><trkpt lat="45.09590254852096" lon="9.685333904458483"><ele>45.166666666666664</ele><time>2026-04-09T08:06:07.958Z</time></trkpt><trkpt lat="45.095973122993286" lon="9.68525883403837"><ele>45.0</ele><time>2026-04-09T08:06:09.958Z</time></trkpt><trkpt lat="45.09604650523214" lon="9.685198124602461"><ele>45.0</ele><time>2026-04-09T08:06:11.958Z</time></trkpt><trkpt lat="45.096127324490816" lon="9.685147849841806"><ele>45.0</ele><time>2026-04-09T08:06:13.958Z</time></trkpt><trkpt lat="45.09621416263868" lon="9.685108553279255"><ele>45.0</ele><time>2026-04-09T08:06:15.958Z</time></trkpt><trkpt lat="45.09630699906023" lon="9.685092254904678"><ele>45.0</ele><time>2026-04-09T08:06:17.958Z</time></trkpt><trkpt lat="45.09639631931248" lon="9.685088533009063"><ele>45.0</ele><time>2026-04-09T08:06:19.958Z</time></trkpt><trkpt lat="45.096489705185554" lon="9.685106022612137"><ele>45.0</ele><time>2026-04-09T08:06:21.957Z</time></trkpt><trkpt lat="45.0965844954075" lon="9.685138239187753"><ele>45.0</ele><time>2026-04-09T08:06:23.957Z</time></trkpt><trkpt lat="45.096673916203216" lon="9.685187419801068"><ele>45.0</ele><time>2026-04-09T08:06:25.957Z</time></trkpt><trkpt lat="45.09676694665904" lon="9.685233552244648"><ele>45.0</ele><time>2026-04-09T08:06:27.957Z</time></trkpt><trkpt lat="45.096866045259034" lon="9.685275258503431"><ele>45.0</ele><time>2026-04-09T08:06:29.957Z</time></trkpt><trkpt lat="45.09695866272984" lon="9.685320182458563"><ele>45.0</ele><time>2026-04-09T08:06:31.957Z</time></trkpt><trkpt lat="45.097042555977445" lon="9.685354315340996"><ele>45.0</ele><time>2026-04-09T08:06:33.957Z</time></trkpt><trkpt lat="45.0971266565987" lon="9.685386006459787"><ele>45.0</ele><time>2026-04-09T08:06:35.957Z</time></trkpt><trkpt lat="45.097205708074625" lon="9.68543736524164"><ele>45.0</ele><time>2026-04-09T08:06:37.957Z</time></trkpt><trkpt lat="45.097295595301155" lon="9.685478686811061"><ele>45.0</ele><time>2026-04-09T08:06:39.957Z</time></trkpt><trkpt lat="45.097381461854106" lon="9.68553761655928"><ele>45.4</ele><time>2026-04-09T08:06:41.957Z</time></trkpt><trkpt lat="45.09747853500499" lon="9.685563308436949"><ele>45.8</ele><time>2026-04-09T08:06:43.957Z</time></trkpt><trkpt lat="45.097569088493984" lon="9.685577516998933"><ele>46.2</ele><time>2026-04-09T08:06:45.957Z</time></trkpt><trkpt lat="45.09766165908765" lon="9.68557377974898"><ele>46.6</ele><time>2026-04-09T08:06:47.957Z</time></trkpt><trkpt lat="45.097757132299485" lon="9.685562365973686"><ele>47.0</ele><time>2026-04-09T08:06:49.957Z</time></trkpt><trkpt lat="45.09784557548703" lon="9.68552391515465"><ele>47.0</ele><time>2026-04-09T08:06:51.957Z</time></trkpt><trkpt lat="45.097927899557206" lon="9.685452009161763"><ele>47.0</ele><time>2026-04-09T08:06:53.957Z</time></trkpt><trkpt lat="45.09800735203497" lon="9.68536440374217"><ele>47.0</ele><time>2026-04-09T08:06:55.957Z</time></trkpt><trkpt lat="45.09807639697059" lon="9.685256009722956"><ele>47.0</ele><time>2026-04-09T08:06:57.957Z</time></trkpt><trkpt lat="45.09814219606923" lon="9.685152782525996"><ele>47.0</ele><time>2026-04-09T08:06:59.957Z</time></trkpt><trkpt lat="45.0981998068534" lon="9.685037536690754"><ele>47.0</ele><time>2026-04-09T08:07:01.957Z</time></trkpt><trkpt lat="45.09826115751979" lon="9.684924468666248"><ele>47.0</ele><time>2026-04-09T08:07:03.957Z</time></trkpt><trkpt lat="45.09831572757342" lon="9.684809039846964"><ele>47.0</ele><time>2026-04-09T08:07:05.957Z</time></trkpt><trkpt lat="45.09839612046216" lon="9.684711766544185"><ele>47.0</ele><time>2026-04-09T08:07:07.957Z</time></trkpt><trkpt lat="45.098457249520166" lon="9.684593124088407"><ele>47.0</ele><time>2026-04-09T08:07:09.956Z</time></trkpt><trkpt lat="45.0985153069165" lon="9.684480443313586"><ele>46.400000000000006</ele><time>2026-04-09T08:07:11.956Z</time></trkpt><trkpt lat="45.098572679338204" lon="9.684369091931888"><ele>45.800000000000004</ele><time>2026-04-09T08:07:13.956Z</time></trkpt><trkpt lat="45.09862781390216" lon="9.684262083939094"><ele>45.2</ele><time>2026-04-09T08:07:15.956Z</time></trkpt><trkpt lat="45.098684976289995" lon="9.68415114027944"><ele>44.6</ele><time>2026-04-09T08:07:17.956Z</time></trkpt><trkpt lat="45.098740293395124" lon="9.684043777946568"><ele>44.0</ele><time>2026-04-09T08:07:19.956Z</time></trkpt><trkpt lat="45.09879441870446" lon="9.683938855573398"><ele>44.0</ele><time>2026-04-09T08:07:21.956Z</time></trkpt><trkpt lat="45.09884845648642" lon="9.683834756043655"><ele>44.0</ele><time>2026-04-09T08:07:23.956Z</time></trkpt><trkpt lat="45.098903410299734" lon="9.683728892006013"><ele>44.0</ele><time>2026-04-09T08:07:25.956Z</time></trkpt><trkpt lat="45.09895739611226" lon="9.683624892750544"><ele>44.0</ele><time>2026-04-09T08:07:27.956Z</time></trkpt><trkpt lat="45.09901632307502" lon="9.683511374686207"><ele>44.0</ele><time>2026-04-09T08:07:29.956Z</time></trkpt><trkpt lat="45.09907255285699" lon="9.68340305258113"><ele>44.400000000000006</ele><time>2026-04-09T08:07:31.956Z</time></trkpt><trkpt lat="45.099114530471915" lon="9.683278419696657"><ele>44.8</ele><time>2026-04-09T08:07:33.956Z</time></trkpt><trkpt lat="45.09918939312881" lon="9.683179019503248"><ele>45.2</ele><time>2026-04-09T08:07:35.956Z</time></trkpt><trkpt lat="45.09925091371147" lon="9.683062324890141"><ele>45.599999999999994</ele><time>2026-04-09T08:07:37.957Z</time></trkpt><trkpt lat="45.09931257830697" lon="9.682942946014236"><ele>46.0</ele><time>2026-04-09T08:07:39.956Z</time></trkpt><trkpt lat="45.099373471191974" lon="9.682817549282062"><ele>45.599999999999994</ele><time>2026-04-09T08:07:41.956Z</time></trkpt><trkpt lat="45.099435090649855" lon="9.682688786088274"><ele>45.2</ele><time>2026-04-09T08:07:43.957Z</time></trkpt><trkpt lat="45.09949194217741" lon="9.68256682808298"><ele>44.8</ele><time>2026-04-09T08:07:45.956Z</time></trkpt><trkpt lat="45.09954770994062" lon="9.682445818557987"><ele>44.400000000000006</ele><time>2026-04-09T08:07:47.956Z</time></trkpt><trkpt lat="45.09960187970415" lon="9.682325759065161"><ele>44.0</ele><time>2026-04-09T08:07:49.956Z</time></trkpt><trkpt lat="45.09965780541351" lon="9.682200320384087"><ele>44.0</ele><time>2026-04-09T08:07:51.956Z</time></trkpt><trkpt lat="45.099712512792664" lon="9.682067360328748"><ele>44.0</ele><time>2026-04-09T08:07:53.956Z</time></trkpt><trkpt lat="45.09976015988401" lon="9.681938733283555"><ele>44.0</ele><time>2026-04-09T08:07:55.956Z</time></trkpt><trkpt lat="45.09980447102776" lon="9.681807335247358"><ele>44.0</ele><time>2026-04-09T08:07:57.956Z</time></trkpt><trkpt lat="45.09984876868517" lon="9.68167053301159"><ele>44.0</ele><time>2026-04-09T08:07:59.956Z</time></trkpt><trkpt lat="45.09989134807474" lon="9.681537505272567"><ele>44.0</ele><time>2026-04-09T08:08:01.956Z</time></trkpt><trkpt lat="45.09993158372284" lon="9.681408574981484"><ele>44.0</ele><time>2026-04-09T08:08:03.956Z</time></trkpt><trkpt lat="45.09997366873366" lon="9.681275434563249"><ele>44.0</ele><time>2026-04-09T08:08:05.956Z</time></trkpt><trkpt lat="45.1000172481029" lon="9.681139691503486"><ele>44.0</ele><time>2026-04-09T08:08:07.956Z</time></trkpt><trkpt lat="45.10006164630164" lon="9.68100458300942"><ele>44.0</ele><time>2026-04-09T08:08:09.956Z</time></trkpt><trkpt lat="45.100100182435966" lon="9.680863413591716"><ele>44.0</ele><time>2026-04-09T08:08:11.956Z</time></trkpt><trkpt lat="45.100139308321296" lon="9.68072357285516"><ele>44.0</ele><time>2026-04-09T08:08:13.956Z</time></trkpt><trkpt lat="45.10019776841808" lon="9.680590348784792"><ele>44.0</ele><time>2026-04-09T08:08:15.956Z</time></trkpt><trkpt lat="45.10024138253706" lon="9.680456530813377"><ele>44.0</ele><time>2026-04-09T08:08:17.956Z</time></trkpt><trkpt lat="45.10028584921588" lon="9.680319490450168"><ele>44.0</ele><time>2026-04-09T08:08:19.955Z</time></trkpt><trkpt lat="45.10033029099709" lon="9.680182526836358"><ele>44.400000000000006</ele><time>2026-04-09T08:08:21.955Z</time></trkpt><trkpt lat="45.10037514088684" lon="9.680044305476757"><ele>44.8</ele><time>2026-04-09T08:08:23.955Z</time></trkpt><trkpt lat="45.100421130193624" lon="9.679902572583687"><ele>45.2</ele><time>2026-04-09T08:08:25.955Z</time></trkpt><trkpt lat="45.100466687575455" lon="9.679761235679818"><ele>45.599999999999994</ele><time>2026-04-09T08:08:27.955Z</time></trkpt><trkpt lat="45.10051235321085" lon="9.679620142665827"><ele>46.0</ele><time>2026-04-09T08:08:29.955Z</time></trkpt><trkpt lat="45.100558041842" lon="9.679479677622096"><ele>45.8</ele><time>2026-04-09T08:08:31.955Z</time></trkpt><trkpt lat="45.10060229911556" lon="9.679343613136671"><ele>45.599999999999994</ele><time>2026-04-09T08:08:33.955Z</time></trkpt><trkpt lat="45.10064710337671" lon="9.679205866998533"><ele>45.4</ele><time>2026-04-09T08:08:35.955Z</time></trkpt><trkpt lat="45.1006908179763" lon="9.6790722086664"><ele>45.2</ele><time>2026-04-09T08:08:37.955Z</time></trkpt><trkpt lat="45.100735392321575" lon="9.67893749822919"><ele>45.0</ele><time>2026-04-09T08:08:39.955Z</time></trkpt><trkpt lat="45.10078124900898" lon="9.678798997090858"><ele>44.8</ele><time>2026-04-09T08:08:41.955Z</time></trkpt><trkpt lat="45.10082300919125" lon="9.67865167015274"><ele>44.6</ele><time>2026-04-09T08:08:43.955Z</time></trkpt><trkpt lat="45.100850656715785" lon="9.678515369168839"><ele>44.400000000000006</ele><time>2026-04-09T08:08:45.955Z</time></trkpt><trkpt lat="45.100858680017396" lon="9.678359056513813"><ele>44.2</ele><time>2026-04-09T08:08:47.955Z</time></trkpt><trkpt lat="45.100833218594616" lon="9.678206133966013"><ele>44.0</ele><time>2026-04-09T08:08:49.955Z</time></trkpt><trkpt lat="45.10082490500198" lon="9.678052381811668"><ele>44.0</ele><time>2026-04-09T08:08:51.955Z</time></trkpt><trkpt lat="45.100783368349525" lon="9.677909897731633"><ele>44.0</ele><time>2026-04-09T08:08:53.955Z</time></trkpt><trkpt lat="45.10073109609032" lon="9.677784989872807"><ele>44.0</ele><time>2026-04-09T08:08:55.955Z</time></trkpt><trkpt lat="45.10067811645686" lon="9.677674252187554"><ele>44.0</ele><time>2026-04-09T08:08:57.955Z</time></trkpt><trkpt lat="45.10061962162764" lon="9.677556446233021"><ele>44.0</ele><time>2026-04-09T08:08:59.955Z</time></trkpt><trkpt lat="45.100565179916515" lon="9.677442701408461"><ele>44.0</ele><time>2026-04-09T08:09:01.955Z</time></trkpt><trkpt lat="45.10051171875508" lon="9.67732365661059"><ele>44.0</ele><time>2026-04-09T08:09:03.955Z</time></trkpt><trkpt lat="45.10046049105185" lon="9.677205242668888"><ele>44.0</ele><time>2026-04-09T08:09:05.955Z</time></trkpt><trkpt lat="45.10041547378258" lon="9.677092874666268"><ele>44.0</ele><time>2026-04-09T08:09:07.954Z</time></trkpt><trkpt lat="45.100385547648926" lon="9.676983754536984"><ele>44.0</ele><time>2026-04-09T08:09:09.954Z</time></trkpt><trkpt lat="45.10035952775548" lon="9.676870098159936"><ele>44.6</ele><time>2026-04-09T08:09:11.954Z</time></trkpt><trkpt lat="45.100342621152585" lon="9.676732567429136"><ele>45.2</ele><time>2026-04-09T08:09:13.954Z</time></trkpt><trkpt lat="45.10034432552717" lon="9.676591064002396"><ele>45.800000000000004</ele><time>2026-04-09T08:09:15.954Z</time></trkpt><trkpt lat="45.10034694119359" lon="9.676448657447049"><ele>46.400000000000006</ele><time>2026-04-09T08:09:17.954Z</time></trkpt><trkpt lat="45.1003623170378" lon="9.676304093280416"><ele>47.0</ele><time>2026-04-09T08:09:19.954Z</time></trkpt><trkpt lat="45.10041605197416" lon="9.676176936800156"><ele>47.0</ele><time>2026-04-09T08:09:21.954Z</time></trkpt><trkpt lat="45.10043303445039" lon="9.676041031687124"><ele>47.0</ele><time>2026-04-09T08:09:23.954Z</time></trkpt><trkpt lat="45.100450603651716" lon="9.675907635182607"><ele>47.0</ele><time>2026-04-09T08:09:25.954Z</time></trkpt><trkpt lat="45.100468686393775" lon="9.675770339303261"><ele>47.0</ele><time>2026-04-09T08:09:27.954Z</time></trkpt><trkpt lat="45.10046955006693" lon="9.675635643421712"><ele>47.0</ele><time>2026-04-09T08:09:29.954Z</time></trkpt><trkpt lat="45.10050380675581" lon="9.6755036829796"><ele>47.0</ele><time>2026-04-09T08:09:31.954Z</time></trkpt><trkpt lat="45.1005214002465" lon="9.675370101868301"><ele>47.0</ele><time>2026-04-09T08:09:33.954Z</time></trkpt><trkpt lat="45.10054025989309" lon="9.675226907335055"><ele>47.0</ele><time>2026-04-09T08:09:35.954Z</time></trkpt><trkpt lat="45.1005584666387" lon="9.675088669988067"><ele>47.0</ele><time>2026-04-09T08:09:37.955Z</time></trkpt><trkpt lat="45.10057676772788" lon="9.674948639510028"><ele>47.0</ele><time>2026-04-09T08:09:39.954Z</time></trkpt><trkpt lat="45.1005928033128" lon="9.67482304398807"><ele>46.6</ele><time>2026-04-09T08:09:41.954Z</time></trkpt><trkpt lat="45.100610182231655" lon="9.674686927133003"><ele>46.2</ele><time>2026-04-09T08:09:43.954Z</time></trkpt><trkpt lat="45.10062780423261" lon="9.674548607265839"><ele>45.8</ele><time>2026-04-09T08:09:45.954Z</time></trkpt><trkpt lat="45.10064462340697" lon="9.67441617781787"><ele>45.4</ele><time>2026-04-09T08:09:47.954Z</time></trkpt><trkpt lat="45.10066235750142" lon="9.67427282763364"><ele>45.0</ele><time>2026-04-09T08:09:49.954Z</time></trkpt><trkpt lat="45.10067901473436" lon="9.6741367056602"><ele>45.0</ele><time>2026-04-09T08:09:51.954Z</time></trkpt><trkpt lat="45.10069636953805" lon="9.67399488317069"><ele>45.0</ele><time>2026-04-09T08:09:53.954Z</time></trkpt><trkpt lat="45.10071244003181" lon="9.673863555953627"><ele>45.0</ele><time>2026-04-09T08:09:55.954Z</time></trkpt><trkpt lat="45.100717766919075" lon="9.673724372844868"><ele>45.0</ele><time>2026-04-09T08:09:57.954Z</time></trkpt><trkpt lat="45.10073111949669" lon="9.673592980769326"><ele>45.0</ele><time>2026-04-09T08:09:59.954Z</time></trkpt><trkpt lat="45.10074918595951" lon="9.673460021889875"><ele>45.0</ele><time>2026-04-09T08:10:01.954Z</time></trkpt><trkpt lat="45.10076149110233" lon="9.673316368732268"><ele>45.0</ele><time>2026-04-09T08:10:03.954Z</time></trkpt><trkpt lat="45.10076528652562" lon="9.673176804330263"><ele>45.0</ele><time>2026-04-09T08:10:05.954Z</time></trkpt><trkpt lat="45.10077936724305" lon="9.673037823823726"><ele>45.0</ele><time>2026-04-09T08:10:07.954Z</time></trkpt><trkpt lat="45.10074825407337" lon="9.67290351802306"><ele>45.0</ele><time>2026-04-09T08:10:09.954Z</time></trkpt><trkpt lat="45.10073660549984" lon="9.672761878561417"><ele>44.8</ele><time>2026-04-09T08:10:11.954Z</time></trkpt><trkpt lat="45.100686289370124" lon="9.672636260609533"><ele>44.6</ele><time>2026-04-09T08:10:13.954Z</time></trkpt><trkpt lat="45.1006470711118" lon="9.6725003817245"><ele>44.400000000000006</ele><time>2026-04-09T08:10:15.954Z</time></trkpt><trkpt lat="45.10060956430308" lon="9.67236953990272"><ele>44.2</ele><time>2026-04-09T08:10:17.954Z</time></trkpt><trkpt lat="45.10056345706771" lon="9.672254369128966"><ele>44.0</ele><time>2026-04-09T08:10:19.953Z</time></trkpt><trkpt lat="45.10051450650931" lon="9.672129995929899"><ele>44.0</ele><time>2026-04-09T08:10:21.953Z</time></trkpt><trkpt lat="45.10047212548596" lon="9.672003532857202"><ele>44.0</ele><time>2026-04-09T08:10:23.953Z</time></trkpt><trkpt lat="45.10043235665761" lon="9.671868898789729"><ele>44.0</ele><time>2026-04-09T08:10:25.953Z</time></trkpt><trkpt lat="45.100379711213826" lon="9.671736245159144"><ele>44.0</ele><time>2026-04-09T08:10:27.953Z</time></trkpt><trkpt lat="45.10033493692874" lon="9.671599983853849"><ele>44.0</ele><time>2026-04-09T08:10:29.953Z</time></trkpt><trkpt lat="45.100286169383374" lon="9.671470427278704"><ele>44.0</ele><time>2026-04-09T08:10:31.953Z</time></trkpt><trkpt lat="45.10024691496837" lon="9.671339467501397"><ele>44.0</ele><time>2026-04-09T08:10:33.953Z</time></trkpt><trkpt lat="45.100249455708884" lon="9.671202377301876"><ele>44.0</ele><time>2026-04-09T08:10:35.953Z</time></trkpt><trkpt lat="45.100252362146755" lon="9.67107526644782"><ele>44.0</ele><time>2026-04-09T08:10:37.953Z</time></trkpt><trkpt lat="45.100274531992746" lon="9.670960988701891"><ele>44.0</ele><time>2026-04-09T08:10:39.953Z</time></trkpt><trkpt lat="45.10030991260876" lon="9.670851588774807"><ele>44.0</ele><time>2026-04-09T08:10:41.953Z</time></trkpt><trkpt lat="45.10035543152924" lon="9.67072692662097"><ele>44.0</ele><time>2026-04-09T08:10:43.953Z</time></trkpt><trkpt lat="45.100404720241656" lon="9.67059952463555"><ele>44.0</ele><time>2026-04-09T08:10:45.953Z</time></trkpt><trkpt lat="45.100456954971904" lon="9.670470590934361"><ele>44.0</ele><time>2026-04-09T08:10:47.953Z</time></trkpt><trkpt lat="45.10050930810595" lon="9.670341364825106"><ele>44.0</ele><time>2026-04-09T08:10:49.953Z</time></trkpt><trkpt lat="45.10055369039271" lon="9.670203641467053"><ele>44.0</ele><time>2026-04-09T08:10:51.953Z</time></trkpt><trkpt lat="45.100603805592534" lon="9.670074328166251"><ele>44.0</ele><time>2026-04-09T08:10:53.953Z</time></trkpt><trkpt lat="45.10065187213284" lon="9.669941434836737"><ele>44.0</ele><time>2026-04-09T08:10:55.953Z</time></trkpt><trkpt lat="45.10070628035629" lon="9.66981276211524"><ele>44.0</ele><time>2026-04-09T08:10:57.953Z</time></trkpt><trkpt lat="45.10072400637486" lon="9.669661191947728"><ele>44.0</ele><time>2026-04-09T08:10:59.953Z</time></trkpt><trkpt lat="45.10073709129903" lon="9.669516209760642"><ele>44.6</ele><time>2026-04-09T08:11:01.953Z</time></trkpt><trkpt lat="45.100737688124205" lon="9.669369885064832"><ele>45.2</ele><time>2026-04-09T08:11:03.953Z</time></trkpt><trkpt lat="45.100725832533534" lon="9.669224926049747"><ele>45.800000000000004</ele><time>2026-04-09T08:11:05.953Z</time></trkpt><trkpt lat="45.10072060753786" lon="9.669081580293238"><ele>46.400000000000006</ele><time>2026-04-09T08:11:07.952Z</time></trkpt><trkpt lat="45.10070154221693" lon="9.668936997881314"><ele>47.0</ele><time>2026-04-09T08:11:09.952Z</time></trkpt><trkpt lat="45.100690314147286" lon="9.668793164408877"><ele>47.0</ele><time>2026-04-09T08:11:11.952Z</time></trkpt><trkpt lat="45.1006721899814" lon="9.66865977924203"><ele>47.0</ele><time>2026-04-09T08:11:13.952Z</time></trkpt><trkpt lat="45.10066495144476" lon="9.668521922040703"><ele>47.0</ele><time>2026-04-09T08:11:15.952Z</time></trkpt><trkpt lat="45.10064746836921" lon="9.668378127090898"><ele>47.0</ele><time>2026-04-09T08:11:17.952Z</time></trkpt><trkpt lat="45.10062947601258" lon="9.668229349231053"><ele>47.0</ele><time>2026-04-09T08:11:19.952Z</time></trkpt><trkpt lat="45.10061793965328" lon="9.66808363477472"><ele>47.2</ele><time>2026-04-09T08:11:21.952Z</time></trkpt><trkpt lat="45.10061204819475" lon="9.667935035895422"><ele>47.400000000000006</ele><time>2026-04-09T08:11:23.952Z</time></trkpt><trkpt lat="45.10058878498584" lon="9.66779144665678"><ele>47.599999999999994</ele><time>2026-04-09T08:11:25.952Z</time></trkpt><trkpt lat="45.10057197873817" lon="9.667650546091235"><ele>47.8</ele><time>2026-04-09T08:11:27.952Z</time></trkpt><trkpt lat="45.100562850937756" lon="9.667499455451013"><ele>48.0</ele><time>2026-04-09T08:11:29.952Z</time></trkpt><trkpt lat="45.100546233892516" lon="9.667355537842667"><ele>47.599999999999994</ele><time>2026-04-09T08:11:31.952Z</time></trkpt><trkpt lat="45.1005360067146" lon="9.667205085746408"><ele>47.199999999999996</ele><time>2026-04-09T08:11:33.952Z</time></trkpt><trkpt lat="45.100520103692226" lon="9.667058597767914"><ele>46.8</ele><time>2026-04-09T08:11:35.952Z</time></trkpt><trkpt lat="45.10050756267654" lon="9.666914978242204"><ele>46.4</ele><time>2026-04-09T08:11:37.952Z</time></trkpt><trkpt lat="45.10049186295603" lon="9.66677285394958"><ele>46.0</ele><time>2026-04-09T08:11:39.952Z</time></trkpt><trkpt lat="45.10048803508099" lon="9.666629581766122"><ele>45.8</ele><time>2026-04-09T08:11:41.952Z</time></trkpt><trkpt lat="45.10047493109676" lon="9.666490562133532"><ele>45.599999999999994</ele><time>2026-04-09T08:11:43.952Z</time></trkpt><trkpt lat="45.100462140522" lon="9.666354869803321"><ele>45.4</ele><time>2026-04-09T08:11:45.953Z</time></trkpt><trkpt lat="45.100449086587105" lon="9.666219876291526"><ele>45.2</ele><time>2026-04-09T08:11:47.952Z</time></trkpt><trkpt lat="45.10043744983924" lon="9.666083726318185"><ele>45.0</ele><time>2026-04-09T08:11:49.952Z</time></trkpt><trkpt lat="45.10040930725063" lon="9.665942840650809"><ele>45.0</ele><time>2026-04-09T08:11:51.952Z</time></trkpt><trkpt lat="45.10039610262761" lon="9.66579328253214"><ele>45.0</ele><time>2026-04-09T08:11:53.952Z</time></trkpt><trkpt lat="45.10038239233003" lon="9.665642434430447"><ele>45.0</ele><time>2026-04-09T08:11:55.953Z</time></trkpt><trkpt lat="45.10038569041016" lon="9.665504016870404"><ele>45.0</ele><time>2026-04-09T08:11:57.952Z</time></trkpt><trkpt lat="45.10037265938191" lon="9.66535878500315"><ele>45.0</ele><time>2026-04-09T08:11:59.952Z</time></trkpt><trkpt lat="45.10035979977437" lon="9.665215463602465"><ele>44.8</ele><time>2026-04-09T08:12:01.952Z</time></trkpt><trkpt lat="45.10033737510822" lon="9.665077959615324"><ele>44.6</ele><time>2026-04-09T08:12:03.952Z</time></trkpt><trkpt lat="45.10032363004609" lon="9.664931854865678"><ele>44.400000000000006</ele><time>2026-04-09T08:12:05.951Z</time></trkpt><trkpt lat="45.100307044340646" lon="9.664786428170915"><ele>44.2</ele><time>2026-04-09T08:12:07.951Z</time></trkpt><trkpt lat="45.100295137013426" lon="9.664642637257884"><ele>44.0</ele><time>2026-04-09T08:12:09.951Z</time></trkpt><trkpt lat="45.100282134553176" lon="9.664491264381459"><ele>44.2</ele><time>2026-04-09T08:12:11.951Z</time></trkpt><trkpt lat="45.1002648677131" lon="9.664341200831519"><ele>44.400000000000006</ele><time>2026-04-09T08:12:13.951Z</time></trkpt><trkpt lat="45.100249910772604" lon="9.66418082462438"><ele>44.6</ele><time>2026-04-09T08:12:15.951Z</time></trkpt><trkpt lat="45.1002375510633" lon="9.66402578517673"><ele>44.8</ele><time>2026-04-09T08:12:17.951Z</time></trkpt><trkpt lat="45.100224833844734" lon="9.663870871129486"><ele>45.0</ele><time>2026-04-09T08:12:19.951Z</time></trkpt><trkpt lat="45.100228073059895" lon="9.66371206463021"><ele>45.4</ele><time>2026-04-09T08:12:21.951Z</time></trkpt><trkpt lat="45.10021367233344" lon="9.663557312639991"><ele>45.8</ele><time>2026-04-09T08:12:23.951Z</time></trkpt><trkpt lat="45.100198096583966" lon="9.663400885430839"><ele>46.2</ele><time>2026-04-09T08:12:25.951Z</time></trkpt><trkpt lat="45.10017571083389" lon="9.663248954662851"><ele>46.6</ele><time>2026-04-09T08:12:27.951Z</time></trkpt><trkpt lat="45.10014854278504" lon="9.663110841551823"><ele>47.0</ele><time>2026-04-09T08:12:29.951Z</time></trkpt><trkpt lat="45.100108817467444" lon="9.662967152668283"><ele>47.0</ele><time>2026-04-09T08:12:31.951Z</time></trkpt><trkpt lat="45.10006835880067" lon="9.662825477285878"><ele>47.0</ele><time>2026-04-09T08:12:33.951Z</time></trkpt><trkpt lat="45.100025191086644" lon="9.662679086918306"><ele>47.0</ele><time>2026-04-09T08:12:35.951Z</time></trkpt><trkpt lat="45.09998409120703" lon="9.662539709007685"><ele>47.0</ele><time>2026-04-09T08:12:37.951Z</time></trkpt><trkpt lat="45.09993025494468" lon="9.662402034782431"><ele>47.0</ele><time>2026-04-09T08:12:39.951Z</time></trkpt><trkpt lat="45.09988581781746" lon="9.662263543179499"><ele>46.6</ele><time>2026-04-09T08:12:41.951Z</time></trkpt><trkpt lat="45.09983810043812" lon="9.662123780126587"><ele>46.2</ele><time>2026-04-09T08:12:43.951Z</time></trkpt><trkpt lat="45.099802199912446" lon="9.661980103180651"><ele>45.8</ele><time>2026-04-09T08:12:45.951Z</time></trkpt><trkpt lat="45.09975775155642" lon="9.661843157631441"><ele>45.4</ele><time>2026-04-09T08:12:47.951Z</time></trkpt><trkpt lat="45.09971497412837" lon="9.661709470435605"><ele>45.0</ele><time>2026-04-09T08:12:49.951Z</time></trkpt><trkpt lat="45.09967313324562" lon="9.661573439504497"><ele>45.0</ele><time>2026-04-09T08:12:51.951Z</time></trkpt><trkpt lat="45.09962917369326" lon="9.661438640690164"><ele>45.0</ele><time>2026-04-09T08:12:53.951Z</time></trkpt><trkpt lat="45.09958561875931" lon="9.661304098864898"><ele>45.0</ele><time>2026-04-09T08:12:55.95Z</time></trkpt><trkpt lat="45.099549547757164" lon="9.661167014651367"><ele>45.0</ele><time>2026-04-09T08:12:57.95Z</time></trkpt><trkpt lat="45.09950460337958" lon="9.661026343591459"><ele>45.0</ele><time>2026-04-09T08:12:59.95Z</time></trkpt><trkpt lat="45.0994597700354" lon="9.660887166796451"><ele>45.0</ele><time>2026-04-09T08:13:01.95Z</time></trkpt><trkpt lat="45.09942033718396" lon="9.660750819957482"><ele>45.0</ele><time>2026-04-09T08:13:03.95Z</time></trkpt><trkpt lat="45.09937735617657" lon="9.660613134602968"><ele>45.0</ele><time>2026-04-09T08:13:05.95Z</time></trkpt><trkpt lat="45.09933977486254" lon="9.66046868024476"><ele>45.0</ele><time>2026-04-09T08:13:07.95Z</time></trkpt><trkpt lat="45.09929506080333" lon="9.660329579130192"><ele>45.0</ele><time>2026-04-09T08:13:09.95Z</time></trkpt><trkpt lat="45.09925109472726" lon="9.660203029375491"><ele>45.0</ele><time>2026-04-09T08:13:11.95Z</time></trkpt><trkpt lat="45.09921834023631" lon="9.660066102685548"><ele>45.0</ele><time>2026-04-09T08:13:13.95Z</time></trkpt><trkpt lat="45.0991726344423" lon="9.659934390926525"><ele>45.0</ele><time>2026-04-09T08:13:15.95Z</time></trkpt><trkpt lat="45.0991294597551" lon="9.659803211806313"><ele>45.0</ele><time>2026-04-09T08:13:17.95Z</time></trkpt><trkpt lat="45.09909351453278" lon="9.659668979990364"><ele>45.0</ele><time>2026-04-09T08:13:19.95Z</time></trkpt><trkpt lat="45.09905002251211" lon="9.65953700959195"><ele>44.8</ele><time>2026-04-09T08:13:21.95Z</time></trkpt><trkpt lat="45.099000580801956" lon="9.65941237514541"><ele>44.6</ele><time>2026-04-09T08:13:23.95Z</time></trkpt><trkpt lat="45.09895720685906" lon="9.65928535610236"><ele>44.400000000000006</ele><time>2026-04-09T08:13:25.95Z</time></trkpt><trkpt lat="45.098912326272" lon="9.659154682924568"><ele>44.2</ele><time>2026-04-09T08:13:27.95Z</time></trkpt><trkpt lat="45.09889552893537" lon="9.65901161713635"><ele>44.0</ele><time>2026-04-09T08:13:29.95Z</time></trkpt><trkpt lat="45.09884035233072" lon="9.658890369985208"><ele>44.0</ele><time>2026-04-09T08:13:31.95Z</time></trkpt><trkpt lat="45.09881404111989" lon="9.658750282515797"><ele>44.0</ele><time>2026-04-09T08:13:33.95Z</time></trkpt><trkpt lat="45.098770576102886" lon="9.658610167828122"><ele>44.0</ele><time>2026-04-09T08:13:35.95Z</time></trkpt><trkpt lat="45.098730117054195" lon="9.658481375429501"><ele>44.0</ele><time>2026-04-09T08:13:37.95Z</time></trkpt><trkpt lat="45.09868769981998" lon="9.658346349634156"><ele>44.0</ele><time>2026-04-09T08:13:39.95Z</time></trkpt><trkpt lat="45.09864059160068" lon="9.658219719004947"><ele>44.2</ele><time>2026-04-09T08:13:41.95Z</time></trkpt><trkpt lat="45.09859882518659" lon="9.658087663158984"><ele>44.400000000000006</ele><time>2026-04-09T08:13:43.949Z</time></trkpt><trkpt lat="45.09855539281932" lon="9.657960643033734"><ele>44.6</ele><time>2026-04-09T08:13:45.949Z</time></trkpt><trkpt lat="45.09851780371046" lon="9.657821993732489"><ele>44.8</ele><time>2026-04-09T08:13:47.949Z</time></trkpt><trkpt lat="45.09847140481411" lon="9.657689320724328"><ele>45.0</ele><time>2026-04-09T08:13:49.95Z</time></trkpt><trkpt lat="45.09843470665116" lon="9.657557664916858"><ele>45.2</ele><time>2026-04-09T08:13:51.95Z</time></trkpt><trkpt lat="45.098397140691624" lon="9.65742468803485"><ele>45.4</ele><time>2026-04-09T08:13:53.95Z</time></trkpt><trkpt lat="45.09834990411288" lon="9.657293437631694"><ele>45.599999999999994</ele><time>2026-04-09T08:13:55.95Z</time></trkpt><trkpt lat="45.098306763907786" lon="9.657167234194334"><ele>45.8</ele><time>2026-04-09T08:13:57.95Z</time></trkpt><trkpt lat="45.09826327634524" lon="9.657043207554949"><ele>46.0</ele><time>2026-04-09T08:13:59.95Z</time></trkpt><trkpt lat="45.098237687374386" lon="9.656903743879624"><ele>46.4</ele><time>2026-04-09T08:14:01.95Z</time></trkpt><trkpt lat="45.09819752750479" lon="9.656772055674004"><ele>46.8</ele><time>2026-04-09T08:14:03.949Z</time></trkpt><trkpt lat="45.098145843452336" lon="9.656651003565914"><ele>47.199999999999996</ele><time>2026-04-09T08:14:05.949Z</time></trkpt><trkpt lat="45.09812477277023" lon="9.656513322133549"><ele>47.599999999999994</ele><time>2026-04-09T08:14:07.949Z</time></trkpt><trkpt lat="45.09809192553534" lon="9.65638503366686"><ele>48.0</ele><time>2026-04-09T08:14:09.949Z</time></trkpt><trkpt lat="45.09806589094357" lon="9.656253264427464"><ele>48.0</ele><time>2026-04-09T08:14:11.949Z</time></trkpt><trkpt lat="45.098040192108996" lon="9.656121688453474"><ele>48.0</ele><time>2026-04-09T08:14:13.949Z</time></trkpt><trkpt lat="45.09801932786812" lon="9.655986557681906"><ele>48.0</ele><time>2026-04-09T08:14:15.949Z</time></trkpt><trkpt lat="45.09802035160105" lon="9.655842046169276"><ele>48.0</ele><time>2026-04-09T08:14:17.949Z</time></trkpt><trkpt lat="45.09800834887063" lon="9.655692295061927"><ele>48.0</ele><time>2026-04-09T08:14:19.949Z</time></trkpt><trkpt lat="45.09800165946737" lon="9.655544771039049"><ele>47.8</ele><time>2026-04-09T08:14:21.949Z</time></trkpt><trkpt lat="45.097998159245044" lon="9.655401402598663"><ele>47.599999999999994</ele><time>2026-04-09T08:14:23.949Z</time></trkpt><trkpt lat="45.09799757652599" lon="9.65525938081914"><ele>47.400000000000006</ele><time>2026-04-09T08:14:25.949Z</time></trkpt><trkpt lat="45.09799865475289" lon="9.655119882673269"><ele>47.2</ele><time>2026-04-09T08:14:27.949Z</time></trkpt><trkpt lat="45.09798833912374" lon="9.654971559655593"><ele>47.0</ele><time>2026-04-09T08:14:29.949Z</time></trkpt><trkpt lat="45.09801233538483" lon="9.654835926675082"><ele>46.8</ele><time>2026-04-09T08:14:31.949Z</time></trkpt><trkpt lat="45.09802652752091" lon="9.654699657213506"><ele>46.6</ele><time>2026-04-09T08:14:33.949Z</time></trkpt><trkpt lat="45.09804912977426" lon="9.654560608039011"><ele>46.4</ele><time>2026-04-09T08:14:35.949Z</time></trkpt><trkpt lat="45.098078603805654" lon="9.654411333962178"><ele>46.199999999999996</ele><time>2026-04-09T08:14:37.949Z</time></trkpt><trkpt lat="45.098106437636496" lon="9.6542708787903"><ele>46.0</ele><time>2026-04-09T08:14:39.949Z</time></trkpt><trkpt lat="45.09813535769679" lon="9.654135311411306"><ele>45.8</ele><time>2026-04-09T08:14:41.949Z</time></trkpt><trkpt lat="45.09816495984128" lon="9.6539981726756"><ele>45.599999999999994</ele><time>2026-04-09T08:14:43.949Z</time></trkpt><trkpt lat="45.098189333940034" lon="9.653851002861117"><ele>45.4</ele><time>2026-04-09T08:14:45.949Z</time></trkpt><trkpt lat="45.098217023733454" lon="9.65371213808552"><ele>45.2</ele><time>2026-04-09T08:14:47.949Z</time></trkpt><trkpt lat="45.09825036667105" lon="9.653569115108388"><ele>45.0</ele><time>2026-04-09T08:14:49.948Z</time></trkpt><trkpt lat="45.098282904801884" lon="9.653423748034273"><ele>45.0</ele><time>2026-04-09T08:14:51.948Z</time></trkpt><trkpt lat="45.09831256271384" lon="9.653283712112742"><ele>45.0</ele><time>2026-04-09T08:14:53.948Z</time></trkpt><trkpt lat="45.09834512644374" lon="9.653142538872052"><ele>45.0</ele><time>2026-04-09T08:14:55.948Z</time></trkpt><trkpt lat="45.098383468347016" lon="9.653002625040138"><ele>45.0</ele><time>2026-04-09T08:14:57.948Z</time></trkpt><trkpt lat="45.09840925663269" lon="9.652866112630097"><ele>45.0</ele><time>2026-04-09T08:14:59.948Z</time></trkpt><trkpt lat="45.09843832952861" lon="9.652716254877614"><ele>45.2</ele><time>2026-04-09T08:15:01.948Z</time></trkpt><trkpt lat="45.098476223913735" lon="9.65257315994496"><ele>45.4</ele><time>2026-04-09T08:15:03.948Z</time></trkpt><trkpt lat="45.0985049126113" lon="9.652432364363676"><ele>45.599999999999994</ele><time>2026-04-09T08:15:05.948Z</time></trkpt><trkpt lat="45.09854584682559" lon="9.652306282066343"><ele>45.8</ele><time>2026-04-09T08:15:07.948Z</time></trkpt><trkpt lat="45.09857528576613" lon="9.652178780182938"><ele>46.0</ele><time>2026-04-09T08:15:09.948Z</time></trkpt><trkpt lat="45.09860674376347" lon="9.652042533628615"><ele>46.199999999999996</ele><time>2026-04-09T08:15:11.948Z</time></trkpt><trkpt lat="45.098637037079605" lon="9.651909333806662"><ele>46.4</ele><time>2026-04-09T08:15:13.948Z</time></trkpt><trkpt lat="45.09866004461185" lon="9.651765850077968"><ele>46.6</ele><time>2026-04-09T08:15:15.948Z</time></trkpt><trkpt lat="45.098688408648925" lon="9.65162633081178"><ele>46.8</ele><time>2026-04-09T08:15:17.948Z</time></trkpt><trkpt lat="45.098714056347845" lon="9.651490878638741"><ele>47.0</ele><time>2026-04-09T08:15:19.948Z</time></trkpt><trkpt lat="45.09873571813045" lon="9.651360479284948"><ele>47.0</ele><time>2026-04-09T08:15:21.948Z</time></trkpt><trkpt lat="45.09874825410434" lon="9.65121942974396"><ele>47.0</ele><time>2026-04-09T08:15:23.948Z</time></trkpt><trkpt lat="45.09876033447598" lon="9.651072789685092"><ele>47.0</ele><time>2026-04-09T08:15:25.948Z</time></trkpt><trkpt lat="45.0987586981286" lon="9.650940262631565"><ele>47.0</ele><time>2026-04-09T08:15:27.948Z</time></trkpt><trkpt lat="45.0987708327691" lon="9.650804359287726"><ele>47.0</ele><time>2026-04-09T08:15:29.948Z</time></trkpt><trkpt lat="45.09873842211311" lon="9.650681558459352"><ele>46.8</ele><time>2026-04-09T08:15:31.948Z</time></trkpt><trkpt lat="45.09870769988383" lon="9.650557594197604"><ele>46.6</ele><time>2026-04-09T08:15:33.948Z</time></trkpt><trkpt lat="45.09866712547082" lon="9.650436751474967"><ele>46.4</ele><time>2026-04-09T08:15:35.948Z</time></trkpt><trkpt lat="45.09862248572" lon="9.650323050940576"><ele>46.199999999999996</ele><time>2026-04-09T08:15:37.948Z</time></trkpt><trkpt lat="45.098569008465915" lon="9.650210488873364"><ele>46.0</ele><time>2026-04-09T08:15:39.947Z</time></trkpt><trkpt lat="45.098511690828595" lon="9.650098445328014"><ele>46.4</ele><time>2026-04-09T08:15:41.947Z</time></trkpt><trkpt lat="45.09846039817989" lon="9.64998936881728"><ele>46.8</ele><time>2026-04-09T08:15:43.947Z</time></trkpt><trkpt lat="45.09841010741968" lon="9.649876950921989"><ele>47.199999999999996</ele><time>2026-04-09T08:15:45.947Z</time></trkpt><trkpt lat="45.09835894682105" lon="9.649758516308166"><ele>47.599999999999994</ele><time>2026-04-09T08:15:47.947Z</time></trkpt><trkpt lat="45.098304044153124" lon="9.64963930121328"><ele>48.0</ele><time>2026-04-09T08:15:49.947Z</time></trkpt><trkpt lat="45.09825567467466" lon="9.649522980285202"><ele>47.8</ele><time>2026-04-09T08:15:51.947Z</time></trkpt><trkpt lat="45.098205590459884" lon="9.649406934396039"><ele>47.599999999999994</ele><time>2026-04-09T08:15:53.947Z</time></trkpt><trkpt lat="45.098161757853504" lon="9.649283853641425"><ele>47.400000000000006</ele><time>2026-04-09T08:15:55.949Z</time></trkpt><trkpt lat="45.09816924387511" lon="9.64912688835376"><ele>47.2</ele><time>2026-04-09T08:15:57.948Z</time></trkpt><trkpt lat="45.09817348494966" lon="9.64898918334157"><ele>47.0</ele><time>2026-04-09T08:15:59.948Z</time></trkpt><trkpt lat="45.09819375254615" lon="9.64885409885434"><ele>47.0</ele><time>2026-04-09T08:16:01.948Z</time></trkpt><trkpt lat="45.09822630135187" lon="9.648715708713778"><ele>47.0</ele><time>2026-04-09T08:16:03.948Z</time></trkpt><trkpt lat="45.09826565862972" lon="9.648584945038412"><ele>47.0</ele><time>2026-04-09T08:16:05.948Z</time></trkpt><trkpt lat="45.098302397642655" lon="9.648452921661953"><ele>47.0</ele><time>2026-04-09T08:16:07.948Z</time></trkpt><trkpt lat="45.09834709871836" lon="9.648328373556485"><ele>47.0</ele><time>2026-04-09T08:16:09.947Z</time></trkpt><trkpt lat="45.09839418032757" lon="9.648212900108064"><ele>46.8</ele><time>2026-04-09T08:16:11.947Z</time></trkpt><trkpt lat="45.09844361462851" lon="9.648091126378208"><ele>46.6</ele><time>2026-04-09T08:16:13.947Z</time></trkpt><trkpt lat="45.09849394580951" lon="9.647971647439356"><ele>46.4</ele><time>2026-04-09T08:16:15.947Z</time></trkpt><trkpt lat="45.09855056235108" lon="9.647868453710363"><ele>46.199999999999996</ele><time>2026-04-09T08:16:17.947Z</time></trkpt><trkpt lat="45.09859648550791" lon="9.64775024328848"><ele>46.0</ele><time>2026-04-09T08:16:19.947Z</time></trkpt><trkpt lat="45.09864707150621" lon="9.647636843770314"><ele>45.8</ele><time>2026-04-09T08:16:21.947Z</time></trkpt><trkpt lat="45.098695682059045" lon="9.647523573585156"><ele>45.599999999999994</ele><time>2026-04-09T08:16:23.947Z</time></trkpt><trkpt lat="45.09875369810397" lon="9.647408899615227"><ele>45.4</ele><time>2026-04-09T08:16:25.947Z</time></trkpt><trkpt lat="45.098807753964095" lon="9.647296616715053"><ele>45.2</ele><time>2026-04-09T08:16:27.947Z</time></trkpt><trkpt lat="45.0988622942169" lon="9.647192109062608"><ele>45.0</ele><time>2026-04-09T08:16:29.947Z</time></trkpt><trkpt lat="45.09891577588289" lon="9.647090802440927"><ele>45.0</ele><time>2026-04-09T08:16:31.947Z</time></trkpt><trkpt lat="45.09897904051075" lon="9.646997281162932"><ele>45.0</ele><time>2026-04-09T08:16:33.947Z</time></trkpt><trkpt lat="45.099052659262306" lon="9.6469122301288"><ele>45.0</ele><time>2026-04-09T08:16:35.947Z</time></trkpt><trkpt lat="45.0991221629806" lon="9.64683089277872"><ele>45.0</ele><time>2026-04-09T08:16:37.947Z</time></trkpt><trkpt lat="45.09918765277684" lon="9.646761482449842"><ele>45.0</ele><time>2026-04-09T08:16:39.947Z</time></trkpt><trkpt lat="45.099255826636046" lon="9.646694994535304"><ele>45.0</ele><time>2026-04-09T08:16:41.947Z</time></trkpt><trkpt lat="45.09932419707567" lon="9.646634907374608"><ele>45.166666666666664</ele><time>2026-04-09T08:16:43.947Z</time></trkpt><trkpt lat="45.09938443032895" lon="9.646554128341018"><ele>45.333333333333336</ele><time>2026-04-09T08:16:45.947Z</time></trkpt><trkpt lat="45.09945088394472" lon="9.64647862939428"><ele>45.5</ele><time>2026-04-09T08:16:47.947Z</time></trkpt><trkpt lat="45.09952109159887" lon="9.646404343111918"><ele>45.66666666666667</ele><time>2026-04-09T08:16:49.947Z</time></trkpt><trkpt lat="45.09958907510459" lon="9.646328503436063"><ele>45.833333333333336</ele><time>2026-04-09T08:16:51.947Z</time></trkpt><trkpt lat="45.09965228297743" lon="9.646249694960368"><ele>46.0</ele><time>2026-04-09T08:16:53.947Z</time></trkpt><trkpt lat="45.09972389751771" lon="9.646171950659049"><ele>46.199999999999996</ele><time>2026-04-09T08:16:55.947Z</time></trkpt><trkpt lat="45.09978903433855" lon="9.646079170549754"><ele>46.4</ele><time>2026-04-09T08:16:57.946Z</time></trkpt><trkpt lat="45.09984408647257" lon="9.645967938273792"><ele>46.6</ele><time>2026-04-09T08:16:59.946Z</time></trkpt><trkpt lat="45.09989369005143" lon="9.645857263893948"><ele>46.8</ele><time>2026-04-09T08:17:01.946Z</time></trkpt><trkpt lat="45.09994887087868" lon="9.645734533599313"><ele>47.0</ele><time>2026-04-09T08:17:03.946Z</time></trkpt><trkpt lat="45.099989728945864" lon="9.645611370265843"><ele>47.0</ele><time>2026-04-09T08:17:05.946Z</time></trkpt><trkpt lat="45.1000266250594" lon="9.64549122861001"><ele>47.0</ele><time>2026-04-09T08:17:07.946Z</time></trkpt><trkpt lat="45.10006890295579" lon="9.645365250144112"><ele>47.0</ele><time>2026-04-09T08:17:09.946Z</time></trkpt><trkpt lat="45.10011109182116" lon="9.645234755949208"><ele>47.0</ele><time>2026-04-09T08:17:11.946Z</time></trkpt><trkpt lat="45.10014346411841" lon="9.64510617917447"><ele>47.0</ele><time>2026-04-09T08:17:13.945Z</time></trkpt><trkpt lat="45.100170960144055" lon="9.644986696494358"><ele>47.0</ele><time>2026-04-09T08:17:15.945Z</time></trkpt><trkpt lat="45.10020939459338" lon="9.644875210621716"><ele>47.0</ele><time>2026-04-09T08:17:17.944Z</time></trkpt><trkpt lat="45.10025088085398" lon="9.644766626227218"><ele>47.0</ele><time>2026-04-09T08:17:19.943Z</time></trkpt><trkpt lat="45.100292221099146" lon="9.644650308249895"><ele>47.0</ele><time>2026-04-09T08:17:21.943Z</time></trkpt><trkpt lat="45.10032552759158" lon="9.644536226348169"><ele>47.0</ele><time>2026-04-09T08:17:23.942Z</time></trkpt><trkpt lat="45.100351073600926" lon="9.644412123242498"><ele>47.0</ele><time>2026-04-09T08:17:25.942Z</time></trkpt><trkpt lat="45.10038686718081" lon="9.644290776981766"><ele>47.2</ele><time>2026-04-09T08:17:27.941Z</time></trkpt><trkpt lat="45.10042513889575" lon="9.644162245491406"><ele>47.400000000000006</ele><time>2026-04-09T08:17:29.941Z</time></trkpt><trkpt lat="45.1004674261917" lon="9.644033664493776"><ele>47.599999999999994</ele><time>2026-04-09T08:17:31.941Z</time></trkpt><trkpt lat="45.10051462683529" lon="9.643915028693407"><ele>47.8</ele><time>2026-04-09T08:17:33.94Z</time></trkpt><trkpt lat="45.1005640961478" lon="9.643797206367843"><ele>48.0</ele><time>2026-04-09T08:17:35.94Z</time></trkpt><trkpt lat="45.10062843545535" lon="9.643681915613834"><ele>47.8</ele><time>2026-04-09T08:17:37.94Z</time></trkpt><trkpt lat="45.10069389290108" lon="9.643578622093923"><ele>47.599999999999994</ele><time>2026-04-09T08:17:39.94Z</time></trkpt><trkpt lat="45.100750151519016" lon="9.6434600329494"><ele>47.400000000000006</ele><time>2026-04-09T08:17:41.939Z</time></trkpt><trkpt lat="45.10081220239726" lon="9.64334704344126"><ele>47.2</ele><time>2026-04-09T08:17:43.939Z</time></trkpt><trkpt lat="45.10087906099073" lon="9.643232708734446"><ele>47.0</ele><time>2026-04-09T08:17:45.939Z</time></trkpt><trkpt lat="45.10094391362883" lon="9.643121746016558"><ele>47.400000000000006</ele><time>2026-04-09T08:17:47.939Z</time></trkpt><trkpt lat="45.10101237501335" lon="9.64301666886624"><ele>47.800000000000004</ele><time>2026-04-09T08:17:49.939Z</time></trkpt><trkpt lat="45.101071490772306" lon="9.642906237814604"><ele>48.2</ele><time>2026-04-09T08:17:51.939Z</time></trkpt><trkpt lat="45.1011339930037" lon="9.64279196196143"><ele>48.6</ele><time>2026-04-09T08:17:53.939Z</time></trkpt><trkpt lat="45.10119157606378" lon="9.642680203520543"><ele>49.0</ele><time>2026-04-09T08:17:55.938Z</time></trkpt><trkpt lat="45.101257647718484" lon="9.642569573420795"><ele>49.0</ele><time>2026-04-09T08:17:57.938Z</time></trkpt><trkpt lat="45.10131135472368" lon="9.642458297476507"><ele>49.0</ele><time>2026-04-09T08:17:59.938Z</time></trkpt><trkpt lat="45.10139542076796" lon="9.642390625546225"><ele>49.0</ele><time>2026-04-09T08:18:01.939Z</time></trkpt><trkpt lat="45.10145100305009" lon="9.6422857712801"><ele>49.0</ele><time>2026-04-09T08:18:03.939Z</time></trkpt><trkpt lat="45.101509263469644" lon="9.642180471040282"><ele>49.0</ele><time>2026-04-09T08:18:05.939Z</time></trkpt><trkpt lat="45.101573169992974" lon="9.6420827311858"><ele>48.6</ele><time>2026-04-09T08:18:07.939Z</time></trkpt><trkpt lat="45.101644635353594" lon="9.64202395369204"><ele>48.2</ele><time>2026-04-09T08:18:09.939Z</time></trkpt><trkpt lat="45.10171766228895" lon="9.641977212512641"><ele>47.800000000000004</ele><time>2026-04-09T08:18:11.938Z</time></trkpt><trkpt lat="45.101805184272465" lon="9.642061060524393"><ele>47.400000000000006</ele><time>2026-04-09T08:18:13.938Z</time></trkpt><trkpt lat="45.10188060751566" lon="9.642161895114665"><ele>47.0</ele><time>2026-04-09T08:18:15.938Z</time></trkpt><trkpt lat="45.10195831321794" lon="9.64225069241306"><ele>47.0</ele><time>2026-04-09T08:18:17.938Z</time></trkpt><trkpt lat="45.10203613538347" lon="9.642335598748295"><ele>47.0</ele><time>2026-04-09T08:18:19.938Z</time></trkpt><trkpt lat="45.102112763654624" lon="9.642417339220781"><ele>47.0</ele><time>2026-04-09T08:18:21.938Z</time></trkpt><trkpt lat="45.102193283063876" lon="9.642498426754653"><ele>47.0</ele><time>2026-04-09T08:18:23.938Z</time></trkpt><trkpt lat="45.102270213582685" lon="9.642583977520134"><ele>47.0</ele><time>2026-04-09T08:18:25.938Z</time></trkpt><trkpt lat="45.10234721259294" lon="9.642663862611457"><ele>47.0</ele><time>2026-04-09T08:18:27.938Z</time></trkpt><trkpt lat="45.10242472391934" lon="9.642751599847225"><ele>47.0</ele><time>2026-04-09T08:18:29.938Z</time></trkpt><trkpt lat="45.10250308195044" lon="9.642835402016317"><ele>47.0</ele><time>2026-04-09T08:18:31.938Z</time></trkpt><trkpt lat="45.10258385654817" lon="9.642920725863737"><ele>47.0</ele><time>2026-04-09T08:18:33.938Z</time></trkpt><trkpt lat="45.10266581879535" lon="9.643005001497631"><ele>47.0</ele><time>2026-04-09T08:18:35.938Z</time></trkpt><trkpt lat="45.102745959118565" lon="9.643092049346537"><ele>47.0</ele><time>2026-04-09T08:18:37.938Z</time></trkpt><trkpt lat="45.10282576325182" lon="9.643171385544324"><ele>47.0</ele><time>2026-04-09T08:18:39.938Z</time></trkpt><trkpt lat="45.10290547309408" lon="9.643248665643354"><ele>47.0</ele><time>2026-04-09T08:18:41.938Z</time></trkpt><trkpt lat="45.10297716500484" lon="9.643334133118643"><ele>47.0</ele><time>2026-04-09T08:18:43.938Z</time></trkpt><trkpt lat="45.10305690798358" lon="9.643412614787378"><ele>47.0</ele><time>2026-04-09T08:18:45.938Z</time></trkpt><trkpt lat="45.103135902800695" lon="9.643494844298305"><ele>47.0</ele><time>2026-04-09T08:18:47.937Z</time></trkpt><trkpt lat="45.10321371348556" lon="9.643574561976802"><ele>47.0</ele><time>2026-04-09T08:18:49.937Z</time></trkpt><trkpt lat="45.10329020310316" lon="9.643660849068407"><ele>47.0</ele><time>2026-04-09T08:18:51.937Z</time></trkpt><trkpt lat="45.10337101923584" lon="9.643742150116863"><ele>47.0</ele><time>2026-04-09T08:18:53.937Z</time></trkpt><trkpt lat="45.10345306407777" lon="9.643829320334714"><ele>47.0</ele><time>2026-04-09T08:18:55.937Z</time></trkpt><trkpt lat="45.103528701580814" lon="9.64390893021992"><ele>46.8</ele><time>2026-04-09T08:18:57.937Z</time></trkpt><trkpt lat="45.10360790166236" lon="9.64398495440207"><ele>46.6</ele><time>2026-04-09T08:18:59.937Z</time></trkpt><trkpt lat="45.1036873071794" lon="9.64406310777819"><ele>46.4</ele><time>2026-04-09T08:19:01.937Z</time></trkpt><trkpt lat="45.10376387755148" lon="9.644146501544745"><ele>46.199999999999996</ele><time>2026-04-09T08:19:03.937Z</time></trkpt><trkpt lat="45.10384308812648" lon="9.644220760247235"><ele>46.0</ele><time>2026-04-09T08:19:05.937Z</time></trkpt><trkpt lat="45.10392078554721" lon="9.644306888669433"><ele>46.0</ele><time>2026-04-09T08:19:07.937Z</time></trkpt><trkpt lat="45.103999843163706" lon="9.644384528505373"><ele>46.0</ele><time>2026-04-09T08:19:09.937Z</time></trkpt><trkpt lat="45.10408465344468" lon="9.644464719591305"><ele>46.0</ele><time>2026-04-09T08:19:11.937Z</time></trkpt><trkpt lat="45.10416248770666" lon="9.644553356079577"><ele>46.0</ele><time>2026-04-09T08:19:13.937Z</time></trkpt><trkpt lat="45.10424666622159" lon="9.644628127105397"><ele>46.0</ele><time>2026-04-09T08:19:15.937Z</time></trkpt><trkpt lat="45.10432989324584" lon="9.644715491055383"><ele>46.199999999999996</ele><time>2026-04-09T08:19:17.937Z</time></trkpt><trkpt lat="45.104407787886906" lon="9.644800332891636"><ele>46.4</ele><time>2026-04-09T08:19:19.937Z</time></trkpt><trkpt lat="45.104487702013216" lon="9.644875079751914"><ele>46.6</ele><time>2026-04-09T08:19:21.937Z</time></trkpt><trkpt lat="45.10456802278962" lon="9.644954353322952"><ele>46.8</ele><time>2026-04-09T08:19:23.937Z</time></trkpt><trkpt lat="45.10464621179356" lon="9.64502968868352"><ele>47.0</ele><time>2026-04-09T08:19:25.937Z</time></trkpt><trkpt lat="45.104725817100544" lon="9.645105876060725"><ele>47.0</ele><time>2026-04-09T08:19:27.937Z</time></trkpt><trkpt lat="45.10480670350131" lon="9.645182515262164"><ele>47.0</ele><time>2026-04-09T08:19:29.936Z</time></trkpt><trkpt lat="45.104881971873105" lon="9.645261560864103"><ele>47.0</ele><time>2026-04-09T08:19:31.936Z</time></trkpt><trkpt lat="45.10495944203476" lon="9.645341442982302"><ele>47.0</ele><time>2026-04-09T08:19:33.936Z</time></trkpt><trkpt lat="45.10503707711065" lon="9.64542091627247"><ele>47.0</ele><time>2026-04-09T08:19:35.936Z</time></trkpt><trkpt lat="45.10511325417101" lon="9.645500419228192"><ele>46.8</ele><time>2026-04-09T08:19:37.936Z</time></trkpt><trkpt lat="45.105189722536934" lon="9.645573332937111"><ele>46.6</ele><time>2026-04-09T08:19:39.936Z</time></trkpt><trkpt lat="45.10526635138002" lon="9.645647922844802"><ele>46.4</ele><time>2026-04-09T08:19:41.936Z</time></trkpt><trkpt lat="45.1053445399466" lon="9.645730705641006"><ele>46.199999999999996</ele><time>2026-04-09T08:19:43.936Z</time></trkpt><trkpt lat="45.105421053296126" lon="9.645812706261474"><ele>46.0</ele><time>2026-04-09T08:19:45.936Z</time></trkpt><trkpt lat="45.10549305330837" lon="9.645877193378405"><ele>46.0</ele><time>2026-04-09T08:19:47.936Z</time></trkpt><trkpt lat="45.10555818311971" lon="9.64594281583452"><ele>46.0</ele><time>2026-04-09T08:19:49.936Z</time></trkpt><trkpt lat="45.105626501048214" lon="9.646013494543821"><ele>46.0</ele><time>2026-04-09T08:19:51.936Z</time></trkpt><trkpt lat="45.10570235187943" lon="9.646074783675969"><ele>46.0</ele><time>2026-04-09T08:19:53.936Z</time></trkpt><trkpt lat="45.105783879678455" lon="9.64613698093967"><ele>46.0</ele><time>2026-04-09T08:19:55.936Z</time></trkpt><trkpt lat="45.10586919376921" lon="9.646193325745994"><ele>46.0</ele><time>2026-04-09T08:19:57.936Z</time></trkpt><trkpt lat="45.105954509753104" lon="9.646245007805652"><ele>46.199999999999996</ele><time>2026-04-09T08:19:59.936Z</time></trkpt><trkpt lat="45.10603714729157" lon="9.646295514993172"><ele>46.4</ele><time>2026-04-09T08:20:01.936Z</time></trkpt><trkpt lat="45.10612363040032" lon="9.646354895134495"><ele>46.6</ele><time>2026-04-09T08:20:03.936Z</time></trkpt><trkpt lat="45.10621169232127" lon="9.646415054287665"><ele>46.8</ele><time>2026-04-09T08:20:05.936Z</time></trkpt><trkpt lat="45.10629817579546" lon="9.646466035119808"><ele>47.0</ele><time>2026-04-09T08:20:07.937Z</time></trkpt><trkpt lat="45.10638701019301" lon="9.646516993744262"><ele>47.0</ele><time>2026-04-09T08:20:09.937Z</time></trkpt><trkpt lat="45.10647207483592" lon="9.646579572859643"><ele>47.0</ele><time>2026-04-09T08:20:11.936Z</time></trkpt><trkpt lat="45.10655664577923" lon="9.646632350037281"><ele>47.0</ele><time>2026-04-09T08:20:13.936Z</time></trkpt><trkpt lat="45.10664481004223" lon="9.646678604344663"><ele>47.0</ele><time>2026-04-09T08:20:15.936Z</time></trkpt><trkpt lat="45.10672828608724" lon="9.646732463236557"><ele>47.0</ele><time>2026-04-09T08:20:17.936Z</time></trkpt><trkpt lat="45.10681730538968" lon="9.646785076607022"><ele>47.0</ele><time>2026-04-09T08:20:19.936Z</time></trkpt><trkpt lat="45.10690046244309" lon="9.646839896649166"><ele>47.0</ele><time>2026-04-09T08:20:21.936Z</time></trkpt><trkpt lat="45.10698469728481" lon="9.646891018851669"><ele>47.0</ele><time>2026-04-09T08:20:23.935Z</time></trkpt><trkpt lat="45.10706931702316" lon="9.646943730025235"><ele>47.0</ele><time>2026-04-09T08:20:25.935Z</time></trkpt><trkpt lat="45.107158481294725" lon="9.646993129807724"><ele>47.0</ele><time>2026-04-09T08:20:27.935Z</time></trkpt><trkpt lat="45.10724565452422" lon="9.647030878045255"><ele>47.2</ele><time>2026-04-09T08:20:29.935Z</time></trkpt><trkpt lat="45.10733151532772" lon="9.647086955576428"><ele>47.400000000000006</ele><time>2026-04-09T08:20:31.935Z</time></trkpt><trkpt lat="45.10741019329572" lon="9.647143905353651"><ele>47.599999999999994</ele><time>2026-04-09T08:20:33.935Z</time></trkpt><trkpt lat="45.10749079268804" lon="9.647203059297462"><ele>47.8</ele><time>2026-04-09T08:20:35.935Z</time></trkpt><trkpt lat="45.10757967620238" lon="9.647269760879219"><ele>48.0</ele><time>2026-04-09T08:20:37.935Z</time></trkpt><trkpt lat="45.10765738924842" lon="9.647345018190018"><ele>47.599999999999994</ele><time>2026-04-09T08:20:39.935Z</time></trkpt><trkpt lat="45.107734969496576" lon="9.647411685076783"><ele>47.199999999999996</ele><time>2026-04-09T08:20:41.935Z</time></trkpt><trkpt lat="45.107807765198345" lon="9.647498489429598"><ele>46.8</ele><time>2026-04-09T08:20:43.935Z</time></trkpt><trkpt lat="45.107876506104446" lon="9.647581820840179"><ele>46.4</ele><time>2026-04-09T08:20:45.935Z</time></trkpt><trkpt lat="45.10793441218572" lon="9.64767504896099"><ele>46.0</ele><time>2026-04-09T08:20:47.935Z</time></trkpt><trkpt lat="45.10799436439249" lon="9.647765913094691"><ele>46.199999999999996</ele><time>2026-04-09T08:20:49.935Z</time></trkpt><trkpt lat="45.108061704413004" lon="9.647856788157123"><ele>46.4</ele><time>2026-04-09T08:20:51.935Z</time></trkpt><trkpt lat="45.108125860785535" lon="9.647956147080626"><ele>46.6</ele><time>2026-04-09T08:20:53.935Z</time></trkpt><trkpt lat="45.108182321832004" lon="9.648051784366027"><ele>46.8</ele><time>2026-04-09T08:20:55.935Z</time></trkpt><trkpt lat="45.10824806046601" lon="9.648149789099344"><ele>47.0</ele><time>2026-04-09T08:20:57.935Z</time></trkpt><trkpt lat="45.108315369422826" lon="9.648236085477992"><ele>47.0</ele><time>2026-04-09T08:20:59.935Z</time></trkpt><trkpt lat="45.10838132555263" lon="9.648334499401184"><ele>47.0</ele><time>2026-04-09T08:21:01.935Z</time></trkpt><trkpt lat="45.1084494706229" lon="9.64843721603688"><ele>47.0</ele><time>2026-04-09T08:21:03.935Z</time></trkpt><trkpt lat="45.108519827608696" lon="9.648538833482442"><ele>47.0</ele><time>2026-04-09T08:21:05.935Z</time></trkpt><trkpt lat="45.10858405534827" lon="9.648645745440247"><ele>47.0</ele><time>2026-04-09T08:21:07.934Z</time></trkpt><trkpt lat="45.10865112171316" lon="9.648743253512196"><ele>47.2</ele><time>2026-04-09T08:21:09.934Z</time></trkpt><trkpt lat="45.10871968211155" lon="9.648844888215079"><ele>47.400000000000006</ele><time>2026-04-09T08:21:11.934Z</time></trkpt><trkpt lat="45.10878545062703" lon="9.64894433844561"><ele>47.599999999999994</ele><time>2026-04-09T08:21:13.934Z</time></trkpt><trkpt lat="45.108849612891326" lon="9.64904276532698"><ele>47.8</ele><time>2026-04-09T08:21:15.934Z</time></trkpt><trkpt lat="45.108915736216225" lon="9.649141549721898"><ele>48.0</ele><time>2026-04-09T08:21:17.934Z</time></trkpt><trkpt lat="45.10898026877758" lon="9.649234883753099"><ele>48.0</ele><time>2026-04-09T08:21:19.934Z</time></trkpt><trkpt lat="45.10905123327424" lon="9.64932837009437"><ele>48.0</ele><time>2026-04-09T08:21:21.934Z</time></trkpt><trkpt lat="45.10911644056382" lon="9.649432930151448"><ele>48.0</ele><time>2026-04-09T08:21:23.934Z</time></trkpt><trkpt lat="45.109180145229345" lon="9.64952763603548"><ele>48.0</ele><time>2026-04-09T08:21:25.934Z</time></trkpt><trkpt lat="45.109245819127466" lon="9.649617301321213"><ele>48.0</ele><time>2026-04-09T08:21:27.934Z</time></trkpt><trkpt lat="45.109309671089036" lon="9.649714953249367"><ele>48.0</ele><time>2026-04-09T08:21:29.934Z</time></trkpt><trkpt lat="45.10937801304773" lon="9.649810574567063"><ele>48.0</ele><time>2026-04-09T08:21:31.934Z</time></trkpt><trkpt lat="45.10944201160015" lon="9.649902424441507"><ele>48.0</ele><time>2026-04-09T08:21:33.934Z</time></trkpt><trkpt lat="45.10950449541092" lon="9.649995409901925"><ele>48.0</ele><time>2026-04-09T08:21:35.934Z</time></trkpt><trkpt lat="45.10956854836737" lon="9.650096112311125"><ele>48.0</ele><time>2026-04-09T08:21:37.934Z</time></trkpt><trkpt lat="45.109633316091085" lon="9.65019430035885"><ele>48.0</ele><time>2026-04-09T08:21:39.934Z</time></trkpt><trkpt lat="45.10970338423228" lon="9.65028461983492"><ele>48.0</ele><time>2026-04-09T08:21:41.934Z</time></trkpt><trkpt lat="45.10976683309872" lon="9.650383757017293"><ele>48.0</ele><time>2026-04-09T08:21:43.934Z</time></trkpt><trkpt lat="45.109836850156185" lon="9.650486279606705"><ele>48.0</ele><time>2026-04-09T08:21:45.934Z</time></trkpt><trkpt lat="45.10990355144018" lon="9.650578543267123"><ele>48.0</ele><time>2026-04-09T08:21:47.934Z</time></trkpt><trkpt lat="45.109967492315604" lon="9.650676219346913"><ele>48.0</ele><time>2026-04-09T08:21:49.934Z</time></trkpt><trkpt lat="45.1100320209133" lon="9.650780455981254"><ele>48.0</ele><time>2026-04-09T08:21:51.933Z</time></trkpt><trkpt lat="45.110097466241605" lon="9.650874922268844"><ele>48.0</ele><time>2026-04-09T08:21:53.933Z</time></trkpt><trkpt lat="45.11016487192943" lon="9.650970953247862"><ele>48.0</ele><time>2026-04-09T08:21:55.933Z</time></trkpt><trkpt lat="45.110228348087965" lon="9.651060926623488"><ele>48.0</ele><time>2026-04-09T08:21:57.933Z</time></trkpt><trkpt lat="45.11029361242952" lon="9.651148650954877"><ele>47.8</ele><time>2026-04-09T08:21:59.933Z</time></trkpt><trkpt lat="45.110358578696164" lon="9.651241819318304"><ele>47.599999999999994</ele><time>2026-04-09T08:22:01.933Z</time></trkpt><trkpt lat="45.11042377605977" lon="9.651339507729006"><ele>47.400000000000006</ele><time>2026-04-09T08:22:03.933Z</time></trkpt><trkpt lat="45.11049023731455" lon="9.651434389640228"><ele>47.2</ele><time>2026-04-09T08:22:05.933Z</time></trkpt><trkpt lat="45.11055279537741" lon="9.651532504404514"><ele>47.0</ele><time>2026-04-09T08:22:07.933Z</time></trkpt><trkpt lat="45.110620545398994" lon="9.651623115516925"><ele>47.0</ele><time>2026-04-09T08:22:09.933Z</time></trkpt><trkpt lat="45.11067666284271" lon="9.65171365286322"><ele>47.0</ele><time>2026-04-09T08:22:11.933Z</time></trkpt><trkpt lat="45.110740573463815" lon="9.651808715977673"><ele>47.0</ele><time>2026-04-09T08:22:13.933Z</time></trkpt><trkpt lat="45.11080508053841" lon="9.65189884774487"><ele>47.0</ele><time>2026-04-09T08:22:15.934Z</time></trkpt><trkpt lat="45.110880402141646" lon="9.651963588693768"><ele>47.0</ele><time>2026-04-09T08:22:17.933Z</time></trkpt><trkpt lat="45.11096152174174" lon="9.652018585195124"><ele>47.0</ele><time>2026-04-09T08:22:19.934Z</time></trkpt><trkpt lat="45.11105159264194" lon="9.652048506811207"><ele>47.2</ele><time>2026-04-09T08:22:21.934Z</time></trkpt><trkpt lat="45.11113728042237" lon="9.65204659483704"><ele>47.400000000000006</ele><time>2026-04-09T08:22:23.933Z</time></trkpt><trkpt lat="45.111230636534465" lon="9.652025768364865"><ele>47.599999999999994</ele><time>2026-04-09T08:22:25.934Z</time></trkpt><trkpt lat="45.11132713275237" lon="9.652020502657962"><ele>47.8</ele><time>2026-04-09T08:22:27.933Z</time></trkpt><trkpt lat="45.11141562792968" lon="9.651998403442285"><ele>48.0</ele><time>2026-04-09T08:22:29.933Z</time></trkpt><trkpt lat="45.11150032455127" lon="9.651981378737005"><ele>47.8</ele><time>2026-04-09T08:22:31.933Z</time></trkpt><trkpt lat="45.1115903440673" lon="9.651967340751082"><ele>47.599999999999994</ele><time>2026-04-09T08:22:33.933Z</time></trkpt><trkpt lat="45.111681321287314" lon="9.651947373651193"><ele>47.400000000000006</ele><time>2026-04-09T08:22:35.933Z</time></trkpt><trkpt lat="45.11176945768472" lon="9.65192633710231"><ele>47.2</ele><time>2026-04-09T08:22:37.933Z</time></trkpt><trkpt lat="45.11185906015442" lon="9.651904863803322"><ele>47.0</ele><time>2026-04-09T08:22:39.933Z</time></trkpt><trkpt lat="45.11195261204979" lon="9.651899238425374"><ele>47.6</ele><time>2026-04-09T08:22:41.933Z</time></trkpt><trkpt lat="45.112051951259225" lon="9.651884574188472"><ele>48.2</ele><time>2026-04-09T08:22:43.933Z</time></trkpt><trkpt lat="45.112148260973" lon="9.651866388786557"><ele>48.8</ele><time>2026-04-09T08:22:45.933Z</time></trkpt><trkpt lat="45.11223778180849" lon="9.651843975350065"><ele>49.4</ele><time>2026-04-09T08:22:47.933Z</time></trkpt><trkpt lat="45.11233530601381" lon="9.651822733249912"><ele>50.0</ele><time>2026-04-09T08:22:49.933Z</time></trkpt><trkpt lat="45.112431520500195" lon="9.65180442301015"><ele>50.0</ele><time>2026-04-09T08:22:51.933Z</time></trkpt><trkpt lat="45.11252621745408" lon="9.6517902794726"><ele>50.0</ele><time>2026-04-09T08:22:53.933Z</time></trkpt><trkpt lat="45.11262249299216" lon="9.651813629333784"><ele>50.0</ele><time>2026-04-09T08:22:55.933Z</time></trkpt><trkpt lat="45.11271081221083" lon="9.651797531892086"><ele>50.0</ele><time>2026-04-09T08:22:57.933Z</time></trkpt><trkpt lat="45.11279742518151" lon="9.65178209251342"><ele>50.0</ele><time>2026-04-09T08:22:59.933Z</time></trkpt><trkpt lat="45.11288440455532" lon="9.651766587847895"><ele>50.0</ele><time>2026-04-09T08:23:01.933Z</time></trkpt><trkpt lat="45.112978830855965" lon="9.65174975570153"><ele>50.0</ele><time>2026-04-09T08:23:03.933Z</time></trkpt><trkpt lat="45.11307811127091" lon="9.651732058259782"><ele>50.0</ele><time>2026-04-09T08:23:05.933Z</time></trkpt><trkpt lat="45.113180685182634" lon="9.65171377373246"><ele>50.0</ele><time>2026-04-09T08:23:07.933Z</time></trkpt><trkpt lat="45.113279367263964" lon="9.651696265046482"><ele>50.0</ele><time>2026-04-09T08:23:09.933Z</time></trkpt><trkpt lat="45.11337245059147" lon="9.651679769773894"><ele>50.0</ele><time>2026-04-09T08:23:11.932Z</time></trkpt><trkpt lat="45.113465382017324" lon="9.651663299535453"><ele>50.0</ele><time>2026-04-09T08:23:13.932Z</time></trkpt><trkpt lat="45.1135610340314" lon="9.651646082326748"><ele>50.0</ele><time>2026-04-09T08:23:15.932Z</time></trkpt><trkpt lat="45.1136576973303" lon="9.651627713425498"><ele>50.0</ele><time>2026-04-09T08:23:17.932Z</time></trkpt><trkpt lat="45.11375409051805" lon="9.65160939585583"><ele>50.0</ele><time>2026-04-09T08:23:19.932Z</time></trkpt><trkpt lat="45.11384942690337" lon="9.651561751091018"><ele>50.0</ele><time>2026-04-09T08:23:21.932Z</time></trkpt><trkpt lat="45.11394884974103" lon="9.651540420542037"><ele>50.0</ele><time>2026-04-09T08:23:23.932Z</time></trkpt><trkpt lat="45.11404566812479" lon="9.65152122004146"><ele>50.0</ele><time>2026-04-09T08:23:25.932Z</time></trkpt><trkpt lat="45.1141461202946" lon="9.651502542919866"><ele>50.0</ele><time>2026-04-09T08:23:27.932Z</time></trkpt><trkpt lat="45.114248627157906" lon="9.651519078105105"><ele>50.0</ele><time>2026-04-09T08:23:29.932Z</time></trkpt><trkpt lat="45.1143479531559" lon="9.651502393330402"><ele>49.6</ele><time>2026-04-09T08:23:31.932Z</time></trkpt><trkpt lat="45.11444756658511" lon="9.65148566027212"><ele>49.2</ele><time>2026-04-09T08:23:33.932Z</time></trkpt><trkpt lat="45.11454859813439" lon="9.651469616409061"><ele>48.8</ele><time>2026-04-09T08:23:35.932Z</time></trkpt><trkpt lat="45.11464355644957" lon="9.651457433811744"><ele>48.4</ele><time>2026-04-09T08:23:37.932Z</time></trkpt><trkpt lat="45.11473926293515" lon="9.651448636051052"><ele>48.0</ele><time>2026-04-09T08:23:39.932Z</time></trkpt><trkpt lat="45.11484005364641" lon="9.651447634429621"><ele>48.2</ele><time>2026-04-09T08:23:41.932Z</time></trkpt><trkpt lat="45.114940223469645" lon="9.651444376005482"><ele>48.4</ele><time>2026-04-09T08:23:43.932Z</time></trkpt><trkpt lat="45.115027986287686" lon="9.651455530796401"><ele>48.6</ele><time>2026-04-09T08:23:45.932Z</time></trkpt><trkpt lat="45.11511694143224" lon="9.65147670181081"><ele>48.800000000000004</ele><time>2026-04-09T08:23:47.932Z</time></trkpt><trkpt lat="45.115204716679855" lon="9.6515018420542"><ele>49.0</ele><time>2026-04-09T08:23:49.932Z</time></trkpt><trkpt lat="45.11528859934575" lon="9.651523488956196"><ele>48.99999999999999</ele><time>2026-04-09T08:23:51.932Z</time></trkpt><trkpt lat="45.11537774160389" lon="9.651537704115349"><ele>49.0</ele><time>2026-04-09T08:23:53.932Z</time></trkpt><trkpt lat="45.11546580933482" lon="9.651579587672932"><ele>49.0</ele><time>2026-04-09T08:23:55.931Z</time></trkpt><trkpt lat="45.11555742434823" lon="9.6515743513123"><ele>49.0</ele><time>2026-04-09T08:23:57.931Z</time></trkpt><trkpt lat="45.115642547180435" lon="9.651596495268302"><ele>48.99999999999999</ele><time>2026-04-09T08:23:59.931Z</time></trkpt><trkpt lat="45.11572883814307" lon="9.651614292781726"><ele>49.0</ele><time>2026-04-09T08:24:01.931Z</time></trkpt><trkpt lat="45.115817193069944" lon="9.651632893828653"><ele>49.0</ele><time>2026-04-09T08:24:03.931Z</time></trkpt><trkpt lat="45.115897149491936" lon="9.65164921020465"><ele>49.0</ele><time>2026-04-09T08:24:05.931Z</time></trkpt><trkpt lat="45.11598298253793" lon="9.651664938744133"><ele>49.0</ele><time>2026-04-09T08:24:07.931Z</time></trkpt><trkpt lat="45.11608156911788" lon="9.651679121834666"><ele>49.0</ele><time>2026-04-09T08:24:09.931Z</time></trkpt><trkpt lat="45.11617549476857" lon="9.651705007380288"><ele>49.0</ele><time>2026-04-09T08:24:11.931Z</time></trkpt><trkpt lat="45.11626728984908" lon="9.651717622685359"><ele>49.0</ele><time>2026-04-09T08:24:13.931Z</time></trkpt><trkpt lat="45.11635735479894" lon="9.65174024241523"><ele>49.0</ele><time>2026-04-09T08:24:15.931Z</time></trkpt><trkpt lat="45.11645677771754" lon="9.65175837516763"><ele>49.0</ele><time>2026-04-09T08:24:17.931Z</time></trkpt><trkpt lat="45.116552562727534" lon="9.651775873823006"><ele>49.0</ele><time>2026-04-09T08:24:19.931Z</time></trkpt><trkpt lat="45.116642684284336" lon="9.651804961980067"><ele>49.0</ele><time>2026-04-09T08:24:21.931Z</time></trkpt><trkpt lat="45.116726031259084" lon="9.651810981079826"><ele>48.83333333333333</ele><time>2026-04-09T08:24:23.932Z</time></trkpt><trkpt lat="45.116806754741646" lon="9.651831382829835"><ele>48.666666666666664</ele><time>2026-04-09T08:24:25.931Z</time></trkpt><trkpt lat="45.11688119559002" lon="9.651852712519728"><ele>48.5</ele><time>2026-04-09T08:24:27.931Z</time></trkpt><trkpt lat="45.11696771517574" lon="9.651868277406253"><ele>48.33333333333333</ele><time>2026-04-09T08:24:29.931Z</time></trkpt><trkpt lat="45.11705704786813" lon="9.65189702999573"><ele>48.166666666666664</ele><time>2026-04-09T08:24:31.931Z</time></trkpt><trkpt lat="45.11714582390002" lon="9.651906535905955"><ele>48.0</ele><time>2026-04-09T08:24:33.931Z</time></trkpt><trkpt lat="45.11722944714833" lon="9.651931723161628"><ele>48.0</ele><time>2026-04-09T08:24:35.931Z</time></trkpt><trkpt lat="45.11731565787664" lon="9.651947021787679"><ele>48.0</ele><time>2026-04-09T08:24:37.931Z</time></trkpt><trkpt lat="45.11740533536095" lon="9.651973332161432"><ele>48.0</ele><time>2026-04-09T08:24:39.931Z</time></trkpt><trkpt lat="45.11749263610498" lon="9.651994508901936"><ele>48.0</ele><time>2026-04-09T08:24:41.931Z</time></trkpt><trkpt lat="45.11758380011856" lon="9.652009682320468"><ele>48.0</ele><time>2026-04-09T08:24:43.931Z</time></trkpt><trkpt lat="45.11766902806196" lon="9.652022920292351"><ele>48.0</ele><time>2026-04-09T08:24:45.931Z</time></trkpt><trkpt lat="45.11775908760125" lon="9.652038818152034"><ele>47.8</ele><time>2026-04-09T08:24:47.931Z</time></trkpt><trkpt lat="45.117853819719414" lon="9.65206795312566"><ele>47.599999999999994</ele><time>2026-04-09T08:24:49.931Z</time></trkpt><trkpt lat="45.117948663338055" lon="9.652092885598973"><ele>47.400000000000006</ele><time>2026-04-09T08:24:51.931Z</time></trkpt><trkpt lat="45.11804231959305" lon="9.65210736419359"><ele>47.2</ele><time>2026-04-09T08:24:53.931Z</time></trkpt><trkpt lat="45.11812593974591" lon="9.652131240182749"><ele>47.0</ele><time>2026-04-09T08:24:55.931Z</time></trkpt><trkpt lat="45.11821322575678" lon="9.652156436673614"><ele>47.0</ele><time>2026-04-09T08:24:57.931Z</time></trkpt><trkpt lat="45.11830622210666" lon="9.652176270866459"><ele>47.0</ele><time>2026-04-09T08:24:59.931Z</time></trkpt><trkpt lat="45.11839965195652" lon="9.652190973154593"><ele>47.0</ele><time>2026-04-09T08:25:01.931Z</time></trkpt><trkpt lat="45.11849117650223" lon="9.652204127123504"><ele>47.0</ele><time>2026-04-09T08:25:03.931Z</time></trkpt><trkpt lat="45.11857759655087" lon="9.652193050030574"><ele>47.0</ele><time>2026-04-09T08:25:05.93Z</time></trkpt><trkpt lat="45.11866461355228" lon="9.652171614757656"><ele>47.0</ele><time>2026-04-09T08:25:07.93Z</time></trkpt><trkpt lat="45.118754987671174" lon="9.65214708078508"><ele>47.0</ele><time>2026-04-09T08:25:09.93Z</time></trkpt><trkpt lat="45.11884653132435" lon="9.652108490965922"><ele>47.0</ele><time>2026-04-09T08:25:11.93Z</time></trkpt><trkpt lat="45.11893697118189" lon="9.65205896035325"><ele>47.0</ele><time>2026-04-09T08:25:13.93Z</time></trkpt><trkpt lat="45.119018110810856" lon="9.652004064301504"><ele>47.0</ele><time>2026-04-09T08:25:15.93Z</time></trkpt><trkpt lat="45.119095768291146" lon="9.65194473331494"><ele>47.2</ele><time>2026-04-09T08:25:17.93Z</time></trkpt><trkpt lat="45.11916724193199" lon="9.651889414539617"><ele>47.400000000000006</ele><time>2026-04-09T08:25:19.93Z</time></trkpt><trkpt lat="45.11925446568536" lon="9.651843236556415"><ele>47.599999999999994</ele><time>2026-04-09T08:25:21.93Z</time></trkpt><trkpt lat="45.11933748302712" lon="9.651779352556337"><ele>47.8</ele><time>2026-04-09T08:25:23.93Z</time></trkpt><trkpt lat="45.11942061373508" lon="9.651721167747585"><ele>48.0</ele><time>2026-04-09T08:25:25.93Z</time></trkpt><trkpt lat="45.1195010154324" lon="9.651659375504854"><ele>48.0</ele><time>2026-04-09T08:25:27.93Z</time></trkpt><trkpt lat="45.11959192482196" lon="9.651600785217525"><ele>48.0</ele><time>2026-04-09T08:25:29.93Z</time></trkpt><trkpt lat="45.119678636838636" lon="9.65153995594258"><ele>48.0</ele><time>2026-04-09T08:25:31.93Z</time></trkpt><trkpt lat="45.11976945206955" lon="9.651482581023036"><ele>48.0</ele><time>2026-04-09T08:25:33.93Z</time></trkpt><trkpt lat="45.119874871781484" lon="9.651473168687865"><ele>48.0</ele><time>2026-04-09T08:25:35.93Z</time></trkpt><trkpt lat="45.119969064812935" lon="9.651411977019183"><ele>47.599999999999994</ele><time>2026-04-09T08:25:37.93Z</time></trkpt><trkpt lat="45.120064246067415" lon="9.651350152191375"><ele>47.199999999999996</ele><time>2026-04-09T08:25:39.93Z</time></trkpt><trkpt lat="45.120151929469614" lon="9.651293364039352"><ele>46.8</ele><time>2026-04-09T08:25:41.93Z</time></trkpt><trkpt lat="45.120236823645065" lon="9.651238382431334"><ele>46.4</ele><time>2026-04-09T08:25:43.93Z</time></trkpt><trkpt lat="45.1203179345237" lon="9.651185851003218"><ele>46.0</ele><time>2026-04-09T08:25:45.93Z</time></trkpt><trkpt lat="45.12039445990824" lon="9.65113625662903"><ele>45.833333333333336</ele><time>2026-04-09T08:25:47.93Z</time></trkpt><trkpt lat="45.120468141278934" lon="9.651088383146341"><ele>45.66666666666667</ele><time>2026-04-09T08:25:49.929Z</time></trkpt><trkpt lat="45.12053965683551" lon="9.651041916882832"><ele>45.5</ele><time>2026-04-09T08:25:51.929Z</time></trkpt><trkpt lat="45.12060651004912" lon="9.650996810004909"><ele>45.333333333333336</ele><time>2026-04-09T08:25:53.929Z</time></trkpt><trkpt lat="45.12067559847269" lon="9.65094987244519"><ele>45.166666666666664</ele><time>2026-04-09T08:25:55.929Z</time></trkpt><trkpt lat="45.12074542013413" lon="9.650900997776288"><ele>45.0</ele><time>2026-04-09T08:25:57.929Z</time></trkpt><trkpt lat="45.12082204493282" lon="9.650846954539949"><ele>45.333333333333336</ele><time>2026-04-09T08:25:59.929Z</time></trkpt><trkpt lat="45.120892281163364" lon="9.650792594898265"><ele>45.666666666666664</ele><time>2026-04-09T08:26:01.929Z</time></trkpt><trkpt lat="45.12094423618237" lon="9.650695243472565"><ele>46.0</ele><time>2026-04-09T08:26:03.929Z</time></trkpt><trkpt lat="45.120998609305246" lon="9.650634260003713"><ele>46.33333333333333</ele><time>2026-04-09T08:26:05.929Z</time></trkpt><trkpt lat="45.1210571805369" lon="9.650553447811353"><ele>46.666666666666664</ele><time>2026-04-09T08:26:07.929Z</time></trkpt><trkpt lat="45.12109118292393" lon="9.650429063532552"><ele>47.0</ele><time>2026-04-09T08:26:09.929Z</time></trkpt><trkpt lat="45.12110939000536" lon="9.650295081306894"><ele>47.2</ele><time>2026-04-09T08:26:11.929Z</time></trkpt><trkpt lat="45.121105483880584" lon="9.650154109223964"><ele>47.400000000000006</ele><time>2026-04-09T08:26:13.929Z</time></trkpt><trkpt lat="45.121083286092016" lon="9.650019829099346"><ele>47.599999999999994</ele><time>2026-04-09T08:26:15.929Z</time></trkpt><trkpt lat="45.12104695934014" lon="9.649895106713425"><ele>47.8</ele><time>2026-04-09T08:26:17.929Z</time></trkpt><trkpt lat="45.121006639138315" lon="9.649766121043067"><ele>48.0</ele><time>2026-04-09T08:26:19.929Z</time></trkpt><trkpt lat="45.120938260756326" lon="9.649654651792767"><ele>48.0</ele><time>2026-04-09T08:26:21.929Z</time></trkpt><trkpt lat="45.1208689684807" lon="9.649563776154952"><ele>48.0</ele><time>2026-04-09T08:26:23.929Z</time></trkpt><trkpt lat="45.12079128411724" lon="9.64947548313382"><ele>48.0</ele><time>2026-04-09T08:26:25.928Z</time></trkpt><trkpt lat="45.120714262334126" lon="9.649377892232623"><ele>48.0</ele><time>2026-04-09T08:26:27.929Z</time></trkpt><trkpt lat="45.12063133848933" lon="9.649285577347076"><ele>48.0</ele><time>2026-04-09T08:26:29.928Z</time></trkpt><trkpt lat="45.120558998923336" lon="9.649197533375627"><ele>47.833333333333336</ele><time>2026-04-09T08:26:31.928Z</time></trkpt><trkpt lat="45.120487976146094" lon="9.649113836748798"><ele>47.666666666666664</ele><time>2026-04-09T08:26:33.929Z</time></trkpt><trkpt lat="45.12042289147624" lon="9.64904054816816"><ele>47.5</ele><time>2026-04-09T08:26:35.928Z</time></trkpt><trkpt lat="45.12036113049041" lon="9.648960708173435"><ele>47.33333333333333</ele><time>2026-04-09T08:26:37.928Z</time></trkpt><trkpt lat="45.12029605928288" lon="9.648876113639224"><ele>47.166666666666664</ele><time>2026-04-09T08:26:39.928Z</time></trkpt><trkpt lat="45.12023492580445" lon="9.64878824477927"><ele>47.0</ele><time>2026-04-09T08:26:41.928Z</time></trkpt><trkpt lat="45.120186843350986" lon="9.648688718555887"><ele>47.166666666666664</ele><time>2026-04-09T08:26:43.928Z</time></trkpt><trkpt lat="45.12014524192661" lon="9.648579024501558"><ele>47.33333333333333</ele><time>2026-04-09T08:26:45.928Z</time></trkpt><trkpt lat="45.12011628179741" lon="9.648466246596156"><ele>47.5</ele><time>2026-04-09T08:26:47.928Z</time></trkpt><trkpt lat="45.12009728412064" lon="9.648346711918427"><ele>47.666666666666664</ele><time>2026-04-09T08:26:49.928Z</time></trkpt><trkpt lat="45.120090647817655" lon="9.648234588151682"><ele>47.833333333333336</ele><time>2026-04-09T08:26:51.928Z</time></trkpt><trkpt lat="45.120090346418834" lon="9.648122132699905"><ele>48.0</ele><time>2026-04-09T08:26:53.928Z</time></trkpt><trkpt lat="45.12009767413463" lon="9.648007782622962"><ele>48.0</ele><time>2026-04-09T08:26:55.928Z</time></trkpt><trkpt lat="45.120110487809775" lon="9.647889413538929"><ele>48.0</ele><time>2026-04-09T08:26:57.928Z</time></trkpt><trkpt lat="45.120100490044294" lon="9.647767917784167"><ele>48.0</ele><time>2026-04-09T08:26:59.928Z</time></trkpt><trkpt lat="45.12011607009724" lon="9.64765779031701"><ele>48.0</ele><time>2026-04-09T08:27:01.928Z</time></trkpt><trkpt lat="45.12015825711566" lon="9.647547147510403"><ele>48.0</ele><time>2026-04-09T08:27:03.928Z</time></trkpt><trkpt lat="45.1202045578755" lon="9.647427311554488"><ele>48.0</ele><time>2026-04-09T08:27:05.927Z</time></trkpt><trkpt lat="45.120256605987095" lon="9.647315649731944"><ele>47.599999999999994</ele><time>2026-04-09T08:27:07.927Z</time></trkpt><trkpt lat="45.12031581814137" lon="9.647208945966275"><ele>47.199999999999996</ele><time>2026-04-09T08:27:09.927Z</time></trkpt><trkpt lat="45.12037172018301" lon="9.647100519753963"><ele>46.8</ele><time>2026-04-09T08:27:11.927Z</time></trkpt><trkpt lat="45.1204271015275" lon="9.646994497477392"><ele>46.4</ele><time>2026-04-09T08:27:13.927Z</time></trkpt><trkpt lat="45.12048307751262" lon="9.646884122072194"><ele>46.0</ele><time>2026-04-09T08:27:15.927Z</time></trkpt><trkpt lat="45.12054328153054" lon="9.646763379206803"><ele>46.0</ele><time>2026-04-09T08:27:17.927Z</time></trkpt><trkpt lat="45.120601320530916" lon="9.646646908551563"><ele>46.0</ele><time>2026-04-09T08:27:19.927Z</time></trkpt><trkpt lat="45.12065860753059" lon="9.6465327911528"><ele>46.0</ele><time>2026-04-09T08:27:21.927Z</time></trkpt><trkpt lat="45.12071820502644" lon="9.6464155402641"><ele>46.0</ele><time>2026-04-09T08:27:23.927Z</time></trkpt><trkpt lat="45.12077898043975" lon="9.64630512626237"><ele>46.0</ele><time>2026-04-09T08:27:25.927Z</time></trkpt><trkpt lat="45.120828695748735" lon="9.646193034357363"><ele>46.0</ele><time>2026-04-09T08:27:27.927Z</time></trkpt><trkpt lat="45.12087446642514" lon="9.646090513917883"><ele>46.0</ele><time>2026-04-09T08:27:29.927Z</time></trkpt><trkpt lat="45.12093220482449" lon="9.645990863320906"><ele>46.0</ele><time>2026-04-09T08:27:31.927Z</time></trkpt><trkpt lat="45.1209870221789" lon="9.645878966161057"><ele>46.0</ele><time>2026-04-09T08:27:33.927Z</time></trkpt><trkpt lat="45.12104121572332" lon="9.645767200871001"><ele>46.0</ele><time>2026-04-09T08:27:35.927Z</time></trkpt><trkpt lat="45.121099415848256" lon="9.645664942355944"><ele>46.0</ele><time>2026-04-09T08:27:37.927Z</time></trkpt><trkpt lat="45.12115312287408" lon="9.645557173143661"><ele>46.0</ele><time>2026-04-09T08:27:39.927Z</time></trkpt><trkpt lat="45.12120051705658" lon="9.645455547276578"><ele>46.0</ele><time>2026-04-09T08:27:41.927Z</time></trkpt><trkpt lat="45.12126638100421" lon="9.645361661375569"><ele>46.0</ele><time>2026-04-09T08:27:43.927Z</time></trkpt><trkpt lat="45.121326025580714" lon="9.64525960356954"><ele>46.0</ele><time>2026-04-09T08:27:45.927Z</time></trkpt><trkpt lat="45.12137490368127" lon="9.645155884466186"><ele>46.0</ele><time>2026-04-09T08:27:47.927Z</time></trkpt><trkpt lat="45.12144352147608" lon="9.645067136104895"><ele>46.0</ele><time>2026-04-09T08:27:49.926Z</time></trkpt><trkpt lat="45.12151939507732" lon="9.645006662527864"><ele>46.0</ele><time>2026-04-09T08:27:51.926Z</time></trkpt><trkpt lat="45.12159942053518" lon="9.644942191690422"><ele>46.0</ele><time>2026-04-09T08:27:53.926Z</time></trkpt><trkpt lat="45.121673115801485" lon="9.644884698873113"><ele>46.0</ele><time>2026-04-09T08:27:55.926Z</time></trkpt><trkpt lat="45.12175210440505" lon="9.644830548224412"><ele>46.0</ele><time>2026-04-09T08:27:57.926Z</time></trkpt><trkpt lat="45.1218314382229" lon="9.644781557688624"><ele>46.333333333333336</ele><time>2026-04-09T08:27:59.926Z</time></trkpt><trkpt lat="45.121913674673486" lon="9.64473393285487"><ele>46.66666666666667</ele><time>2026-04-09T08:28:01.926Z</time></trkpt><trkpt lat="45.121996085011375" lon="9.644677915557414"><ele>47.0</ele><time>2026-04-09T08:28:03.926Z</time></trkpt><trkpt lat="45.12207686654141" lon="9.644618840603421"><ele>47.333333333333336</ele><time>2026-04-09T08:28:05.926Z</time></trkpt><trkpt lat="45.12215876382163" lon="9.644565554794696"><ele>47.666666666666664</ele><time>2026-04-09T08:28:07.926Z</time></trkpt><trkpt lat="45.12223810558038" lon="9.64451231696302"><ele>48.0</ele><time>2026-04-09T08:28:09.926Z</time></trkpt><trkpt lat="45.122315942643304" lon="9.64446020789446"><ele>48.0</ele><time>2026-04-09T08:28:11.926Z</time></trkpt><trkpt lat="45.12239710647939" lon="9.644410169570273"><ele>48.0</ele><time>2026-04-09T08:28:13.926Z</time></trkpt><trkpt lat="45.122480272742" lon="9.644365843317106"><ele>48.0</ele><time>2026-04-09T08:28:15.926Z</time></trkpt><trkpt lat="45.12255261643901" lon="9.644320213775927"><ele>48.0</ele><time>2026-04-09T08:28:17.926Z</time></trkpt><trkpt lat="45.12262068337779" lon="9.644276663745122"><ele>48.0</ele><time>2026-04-09T08:28:19.926Z</time></trkpt><trkpt lat="45.122695004780965" lon="9.644278607638446"><ele>48.0</ele><time>2026-04-09T08:28:21.926Z</time></trkpt><trkpt lat="45.12277900975652" lon="9.644253436886416"><ele>48.2</ele><time>2026-04-09T08:28:23.926Z</time></trkpt><trkpt lat="45.12287041630951" lon="9.64421338502015"><ele>48.4</ele><time>2026-04-09T08:28:25.926Z</time></trkpt><trkpt lat="45.122982764161016" lon="9.644149986811154"><ele>48.6</ele><time>2026-04-09T08:28:27.926Z</time></trkpt><trkpt lat="45.12310006653066" lon="9.64408014237395"><ele>48.800000000000004</ele><time>2026-04-09T08:28:29.926Z</time></trkpt><trkpt lat="45.12316150719718" lon="9.644041188495853"><ele>49.0</ele><time>2026-04-09T08:28:30.926Z</time></trkpt><trkpt lat="45.12322521649737" lon="9.64400649271531"><ele>48.83333333333333</ele><time>2026-04-09T08:28:31.926Z</time></trkpt><trkpt lat="45.12328511011417" lon="9.643969850255028"><ele>48.666666666666664</ele><time>2026-04-09T08:28:32.926Z</time></trkpt><trkpt lat="45.1233481138535" lon="9.643935827037659"><ele>48.5</ele><time>2026-04-09T08:28:33.926Z</time></trkpt><trkpt lat="45.12344933099815" lon="9.643843902606402"><ele>48.33333333333333</ele><time>2026-04-09T08:28:35.926Z</time></trkpt><trkpt lat="45.123523710147886" lon="9.643760400041815"><ele>48.166666666666664</ele><time>2026-04-09T08:28:37.926Z</time></trkpt><trkpt lat="45.123594267233976" lon="9.643698866371393"><ele>48.0</ele><time>2026-04-09T08:28:39.926Z</time></trkpt><trkpt lat="45.12364979264999" lon="9.643634190831488"><ele>47.99999999999999</ele><time>2026-04-09T08:28:41.925Z</time></trkpt><trkpt lat="45.1237114932805" lon="9.643608909486389"><ele>48.0</ele><time>2026-04-09T08:28:43.926Z</time></trkpt><trkpt lat="45.123739073335294" lon="9.643515583126987"><ele>48.0</ele><time>2026-04-09T08:29:04.926Z</time></trkpt><trkpt lat="45.123685870416296" lon="9.643568324313902"><ele>48.0</ele><time>2026-04-09T08:29:12.925Z</time></trkpt><trkpt lat="45.12363330849057" lon="9.643640586919181"><ele>48.0</ele><time>2026-04-09T08:29:20.925Z</time></trkpt><trkpt lat="45.12358637166443" lon="9.643708192612173"><ele>47.99999999999999</ele><time>2026-04-09T08:29:24.925Z</time></trkpt><trkpt lat="45.123527727155874" lon="9.643766591219059"><ele>48.0</ele><time>2026-04-09T08:29:29.925Z</time></trkpt><trkpt lat="45.12347386903186" lon="9.64381893526874"><ele>48.0</ele><time>2026-04-09T08:29:32.925Z</time></trkpt><trkpt lat="45.12340516596757" lon="9.64385895338458"><ele>48.0</ele><time>2026-04-09T08:29:35.925Z</time></trkpt><trkpt lat="45.123348898805816" lon="9.643920304211655"><ele>48.0</ele><time>2026-04-09T08:29:37.925Z</time></trkpt><trkpt lat="45.123272256229605" lon="9.643985625709547"><ele>48.0</ele><time>2026-04-09T08:29:39.925Z</time></trkpt><trkpt lat="45.12318503248472" lon="9.644025027257776"><ele>48.0</ele><time>2026-04-09T08:29:41.925Z</time></trkpt><trkpt lat="45.12309427601446" lon="9.644059628281786"><ele>48.0</ele><time>2026-04-09T08:29:43.925Z</time></trkpt><trkpt lat="45.12300749991688" lon="9.644111925800214"><ele>48.166666666666664</ele><time>2026-04-09T08:29:45.925Z</time></trkpt><trkpt lat="45.122920827444126" lon="9.644162144722728"><ele>48.33333333333333</ele><time>2026-04-09T08:29:47.925Z</time></trkpt><trkpt lat="45.122833757411136" lon="9.644209651258507"><ele>48.5</ele><time>2026-04-09T08:29:49.925Z</time></trkpt><trkpt lat="45.122752804442115" lon="9.644250290170975"><ele>48.666666666666664</ele><time>2026-04-09T08:29:51.925Z</time></trkpt><trkpt lat="45.12267705359624" lon="9.644294498661594"><ele>48.83333333333333</ele><time>2026-04-09T08:29:53.924Z</time></trkpt><trkpt lat="45.12261404879429" lon="9.64432096022115"><ele>49.0</ele><time>2026-04-09T08:29:55.924Z</time></trkpt><trkpt lat="45.122546487118775" lon="9.644306988230793"><ele>48.99999999999999</ele><time>2026-04-09T08:29:58.924Z</time></trkpt><trkpt lat="45.12245887927363" lon="9.644337243223395"><ele>49.0</ele><time>2026-04-09T08:30:02.924Z</time></trkpt><trkpt lat="45.122373648707" lon="9.644402795712741"><ele>49.0</ele><time>2026-04-09T08:30:05.924Z</time></trkpt><trkpt lat="45.12231496678555" lon="9.644443834608786"><ele>49.0</ele><time>2026-04-09T08:30:07.924Z</time></trkpt><trkpt lat="45.12225097583946" lon="9.644487687187953"><ele>48.99999999999999</ele><time>2026-04-09T08:30:09.924Z</time></trkpt><trkpt lat="45.12218201964525" lon="9.644535165626616"><ele>49.0</ele><time>2026-04-09T08:30:11.924Z</time></trkpt><trkpt lat="45.12210683488413" lon="9.644578578051272"><ele>48.83333333333333</ele><time>2026-04-09T08:30:13.924Z</time></trkpt><trkpt lat="45.122039919634574" lon="9.644625212781806"><ele>48.666666666666664</ele><time>2026-04-09T08:30:15.924Z</time></trkpt><trkpt lat="45.121970425830646" lon="9.644671138523195"><ele>48.5</ele><time>2026-04-09T08:30:17.924Z</time></trkpt><trkpt lat="45.1218972727781" lon="9.644724690140194"><ele>48.33333333333333</ele><time>2026-04-09T08:30:19.924Z</time></trkpt><trkpt lat="45.121824480761596" lon="9.644777238009464"><ele>48.166666666666664</ele><time>2026-04-09T08:30:21.924Z</time></trkpt><trkpt lat="45.12174919336846" lon="9.64482101579349"><ele>48.0</ele><time>2026-04-09T08:30:23.924Z</time></trkpt><trkpt lat="45.121674836395094" lon="9.64486866342745"><ele>48.0</ele><time>2026-04-09T08:30:25.924Z</time></trkpt><trkpt lat="45.121604015577" lon="9.644914676482363"><ele>48.0</ele><time>2026-04-09T08:30:27.924Z</time></trkpt><trkpt lat="45.12153696041339" lon="9.64496845926124"><ele>48.0</ele><time>2026-04-09T08:30:29.924Z</time></trkpt><trkpt lat="45.12146874692618" lon="9.645029549229946"><ele>48.0</ele><time>2026-04-09T08:30:31.924Z</time></trkpt><trkpt lat="45.12140350447225" lon="9.645088194012688"><ele>48.0</ele><time>2026-04-09T08:30:33.924Z</time></trkpt><trkpt lat="45.121342838429904" lon="9.645153047173704"><ele>48.0</ele><time>2026-04-09T08:30:35.923Z</time></trkpt><trkpt lat="45.12128579080891" lon="9.645234775609847"><ele>47.666666666666664</ele><time>2026-04-09T08:30:37.923Z</time></trkpt><trkpt lat="45.121236992535444" lon="9.645320530168563"><ele>47.333333333333336</ele><time>2026-04-09T08:30:39.924Z</time></trkpt><trkpt lat="45.12119344144494" lon="9.645409815094052"><ele>47.0</ele><time>2026-04-09T08:30:41.923Z</time></trkpt><trkpt lat="45.121143543473025" lon="9.645495910242587"><ele>46.66666666666667</ele><time>2026-04-09T08:30:43.923Z</time></trkpt><trkpt lat="45.12109900951743" lon="9.645588409565969"><ele>46.333333333333336</ele><time>2026-04-09T08:30:45.923Z</time></trkpt><trkpt lat="45.12105470094011" lon="9.645673892286313"><ele>46.0</ele><time>2026-04-09T08:30:47.923Z</time></trkpt><trkpt lat="45.121005708815716" lon="9.645757735055284"><ele>46.0</ele><time>2026-04-09T08:30:49.923Z</time></trkpt><trkpt lat="45.12095687320999" lon="9.645845665475177"><ele>46.0</ele><time>2026-04-09T08:30:51.923Z</time></trkpt><trkpt lat="45.120910922063324" lon="9.645942244479707"><ele>46.0</ele><time>2026-04-09T08:30:53.923Z</time></trkpt><trkpt lat="45.12086361731929" lon="9.646032599851642"><ele>46.0</ele><time>2026-04-09T08:30:55.923Z</time></trkpt><trkpt lat="45.12082226740163" lon="9.646128108969375"><ele>46.0</ele><time>2026-04-09T08:30:57.923Z</time></trkpt><trkpt lat="45.120778341338486" lon="9.64622234951263"><ele>46.0</ele><time>2026-04-09T08:30:59.923Z</time></trkpt><trkpt lat="45.12073077191784" lon="9.646309416974734"><ele>46.0</ele><time>2026-04-09T08:31:01.923Z</time></trkpt><trkpt lat="45.12068424408014" lon="9.646400698320457"><ele>46.0</ele><time>2026-04-09T08:31:03.923Z</time></trkpt><trkpt lat="45.12063774455582" lon="9.6464929463124"><ele>46.0</ele><time>2026-04-09T08:31:05.923Z</time></trkpt><trkpt lat="45.120598177518175" lon="9.646588102166024"><ele>46.0</ele><time>2026-04-09T08:31:07.923Z</time></trkpt><trkpt lat="45.12054863190701" lon="9.64667750662553"><ele>46.0</ele><time>2026-04-09T08:31:09.923Z</time></trkpt><trkpt lat="45.120505080313166" lon="9.646767889989315"><ele>46.0</ele><time>2026-04-09T08:31:11.923Z</time></trkpt><trkpt lat="45.12046208878508" lon="9.646863902704148"><ele>46.0</ele><time>2026-04-09T08:31:13.922Z</time></trkpt><trkpt lat="45.12041380632754" lon="9.646945483008153"><ele>46.0</ele><time>2026-04-09T08:31:15.922Z</time></trkpt><trkpt lat="45.12037461836355" lon="9.647040687439425"><ele>46.0</ele><time>2026-04-09T08:31:17.922Z</time></trkpt><trkpt lat="45.12032594724525" lon="9.647123545526338"><ele>46.0</ele><time>2026-04-09T08:31:19.922Z</time></trkpt><trkpt lat="45.12028473074582" lon="9.647212249606772"><ele>46.0</ele><time>2026-04-09T08:31:21.922Z</time></trkpt><trkpt lat="45.12024128689017" lon="9.647308296336401"><ele>46.0</ele><time>2026-04-09T08:31:23.922Z</time></trkpt><trkpt lat="45.12019936508272" lon="9.647400976922096"><ele>46.0</ele><time>2026-04-09T08:31:25.922Z</time></trkpt><trkpt lat="45.12016373810716" lon="9.647499509170107"><ele>46.0</ele><time>2026-04-09T08:31:27.922Z</time></trkpt><trkpt lat="45.12012549114074" lon="9.647592152047102"><ele>46.0</ele><time>2026-04-09T08:31:29.922Z</time></trkpt><trkpt lat="45.12010283318693" lon="9.647687058641539"><ele>46.0</ele><time>2026-04-09T08:31:31.922Z</time></trkpt><trkpt lat="45.12008240900303" lon="9.647794365829121"><ele>46.0</ele><time>2026-04-09T08:31:33.922Z</time></trkpt><trkpt lat="45.12006791887131" lon="9.647900159315862"><ele>46.0</ele><time>2026-04-09T08:31:35.922Z</time></trkpt><trkpt lat="45.120059033562285" lon="9.648009710345475"><ele>46.16666666666667</ele><time>2026-04-09T08:31:37.922Z</time></trkpt><trkpt lat="45.1200507879039" lon="9.648114704181102"><ele>46.333333333333336</ele><time>2026-04-09T08:31:39.922Z</time></trkpt><trkpt lat="45.1200522905908" lon="9.648221921322952"><ele>46.5</ele><time>2026-04-09T08:31:41.922Z</time></trkpt><trkpt lat="45.12006358463663" lon="9.64832770773914"><ele>46.666666666666664</ele><time>2026-04-09T08:31:43.922Z</time></trkpt><trkpt lat="45.12007818500424" lon="9.648435910666345"><ele>46.83333333333333</ele><time>2026-04-09T08:31:45.922Z</time></trkpt><trkpt lat="45.120103628592005" lon="9.648536007555444"><ele>47.0</ele><time>2026-04-09T08:31:47.922Z</time></trkpt><trkpt lat="45.120135446216025" lon="9.648633191354744"><ele>47.0</ele><time>2026-04-09T08:31:49.922Z</time></trkpt><trkpt lat="45.12017647413577" lon="9.648731316767092"><ele>47.0</ele><time>2026-04-09T08:31:51.922Z</time></trkpt><trkpt lat="45.12023197800505" lon="9.648820771680588"><ele>47.0</ele><time>2026-04-09T08:31:53.922Z</time></trkpt><trkpt lat="45.12028425775115" lon="9.648890361005808"><ele>47.0</ele><time>2026-04-09T08:31:55.922Z</time></trkpt><trkpt lat="45.12034682533689" lon="9.648956703096244"><ele>47.0</ele><time>2026-04-09T08:31:57.921Z</time></trkpt><trkpt lat="45.120404312293935" lon="9.649030433227411"><ele>47.0</ele><time>2026-04-09T08:31:59.921Z</time></trkpt><trkpt lat="45.12045663850806" lon="9.649107894804509"><ele>47.0</ele><time>2026-04-09T08:32:01.921Z</time></trkpt><trkpt lat="45.120522480347454" lon="9.649179438407788"><ele>47.0</ele><time>2026-04-09T08:32:03.921Z</time></trkpt><trkpt lat="45.12058292233817" lon="9.649244946182383"><ele>47.0</ele><time>2026-04-09T08:32:05.921Z</time></trkpt><trkpt lat="45.120634463176835" lon="9.64931727674943"><ele>47.0</ele><time>2026-04-09T08:32:07.921Z</time></trkpt><trkpt lat="45.12068977003134" lon="9.649386809459555"><ele>47.0</ele><time>2026-04-09T08:32:09.921Z</time></trkpt><trkpt lat="45.12074512216985" lon="9.649457085715603"><ele>47.0</ele><time>2026-04-09T08:32:11.921Z</time></trkpt><trkpt lat="45.120800911442586" lon="9.649529655547756"><ele>47.14285714285714</ele><time>2026-04-09T08:32:13.921Z</time></trkpt><trkpt lat="45.12086151165458" lon="9.649595628694305"><ele>47.285714285714285</ele><time>2026-04-09T08:32:15.921Z</time></trkpt><trkpt lat="45.12091692853723" lon="9.649660569699954"><ele>47.42857142857143</ele><time>2026-04-09T08:32:17.921Z</time></trkpt><trkpt lat="45.120970713738075" lon="9.649734679845306"><ele>47.57142857142857</ele><time>2026-04-09T08:32:19.921Z</time></trkpt><trkpt lat="45.121007791094655" lon="9.64982190280016"><ele>47.714285714285715</ele><time>2026-04-09T08:32:21.921Z</time></trkpt><trkpt lat="45.12104256612736" lon="9.649908300096063"><ele>47.857142857142854</ele><time>2026-04-09T08:32:23.921Z</time></trkpt><trkpt lat="45.12106072731535" lon="9.65001051257058"><ele>48.0</ele><time>2026-04-09T08:32:25.921Z</time></trkpt><trkpt lat="45.121071871315046" lon="9.650113139840817"><ele>48.0</ele><time>2026-04-09T08:32:27.921Z</time></trkpt><trkpt lat="45.12108526640835" lon="9.650216287008428"><ele>48.0</ele><time>2026-04-09T08:32:29.921Z</time></trkpt><trkpt lat="45.12108536074625" lon="9.650321892664305"><ele>48.0</ele><time>2026-04-09T08:32:31.921Z</time></trkpt><trkpt lat="45.121075125378844" lon="9.650436745121782"><ele>48.0</ele><time>2026-04-09T08:32:33.921Z</time></trkpt><trkpt lat="45.12104127834509" lon="9.65053612500981"><ele>48.0</ele><time>2026-04-09T08:32:35.921Z</time></trkpt><trkpt lat="45.120998547197374" lon="9.650618078785225"><ele>48.0</ele><time>2026-04-09T08:32:37.921Z</time></trkpt><trkpt lat="45.12094400246544" lon="9.650684508673507"><ele>47.857142857142854</ele><time>2026-04-09T08:32:39.921Z</time></trkpt><trkpt lat="45.12087884527487" lon="9.650745206030589"><ele>47.714285714285715</ele><time>2026-04-09T08:32:41.92Z</time></trkpt><trkpt lat="45.120814710625744" lon="9.65080010065383"><ele>47.57142857142857</ele><time>2026-04-09T08:32:43.921Z</time></trkpt><trkpt lat="45.120745479399424" lon="9.650836320300423"><ele>47.42857142857143</ele><time>2026-04-09T08:32:45.921Z</time></trkpt><trkpt lat="45.12067837504002" lon="9.650878820019843"><ele>47.285714285714285</ele><time>2026-04-09T08:32:47.921Z</time></trkpt><trkpt lat="45.12061142391726" lon="9.650926813044126"><ele>47.14285714285714</ele><time>2026-04-09T08:32:49.92Z</time></trkpt><trkpt lat="45.12054554469379" lon="9.65096488418293"><ele>47.0</ele><time>2026-04-09T08:32:51.921Z</time></trkpt><trkpt lat="45.120476858443595" lon="9.651014164188867"><ele>46.83333333333333</ele><time>2026-04-09T08:32:53.92Z</time></trkpt><trkpt lat="45.12040791411364" lon="9.651061883643044"><ele>46.666666666666664</ele><time>2026-04-09T08:32:55.92Z</time></trkpt><trkpt lat="45.12033720526105" lon="9.651107768483532"><ele>46.5</ele><time>2026-04-09T08:32:57.92Z</time></trkpt><trkpt lat="45.120262637307015" lon="9.65115401604508"><ele>46.333333333333336</ele><time>2026-04-09T08:32:59.92Z</time></trkpt><trkpt lat="45.12018246264898" lon="9.651196704790046"><ele>46.16666666666667</ele><time>2026-04-09T08:33:01.92Z</time></trkpt><trkpt lat="45.12010960963915" lon="9.651246994633977"><ele>46.0</ele><time>2026-04-09T08:33:03.92Z</time></trkpt><trkpt lat="45.12003201452351" lon="9.651296991750977"><ele>46.0</ele><time>2026-04-09T08:33:05.92Z</time></trkpt><trkpt lat="45.11995563889384" lon="9.65134609934514"><ele>46.0</ele><time>2026-04-09T08:33:07.92Z</time></trkpt><trkpt lat="45.11988056020243" lon="9.651389012221557"><ele>46.0</ele><time>2026-04-09T08:33:09.92Z</time></trkpt><trkpt lat="45.119808960952156" lon="9.651447843667892"><ele>46.0</ele><time>2026-04-09T08:33:11.923Z</time></trkpt><trkpt lat="45.11973095149549" lon="9.651497577637924"><ele>46.0</ele><time>2026-04-09T08:33:13.926Z</time></trkpt><trkpt lat="45.119648883329845" lon="9.651548587939459"><ele>46.0</ele><time>2026-04-09T08:33:15.929Z</time></trkpt><trkpt lat="45.119570369837874" lon="9.651593634806677"><ele>46.333333333333336</ele><time>2026-04-09T08:33:17.931Z</time></trkpt><trkpt lat="45.1194970114986" lon="9.65164697358653"><ele>46.66666666666667</ele><time>2026-04-09T08:33:19.933Z</time></trkpt><trkpt lat="45.11942062526097" lon="9.651699809904498"><ele>47.0</ele><time>2026-04-09T08:33:21.935Z</time></trkpt><trkpt lat="45.119336521071794" lon="9.65175336967766"><ele>47.333333333333336</ele><time>2026-04-09T08:33:23.937Z</time></trkpt><trkpt lat="45.11925718968355" lon="9.651805263584167"><ele>47.666666666666664</ele><time>2026-04-09T08:33:25.939Z</time></trkpt><trkpt lat="45.11917994496373" lon="9.651853769676238"><ele>48.0</ele><time>2026-04-09T08:33:27.94Z</time></trkpt><trkpt lat="45.119102261599245" lon="9.651903754412725"><ele>47.833333333333336</ele><time>2026-04-09T08:33:29.941Z</time></trkpt><trkpt lat="45.11902900471033" lon="9.651957696957938"><ele>47.666666666666664</ele><time>2026-04-09T08:33:31.942Z</time></trkpt><trkpt lat="45.11895100986938" lon="9.652004232326593"><ele>47.5</ele><time>2026-04-09T08:33:33.943Z</time></trkpt><trkpt lat="45.11887992955643" lon="9.65205378495766"><ele>47.33333333333333</ele><time>2026-04-09T08:33:35.944Z</time></trkpt><trkpt lat="45.11879842693391" lon="9.65210097492084"><ele>47.166666666666664</ele><time>2026-04-09T08:33:37.944Z</time></trkpt><trkpt lat="45.11871567241658" lon="9.652137229208428"><ele>47.0</ele><time>2026-04-09T08:33:39.945Z</time></trkpt><trkpt lat="45.1186297987267" lon="9.652163487138585"><ele>47.0</ele><time>2026-04-09T08:33:41.945Z</time></trkpt><trkpt lat="45.11853802470786" lon="9.65217195971954"><ele>47.0</ele><time>2026-04-09T08:33:43.946Z</time></trkpt><trkpt lat="45.118443944134" lon="9.652173626254006"><ele>47.0</ele><time>2026-04-09T08:33:45.946Z</time></trkpt><trkpt lat="45.11835465464483" lon="9.652168001970805"><ele>47.0</ele><time>2026-04-09T08:33:47.947Z</time></trkpt><trkpt lat="45.118263514803104" lon="9.652147071105386"><ele>47.0</ele><time>2026-04-09T08:33:49.947Z</time></trkpt><trkpt lat="45.11817763438339" lon="9.652119286967901"><ele>47.0</ele><time>2026-04-09T08:33:51.947Z</time></trkpt><trkpt lat="45.11808451903761" lon="9.652098472980127"><ele>47.0</ele><time>2026-04-09T08:33:53.947Z</time></trkpt><trkpt lat="45.11799406618975" lon="9.65207655277592"><ele>47.0</ele><time>2026-04-09T08:33:55.948Z</time></trkpt><trkpt lat="45.11791040442413" lon="9.652059955541826"><ele>47.0</ele><time>2026-04-09T08:33:57.948Z</time></trkpt><trkpt lat="45.117823232165016" lon="9.652038652388596"><ele>47.0</ele><time>2026-04-09T08:33:59.948Z</time></trkpt><trkpt lat="45.11773409117523" lon="9.65202389064356"><ele>47.0</ele><time>2026-04-09T08:34:01.948Z</time></trkpt><trkpt lat="45.11765060769342" lon="9.652006156166799"><ele>47.0</ele><time>2026-04-09T08:34:03.948Z</time></trkpt><trkpt lat="45.1175701575835" lon="9.651984296833259"><ele>47.0</ele><time>2026-04-09T08:34:05.948Z</time></trkpt><trkpt lat="45.117485106754096" lon="9.651972427412483"><ele>47.0</ele><time>2026-04-09T08:34:07.948Z</time></trkpt><trkpt lat="45.117399778988364" lon="9.651948797690173"><ele>47.0</ele><time>2026-04-09T08:34:09.948Z</time></trkpt><trkpt lat="45.11731211365185" lon="9.651931200332696"><ele>47.0</ele><time>2026-04-09T08:34:11.948Z</time></trkpt><trkpt lat="45.11723494756992" lon="9.651916787746533"><ele>47.0</ele><time>2026-04-09T08:34:13.948Z</time></trkpt><trkpt lat="45.117154353396764" lon="9.65189281207205"><ele>47.14285714285714</ele><time>2026-04-09T08:34:15.948Z</time></trkpt><trkpt lat="45.11707507441659" lon="9.651873178420061"><ele>47.285714285714285</ele><time>2026-04-09T08:34:17.948Z</time></trkpt><trkpt lat="45.11700308747889" lon="9.651857382990631"><ele>47.42857142857143</ele><time>2026-04-09T08:34:19.948Z</time></trkpt><trkpt lat="45.116936446861004" lon="9.651841726043392"><ele>47.57142857142857</ele><time>2026-04-09T08:34:21.949Z</time></trkpt><trkpt lat="45.116860057441095" lon="9.651817285160043"><ele>47.714285714285715</ele><time>2026-04-09T08:34:23.949Z</time></trkpt><trkpt lat="45.116781404474835" lon="9.651806431864644"><ele>47.857142857142854</ele><time>2026-04-09T08:34:25.949Z</time></trkpt><trkpt lat="45.116711500124026" lon="9.651789562356422"><ele>48.0</ele><time>2026-04-09T08:34:27.949Z</time></trkpt><trkpt lat="45.1166396255715" lon="9.651769534310127"><ele>48.166666666666664</ele><time>2026-04-09T08:34:29.949Z</time></trkpt><trkpt lat="45.116558971113655" lon="9.651756189693504"><ele>48.33333333333333</ele><time>2026-04-09T08:34:31.948Z</time></trkpt><trkpt lat="45.11648035558503" lon="9.651735476741496"><ele>48.5</ele><time>2026-04-09T08:34:33.948Z</time></trkpt><trkpt lat="45.11640258378852" lon="9.651719971622283"><ele>48.666666666666664</ele><time>2026-04-09T08:34:35.948Z</time></trkpt><trkpt lat="45.11632164551041" lon="9.651703700633828"><ele>48.83333333333333</ele><time>2026-04-09T08:34:37.948Z</time></trkpt><trkpt lat="45.116238259653954" lon="9.651686353443575"><ele>49.0</ele><time>2026-04-09T08:34:39.948Z</time></trkpt><trkpt lat="45.11616579921784" lon="9.6516614834363"><ele>48.99999999999999</ele><time>2026-04-09T08:34:41.948Z</time></trkpt><trkpt lat="45.116083788965426" lon="9.651645376785753"><ele>49.0</ele><time>2026-04-09T08:34:43.948Z</time></trkpt><trkpt lat="45.11599987891893" lon="9.651621265910608"><ele>49.0</ele><time>2026-04-09T08:34:45.948Z</time></trkpt><trkpt lat="45.11591420164679" lon="9.651607322990747"><ele>49.0</ele><time>2026-04-09T08:34:47.948Z</time></trkpt><trkpt lat="45.1158284057358" lon="9.651593242752329"><ele>48.99999999999999</ele><time>2026-04-09T08:34:49.949Z</time></trkpt><trkpt lat="45.11574024508437" lon="9.651574178413913"><ele>49.0</ele><time>2026-04-09T08:34:51.949Z</time></trkpt><trkpt lat="45.115655561641695" lon="9.651553886049827"><ele>48.99999999999999</ele><time>2026-04-09T08:34:53.949Z</time></trkpt><trkpt lat="45.115568051445216" lon="9.651543206115964"><ele>49.0</ele><time>2026-04-09T08:34:55.949Z</time></trkpt><trkpt lat="45.11547972207716" lon="9.651527912324946"><ele>49.0</ele><time>2026-04-09T08:34:57.95Z</time></trkpt><trkpt lat="45.11539585030622" lon="9.651505526774324"><ele>49.0</ele><time>2026-04-09T08:34:59.949Z</time></trkpt><trkpt lat="45.11531380274539" lon="9.651486675267675"><ele>48.99999999999999</ele><time>2026-04-09T08:35:01.949Z</time></trkpt><trkpt lat="45.115238957640976" lon="9.651469222799253"><ele>49.0</ele><time>2026-04-09T08:35:03.949Z</time></trkpt><trkpt lat="45.115171110397796" lon="9.651446480052618"><ele>48.99999999999999</ele><time>2026-04-09T08:35:05.949Z</time></trkpt><trkpt lat="45.115103053791415" lon="9.651433270522439"><ele>49.0</ele><time>2026-04-09T08:35:07.949Z</time></trkpt><trkpt lat="45.11502642893277" lon="9.651420751596078"><ele>49.0</ele><time>2026-04-09T08:35:09.949Z</time></trkpt><trkpt lat="45.114951385356704" lon="9.65140169064367"><ele>49.0</ele><time>2026-04-09T08:35:11.949Z</time></trkpt><trkpt lat="45.11487422254015" lon="9.65138447508051"><ele>48.99999999999999</ele><time>2026-04-09T08:35:13.949Z</time></trkpt><trkpt lat="45.1147964227612" lon="9.65137946384493"><ele>49.0</ele><time>2026-04-09T08:35:15.949Z</time></trkpt><trkpt lat="45.11471314933356" lon="9.65138154121505"><ele>48.83333333333333</ele><time>2026-04-09T08:35:17.949Z</time></trkpt><trkpt lat="45.114628349892975" lon="9.65138070225818"><ele>48.666666666666664</ele><time>2026-04-09T08:35:19.949Z</time></trkpt><trkpt lat="45.114543248590735" lon="9.65138867539201"><ele>48.5</ele><time>2026-04-09T08:35:21.948Z</time></trkpt><trkpt lat="45.11446097197536" lon="9.651403490571704"><ele>48.33333333333333</ele><time>2026-04-09T08:35:23.948Z</time></trkpt><trkpt lat="45.11437934706918" lon="9.651420815165839"><ele>48.166666666666664</ele><time>2026-04-09T08:35:25.948Z</time></trkpt><trkpt lat="45.11429033881312" lon="9.651441811169441"><ele>48.0</ele><time>2026-04-09T08:35:27.948Z</time></trkpt><trkpt lat="45.11420364641236" lon="9.651458848269646"><ele>48.0</ele><time>2026-04-09T08:35:29.948Z</time></trkpt><trkpt lat="45.11411907929728" lon="9.6514729552562"><ele>48.0</ele><time>2026-04-09T08:35:31.948Z</time></trkpt><trkpt lat="45.1140319050678" lon="9.651497677025965"><ele>48.0</ele><time>2026-04-09T08:35:33.948Z</time></trkpt><trkpt lat="45.11394088023014" lon="9.65151146118907"><ele>48.0</ele><time>2026-04-09T08:35:35.948Z</time></trkpt><trkpt lat="45.11385546045448" lon="9.65152086288162"><ele>48.0</ele><time>2026-04-09T08:35:37.948Z</time></trkpt><trkpt lat="45.113769670274785" lon="9.6515386279971"><ele>48.0</ele><time>2026-04-09T08:35:39.948Z</time></trkpt><trkpt lat="45.11368287514345" lon="9.6515523536075"><ele>48.333333333333336</ele><time>2026-04-09T08:35:41.948Z</time></trkpt><trkpt lat="45.11359540994446" lon="9.651577336998034"><ele>48.66666666666667</ele><time>2026-04-09T08:35:43.948Z</time></trkpt><trkpt lat="45.11351314719799" lon="9.651588782449885"><ele>49.0</ele><time>2026-04-09T08:35:45.948Z</time></trkpt><trkpt lat="45.11342597833896" lon="9.651605595341795"><ele>49.333333333333336</ele><time>2026-04-09T08:35:47.948Z</time></trkpt><trkpt lat="45.11334287769217" lon="9.651622561380998"><ele>49.66666666666667</ele><time>2026-04-09T08:35:49.948Z</time></trkpt><trkpt lat="45.113255418527835" lon="9.651634874910727"><ele>50.0</ele><time>2026-04-09T08:35:51.948Z</time></trkpt><trkpt lat="45.113169760290496" lon="9.65164838772783"><ele>50.00000000000001</ele><time>2026-04-09T08:35:53.948Z</time></trkpt><trkpt lat="45.11308649970501" lon="9.651664621355202"><ele>50.0</ele><time>2026-04-09T08:35:55.948Z</time></trkpt><trkpt lat="45.113006712055935" lon="9.651685923939233"><ele>50.0</ele><time>2026-04-09T08:35:57.948Z</time></trkpt><trkpt lat="45.11292242996057" lon="9.651701735806645"><ele>50.0</ele><time>2026-04-09T08:35:59.948Z</time></trkpt><trkpt lat="45.11283721323415" lon="9.651717149223973"><ele>50.00000000000001</ele><time>2026-04-09T08:36:01.948Z</time></trkpt><trkpt lat="45.11275609245705" lon="9.651731095089154"><ele>50.0</ele><time>2026-04-09T08:36:03.948Z</time></trkpt><trkpt lat="45.11267823185442" lon="9.65174422968309"><ele>50.00000000000001</ele><time>2026-04-09T08:36:05.948Z</time></trkpt><trkpt lat="45.112597741712264" lon="9.651759617692624"><ele>50.0</ele><time>2026-04-09T08:36:07.948Z</time></trkpt><trkpt lat="45.11251417520948" lon="9.65178370539533"><ele>50.0</ele><time>2026-04-09T08:36:09.948Z</time></trkpt><trkpt lat="45.112435382113205" lon="9.651801432616807"><ele>50.0</ele><time>2026-04-09T08:36:11.948Z</time></trkpt><trkpt lat="45.11235546116907" lon="9.65181014924881"><ele>50.00000000000001</ele><time>2026-04-09T08:36:13.948Z</time></trkpt><trkpt lat="45.11228429550435" lon="9.65182594066708"><ele>50.0</ele><time>2026-04-09T08:36:15.948Z</time></trkpt><trkpt lat="45.11220768049396" lon="9.651842619819696"><ele>50.00000000000001</ele><time>2026-04-09T08:36:17.948Z</time></trkpt><trkpt lat="45.11212748828221" lon="9.651851493578475"><ele>50.0</ele><time>2026-04-09T08:36:19.948Z</time></trkpt><trkpt lat="45.11205315778473" lon="9.651861413361924"><ele>50.0</ele><time>2026-04-09T08:36:21.948Z</time></trkpt><trkpt lat="45.11196934935303" lon="9.651879652279556"><ele>50.0</ele><time>2026-04-09T08:36:23.948Z</time></trkpt><trkpt lat="45.11188491972368" lon="9.65189576606069"><ele>50.00000000000001</ele><time>2026-04-09T08:36:25.948Z</time></trkpt><trkpt lat="45.11180348913789" lon="9.651907689774495"><ele>50.0</ele><time>2026-04-09T08:36:27.947Z</time></trkpt><trkpt lat="45.111724746300396" lon="9.651919850410259"><ele>50.00000000000001</ele><time>2026-04-09T08:36:29.947Z</time></trkpt><trkpt lat="45.11164508934142" lon="9.651932717322735"><ele>50.0</ele><time>2026-04-09T08:36:31.947Z</time></trkpt><trkpt lat="45.111567178694926" lon="9.651943714059373"><ele>50.0</ele><time>2026-04-09T08:36:33.947Z</time></trkpt><trkpt lat="45.11148699308232" lon="9.651956257613488"><ele>50.0</ele><time>2026-04-09T08:36:35.947Z</time></trkpt><trkpt lat="45.111407190910015" lon="9.651968587387456"><ele>50.00000000000001</ele><time>2026-04-09T08:36:37.947Z</time></trkpt><trkpt lat="45.11132615347686" lon="9.651989886181076"><ele>50.0</ele><time>2026-04-09T08:36:39.947Z</time></trkpt><trkpt lat="45.11124532541071" lon="9.65201387578445"><ele>49.714285714285715</ele><time>2026-04-09T08:36:41.947Z</time></trkpt><trkpt lat="45.11117782494145" lon="9.652039855486926"><ele>49.42857142857143</ele><time>2026-04-09T08:36:43.947Z</time></trkpt><trkpt lat="45.1111132417862" lon="9.65206631648899"><ele>49.14285714285714</ele><time>2026-04-09T08:36:45.947Z</time></trkpt><trkpt lat="45.111057911457245" lon="9.652111372636657"><ele>48.85714285714286</ele><time>2026-04-09T08:36:47.947Z</time></trkpt><trkpt lat="45.110988519610004" lon="9.652117021594002"><ele>48.57142857142857</ele><time>2026-04-09T08:36:49.947Z</time></trkpt><trkpt lat="45.110903243923374" lon="9.652120947604665"><ele>48.285714285714285</ele><time>2026-04-09T08:36:51.947Z</time></trkpt><trkpt lat="45.11082619911415" lon="9.652107908764485"><ele>48.0</ele><time>2026-04-09T08:36:53.947Z</time></trkpt><trkpt lat="45.110722667746536" lon="9.65208152964546"><ele>47.666666666666664</ele><time>2026-04-09T08:36:55.948Z</time></trkpt><trkpt lat="45.11061593003343" lon="9.652066570093105"><ele>47.333333333333336</ele><time>2026-04-09T08:36:57.948Z</time></trkpt><trkpt lat="45.1105330065242" lon="9.652101755305763"><ele>47.0</ele><time>2026-04-09T08:36:59.947Z</time></trkpt><trkpt lat="45.11047729680913" lon="9.652161358375793"><ele>46.66666666666667</ele><time>2026-04-09T08:37:01.947Z</time></trkpt><trkpt lat="45.110422608749175" lon="9.652212224940666"><ele>46.333333333333336</ele><time>2026-04-09T08:37:03.948Z</time></trkpt><trkpt lat="45.11035684714446" lon="9.652266472310066"><ele>46.0</ele><time>2026-04-09T08:37:06.947Z</time></trkpt><trkpt lat="45.110300160379744" lon="9.652117779371057"><ele>46.0</ele><time>2026-04-09T08:37:09.948Z</time></trkpt><trkpt lat="45.110244907438506" lon="9.652044855102153"><ele>46.0</ele><time>2026-04-09T08:37:11.948Z</time></trkpt><trkpt lat="45.1101850052592" lon="9.651980644694897"><ele>46.0</ele><time>2026-04-09T08:37:13.947Z</time></trkpt><trkpt lat="45.11013404916822" lon="9.651907048425477"><ele>46.0</ele><time>2026-04-09T08:37:15.947Z</time></trkpt><trkpt lat="45.110084284594905" lon="9.651829774801406"><ele>46.0</ele><time>2026-04-09T08:37:17.947Z</time></trkpt><trkpt lat="45.110028496824064" lon="9.651752254054212"><ele>46.0</ele><time>2026-04-09T08:37:19.947Z</time></trkpt><trkpt lat="45.10997977057936" lon="9.6516730503691"><ele>46.0</ele><time>2026-04-09T08:37:21.947Z</time></trkpt><trkpt lat="45.10992438215292" lon="9.651592565537824"><ele>46.16666666666667</ele><time>2026-04-09T08:37:23.947Z</time></trkpt><trkpt lat="45.109868277777196" lon="9.65150568446935"><ele>46.333333333333336</ele><time>2026-04-09T08:37:25.947Z</time></trkpt><trkpt lat="45.109810813428076" lon="9.651413230898392"><ele>46.5</ele><time>2026-04-09T08:37:27.947Z</time></trkpt><trkpt lat="45.10975566426126" lon="9.651325942992132"><ele>46.666666666666664</ele><time>2026-04-09T08:37:29.947Z</time></trkpt><trkpt lat="45.109695725821126" lon="9.651247145119243"><ele>46.83333333333333</ele><time>2026-04-09T08:37:31.947Z</time></trkpt><trkpt lat="45.10963615581873" lon="9.651173867787938"><ele>47.0</ele><time>2026-04-09T08:37:33.947Z</time></trkpt><trkpt lat="45.1095785630487" lon="9.651083588347337"><ele>47.0</ele><time>2026-04-09T08:37:35.947Z</time></trkpt><trkpt lat="45.109523664221534" lon="9.650988801213034"><ele>47.0</ele><time>2026-04-09T08:37:37.947Z</time></trkpt><trkpt lat="45.10946433918594" lon="9.650896897046044"><ele>47.0</ele><time>2026-04-09T08:37:39.947Z</time></trkpt><trkpt lat="45.109409941503955" lon="9.650810389446367"><ele>47.0</ele><time>2026-04-09T08:37:41.947Z</time></trkpt><trkpt lat="45.10935611501066" lon="9.650715496956028"><ele>47.0</ele><time>2026-04-09T08:37:43.947Z</time></trkpt><trkpt lat="45.10930151234518" lon="9.650633262526432"><ele>47.0</ele><time>2026-04-09T08:37:45.947Z</time></trkpt><trkpt lat="45.10924577208704" lon="9.650547007387594"><ele>47.0</ele><time>2026-04-09T08:37:47.947Z</time></trkpt><trkpt lat="45.10919300099518" lon="9.650450785878178"><ele>47.0</ele><time>2026-04-09T08:37:49.947Z</time></trkpt><trkpt lat="45.10913977010674" lon="9.650358073448956"><ele>47.0</ele><time>2026-04-09T08:37:51.947Z</time></trkpt><trkpt lat="45.10908106618805" lon="9.650270761497616"><ele>47.0</ele><time>2026-04-09T08:37:53.947Z</time></trkpt><trkpt lat="45.10902521385137" lon="9.650171558955595"><ele>47.0</ele><time>2026-04-09T08:37:55.947Z</time></trkpt><trkpt lat="45.10897424515026" lon="9.65007865947451"><ele>47.0</ele><time>2026-04-09T08:37:57.947Z</time></trkpt><trkpt lat="45.10891477536322" lon="9.649986985286287"><ele>47.166666666666664</ele><time>2026-04-09T08:37:59.947Z</time></trkpt><trkpt lat="45.10886676274822" lon="9.64988876029079"><ele>47.33333333333333</ele><time>2026-04-09T08:38:01.947Z</time></trkpt><trkpt lat="45.10881673188864" lon="9.649792079876303"><ele>47.5</ele><time>2026-04-09T08:38:03.947Z</time></trkpt><trkpt lat="45.10876585694255" lon="9.649699891765678"><ele>47.666666666666664</ele><time>2026-04-09T08:38:05.947Z</time></trkpt><trkpt lat="45.10871379233564" lon="9.649601789667251"><ele>47.833333333333336</ele><time>2026-04-09T08:38:07.947Z</time></trkpt><trkpt lat="45.108664394954936" lon="9.649505111129438"><ele>48.0</ele><time>2026-04-09T08:38:09.947Z</time></trkpt><trkpt lat="45.10861547643214" lon="9.649412886395499"><ele>48.0</ele><time>2026-04-09T08:38:11.947Z</time></trkpt><trkpt lat="45.108555535660315" lon="9.649320086956628"><ele>48.0</ele><time>2026-04-09T08:38:13.947Z</time></trkpt><trkpt lat="45.108510803052624" lon="9.649240750959711"><ele>48.0</ele><time>2026-04-09T08:38:15.947Z</time></trkpt><trkpt lat="45.10846651741388" lon="9.64916582458533"><ele>48.0</ele><time>2026-04-09T08:38:17.947Z</time></trkpt><trkpt lat="45.10842431329336" lon="9.649079240437956"><ele>48.0</ele><time>2026-04-09T08:38:19.946Z</time></trkpt><trkpt lat="45.108383108895055" lon="9.64898960155552"><ele>48.0</ele><time>2026-04-09T08:38:21.946Z</time></trkpt><trkpt lat="45.10833632423903" lon="9.648910343342319"><ele>47.99999999999999</ele><time>2026-04-09T08:38:23.946Z</time></trkpt><trkpt lat="45.10828161801587" lon="9.648829865054841"><ele>48.0</ele><time>2026-04-09T08:38:25.946Z</time></trkpt><trkpt lat="45.108229841904766" lon="9.648762295664506"><ele>48.0</ele><time>2026-04-09T08:38:27.946Z</time></trkpt><trkpt lat="45.1081588129493" lon="9.648685565670654"><ele>48.0</ele><time>2026-04-09T08:38:30.946Z</time></trkpt><trkpt lat="45.108106837939836" lon="9.648633699752335"><ele>48.0</ele><time>2026-04-09T08:38:32.946Z</time></trkpt><trkpt lat="45.10805421475391" lon="9.64858058459912"><ele>47.99999999999999</ele><time>2026-04-09T08:38:34.946Z</time></trkpt><trkpt lat="45.10798930986856" lon="9.648514006152428"><ele>48.0</ele><time>2026-04-09T08:38:36.946Z</time></trkpt><trkpt lat="45.107929045533375" lon="9.648448334487675"><ele>47.833333333333336</ele><time>2026-04-09T08:38:38.946Z</time></trkpt><trkpt lat="45.10787205138546" lon="9.64838699889108"><ele>47.666666666666664</ele><time>2026-04-09T08:38:40.946Z</time></trkpt><trkpt lat="45.107810262505694" lon="9.648331881687984"><ele>47.5</ele><time>2026-04-09T08:38:42.946Z</time></trkpt><trkpt lat="45.10774093131355" lon="9.64828816369066"><ele>47.33333333333333</ele><time>2026-04-09T08:38:44.946Z</time></trkpt><trkpt lat="45.107657508546225" lon="9.648260198708293"><ele>47.166666666666664</ele><time>2026-04-09T08:38:46.946Z</time></trkpt><trkpt lat="45.107584810291776" lon="9.648222204647768"><ele>47.0</ele><time>2026-04-09T08:38:48.946Z</time></trkpt><trkpt lat="45.10751128410963" lon="9.64819174777394"><ele>47.0</ele><time>2026-04-09T08:38:50.946Z</time></trkpt><trkpt lat="45.10744454997647" lon="9.648161433371481"><ele>47.0</ele><time>2026-04-09T08:38:52.946Z</time></trkpt><trkpt lat="45.10735906879412" lon="9.648127834586237"><ele>47.0</ele><time>2026-04-09T08:38:55.946Z</time></trkpt><trkpt lat="45.10729255796401" lon="9.64816728147275"><ele>47.0</ele><time>2026-04-09T08:38:58.946Z</time></trkpt><trkpt lat="45.107232000703405" lon="9.648233417681466"><ele>47.0</ele><time>2026-04-09T08:39:01.945Z</time></trkpt><trkpt lat="45.10715650643189" lon="9.648271166543525"><ele>47.0</ele><time>2026-04-09T08:39:04.946Z</time></trkpt><trkpt lat="45.107104042881176" lon="9.648336307079704"><ele>47.0</ele><time>2026-04-09T08:39:06.946Z</time></trkpt><trkpt lat="45.10705670473125" lon="9.648398537364079"><ele>47.0</ele><time>2026-04-09T08:39:08.946Z</time></trkpt><trkpt lat="45.10700177263413" lon="9.64846403279055"><ele>47.0</ele><time>2026-04-09T08:39:10.946Z</time></trkpt><trkpt lat="45.10693656316885" lon="9.648533053459976"><ele>47.0</ele><time>2026-04-09T08:39:12.946Z</time></trkpt><trkpt lat="45.10687234826279" lon="9.648598010314426"><ele>47.0</ele><time>2026-04-09T08:39:14.946Z</time></trkpt><trkpt lat="45.10680249142738" lon="9.648666118041868"><ele>47.0</ele><time>2026-04-09T08:39:16.946Z</time></trkpt><trkpt lat="45.10673848049746" lon="9.648752116479653"><ele>47.0</ele><time>2026-04-09T08:39:18.946Z</time></trkpt><trkpt lat="45.10666497216864" lon="9.648817169478694"><ele>47.0</ele><time>2026-04-09T08:39:20.946Z</time></trkpt><trkpt lat="45.1066133536815" lon="9.648893443222583"><ele>47.0</ele><time>2026-04-09T08:39:22.946Z</time></trkpt><trkpt lat="45.1065541874906" lon="9.648948863099893"><ele>47.0</ele><time>2026-04-09T08:39:24.946Z</time></trkpt><trkpt lat="45.10649180340442" lon="9.649009081934748"><ele>47.0</ele><time>2026-04-09T08:39:26.946Z</time></trkpt><trkpt lat="45.106440726982584" lon="9.64906673257426"><ele>47.0</ele><time>2026-04-09T08:39:28.946Z</time></trkpt><trkpt lat="45.106368462256235" lon="9.649151535352953"><ele>47.0</ele><time>2026-04-09T08:39:31.946Z</time></trkpt><trkpt lat="45.10629124173222" lon="9.649210731695606"><ele>47.0</ele><time>2026-04-09T08:39:34.946Z</time></trkpt><trkpt lat="45.106221928716536" lon="9.649280451564245"><ele>47.0</ele><time>2026-04-09T08:39:38.946Z</time></trkpt><trkpt lat="45.10615104723862" lon="9.649362324767948"><ele>47.0</ele><time>2026-04-09T08:39:41.946Z</time></trkpt><trkpt lat="45.10610641741055" lon="9.649428921272294"><ele>47.0</ele><time>2026-04-09T08:39:43.946Z</time></trkpt><trkpt lat="45.106050929009704" lon="9.649497496775735"><ele>47.0</ele><time>2026-04-09T08:39:45.946Z</time></trkpt><trkpt lat="45.10599835548412" lon="9.64956311367276"><ele>47.0</ele><time>2026-04-09T08:39:47.945Z</time></trkpt><trkpt lat="45.105916523539925" lon="9.649620716007616"><ele>47.0</ele><time>2026-04-09T08:39:50.945Z</time></trkpt><trkpt lat="45.10584047175854" lon="9.649693561071102"><ele>47.0</ele><time>2026-04-09T08:39:53.945Z</time></trkpt><trkpt lat="45.1057558965257" lon="9.649752141998972"><ele>47.0</ele><time>2026-04-09T08:39:55.945Z</time></trkpt><trkpt lat="45.105704350200206" lon="9.649819660364324"><ele>47.0</ele><time>2026-04-09T08:39:57.945Z</time></trkpt><trkpt lat="45.10564627767342" lon="9.649897878385817"><ele>47.0</ele><time>2026-04-09T08:39:59.945Z</time></trkpt><trkpt lat="45.10558352885761" lon="9.64996148254426"><ele>47.0</ele><time>2026-04-09T08:40:01.945Z</time></trkpt><trkpt lat="45.10550433477702" lon="9.65003358319407"><ele>47.0</ele><time>2026-04-09T08:40:04.945Z</time></trkpt><trkpt lat="45.105452399752366" lon="9.650092929553766"><ele>47.0</ele><time>2026-04-09T08:40:06.945Z</time></trkpt><trkpt lat="45.10539493818007" lon="9.650200169620698"><ele>47.0</ele><time>2026-04-09T08:40:09.945Z</time></trkpt><trkpt lat="45.10535126271453" lon="9.650268775215052"><ele>47.0</ele><time>2026-04-09T08:40:11.945Z</time></trkpt><trkpt lat="45.10530118669859" lon="9.650338105123959"><ele>47.0</ele><time>2026-04-09T08:40:13.945Z</time></trkpt><trkpt lat="45.105256556841304" lon="9.650409062334957"><ele>47.0</ele><time>2026-04-09T08:40:15.945Z</time></trkpt><trkpt lat="45.105213112528006" lon="9.650486145156483"><ele>47.0</ele><time>2026-04-09T08:40:17.945Z</time></trkpt><trkpt lat="45.105163838585405" lon="9.650557647448183"><ele>47.0</ele><time>2026-04-09T08:40:19.945Z</time></trkpt><trkpt lat="45.105107068368625" lon="9.65062933846099"><ele>47.0</ele><time>2026-04-09T08:40:21.945Z</time></trkpt><trkpt lat="45.10506144776697" lon="9.650697460810765"><ele>47.0</ele><time>2026-04-09T08:40:23.945Z</time></trkpt><trkpt lat="45.10500384044226" lon="9.650762989463015"><ele>47.0</ele><time>2026-04-09T08:40:25.945Z</time></trkpt><trkpt lat="45.10493170517592" lon="9.650827424546769"><ele>47.0</ele><time>2026-04-09T08:40:27.945Z</time></trkpt><trkpt lat="45.10488236405015" lon="9.650892822628357"><ele>47.0</ele><time>2026-04-09T08:40:29.945Z</time></trkpt><trkpt lat="45.10481474027564" lon="9.65096177292992"><ele>47.0</ele><time>2026-04-09T08:40:32.945Z</time></trkpt><trkpt lat="45.10473427929081" lon="9.651019254227647"><ele>47.0</ele><time>2026-04-09T08:40:35.945Z</time></trkpt><trkpt lat="45.10466271525105" lon="9.651053624962767"><ele>47.0</ele><time>2026-04-09T08:40:37.945Z</time></trkpt><trkpt lat="45.104599681387334" lon="9.6510882307795"><ele>47.0</ele><time>2026-04-09T08:40:39.945Z</time></trkpt><trkpt lat="45.104536741904646" lon="9.6511132806262"><ele>47.0</ele><time>2026-04-09T08:40:41.945Z</time></trkpt><trkpt lat="45.10447078667718" lon="9.651138986560554"><ele>47.14285714285714</ele><time>2026-04-09T08:40:43.945Z</time></trkpt><trkpt lat="45.10440183622925" lon="9.651192230904169"><ele>47.285714285714285</ele><time>2026-04-09T08:40:46.945Z</time></trkpt><trkpt lat="45.104340304522985" lon="9.651233206283415"><ele>47.42857142857143</ele><time>2026-04-09T08:40:49.945Z</time></trkpt><trkpt lat="45.10427090126314" lon="9.651280380053699"><ele>47.57142857142857</ele><time>2026-04-09T08:40:52.945Z</time></trkpt><trkpt lat="45.104211880671485" lon="9.65131725404357"><ele>47.714285714285715</ele><time>2026-04-09T08:40:55.944Z</time></trkpt><trkpt lat="45.104138508566635" lon="9.65134853638961"><ele>47.857142857142854</ele><time>2026-04-09T08:40:58.944Z</time></trkpt><trkpt lat="45.10405901059474" lon="9.651378080789915"><ele>48.0</ele><time>2026-04-09T08:41:01.944Z</time></trkpt><trkpt lat="45.10397686725958" lon="9.651430097739343"><ele>48.0</ele><time>2026-04-09T08:41:04.944Z</time></trkpt><trkpt lat="45.10389648651051" lon="9.651480522880133"><ele>48.0</ele><time>2026-04-09T08:41:07.944Z</time></trkpt><trkpt lat="45.103829361268154" lon="9.651520770326211"><ele>48.0</ele><time>2026-04-09T08:41:10.944Z</time></trkpt><trkpt lat="45.103764598947926" lon="9.651543345354307"><ele>48.0</ele><time>2026-04-09T08:41:13.944Z</time></trkpt><trkpt lat="45.103678420342234" lon="9.651576302278144"><ele>48.0</ele><time>2026-04-09T08:41:16.944Z</time></trkpt><trkpt lat="45.10360740892079" lon="9.651600184786135"><ele>48.0</ele><time>2026-04-09T08:41:19.944Z</time></trkpt><trkpt lat="45.10353982719275" lon="9.65161522608622"><ele>48.0</ele><time>2026-04-09T08:41:22.943Z</time></trkpt><trkpt lat="45.10347922120985" lon="9.651647772774185"><ele>48.0</ele><time>2026-04-09T08:41:25.943Z</time></trkpt><trkpt lat="45.10341457938853" lon="9.651683626850588"><ele>48.0</ele><time>2026-04-09T08:41:29.943Z</time></trkpt><trkpt lat="45.103377207564506" lon="9.651756611098733"><ele>48.0</ele><time>2026-04-09T08:41:56.943Z</time></trkpt><trkpt lat="45.10329847411853" lon="9.651784022003119"><ele>48.0</ele><time>2026-04-09T08:42:01.943Z</time></trkpt><trkpt lat="45.10321593698613" lon="9.651795317226979"><ele>48.0</ele><time>2026-04-09T08:42:04.943Z</time></trkpt><trkpt lat="45.10312229363312" lon="9.651818675540952"><ele>48.0</ele><time>2026-04-09T08:42:07.943Z</time></trkpt><trkpt lat="45.10305420169041" lon="9.65184961815436"><ele>48.0</ele><time>2026-04-09T08:42:09.943Z</time></trkpt><trkpt lat="45.102984062911695" lon="9.651888663889055"><ele>48.0</ele><time>2026-04-09T08:42:11.943Z</time></trkpt><trkpt lat="45.10289747996779" lon="9.651952436780041"><ele>48.0</ele><time>2026-04-09T08:42:14.943Z</time></trkpt><trkpt lat="45.10284411558225" lon="9.6520150076601"><ele>48.0</ele><time>2026-04-09T08:42:16.943Z</time></trkpt><trkpt lat="45.102785972568995" lon="9.652081388739001"><ele>48.0</ele><time>2026-04-09T08:42:18.943Z</time></trkpt><trkpt lat="45.10273865756581" lon="9.652169455585506"><ele>48.0</ele><time>2026-04-09T08:42:20.943Z</time></trkpt><trkpt lat="45.10271001483693" lon="9.652268144939145"><ele>48.0</ele><time>2026-04-09T08:42:22.943Z</time></trkpt><trkpt lat="45.10267638748097" lon="9.65235311382924"><ele>48.0</ele><time>2026-04-09T08:42:24.943Z</time></trkpt><trkpt lat="45.10264805387508" lon="9.652441991518801"><ele>48.0</ele><time>2026-04-09T08:42:26.943Z</time></trkpt><trkpt lat="45.102613626645685" lon="9.652542931650162"><ele>48.0</ele><time>2026-04-09T08:42:28.943Z</time></trkpt><trkpt lat="45.102573395494794" lon="9.652640954485392"><ele>48.0</ele><time>2026-04-09T08:42:30.942Z</time></trkpt><trkpt lat="45.10252308912917" lon="9.652732226499467"><ele>47.833333333333336</ele><time>2026-04-09T08:42:32.942Z</time></trkpt><trkpt lat="45.10247252279423" lon="9.652802230357398"><ele>47.666666666666664</ele><time>2026-04-09T08:42:34.942Z</time></trkpt><trkpt lat="45.10242255285019" lon="9.652856980870524"><ele>47.5</ele><time>2026-04-09T08:42:36.942Z</time></trkpt><trkpt lat="45.10234532984329" lon="9.652911491003284"><ele>47.33333333333333</ele><time>2026-04-09T08:42:39.942Z</time></trkpt><trkpt lat="45.10226668059722" lon="9.652964361424626"><ele>47.166666666666664</ele><time>2026-04-09T08:42:42.942Z</time></trkpt><trkpt lat="45.10218354622842" lon="9.653016635726253"><ele>47.0</ele><time>2026-04-09T08:42:45.942Z</time></trkpt><trkpt lat="45.10211898907271" lon="9.653048636727293"><ele>47.33333333333333</ele><time>2026-04-09T08:42:47.942Z</time></trkpt><trkpt lat="45.10205183025518" lon="9.653094127895116"><ele>47.666666666666664</ele><time>2026-04-09T08:42:49.942Z</time></trkpt><trkpt lat="45.10198675082712" lon="9.653131966955117"><ele>48.0</ele><time>2026-04-09T08:42:51.942Z</time></trkpt><trkpt lat="45.10191385039406" lon="9.653166362053655"><ele>48.33333333333333</ele><time>2026-04-09T08:42:53.942Z</time></trkpt><trkpt lat="45.10184168534303" lon="9.653207611611284"><ele>48.666666666666664</ele><time>2026-04-09T08:42:55.942Z</time></trkpt><trkpt lat="45.10177443735694" lon="9.653258236770208"><ele>49.0</ele><time>2026-04-09T08:42:57.942Z</time></trkpt><trkpt lat="45.10170649537083" lon="9.65330037922421"><ele>49.0</ele><time>2026-04-09T08:42:59.942Z</time></trkpt><trkpt lat="45.10164524072192" lon="9.653346766210289"><ele>49.0</ele><time>2026-04-09T08:43:01.942Z</time></trkpt><trkpt lat="45.101577797050474" lon="9.653389705919059"><ele>49.0</ele><time>2026-04-09T08:43:03.942Z</time></trkpt><trkpt lat="45.10151018973918" lon="9.653427554223434"><ele>49.0</ele><time>2026-04-09T08:43:05.942Z</time></trkpt><trkpt lat="45.10144881898186" lon="9.653471891694283"><ele>49.0</ele><time>2026-04-09T08:43:07.942Z</time></trkpt><trkpt lat="45.101380144425754" lon="9.653516346273491"><ele>49.0</ele><time>2026-04-09T08:43:09.942Z</time></trkpt><trkpt lat="45.1013181059398" lon="9.65355152535689"><ele>49.0</ele><time>2026-04-09T08:43:11.942Z</time></trkpt><trkpt lat="45.10124567042082" lon="9.653599178347033"><ele>48.83333333333333</ele><time>2026-04-09T08:43:13.942Z</time></trkpt><trkpt lat="45.1011788555382" lon="9.653637671314954"><ele>48.666666666666664</ele><time>2026-04-09T08:43:15.943Z</time></trkpt><trkpt lat="45.101113306366265" lon="9.653686995087808"><ele>48.5</ele><time>2026-04-09T08:43:17.943Z</time></trkpt><trkpt lat="45.1010418683125" lon="9.653737718025162"><ele>48.33333333333333</ele><time>2026-04-09T08:43:19.943Z</time></trkpt><trkpt lat="45.10096585052905" lon="9.653797675964935"><ele>48.166666666666664</ele><time>2026-04-09T08:43:21.943Z</time></trkpt><trkpt lat="45.10089197874408" lon="9.653861780485782"><ele>48.0</ele><time>2026-04-09T08:43:23.942Z</time></trkpt><trkpt lat="45.10081446400903" lon="9.653917293629503"><ele>47.833333333333336</ele><time>2026-04-09T08:43:25.943Z</time></trkpt><trkpt lat="45.10074270222582" lon="9.653979551649288"><ele>47.666666666666664</ele><time>2026-04-09T08:43:27.943Z</time></trkpt><trkpt lat="45.10066524325272" lon="9.654049068757441"><ele>47.5</ele><time>2026-04-09T08:43:29.943Z</time></trkpt><trkpt lat="45.10059435681244" lon="9.654106554980135"><ele>47.33333333333333</ele><time>2026-04-09T08:43:31.943Z</time></trkpt><trkpt lat="45.10052204888039" lon="9.654167018450249"><ele>47.166666666666664</ele><time>2026-04-09T08:43:33.943Z</time></trkpt><trkpt lat="45.1004493956124" lon="9.654232263974825"><ele>47.0</ele><time>2026-04-09T08:43:35.942Z</time></trkpt><trkpt lat="45.100376391562435" lon="9.654296094692251"><ele>47.0</ele><time>2026-04-09T08:43:37.942Z</time></trkpt><trkpt lat="45.100311534566636" lon="9.654361744166515"><ele>47.0</ele><time>2026-04-09T08:43:39.942Z</time></trkpt><trkpt lat="45.100245017936764" lon="9.65442407025553"><ele>47.0</ele><time>2026-04-09T08:43:41.942Z</time></trkpt><trkpt lat="45.10016707534559" lon="9.654485719594396"><ele>47.0</ele><time>2026-04-09T08:43:43.942Z</time></trkpt><trkpt lat="45.100093225079966" lon="9.65454750129048"><ele>47.0</ele><time>2026-04-09T08:43:45.942Z</time></trkpt><trkpt lat="45.10001935545598" lon="9.654608880259376"><ele>47.0</ele><time>2026-04-09T08:43:47.942Z</time></trkpt><trkpt lat="45.09995084608708" lon="9.654670392967247"><ele>46.666666666666664</ele><time>2026-04-09T08:43:49.942Z</time></trkpt><trkpt lat="45.09987594912937" lon="9.654721171816092"><ele>46.33333333333333</ele><time>2026-04-09T08:43:51.942Z</time></trkpt><trkpt lat="45.09980502955933" lon="9.654785288741785"><ele>46.0</ele><time>2026-04-09T08:43:53.942Z</time></trkpt><trkpt lat="45.09973721139526" lon="9.654848152015695"><ele>45.666666666666664</ele><time>2026-04-09T08:43:55.942Z</time></trkpt><trkpt lat="45.099673662355094" lon="9.654910609531406"><ele>45.333333333333336</ele><time>2026-04-09T08:43:57.942Z</time></trkpt><trkpt lat="45.099603802469375" lon="9.65496858871315"><ele>45.0</ele><time>2026-04-09T08:43:59.942Z</time></trkpt><trkpt lat="45.09953466651747" lon="9.655029813446918"><ele>45.0</ele><time>2026-04-09T08:44:01.942Z</time></trkpt><trkpt lat="45.09946449355598" lon="9.655092013722527"><ele>45.0</ele><time>2026-04-09T08:44:03.942Z</time></trkpt><trkpt lat="45.099395808394014" lon="9.6551460484541"><ele>45.0</ele><time>2026-04-09T08:44:05.942Z</time></trkpt><trkpt lat="45.09932800024638" lon="9.655200474287625"><ele>45.0</ele><time>2026-04-09T08:44:07.942Z</time></trkpt><trkpt lat="45.09925796867844" lon="9.655245358576579"><ele>45.0</ele><time>2026-04-09T08:44:09.942Z</time></trkpt><trkpt lat="45.099187425862986" lon="9.655298367337624"><ele>45.0</ele><time>2026-04-09T08:44:11.942Z</time></trkpt><trkpt lat="45.0991247625044" lon="9.655356116265002"><ele>45.333333333333336</ele><time>2026-04-09T08:44:13.942Z</time></trkpt><trkpt lat="45.099059686771554" lon="9.655415180495417"><ele>45.666666666666664</ele><time>2026-04-09T08:44:15.942Z</time></trkpt><trkpt lat="45.09899671070573" lon="9.655470068722044"><ele>46.0</ele><time>2026-04-09T08:44:17.942Z</time></trkpt><trkpt lat="45.09893336741145" lon="9.655527237847174"><ele>46.33333333333333</ele><time>2026-04-09T08:44:19.942Z</time></trkpt><trkpt lat="45.09887377460506" lon="9.655579018592999"><ele>46.666666666666664</ele><time>2026-04-09T08:44:21.942Z</time></trkpt><trkpt lat="45.098807117600415" lon="9.655631417416664"><ele>47.0</ele><time>2026-04-09T08:44:23.942Z</time></trkpt><trkpt lat="45.09873460577646" lon="9.65568080697994"><ele>47.0</ele><time>2026-04-09T08:44:25.942Z</time></trkpt><trkpt lat="45.09866188050897" lon="9.655716351492279"><ele>47.0</ele><time>2026-04-09T08:44:27.942Z</time></trkpt><trkpt lat="45.09859445728325" lon="9.655756998742168"><ele>47.0</ele><time>2026-04-09T08:44:29.942Z</time></trkpt><trkpt lat="45.09852566727573" lon="9.65578440420263"><ele>47.0</ele><time>2026-04-09T08:44:31.942Z</time></trkpt><trkpt lat="45.09845002284198" lon="9.655818215711221"><ele>47.0</ele><time>2026-04-09T08:44:33.942Z</time></trkpt><trkpt lat="45.09838410610504" lon="9.655859815566897"><ele>47.0</ele><time>2026-04-09T08:44:35.942Z</time></trkpt><trkpt lat="45.09832368602269" lon="9.65589783540111"><ele>47.0</ele><time>2026-04-09T08:44:37.942Z</time></trkpt><trkpt lat="45.0982585835845" lon="9.655930075209522"><ele>47.0</ele><time>2026-04-09T08:44:39.942Z</time></trkpt><trkpt lat="45.0981990664403" lon="9.655965846705143"><ele>47.0</ele><time>2026-04-09T08:44:41.942Z</time></trkpt><trkpt lat="45.098140311740636" lon="9.656000758675436"><ele>47.0</ele><time>2026-04-09T08:44:43.941Z</time></trkpt><trkpt lat="45.09806222466971" lon="9.656033857871101"><ele>47.0</ele><time>2026-04-09T08:44:46.941Z</time></trkpt><trkpt lat="45.09803176494503" lon="9.656123961373694"><ele>47.0</ele><time>2026-04-09T08:44:49.941Z</time></trkpt><trkpt lat="45.09804518792045" lon="9.656235419377216"><ele>47.0</ele><time>2026-04-09T08:44:52.941Z</time></trkpt><trkpt lat="45.09805742966403" lon="9.65636229622877"><ele>47.14285714285714</ele><time>2026-04-09T08:44:55.941Z</time></trkpt><trkpt lat="45.09807636942241" lon="9.656459611406554"><ele>47.285714285714285</ele><time>2026-04-09T08:44:57.941Z</time></trkpt><trkpt lat="45.09810111069989" lon="9.656557643078736"><ele>47.42857142857143</ele><time>2026-04-09T08:44:59.941Z</time></trkpt><trkpt lat="45.09812930311438" lon="9.656651767366089"><ele>47.57142857142857</ele><time>2026-04-09T08:45:01.941Z</time></trkpt><trkpt lat="45.098156609124935" lon="9.656737981610922"><ele>47.714285714285715</ele><time>2026-04-09T08:45:03.941Z</time></trkpt><trkpt lat="45.09818405233908" lon="9.656821386856283"><ele>47.857142857142854</ele><time>2026-04-09T08:45:05.941Z</time></trkpt><trkpt lat="45.09821669164719" lon="9.6569454232357"><ele>48.0</ele><time>2026-04-09T08:45:08.941Z</time></trkpt><trkpt lat="45.09824756431822" lon="9.657031670966633"><ele>47.71428571428571</ele><time>2026-04-09T08:45:10.941Z</time></trkpt><trkpt lat="45.09827632904862" lon="9.657123014446778"><ele>47.42857142857143</ele><time>2026-04-09T08:45:12.941Z</time></trkpt><trkpt lat="45.09829993848553" lon="9.657212527989069"><ele>47.14285714285714</ele><time>2026-04-09T08:45:14.941Z</time></trkpt><trkpt lat="45.09833032906153" lon="9.657300159870712"><ele>46.857142857142854</ele><time>2026-04-09T08:45:16.941Z</time></trkpt><trkpt lat="45.098366341043295" lon="9.657394861775897"><ele>46.57142857142857</ele><time>2026-04-09T08:45:18.941Z</time></trkpt><trkpt lat="45.09839779914679" lon="9.657488987133343"><ele>46.285714285714285</ele><time>2026-04-09T08:45:20.94Z</time></trkpt><trkpt lat="45.09842250166112" lon="9.657588185915149"><ele>46.0</ele><time>2026-04-09T08:45:22.941Z</time></trkpt><trkpt lat="45.09845081802051" lon="9.657682477869058"><ele>45.833333333333336</ele><time>2026-04-09T08:45:24.941Z</time></trkpt><trkpt lat="45.09847750739018" lon="9.657785271774197"><ele>45.66666666666667</ele><time>2026-04-09T08:45:26.941Z</time></trkpt><trkpt lat="45.0985141744839" lon="9.657886952555383"><ele>45.5</ele><time>2026-04-09T08:45:28.941Z</time></trkpt><trkpt lat="45.09854479983488" lon="9.657989631840358"><ele>45.333333333333336</ele><time>2026-04-09T08:45:30.941Z</time></trkpt><trkpt lat="45.098581364717546" lon="9.658090493810834"><ele>45.166666666666664</ele><time>2026-04-09T08:45:32.941Z</time></trkpt><trkpt lat="45.09860952897442" lon="9.65819463659528"><ele>45.0</ele><time>2026-04-09T08:45:34.941Z</time></trkpt><trkpt lat="45.09864459841266" lon="9.658296122866233"><ele>45.0</ele><time>2026-04-09T08:45:36.941Z</time></trkpt><trkpt lat="45.098678932251744" lon="9.658395772398698"><ele>45.0</ele><time>2026-04-09T08:45:38.941Z</time></trkpt><trkpt lat="45.0987042571985" lon="9.658494021056194"><ele>45.0</ele><time>2026-04-09T08:45:40.941Z</time></trkpt><trkpt lat="45.09873677512582" lon="9.658592991902152"><ele>45.0</ele><time>2026-04-09T08:45:42.941Z</time></trkpt><trkpt lat="45.098764491467335" lon="9.658697022290802"><ele>45.0</ele><time>2026-04-09T08:45:44.941Z</time></trkpt><trkpt lat="45.098795208429564" lon="9.65879426568446"><ele>45.0</ele><time>2026-04-09T08:45:46.941Z</time></trkpt><trkpt lat="45.09882608409943" lon="9.658896674265005"><ele>45.0</ele><time>2026-04-09T08:45:48.941Z</time></trkpt><trkpt lat="45.09885850223611" lon="9.658997184932836"><ele>45.0</ele><time>2026-04-09T08:45:50.941Z</time></trkpt><trkpt lat="45.09889305632043" lon="9.659096859176515"><ele>45.0</ele><time>2026-04-09T08:45:52.94Z</time></trkpt><trkpt lat="45.09892581673439" lon="9.659198061985201"><ele>45.0</ele><time>2026-04-09T08:45:54.94Z</time></trkpt><trkpt lat="45.09895519185885" lon="9.659298811187492"><ele>45.0</ele><time>2026-04-09T08:45:56.94Z</time></trkpt><trkpt lat="45.09898715834488" lon="9.65938604203336"><ele>45.0</ele><time>2026-04-09T08:45:58.94Z</time></trkpt><trkpt lat="45.09900338999221" lon="9.659474664704701"><ele>45.0</ele><time>2026-04-09T08:46:00.94Z</time></trkpt><trkpt lat="45.099028841218285" lon="9.65956395515732"><ele>45.0</ele><time>2026-04-09T08:46:02.94Z</time></trkpt><trkpt lat="45.09906027268255" lon="9.659661805268918"><ele>45.0</ele><time>2026-04-09T08:46:04.94Z</time></trkpt><trkpt lat="45.09909098868241" lon="9.659754797349242"><ele>45.0</ele><time>2026-04-09T08:46:06.94Z</time></trkpt><trkpt lat="45.09911394023595" lon="9.65984949332497"><ele>45.0</ele><time>2026-04-09T08:46:08.94Z</time></trkpt><trkpt lat="45.099147198682864" lon="9.65993282666575"><ele>45.0</ele><time>2026-04-09T08:46:10.94Z</time></trkpt><trkpt lat="45.09917828714183" lon="9.66002114320935"><ele>45.0</ele><time>2026-04-09T08:46:12.94Z</time></trkpt><trkpt lat="45.09920757667919" lon="9.660114256298453"><ele>45.0</ele><time>2026-04-09T08:46:14.94Z</time></trkpt><trkpt lat="45.09923679685372" lon="9.660216282734904"><ele>45.0</ele><time>2026-04-09T08:46:16.94Z</time></trkpt><trkpt lat="45.09926543367603" lon="9.660322137700932"><ele>45.0</ele><time>2026-04-09T08:46:18.94Z</time></trkpt><trkpt lat="45.099295545058865" lon="9.660427535334945"><ele>45.0</ele><time>2026-04-09T08:46:20.94Z</time></trkpt><trkpt lat="45.099329514930346" lon="9.660539336304433"><ele>45.0</ele><time>2026-04-09T08:46:22.94Z</time></trkpt><trkpt lat="45.09936633279155" lon="9.660651594082282"><ele>45.0</ele><time>2026-04-09T08:46:24.94Z</time></trkpt><trkpt lat="45.09940398032497" lon="9.660764700998998"><ele>45.0</ele><time>2026-04-09T08:46:26.94Z</time></trkpt><trkpt lat="45.09944207917564" lon="9.660872962625415"><ele>45.0</ele><time>2026-04-09T08:46:28.94Z</time></trkpt><trkpt lat="45.09947422796318" lon="9.660977489792126"><ele>45.0</ele><time>2026-04-09T08:46:30.94Z</time></trkpt><trkpt lat="45.099502224046404" lon="9.661091461157788"><ele>45.0</ele><time>2026-04-09T08:46:32.94Z</time></trkpt><trkpt lat="45.09954047568714" lon="9.661197222770152"><ele>45.0</ele><time>2026-04-09T08:46:34.94Z</time></trkpt><trkpt lat="45.099572340640535" lon="9.661305492743733"><ele>45.0</ele><time>2026-04-09T08:46:36.94Z</time></trkpt><trkpt lat="45.09960971198005" lon="9.661416515407437"><ele>45.0</ele><time>2026-04-09T08:46:38.94Z</time></trkpt><trkpt lat="45.09963434537916" lon="9.661516929220786"><ele>45.0</ele><time>2026-04-09T08:46:40.94Z</time></trkpt><trkpt lat="45.09966146711444" lon="9.661616896610633"><ele>45.0</ele><time>2026-04-09T08:46:42.94Z</time></trkpt><trkpt lat="45.09969607552792" lon="9.66172357321459"><ele>45.0</ele><time>2026-04-09T08:46:44.94Z</time></trkpt><trkpt lat="45.0997290572459" lon="9.661829056490602"><ele>45.0</ele><time>2026-04-09T08:46:46.94Z</time></trkpt><trkpt lat="45.09976214300855" lon="9.661937451910237"><ele>45.0</ele><time>2026-04-09T08:46:48.94Z</time></trkpt><trkpt lat="45.09979529220266" lon="9.66204075207128"><ele>45.0</ele><time>2026-04-09T08:46:50.94Z</time></trkpt><trkpt lat="45.09982955220952" lon="9.662146202622274"><ele>45.0</ele><time>2026-04-09T08:46:52.94Z</time></trkpt><trkpt lat="45.09986235082111" lon="9.662254814949916"><ele>45.0</ele><time>2026-04-09T08:46:54.94Z</time></trkpt><trkpt lat="45.09989765407322" lon="9.66236507401981"><ele>45.0</ele><time>2026-04-09T08:46:56.94Z</time></trkpt><trkpt lat="45.099924372441286" lon="9.662472856469282"><ele>45.0</ele><time>2026-04-09T08:46:58.939Z</time></trkpt><trkpt lat="45.09995804411882" lon="9.662582699017847"><ele>45.0</ele><time>2026-04-09T08:47:00.939Z</time></trkpt><trkpt lat="45.09998959012426" lon="9.662700762974586"><ele>45.0</ele><time>2026-04-09T08:47:02.939Z</time></trkpt><trkpt lat="45.100031902986764" lon="9.66281106090157"><ele>45.4</ele><time>2026-04-09T08:47:04.939Z</time></trkpt><trkpt lat="45.1000668143624" lon="9.662924560936892"><ele>45.8</ele><time>2026-04-09T08:47:06.939Z</time></trkpt><trkpt lat="45.1000929446923" lon="9.663037427743747"><ele>46.2</ele><time>2026-04-09T08:47:08.939Z</time></trkpt><trkpt lat="45.1001210949585" lon="9.663164917544119"><ele>46.6</ele><time>2026-04-09T08:47:10.939Z</time></trkpt><trkpt lat="45.1001346435125" lon="9.663303451772055"><ele>47.0</ele><time>2026-04-09T08:47:12.939Z</time></trkpt><trkpt lat="45.10016143344252" lon="9.663433068875515"><ele>47.0</ele><time>2026-04-09T08:47:14.939Z</time></trkpt><trkpt lat="45.10017666562265" lon="9.663563045393884"><ele>47.0</ele><time>2026-04-09T08:47:16.939Z</time></trkpt><trkpt lat="45.10018536343066" lon="9.663693857362317"><ele>47.0</ele><time>2026-04-09T08:47:18.939Z</time></trkpt><trkpt lat="45.10019570246101" lon="9.663821701148468"><ele>47.0</ele><time>2026-04-09T08:47:20.939Z</time></trkpt><trkpt lat="45.10020847635668" lon="9.66395354979109"><ele>47.0</ele><time>2026-04-09T08:47:22.939Z</time></trkpt><trkpt lat="45.1002182616757" lon="9.66408315922673"><ele>46.6</ele><time>2026-04-09T08:47:24.939Z</time></trkpt><trkpt lat="45.1002326060093" lon="9.66422025187248"><ele>46.2</ele><time>2026-04-09T08:47:26.939Z</time></trkpt><trkpt lat="45.1002430538321" lon="9.664358793334788"><ele>45.8</ele><time>2026-04-09T08:47:28.939Z</time></trkpt><trkpt lat="45.10025980838435" lon="9.664492056001075"><ele>45.4</ele><time>2026-04-09T08:47:30.939Z</time></trkpt><trkpt lat="45.10027264482373" lon="9.664626152148811"><ele>45.0</ele><time>2026-04-09T08:47:32.939Z</time></trkpt><trkpt lat="45.100287197222244" lon="9.664758332311509"><ele>45.0</ele><time>2026-04-09T08:47:34.939Z</time></trkpt><trkpt lat="45.10029727950788" lon="9.664895763120102"><ele>45.0</ele><time>2026-04-09T08:47:36.939Z</time></trkpt><trkpt lat="45.10030911899391" lon="9.665025141494267"><ele>45.0</ele><time>2026-04-09T08:47:38.938Z</time></trkpt><trkpt lat="45.10032115097216" lon="9.665145958079037"><ele>45.0</ele><time>2026-04-09T08:47:40.938Z</time></trkpt><trkpt lat="45.100335265020945" lon="9.665269819609055"><ele>45.0</ele><time>2026-04-09T08:47:42.938Z</time></trkpt><trkpt lat="45.100341442038165" lon="9.665390509938415"><ele>45.0</ele><time>2026-04-09T08:47:44.938Z</time></trkpt><trkpt lat="45.10035606903878" lon="9.665508762726775"><ele>45.0</ele><time>2026-04-09T08:47:46.938Z</time></trkpt><trkpt lat="45.100370400651336" lon="9.665620991596436"><ele>45.0</ele><time>2026-04-09T08:47:48.938Z</time></trkpt><trkpt lat="45.10038295911008" lon="9.665734764915328"><ele>45.0</ele><time>2026-04-09T08:47:50.938Z</time></trkpt><trkpt lat="45.100394529905024" lon="9.665854040755748"><ele>45.0</ele><time>2026-04-09T08:47:52.938Z</time></trkpt><trkpt lat="45.10040375835514" lon="9.665967757778816"><ele>45.0</ele><time>2026-04-09T08:47:54.938Z</time></trkpt><trkpt lat="45.10040896602975" lon="9.666086814833603"><ele>44.833333333333336</ele><time>2026-04-09T08:47:56.938Z</time></trkpt><trkpt lat="45.100420180356764" lon="9.666197126517586"><ele>44.666666666666664</ele><time>2026-04-09T08:47:58.938Z</time></trkpt><trkpt lat="45.10042845294182" lon="9.666315457328388"><ele>44.5</ele><time>2026-04-09T08:48:00.938Z</time></trkpt><trkpt lat="45.100439099400205" lon="9.666430383888143"><ele>44.33333333333333</ele><time>2026-04-09T08:48:02.938Z</time></trkpt><trkpt lat="45.10044466418521" lon="9.666538483701418"><ele>44.166666666666664</ele><time>2026-04-09T08:48:04.938Z</time></trkpt><trkpt lat="45.10045826322905" lon="9.666645101954977"><ele>44.0</ele><time>2026-04-09T08:48:06.938Z</time></trkpt><trkpt lat="45.10046449747007" lon="9.666760227078747"><ele>44.0</ele><time>2026-04-09T08:48:08.938Z</time></trkpt><trkpt lat="45.100475015811696" lon="9.666868206324212"><ele>44.0</ele><time>2026-04-09T08:48:10.938Z</time></trkpt><trkpt lat="45.100485270462606" lon="9.666973125098606"><ele>44.0</ele><time>2026-04-09T08:48:12.938Z</time></trkpt><trkpt lat="45.100494137994765" lon="9.667094135129698"><ele>44.0</ele><time>2026-04-09T08:48:14.938Z</time></trkpt><trkpt lat="45.100502346849304" lon="9.667210919081144"><ele>44.0</ele><time>2026-04-09T08:48:16.938Z</time></trkpt><trkpt lat="45.100514167268635" lon="9.667324921811016"><ele>44.0</ele><time>2026-04-09T08:48:18.938Z</time></trkpt><trkpt lat="45.10052133434393" lon="9.667439623148429"><ele>44.33333333333333</ele><time>2026-04-09T08:48:20.938Z</time></trkpt><trkpt lat="45.10053614623119" lon="9.667560094050122"><ele>44.666666666666664</ele><time>2026-04-09T08:48:22.938Z</time></trkpt><trkpt lat="45.100552916045324" lon="9.667679291379345"><ele>45.0</ele><time>2026-04-09T08:48:24.938Z</time></trkpt><trkpt lat="45.10056420550392" lon="9.667791735171816"><ele>45.333333333333336</ele><time>2026-04-09T08:48:26.937Z</time></trkpt><trkpt lat="45.10057532128376" lon="9.6678904356303"><ele>45.66666666666667</ele><time>2026-04-09T08:48:28.937Z</time></trkpt><trkpt lat="45.10058786071593" lon="9.667998187131499"><ele>46.0</ele><time>2026-04-09T08:48:30.937Z</time></trkpt><trkpt lat="45.10059802592595" lon="9.66810535719648"><ele>46.16666666666667</ele><time>2026-04-09T08:48:32.937Z</time></trkpt><trkpt lat="45.10060475847784" lon="9.668217570330942"><ele>46.333333333333336</ele><time>2026-04-09T08:48:34.937Z</time></trkpt><trkpt lat="45.10061856480751" lon="9.668326237739258"><ele>46.5</ele><time>2026-04-09T08:48:36.937Z</time></trkpt><trkpt lat="45.100631126917364" lon="9.668433637115648"><ele>46.666666666666664</ele><time>2026-04-09T08:48:38.937Z</time></trkpt><trkpt lat="45.10064185403069" lon="9.66855043080897"><ele>46.83333333333333</ele><time>2026-04-09T08:48:40.937Z</time></trkpt><trkpt lat="45.100650048031284" lon="9.668662613873925"><ele>47.0</ele><time>2026-04-09T08:48:42.937Z</time></trkpt><trkpt lat="45.10065726708622" lon="9.6687816105871"><ele>47.0</ele><time>2026-04-09T08:48:44.937Z</time></trkpt><trkpt lat="45.100673856602114" lon="9.668892797424125"><ele>47.0</ele><time>2026-04-09T08:48:46.937Z</time></trkpt><trkpt lat="45.10068735497315" lon="9.669002291226382"><ele>47.0</ele><time>2026-04-09T08:48:48.937Z</time></trkpt><trkpt lat="45.100700336928604" lon="9.669115043756538"><ele>47.0</ele><time>2026-04-09T08:48:50.937Z</time></trkpt><trkpt lat="45.1007124822144" lon="9.669229970041247"><ele>47.0</ele><time>2026-04-09T08:48:52.937Z</time></trkpt><trkpt lat="45.10071926024229" lon="9.669341659534453"><ele>47.0</ele><time>2026-04-09T08:48:54.937Z</time></trkpt><trkpt lat="45.10072180113694" lon="9.669463549603773"><ele>46.5</ele><time>2026-04-09T08:48:56.937Z</time></trkpt><trkpt lat="45.100717619541456" lon="9.669586480622838"><ele>46.0</ele><time>2026-04-09T08:48:58.937Z</time></trkpt><trkpt lat="45.10069942012791" lon="9.669712231552705"><ele>45.5</ele><time>2026-04-09T08:49:00.937Z</time></trkpt><trkpt lat="45.10067887816722" lon="9.66983577560294"><ele>45.0</ele><time>2026-04-09T08:49:02.937Z</time></trkpt><trkpt lat="45.10064334667625" lon="9.6699405751392"><ele>44.5</ele><time>2026-04-09T08:49:04.937Z</time></trkpt><trkpt lat="45.100602623106575" lon="9.67004707876245"><ele>44.0</ele><time>2026-04-09T08:49:06.937Z</time></trkpt><trkpt lat="45.100558355508305" lon="9.67015088844741"><ele>44.0</ele><time>2026-04-09T08:49:08.937Z</time></trkpt><trkpt lat="45.10050990392368" lon="9.670259975941871"><ele>44.0</ele><time>2026-04-09T08:49:10.937Z</time></trkpt><trkpt lat="45.10046159125365" lon="9.670366426788853"><ele>44.0</ele><time>2026-04-09T08:49:12.936Z</time></trkpt><trkpt lat="45.10041346522824" lon="9.67047492379351"><ele>44.0</ele><time>2026-04-09T08:49:14.936Z</time></trkpt><trkpt lat="45.10037062100531" lon="9.670580673225318"><ele>44.0</ele><time>2026-04-09T08:49:16.935Z</time></trkpt><trkpt lat="45.100331079083716" lon="9.670678476204403"><ele>44.0</ele><time>2026-04-09T08:49:18.935Z</time></trkpt><trkpt lat="45.10029416889453" lon="9.670772979275473"><ele>44.0</ele><time>2026-04-09T08:49:20.935Z</time></trkpt><trkpt lat="45.10025128070251" lon="9.670871832623673"><ele>44.0</ele><time>2026-04-09T08:49:22.935Z</time></trkpt><trkpt lat="45.10022555893769" lon="9.67098134286973"><ele>44.0</ele><time>2026-04-09T08:49:24.934Z</time></trkpt><trkpt lat="45.10021084210593" lon="9.671090302846842"><ele>44.0</ele><time>2026-04-09T08:49:26.934Z</time></trkpt><trkpt lat="45.10019962549113" lon="9.671197889741917"><ele>44.0</ele><time>2026-04-09T08:49:28.934Z</time></trkpt><trkpt lat="45.10021430269057" lon="9.671318558053656"><ele>44.0</ele><time>2026-04-09T08:49:30.934Z</time></trkpt><trkpt lat="45.100243906632834" lon="9.671437513535004"><ele>44.0</ele><time>2026-04-09T08:49:32.934Z</time></trkpt><trkpt lat="45.100278391314454" lon="9.671549946946378"><ele>44.0</ele><time>2026-04-09T08:49:34.934Z</time></trkpt><trkpt lat="45.10030892534071" lon="9.671663114392834"><ele>44.0</ele><time>2026-04-09T08:49:36.934Z</time></trkpt><trkpt lat="45.10035293328547" lon="9.671763957206597"><ele>44.0</ele><time>2026-04-09T08:49:38.934Z</time></trkpt><trkpt lat="45.100391268436894" lon="9.671865967544734"><ele>44.0</ele><time>2026-04-09T08:49:40.934Z</time></trkpt><trkpt lat="45.100427246475334" lon="9.671966792601573"><ele>44.0</ele><time>2026-04-09T08:49:42.933Z</time></trkpt><trkpt lat="45.10046091412771" lon="9.67206808216591"><ele>44.0</ele><time>2026-04-09T08:49:44.933Z</time></trkpt><trkpt lat="45.10049767365556" lon="9.67216659136011"><ele>44.0</ele><time>2026-04-09T08:49:46.933Z</time></trkpt><trkpt lat="45.100531289303554" lon="9.672268348134448"><ele>44.0</ele><time>2026-04-09T08:49:48.933Z</time></trkpt><trkpt lat="45.10057061097775" lon="9.672366638559215"><ele>44.0</ele><time>2026-04-09T08:49:50.933Z</time></trkpt><trkpt lat="45.100606930241405" lon="9.672468119111029"><ele>44.0</ele><time>2026-04-09T08:49:52.933Z</time></trkpt><trkpt lat="45.1006428921174" lon="9.67257621912997"><ele>44.0</ele><time>2026-04-09T08:49:54.933Z</time></trkpt><trkpt lat="45.10067342531556" lon="9.67268980260456"><ele>44.166666666666664</ele><time>2026-04-09T08:49:56.933Z</time></trkpt><trkpt lat="45.10070954585666" lon="9.672807455819363"><ele>44.33333333333333</ele><time>2026-04-09T08:49:58.933Z</time></trkpt><trkpt lat="45.10073645938153" lon="9.6729224951761"><ele>44.5</ele><time>2026-04-09T08:50:00.933Z</time></trkpt><trkpt lat="45.10074304436414" lon="9.673044494633169"><ele>44.666666666666664</ele><time>2026-04-09T08:50:02.933Z</time></trkpt><trkpt lat="45.100750844260084" lon="9.673169484518795"><ele>44.833333333333336</ele><time>2026-04-09T08:50:04.933Z</time></trkpt><trkpt lat="45.10074832907774" lon="9.673291658005487"><ele>45.0</ele><time>2026-04-09T08:50:06.933Z</time></trkpt><trkpt lat="45.10073956197963" lon="9.67340933805771"><ele>45.0</ele><time>2026-04-09T08:50:08.933Z</time></trkpt><trkpt lat="45.10072390534669" lon="9.673529411138174"><ele>45.0</ele><time>2026-04-09T08:50:10.933Z</time></trkpt><trkpt lat="45.100712529147785" lon="9.673656428087005"><ele>45.0</ele><time>2026-04-09T08:50:12.933Z</time></trkpt><trkpt lat="45.10068766104603" lon="9.673786245609381"><ele>45.0</ele><time>2026-04-09T08:50:14.933Z</time></trkpt><trkpt lat="45.100666175953364" lon="9.67390350793517"><ele>45.0</ele><time>2026-04-09T08:50:16.933Z</time></trkpt><trkpt lat="45.100650882777884" lon="9.674017857671712"><ele>45.0</ele><time>2026-04-09T08:50:18.933Z</time></trkpt><trkpt lat="45.10064296778807" lon="9.674128267347877"><ele>45.0</ele><time>2026-04-09T08:50:20.933Z</time></trkpt><trkpt lat="45.10063169531529" lon="9.67424267300905"><ele>45.0</ele><time>2026-04-09T08:50:22.932Z</time></trkpt><trkpt lat="45.10061779411348" lon="9.674356290725296"><ele>45.0</ele><time>2026-04-09T08:50:24.932Z</time></trkpt><trkpt lat="45.10060924166408" lon="9.674468798204337"><ele>45.0</ele><time>2026-04-09T08:50:26.932Z</time></trkpt><trkpt lat="45.100591422581424" lon="9.674580914434484"><ele>45.0</ele><time>2026-04-09T08:50:28.932Z</time></trkpt><trkpt lat="45.1005783552959" lon="9.67469523911826"><ele>45.0</ele><time>2026-04-09T08:50:30.932Z</time></trkpt><trkpt lat="45.100567256407516" lon="9.67480682268636"><ele>45.0</ele><time>2026-04-09T08:50:32.932Z</time></trkpt><trkpt lat="45.10055088053753" lon="9.674925252536005"><ele>45.0</ele><time>2026-04-09T08:50:34.932Z</time></trkpt><trkpt lat="45.10053779964271" lon="9.675040742198448"><ele>45.0</ele><time>2026-04-09T08:50:36.932Z</time></trkpt><trkpt lat="45.10052313892329" lon="9.67515149257447"><ele>45.0</ele><time>2026-04-09T08:50:38.932Z</time></trkpt><trkpt lat="45.100508430984675" lon="9.675266745965832"><ele>45.0</ele><time>2026-04-09T08:50:40.932Z</time></trkpt><trkpt lat="45.100492150590505" lon="9.675388781412014"><ele>45.0</ele><time>2026-04-09T08:50:42.932Z</time></trkpt><trkpt lat="45.10047441828655" lon="9.675510220297573"><ele>45.333333333333336</ele><time>2026-04-09T08:50:44.932Z</time></trkpt><trkpt lat="45.100454989234024" lon="9.675629201926817"><ele>45.666666666666664</ele><time>2026-04-09T08:50:46.932Z</time></trkpt><trkpt lat="45.10044519596934" lon="9.675752599272888"><ele>46.0</ele><time>2026-04-09T08:50:48.932Z</time></trkpt><trkpt lat="45.10042589505873" lon="9.67586928270837"><ele>46.33333333333333</ele><time>2026-04-09T08:50:50.932Z</time></trkpt><trkpt lat="45.100405918721435" lon="9.675980762043464"><ele>46.666666666666664</ele><time>2026-04-09T08:50:52.932Z</time></trkpt><trkpt lat="45.10039428542366" lon="9.676094441357112"><ele>47.0</ele><time>2026-04-09T08:50:54.932Z</time></trkpt><trkpt lat="45.10037479499767" lon="9.676197334679003"><ele>47.0</ele><time>2026-04-09T08:50:56.932Z</time></trkpt><trkpt lat="45.10035611222123" lon="9.676301134681603"><ele>47.0</ele><time>2026-04-09T08:50:58.932Z</time></trkpt><trkpt lat="45.10034173834702" lon="9.676417479877045"><ele>47.0</ele><time>2026-04-09T08:51:00.932Z</time></trkpt><trkpt lat="45.1003312393193" lon="9.67653544042565"><ele>47.0</ele><time>2026-04-09T08:51:02.932Z</time></trkpt><trkpt lat="45.100327828886996" lon="9.676652648195294"><ele>47.0</ele><time>2026-04-09T08:51:04.932Z</time></trkpt><trkpt lat="45.10032828016022" lon="9.676767882008674"><ele>47.0</ele><time>2026-04-09T08:51:06.932Z</time></trkpt><trkpt lat="45.10034476462547" lon="9.676886961062769"><ele>46.5</ele><time>2026-04-09T08:51:08.932Z</time></trkpt><trkpt lat="45.10037182799082" lon="9.677008490332362"><ele>46.0</ele><time>2026-04-09T08:51:10.932Z</time></trkpt><trkpt lat="45.100402382165456" lon="9.677122989189714"><ele>45.5</ele><time>2026-04-09T08:51:12.932Z</time></trkpt><trkpt lat="45.10044258874899" lon="9.67723509154339"><ele>45.0</ele><time>2026-04-09T08:51:14.932Z</time></trkpt><trkpt lat="45.10048966593829" lon="9.677343356858596"><ele>44.5</ele><time>2026-04-09T08:51:16.932Z</time></trkpt><trkpt lat="45.10053714313181" lon="9.677452016717012"><ele>44.0</ele><time>2026-04-09T08:51:18.932Z</time></trkpt><trkpt lat="45.100587432155216" lon="9.677555763414977"><ele>44.0</ele><time>2026-04-09T08:51:20.932Z</time></trkpt><trkpt lat="45.10063584136509" lon="9.677658234447584"><ele>44.0</ele><time>2026-04-09T08:51:22.931Z</time></trkpt><trkpt lat="45.100681898391045" lon="9.677756549636733"><ele>44.0</ele><time>2026-04-09T08:51:24.931Z</time></trkpt><trkpt lat="45.10072928194729" lon="9.67786440683495"><ele>44.0</ele><time>2026-04-09T08:51:26.931Z</time></trkpt><trkpt lat="45.10076623816034" lon="9.677978609160053"><ele>44.0</ele><time>2026-04-09T08:51:28.931Z</time></trkpt><trkpt lat="45.10079203993112" lon="9.678097540963709"><ele>44.0</ele><time>2026-04-09T08:51:30.931Z</time></trkpt><trkpt lat="45.10080735971712" lon="9.678222341742014"><ele>44.0</ele><time>2026-04-09T08:51:32.931Z</time></trkpt><trkpt lat="45.10081801314356" lon="9.678342504171797"><ele>44.0</ele><time>2026-04-09T08:51:34.931Z</time></trkpt><trkpt lat="45.10081949111046" lon="9.678463416697923"><ele>44.0</ele><time>2026-04-09T08:51:36.932Z</time></trkpt><trkpt lat="45.10080806051199" lon="9.67857073906967"><ele>44.0</ele><time>2026-04-09T08:51:38.931Z</time></trkpt><trkpt lat="45.100786676751234" lon="9.678684435633064"><ele>44.0</ele><time>2026-04-09T08:51:40.932Z</time></trkpt><trkpt lat="45.100751983374565" lon="9.678793517123836"><ele>44.0</ele><time>2026-04-09T08:51:42.931Z</time></trkpt><trkpt lat="45.10071564719574" lon="9.678899506283049"><ele>44.166666666666664</ele><time>2026-04-09T08:51:44.931Z</time></trkpt><trkpt lat="45.10067869840212" lon="9.679008493835811"><ele>44.33333333333333</ele><time>2026-04-09T08:51:46.932Z</time></trkpt><trkpt lat="45.10064032184104" lon="9.679125372608933"><ele>44.5</ele><time>2026-04-09T08:51:48.931Z</time></trkpt><trkpt lat="45.10059745477155" lon="9.679233764511377"><ele>44.666666666666664</ele><time>2026-04-09T08:51:50.932Z</time></trkpt><trkpt lat="45.10055757500923" lon="9.679344073883854"><ele>44.833333333333336</ele><time>2026-04-09T08:51:52.932Z</time></trkpt><trkpt lat="45.10052238046279" lon="9.67945123397751"><ele>45.0</ele><time>2026-04-09T08:51:54.932Z</time></trkpt><trkpt lat="45.10048345865959" lon="9.679561390172207"><ele>45.166666666666664</ele><time>2026-04-09T08:51:56.932Z</time></trkpt><trkpt lat="45.10044987319826" lon="9.67966681180913"><ele>45.333333333333336</ele><time>2026-04-09T08:51:58.932Z</time></trkpt><trkpt lat="45.1004139444865" lon="9.67977031024045"><ele>45.5</ele><time>2026-04-09T08:52:00.932Z</time></trkpt><trkpt lat="45.10037595556134" lon="9.679883574878843"><ele>45.66666666666667</ele><time>2026-04-09T08:52:02.932Z</time></trkpt><trkpt lat="45.10034155823249" lon="9.679991315061773"><ele>45.833333333333336</ele><time>2026-04-09T08:52:04.932Z</time></trkpt><trkpt lat="45.10030708537656" lon="9.68009364990259"><ele>46.0</ele><time>2026-04-09T08:52:06.932Z</time></trkpt><trkpt lat="45.10027908096821" lon="9.680207710794576"><ele>45.66666666666667</ele><time>2026-04-09T08:52:08.932Z</time></trkpt><trkpt lat="45.100241714607755" lon="9.680323169117127"><ele>45.333333333333336</ele><time>2026-04-09T08:52:10.932Z</time></trkpt><trkpt lat="45.1002105078517" lon="9.680428787713328"><ele>45.0</ele><time>2026-04-09T08:52:12.932Z</time></trkpt><trkpt lat="45.100172745099755" lon="9.68054040670915"><ele>44.666666666666664</ele><time>2026-04-09T08:52:14.931Z</time></trkpt><trkpt lat="45.10013652175389" lon="9.680651004046489"><ele>44.33333333333333</ele><time>2026-04-09T08:52:16.931Z</time></trkpt><trkpt lat="45.100099387624084" lon="9.680758073627736"><ele>44.0</ele><time>2026-04-09T08:52:18.931Z</time></trkpt><trkpt lat="45.10006444642332" lon="9.680870563854333"><ele>44.0</ele><time>2026-04-09T08:52:20.931Z</time></trkpt><trkpt lat="45.100033941977024" lon="9.680979351507027"><ele>44.0</ele><time>2026-04-09T08:52:22.931Z</time></trkpt><trkpt lat="45.10000243300238" lon="9.681077355734233"><ele>44.0</ele><time>2026-04-09T08:52:24.931Z</time></trkpt><trkpt lat="45.099973590275916" lon="9.681174652777825"><ele>44.0</ele><time>2026-04-09T08:52:26.931Z</time></trkpt><trkpt lat="45.09993926991072" lon="9.681265447809675"><ele>44.0</ele><time>2026-04-09T08:52:28.931Z</time></trkpt><trkpt lat="45.09990521793734" lon="9.681365203262454"><ele>44.0</ele><time>2026-04-09T08:52:30.931Z</time></trkpt><trkpt lat="45.09987035904391" lon="9.681467622322344"><ele>44.0</ele><time>2026-04-09T08:52:32.931Z</time></trkpt><trkpt lat="45.09984083640955" lon="9.681572778107219"><ele>44.0</ele><time>2026-04-09T08:52:34.931Z</time></trkpt><trkpt lat="45.09980352659097" lon="9.68168069961455"><ele>44.0</ele><time>2026-04-09T08:52:36.931Z</time></trkpt><trkpt lat="45.09976994260881" lon="9.681791582908723"><ele>44.0</ele><time>2026-04-09T08:52:38.931Z</time></trkpt><trkpt lat="45.099732078047396" lon="9.681899751260273"><ele>44.0</ele><time>2026-04-09T08:52:40.931Z</time></trkpt><trkpt lat="45.09969925830773" lon="9.68200562871752"><ele>44.0</ele><time>2026-04-09T08:52:42.931Z</time></trkpt><trkpt lat="45.09965922928742" lon="9.682099723566477"><ele>44.0</ele><time>2026-04-09T08:52:44.931Z</time></trkpt><trkpt lat="45.09962251673382" lon="9.68220024557173"><ele>44.0</ele><time>2026-04-09T08:52:46.931Z</time></trkpt><trkpt lat="45.09958004848749" lon="9.68229851392146"><ele>44.0</ele><time>2026-04-09T08:52:48.931Z</time></trkpt><trkpt lat="45.099528242479565" lon="9.682395042959117"><ele>44.0</ele><time>2026-04-09T08:52:50.931Z</time></trkpt><trkpt lat="45.09948433583696" lon="9.68249328870349"><ele>44.0</ele><time>2026-04-09T08:52:52.931Z</time></trkpt><trkpt lat="45.099430473859314" lon="9.68259434458404"><ele>44.0</ele><time>2026-04-09T08:52:54.931Z</time></trkpt><trkpt lat="45.09937717985044" lon="9.68269194832047"><ele>43.83333333333333</ele><time>2026-04-09T08:52:56.931Z</time></trkpt><trkpt lat="45.099334531092516" lon="9.682797033011925"><ele>43.666666666666664</ele><time>2026-04-09T08:52:58.931Z</time></trkpt><trkpt lat="45.09927886387699" lon="9.682891033617178"><ele>43.5</ele><time>2026-04-09T08:53:00.931Z</time></trkpt><trkpt lat="45.099230140745505" lon="9.682982859400953"><ele>43.333333333333336</ele><time>2026-04-09T08:53:02.931Z</time></trkpt><trkpt lat="45.09918131622608" lon="9.683081363165325"><ele>43.16666666666667</ele><time>2026-04-09T08:53:04.931Z</time></trkpt><trkpt lat="45.0991367657878" lon="9.683177985196375"><ele>43.0</ele><time>2026-04-09T08:53:06.931Z</time></trkpt><trkpt lat="45.099083610000534" lon="9.683271784786621"><ele>43.0</ele><time>2026-04-09T08:53:08.931Z</time></trkpt><trkpt lat="45.09904054275247" lon="9.683374031626087"><ele>43.0</ele><time>2026-04-09T08:53:10.931Z</time></trkpt><trkpt lat="45.09899102318926" lon="9.683468192296647"><ele>43.0</ele><time>2026-04-09T08:53:12.931Z</time></trkpt><trkpt lat="45.098937518787984" lon="9.68356540664244"><ele>43.0</ele><time>2026-04-09T08:53:14.931Z</time></trkpt><trkpt lat="45.0988881949935" lon="9.683659062660062"><ele>43.0</ele><time>2026-04-09T08:53:16.93Z</time></trkpt><trkpt lat="45.09883929464689" lon="9.683750448540827"><ele>43.0</ele><time>2026-04-09T08:53:18.93Z</time></trkpt><trkpt lat="45.09879191646039" lon="9.683850093460899"><ele>43.16666666666667</ele><time>2026-04-09T08:53:20.93Z</time></trkpt><trkpt lat="45.09874004757492" lon="9.683949200702319"><ele>43.333333333333336</ele><time>2026-04-09T08:53:22.93Z</time></trkpt><trkpt lat="45.09869422505743" lon="9.684050821020055"><ele>43.5</ele><time>2026-04-09T08:53:24.93Z</time></trkpt><trkpt lat="45.098639880186084" lon="9.684144691931557"><ele>43.666666666666664</ele><time>2026-04-09T08:53:26.93Z</time></trkpt><trkpt lat="45.09859024871004" lon="9.684237813195404"><ele>43.83333333333333</ele><time>2026-04-09T08:53:28.93Z</time></trkpt><trkpt lat="45.09854511974999" lon="9.684339445259448"><ele>44.0</ele><time>2026-04-09T08:53:30.93Z</time></trkpt><trkpt lat="45.09849545016702" lon="9.684435273131447"><ele>44.33333333333333</ele><time>2026-04-09T08:53:32.93Z</time></trkpt><trkpt lat="45.098441694469315" lon="9.684529451665531"><ele>44.666666666666664</ele><time>2026-04-09T08:53:34.93Z</time></trkpt><trkpt lat="45.09839294187362" lon="9.684626026622517"><ele>45.0</ele><time>2026-04-09T08:53:36.93Z</time></trkpt><trkpt lat="45.09834328665104" lon="9.684725009633652"><ele>45.333333333333336</ele><time>2026-04-09T08:53:38.93Z</time></trkpt><trkpt lat="45.09828875406654" lon="9.684830391278762"><ele>45.66666666666667</ele><time>2026-04-09T08:53:40.93Z</time></trkpt><trkpt lat="45.09823768788015" lon="9.684932688613573"><ele>46.0</ele><time>2026-04-09T08:53:42.93Z</time></trkpt><trkpt lat="45.0981878460334" lon="9.685041697669627"><ele>46.0</ele><time>2026-04-09T08:53:44.93Z</time></trkpt><trkpt lat="45.0981326127375" lon="9.68513993953359"><ele>46.0</ele><time>2026-04-09T08:53:46.93Z</time></trkpt><trkpt lat="45.09807930036063" lon="9.685231999741818"><ele>46.0</ele><time>2026-04-09T08:53:48.93Z</time></trkpt><trkpt lat="45.098025232683426" lon="9.68531928502896"><ele>46.0</ele><time>2026-04-09T08:53:50.929Z</time></trkpt><trkpt lat="45.097960545942755" lon="9.685400017970826"><ele>46.0</ele><time>2026-04-09T08:53:52.93Z</time></trkpt><trkpt lat="45.09788862804116" lon="9.685476133021774"><ele>46.0</ele><time>2026-04-09T08:53:54.93Z</time></trkpt><trkpt lat="45.09781484568879" lon="9.685519379436258"><ele>46.16666666666667</ele><time>2026-04-09T08:53:56.93Z</time></trkpt><trkpt lat="45.09774321242075" lon="9.685558576218982"><ele>46.333333333333336</ele><time>2026-04-09T08:53:58.93Z</time></trkpt><trkpt lat="45.097657730884414" lon="9.685572242237425"><ele>46.5</ele><time>2026-04-09T08:54:00.93Z</time></trkpt><trkpt lat="45.09758176547363" lon="9.68557138999596"><ele>46.666666666666664</ele><time>2026-04-09T08:54:02.93Z</time></trkpt><trkpt lat="45.097500994717706" lon="9.685549370872293"><ele>46.83333333333333</ele><time>2026-04-09T08:54:04.93Z</time></trkpt><trkpt lat="45.09741903531097" lon="9.685529361667243"><ele>47.0</ele><time>2026-04-09T08:54:06.93Z</time></trkpt><trkpt lat="45.09734489569542" lon="9.685495249045792"><ele>47.0</ele><time>2026-04-09T08:54:08.93Z</time></trkpt><trkpt lat="45.097269180024405" lon="9.685451995718289"><ele>47.0</ele><time>2026-04-09T08:54:10.93Z</time></trkpt><trkpt lat="45.097191921407884" lon="9.685415150781587"><ele>47.0</ele><time>2026-04-09T08:54:12.93Z</time></trkpt><trkpt lat="45.097117545893376" lon="9.685372768634949"><ele>47.0</ele><time>2026-04-09T08:54:14.93Z</time></trkpt><trkpt lat="45.09704384992803" lon="9.685329576201747"><ele>47.0</ele><time>2026-04-09T08:54:16.93Z</time></trkpt><trkpt lat="45.09696624601047" lon="9.685293353190383"><ele>47.0</ele><time>2026-04-09T08:54:18.93Z</time></trkpt><trkpt lat="45.096884666876065" lon="9.685248033645072"><ele>47.0</ele><time>2026-04-09T08:54:20.93Z</time></trkpt><trkpt lat="45.096806645877024" lon="9.685200933811052"><ele>47.0</ele><time>2026-04-09T08:54:22.93Z</time></trkpt><trkpt lat="45.09672413034069" lon="9.685166108600045"><ele>47.0</ele><time>2026-04-09T08:54:24.93Z</time></trkpt><trkpt lat="45.09664553311439" lon="9.685140868657047"><ele>47.0</ele><time>2026-04-09T08:54:26.93Z</time></trkpt><trkpt lat="45.096567167748724" lon="9.685108859964227"><ele>47.0</ele><time>2026-04-09T08:54:28.93Z</time></trkpt><trkpt lat="45.09647451033663" lon="9.68508105539346"><ele>47.0</ele><time>2026-04-09T08:54:30.929Z</time></trkpt><trkpt lat="45.096382345015286" lon="9.685071592177515"><ele>46.666666666666664</ele><time>2026-04-09T08:54:32.929Z</time></trkpt><trkpt lat="45.096292301274275" lon="9.685074827928377"><ele>46.33333333333333</ele><time>2026-04-09T08:54:34.929Z</time></trkpt><trkpt lat="45.09621161404984" lon="9.685092503819934"><ele>46.0</ele><time>2026-04-09T08:54:36.929Z</time></trkpt><trkpt lat="45.0961350091303" lon="9.68512130410551"><ele>45.666666666666664</ele><time>2026-04-09T08:54:38.929Z</time></trkpt><trkpt lat="45.09606418916983" lon="9.685157357922705"><ele>45.333333333333336</ele><time>2026-04-09T08:54:40.929Z</time></trkpt><trkpt lat="45.09599514380346" lon="9.685217120333272"><ele>45.0</ele><time>2026-04-09T08:54:42.929Z</time></trkpt><trkpt lat="45.095927498418135" lon="9.685283260100688"><ele>45.0</ele><time>2026-04-09T08:54:44.929Z</time></trkpt><trkpt lat="45.095862009348785" lon="9.685355759110244"><ele>45.0</ele><time>2026-04-09T08:54:46.929Z</time></trkpt><trkpt lat="45.09579894118869" lon="9.685434442527532"><ele>45.0</ele><time>2026-04-09T08:54:48.929Z</time></trkpt><trkpt lat="45.09573516044589" lon="9.685524012383732"><ele>45.0</ele><time>2026-04-09T08:54:50.929Z</time></trkpt><trkpt lat="45.09567468281756" lon="9.685611405122799"><ele>45.0</ele><time>2026-04-09T08:54:52.929Z</time></trkpt><trkpt lat="45.09561529108169" lon="9.6857070960501"><ele>45.0</ele><time>2026-04-09T08:54:54.929Z</time></trkpt><trkpt lat="45.095565600259626" lon="9.685805196186418"><ele>44.833333333333336</ele><time>2026-04-09T08:54:56.929Z</time></trkpt><trkpt lat="45.09551478179315" lon="9.685904534505232"><ele>44.666666666666664</ele><time>2026-04-09T08:54:58.929Z</time></trkpt><trkpt lat="45.09547621568687" lon="9.68600645156342"><ele>44.5</ele><time>2026-04-09T08:55:00.929Z</time></trkpt><trkpt lat="45.09543341110299" lon="9.686123128401977"><ele>44.33333333333333</ele><time>2026-04-09T08:55:02.929Z</time></trkpt><trkpt lat="45.09539386496427" lon="9.68623397375462"><ele>44.166666666666664</ele><time>2026-04-09T08:55:04.929Z</time></trkpt><trkpt lat="45.09535891258074" lon="9.686340496296337"><ele>44.0</ele><time>2026-04-09T08:55:06.929Z</time></trkpt><trkpt lat="45.0953221263025" lon="9.686445245503675"><ele>44.33333333333333</ele><time>2026-04-09T08:55:08.929Z</time></trkpt><trkpt lat="45.09529049825775" lon="9.686561062779763"><ele>44.666666666666664</ele><time>2026-04-09T08:55:10.929Z</time></trkpt><trkpt lat="45.09525072635403" lon="9.686668282756273"><ele>45.0</ele><time>2026-04-09T08:55:12.929Z</time></trkpt><trkpt lat="45.09521092147419" lon="9.686777257273972"><ele>45.333333333333336</ele><time>2026-04-09T08:55:14.929Z</time></trkpt><trkpt lat="45.095175297243976" lon="9.68689261258547"><ele>45.66666666666667</ele><time>2026-04-09T08:55:16.929Z</time></trkpt><trkpt lat="45.09514059361948" lon="9.687000668109942"><ele>46.0</ele><time>2026-04-09T08:55:18.929Z</time></trkpt><trkpt lat="45.09509924823855" lon="9.687114573017197"><ele>46.16666666666667</ele><time>2026-04-09T08:55:20.929Z</time></trkpt><trkpt lat="45.095058803765156" lon="9.68721934393568"><ele>46.333333333333336</ele><time>2026-04-09T08:55:22.929Z</time></trkpt><trkpt lat="45.09501880163308" lon="9.687327780095092"><ele>46.5</ele><time>2026-04-09T08:55:24.929Z</time></trkpt><trkpt lat="45.09497200723077" lon="9.687425471791068"><ele>46.666666666666664</ele><time>2026-04-09T08:55:26.929Z</time></trkpt><trkpt lat="45.09492497197217" lon="9.687535276882475"><ele>46.83333333333333</ele><time>2026-04-09T08:55:28.929Z</time></trkpt><trkpt lat="45.09486603330159" lon="9.687638731318504"><ele>47.0</ele><time>2026-04-09T08:55:30.929Z</time></trkpt><trkpt lat="45.094805304374205" lon="9.687734620396963"><ele>47.0</ele><time>2026-04-09T08:55:32.928Z</time></trkpt><trkpt lat="45.0947502505334" lon="9.687833830244285"><ele>47.0</ele><time>2026-04-09T08:55:34.928Z</time></trkpt><trkpt lat="45.094679000696125" lon="9.68791316255981"><ele>47.0</ele><time>2026-04-09T08:55:36.928Z</time></trkpt><trkpt lat="45.09462239000849" lon="9.687991374104888"><ele>47.0</ele><time>2026-04-09T08:55:38.928Z</time></trkpt><trkpt lat="45.094565242383254" lon="9.688057928310608"><ele>47.0</ele><time>2026-04-09T08:55:40.928Z</time></trkpt><trkpt lat="45.094521553330345" lon="9.688126480289446"><ele>47.0</ele><time>2026-04-09T08:55:42.928Z</time></trkpt><trkpt lat="45.094463108651674" lon="9.688197013127992"><ele>47.0</ele><time>2026-04-09T08:55:44.928Z</time></trkpt><trkpt lat="45.094405723917916" lon="9.68827451248467"><ele>47.0</ele><time>2026-04-09T08:55:46.928Z</time></trkpt><trkpt lat="45.09435505667024" lon="9.68834420965253"><ele>47.0</ele><time>2026-04-09T08:55:48.929Z</time></trkpt><trkpt lat="45.0943060191024" lon="9.688414110047045"><ele>47.0</ele><time>2026-04-09T08:55:50.928Z</time></trkpt><trkpt lat="45.09425264660657" lon="9.688477077752944"><ele>47.0</ele><time>2026-04-09T08:55:52.928Z</time></trkpt><trkpt lat="45.09419468794614" lon="9.688545927055547"><ele>47.0</ele><time>2026-04-09T08:55:54.928Z</time></trkpt><trkpt lat="45.09414535424222" lon="9.688613877628388"><ele>47.0</ele><time>2026-04-09T08:55:56.928Z</time></trkpt><trkpt lat="45.09409011275171" lon="9.688677982644641"><ele>46.666666666666664</ele><time>2026-04-09T08:55:58.928Z</time></trkpt><trkpt lat="45.0940363978789" lon="9.68874977740798"><ele>46.33333333333333</ele><time>2026-04-09T08:56:00.928Z</time></trkpt><trkpt lat="45.09398050738482" lon="9.688825419413364"><ele>46.0</ele><time>2026-04-09T08:56:02.928Z</time></trkpt><trkpt lat="45.093920200035214" lon="9.688895306468591"><ele>45.666666666666664</ele><time>2026-04-09T08:56:04.927Z</time></trkpt><trkpt lat="45.093861264244346" lon="9.688958464287992"><ele>45.333333333333336</ele><time>2026-04-09T08:56:06.927Z</time></trkpt><trkpt lat="45.093801613811344" lon="9.689022587066217"><ele>45.0</ele><time>2026-04-09T08:56:08.927Z</time></trkpt><trkpt lat="45.09373979968184" lon="9.689080058118384"><ele>45.0</ele><time>2026-04-09T08:56:10.927Z</time></trkpt><trkpt lat="45.093671881444614" lon="9.689125559595707"><ele>45.0</ele><time>2026-04-09T08:56:12.927Z</time></trkpt><trkpt lat="45.093590079856185" lon="9.689134427605286"><ele>45.0</ele><time>2026-04-09T08:56:14.927Z</time></trkpt><trkpt lat="45.093505830258586" lon="9.689151580941239"><ele>45.0</ele><time>2026-04-09T08:56:16.927Z</time></trkpt><trkpt lat="45.093431221844554" lon="9.689181735714731"><ele>45.0</ele><time>2026-04-09T08:56:18.927Z</time></trkpt><trkpt lat="45.093360280685594" lon="9.689212574014276"><ele>45.0</ele><time>2026-04-09T08:56:20.927Z</time></trkpt><trkpt lat="45.09328199469789" lon="9.68922755049093"><ele>44.666666666666664</ele><time>2026-04-09T08:56:22.927Z</time></trkpt><trkpt lat="45.09320944440498" lon="9.689251822360161"><ele>44.333333333333336</ele><time>2026-04-09T08:56:24.927Z</time></trkpt><trkpt lat="45.09313348220743" lon="9.689272412138179"><ele>44.0</ele><time>2026-04-09T08:56:26.927Z</time></trkpt><trkpt lat="45.09305474661396" lon="9.689301204336362"><ele>43.66666666666667</ele><time>2026-04-09T08:56:28.927Z</time></trkpt><trkpt lat="45.09297839639152" lon="9.689326320527682"><ele>43.333333333333336</ele><time>2026-04-09T08:56:30.927Z</time></trkpt><trkpt lat="45.09290322919495" lon="9.689350314221294"><ele>43.0</ele><time>2026-04-09T08:56:32.927Z</time></trkpt><trkpt lat="45.09282541188479" lon="9.68937409031171"><ele>43.00000000000001</ele><time>2026-04-09T08:56:34.927Z</time></trkpt><trkpt lat="45.092757776000155" lon="9.689399099596"><ele>43.0</ele><time>2026-04-09T08:56:36.927Z</time></trkpt><trkpt lat="45.09269213232435" lon="9.689421359628858"><ele>43.0</ele><time>2026-04-09T08:56:38.927Z</time></trkpt><trkpt lat="45.092615112349044" lon="9.689453642304624"><ele>43.0</ele><time>2026-04-09T08:56:40.927Z</time></trkpt><trkpt lat="45.092542766687906" lon="9.689481816402997"><ele>43.0</ele><time>2026-04-09T08:56:42.927Z</time></trkpt><trkpt lat="45.0924728107454" lon="9.689498123555543"><ele>43.00000000000001</ele><time>2026-04-09T08:56:44.927Z</time></trkpt><trkpt lat="45.09239802839912" lon="9.689521199446"><ele>43.0</ele><time>2026-04-09T08:56:46.927Z</time></trkpt><trkpt lat="45.092325531920494" lon="9.689549034588866"><ele>43.333333333333336</ele><time>2026-04-09T08:56:48.927Z</time></trkpt><trkpt lat="45.09225052689885" lon="9.689568944635132"><ele>43.66666666666667</ele><time>2026-04-09T08:56:50.927Z</time></trkpt><trkpt lat="45.09217352455591" lon="9.689590528469775"><ele>44.0</ele><time>2026-04-09T08:56:52.927Z</time></trkpt><trkpt lat="45.092090806583144" lon="9.689615334826927"><ele>44.333333333333336</ele><time>2026-04-09T08:56:54.927Z</time></trkpt><trkpt lat="45.09201698773991" lon="9.689641852890956"><ele>44.666666666666664</ele><time>2026-04-09T08:56:56.927Z</time></trkpt><trkpt lat="45.09195042204729" lon="9.689668155827183"><ele>45.0</ele><time>2026-04-09T08:56:58.927Z</time></trkpt><trkpt lat="45.0918815096348" lon="9.689689715741304"><ele>45.0</ele><time>2026-04-09T08:57:00.927Z</time></trkpt><trkpt lat="45.09181314876063" lon="9.689710769506718"><ele>45.0</ele><time>2026-04-09T08:57:02.927Z</time></trkpt><trkpt lat="45.09174588411878" lon="9.689711971851224"><ele>45.0</ele><time>2026-04-09T08:57:04.927Z</time></trkpt><trkpt lat="45.091675779135656" lon="9.689678452563765"><ele>45.0</ele><time>2026-04-09T08:57:06.927Z</time></trkpt><trkpt lat="45.091609554621876" lon="9.68964430662823"><ele>45.0</ele><time>2026-04-09T08:57:08.926Z</time></trkpt><trkpt lat="45.0915385879295" lon="9.689665976537405"><ele>45.0</ele><time>2026-04-09T08:57:10.926Z</time></trkpt><trkpt lat="45.09147989426751" lon="9.689737754162048"><ele>45.0</ele><time>2026-04-09T08:57:12.926Z</time></trkpt><trkpt lat="45.09142693976751" lon="9.68982151400825"><ele>45.0</ele><time>2026-04-09T08:57:14.926Z</time></trkpt><trkpt lat="45.091361455511986" lon="9.689868431243427"><ele>45.0</ele><time>2026-04-09T08:57:16.926Z</time></trkpt><trkpt lat="45.09128823958942" lon="9.689886591079146"><ele>45.0</ele><time>2026-04-09T08:57:18.926Z</time></trkpt><trkpt lat="45.09120004564281" lon="9.689892143248443"><ele>45.0</ele><time>2026-04-09T08:57:20.926Z</time></trkpt><trkpt lat="45.09111904849729" lon="9.689904986912252"><ele>45.0</ele><time>2026-04-09T08:57:22.926Z</time></trkpt><trkpt lat="45.09103910979391" lon="9.689914885030731"><ele>45.0</ele><time>2026-04-09T08:57:24.926Z</time></trkpt><trkpt lat="45.09095940902114" lon="9.689919954250875"><ele>45.0</ele><time>2026-04-09T08:57:26.926Z</time></trkpt><trkpt lat="45.0908822364676" lon="9.689911728150484"><ele>45.0</ele><time>2026-04-09T08:57:28.926Z</time></trkpt><trkpt lat="45.09080380562626" lon="9.68990031441586"><ele>45.0</ele><time>2026-04-09T08:57:30.926Z</time></trkpt><trkpt lat="45.090719116984424" lon="9.689884081474675"><ele>45.0</ele><time>2026-04-09T08:57:32.926Z</time></trkpt><trkpt lat="45.09063994679293" lon="9.689862797492989"><ele>45.0</ele><time>2026-04-09T08:57:34.926Z</time></trkpt><trkpt lat="45.0905583247628" lon="9.689843412599528"><ele>45.0</ele><time>2026-04-09T08:57:36.926Z</time></trkpt><trkpt lat="45.09047848027492" lon="9.68981793862462"><ele>45.333333333333336</ele><time>2026-04-09T08:57:38.926Z</time></trkpt><trkpt lat="45.0903961136874" lon="9.689803565505063"><ele>45.666666666666664</ele><time>2026-04-09T08:57:40.926Z</time></trkpt><trkpt lat="45.09031426550561" lon="9.68977765743678"><ele>46.0</ele><time>2026-04-09T08:57:42.926Z</time></trkpt><trkpt lat="45.09023146705715" lon="9.689764578450106"><ele>46.33333333333333</ele><time>2026-04-09T08:57:44.926Z</time></trkpt><trkpt lat="45.09015422552772" lon="9.689736896452377"><ele>46.666666666666664</ele><time>2026-04-09T08:57:46.926Z</time></trkpt><trkpt lat="45.09007252342515" lon="9.689719993199647"><ele>47.0</ele><time>2026-04-09T08:57:48.926Z</time></trkpt><trkpt lat="45.0899943244828" lon="9.689700525997571"><ele>47.0</ele><time>2026-04-09T08:57:50.926Z</time></trkpt><trkpt lat="45.08991116164021" lon="9.689682640554794"><ele>47.0</ele><time>2026-04-09T08:57:52.926Z</time></trkpt><trkpt lat="45.0898332817121" lon="9.68966105870024"><ele>47.0</ele><time>2026-04-09T08:57:54.927Z</time></trkpt><trkpt lat="45.08975254789859" lon="9.689648952934212"><ele>47.0</ele><time>2026-04-09T08:57:56.926Z</time></trkpt><trkpt lat="45.089666910784096" lon="9.689629646549964"><ele>47.0</ele><time>2026-04-09T08:57:58.926Z</time></trkpt><trkpt lat="45.08958430922501" lon="9.68960799604944"><ele>47.0</ele><time>2026-04-09T08:58:00.926Z</time></trkpt><trkpt lat="45.08949996025433" lon="9.68958771066662"><ele>47.0</ele><time>2026-04-09T08:58:02.926Z</time></trkpt><trkpt lat="45.089413121790976" lon="9.68957132621998"><ele>47.0</ele><time>2026-04-09T08:58:04.925Z</time></trkpt><trkpt lat="45.089322474210405" lon="9.689544632632476"><ele>47.0</ele><time>2026-04-09T08:58:06.926Z</time></trkpt><trkpt lat="45.08923961429724" lon="9.689526330537932"><ele>47.0</ele><time>2026-04-09T08:58:08.925Z</time></trkpt><trkpt lat="45.089159486886274" lon="9.689505223982396"><ele>47.0</ele><time>2026-04-09T08:58:10.925Z</time></trkpt><trkpt lat="45.08907377049576" lon="9.689493675253596"><ele>47.0</ele><time>2026-04-09T08:58:12.925Z</time></trkpt><trkpt lat="45.088986257600716" lon="9.689469278629646"><ele>46.8</ele><time>2026-04-09T08:58:14.925Z</time></trkpt><trkpt lat="45.0888959798638" lon="9.689447852774217"><ele>46.6</ele><time>2026-04-09T08:58:16.925Z</time></trkpt><trkpt lat="45.088807865353935" lon="9.689426651672163"><ele>46.4</ele><time>2026-04-09T08:58:18.925Z</time></trkpt><trkpt lat="45.088719359981724" lon="9.689407232606499"><ele>46.199999999999996</ele><time>2026-04-09T08:58:20.925Z</time></trkpt><trkpt lat="45.08862744325864" lon="9.689382606393211"><ele>46.0</ele><time>2026-04-09T08:58:22.925Z</time></trkpt><trkpt lat="45.088539839746616" lon="9.689360425187147"><ele>46.0</ele><time>2026-04-09T08:58:24.925Z</time></trkpt><trkpt lat="45.088450039796825" lon="9.6893375436422"><ele>46.0</ele><time>2026-04-09T08:58:26.925Z</time></trkpt><trkpt lat="45.088364279684534" lon="9.689317495314613"><ele>46.0</ele><time>2026-04-09T08:58:28.925Z</time></trkpt><trkpt lat="45.088278375548306" lon="9.68929489821749"><ele>46.0</ele><time>2026-04-09T08:58:30.925Z</time></trkpt><trkpt lat="45.08818724826277" lon="9.689281454556617"><ele>46.0</ele><time>2026-04-09T08:58:32.925Z</time></trkpt><trkpt lat="45.08809830257838" lon="9.68925969065067"><ele>46.0</ele><time>2026-04-09T08:58:34.925Z</time></trkpt><trkpt lat="45.08800990198563" lon="9.68923860710708"><ele>46.0</ele><time>2026-04-09T08:58:36.925Z</time></trkpt><trkpt lat="45.08792057063996" lon="9.689215211454876"><ele>46.0</ele><time>2026-04-09T08:58:38.925Z</time></trkpt><trkpt lat="45.08783415880338" lon="9.689199234752195"><ele>46.0</ele><time>2026-04-09T08:58:40.925Z</time></trkpt><trkpt lat="45.087745577540844" lon="9.689178570145536"><ele>46.0</ele><time>2026-04-09T08:58:42.925Z</time></trkpt><trkpt lat="45.08765616492246" lon="9.689155793239054"><ele>46.0</ele><time>2026-04-09T08:58:44.925Z</time></trkpt><trkpt lat="45.08757087475722" lon="9.689126833534194"><ele>46.0</ele><time>2026-04-09T08:58:46.925Z</time></trkpt><trkpt lat="45.08747767889929" lon="9.689113907612807"><ele>45.8</ele><time>2026-04-09T08:58:48.925Z</time></trkpt><trkpt lat="45.08738943057192" lon="9.689090317206261"><ele>45.599999999999994</ele><time>2026-04-09T08:58:50.925Z</time></trkpt><trkpt lat="45.087298105032815" lon="9.68906463150148"><ele>45.4</ele><time>2026-04-09T08:58:52.925Z</time></trkpt><trkpt lat="45.087207841666356" lon="9.689042924668751"><ele>45.2</ele><time>2026-04-09T08:58:54.925Z</time></trkpt><trkpt lat="45.08711487913528" lon="9.689020636298658"><ele>45.0</ele><time>2026-04-09T08:58:56.925Z</time></trkpt><trkpt lat="45.087024612733856" lon="9.689005879547995"><ele>45.0</ele><time>2026-04-09T08:58:58.925Z</time></trkpt><trkpt lat="45.08693734791729" lon="9.689000483615665"><ele>45.0</ele><time>2026-04-09T08:59:00.924Z</time></trkpt><trkpt lat="45.08686089744918" lon="9.689006205883574"><ele>45.0</ele><time>2026-04-09T08:59:02.924Z</time></trkpt><trkpt lat="45.0867829601756" lon="9.689015449701136"><ele>45.0</ele><time>2026-04-09T08:59:04.924Z</time></trkpt><trkpt lat="45.08671498457239" lon="9.689030646920736"><ele>45.0</ele><time>2026-04-09T08:59:06.924Z</time></trkpt><trkpt lat="45.08665132267358" lon="9.689034459182528"><ele>45.0</ele><time>2026-04-09T08:59:08.924Z</time></trkpt><trkpt lat="45.08656529798956" lon="9.68901889421643"><ele>45.0</ele><time>2026-04-09T08:59:11.924Z</time></trkpt><trkpt lat="45.08648204054732" lon="9.689008466064235"><ele>45.0</ele><time>2026-04-09T08:59:14.924Z</time></trkpt><trkpt lat="45.08639763375827" lon="9.689042704946152"><ele>45.0</ele><time>2026-04-09T08:59:17.924Z</time></trkpt><trkpt lat="45.08634224526171" lon="9.689138943661446"><ele>45.0</ele><time>2026-04-09T08:59:20.924Z</time></trkpt><trkpt lat="45.086274938687886" lon="9.689205804852374"><ele>45.0</ele><time>2026-04-09T08:59:23.924Z</time></trkpt><trkpt lat="45.08621151173734" lon="9.689257953992813"><ele>45.0</ele><time>2026-04-09T08:59:26.924Z</time></trkpt><trkpt lat="45.08613387117556" lon="9.689329644475745"><ele>45.0</ele><time>2026-04-09T08:59:29.924Z</time></trkpt><trkpt lat="45.086073105170044" lon="9.689370140109352"><ele>45.0</ele><time>2026-04-09T08:59:31.924Z</time></trkpt><trkpt lat="45.08600742796941" lon="9.689407164589909"><ele>45.0</ele><time>2026-04-09T08:59:33.924Z</time></trkpt><trkpt lat="45.085948831498484" lon="9.689451215426136"><ele>45.0</ele><time>2026-04-09T08:59:35.924Z</time></trkpt><trkpt lat="45.085880472470144" lon="9.689501292024326"><ele>45.0</ele><time>2026-04-09T08:59:37.924Z</time></trkpt><trkpt lat="45.08580805961195" lon="9.689551413203903"><ele>45.0</ele><time>2026-04-09T08:59:39.924Z</time></trkpt><trkpt lat="45.08573444790364" lon="9.689589475622014"><ele>45.0</ele><time>2026-04-09T08:59:41.924Z</time></trkpt><trkpt lat="45.085657115291106" lon="9.689603412689756"><ele>45.166666666666664</ele><time>2026-04-09T08:59:43.924Z</time></trkpt><trkpt lat="45.08557749674519" lon="9.689587727306689"><ele>45.333333333333336</ele><time>2026-04-09T08:59:45.924Z</time></trkpt><trkpt lat="45.08549955055892" lon="9.689569347769268"><ele>45.5</ele><time>2026-04-09T08:59:47.924Z</time></trkpt><trkpt lat="45.08541939374781" lon="9.689567829037339"><ele>45.66666666666667</ele><time>2026-04-09T08:59:49.924Z</time></trkpt><trkpt lat="45.0853335488801" lon="9.689572726655623"><ele>45.833333333333336</ele><time>2026-04-09T08:59:51.924Z</time></trkpt><trkpt lat="45.085248786370485" lon="9.689581177901111"><ele>46.0</ele><time>2026-04-09T08:59:53.924Z</time></trkpt><trkpt lat="45.08517033458084" lon="9.689601645716754"><ele>46.0</ele><time>2026-04-09T08:59:55.924Z</time></trkpt><trkpt lat="45.0850968777184" lon="9.68963688388827"><ele>46.0</ele><time>2026-04-09T08:59:57.924Z</time></trkpt><trkpt lat="45.08502752254619" lon="9.689675285681428"><ele>46.0</ele><time>2026-04-09T08:59:59.924Z</time></trkpt><trkpt lat="45.08496933820597" lon="9.689723620747"><ele>46.0</ele><time>2026-04-09T09:00:01.924Z</time></trkpt><trkpt lat="45.08492335454582" lon="9.689789245645922"><ele>46.0</ele><time>2026-04-09T09:00:03.924Z</time></trkpt><trkpt lat="45.084880742634205" lon="9.689906104885035"><ele>46.0</ele><time>2026-04-09T09:00:06.924Z</time></trkpt><trkpt lat="45.084848293952824" lon="9.690032266062014"><ele>46.0</ele><time>2026-04-09T09:00:09.924Z</time></trkpt><trkpt lat="45.08481404657668" lon="9.690155132529306"><ele>46.0</ele><time>2026-04-09T09:00:12.925Z</time></trkpt><trkpt lat="45.084772250294506" lon="9.690272673201555"><ele>46.0</ele><time>2026-04-09T09:00:15.924Z</time></trkpt><trkpt lat="45.084718538658194" lon="9.690335038898636"><ele>46.0</ele><time>2026-04-09T09:00:17.924Z</time></trkpt><trkpt lat="45.08466243366772" lon="9.690389363701188"><ele>46.0</ele><time>2026-04-09T09:00:19.924Z</time></trkpt><trkpt lat="45.08460190789618" lon="9.690428478165538"><ele>46.0</ele><time>2026-04-09T09:00:21.924Z</time></trkpt><trkpt lat="45.08454418157572" lon="9.69046982051185"><ele>46.0</ele><time>2026-04-09T09:00:23.923Z</time></trkpt><trkpt lat="45.08445901164126" lon="9.690524602169468"><ele>46.0</ele><time>2026-04-09T09:00:26.923Z</time></trkpt><trkpt lat="45.08439355674793" lon="9.690566815565912"><ele>46.0</ele><time>2026-04-09T09:00:28.923Z</time></trkpt><trkpt lat="45.084327166244385" lon="9.690611738542332"><ele>46.0</ele><time>2026-04-09T09:00:30.923Z</time></trkpt><trkpt lat="45.08426586746388" lon="9.690660539057806"><ele>46.0</ele><time>2026-04-09T09:00:32.923Z</time></trkpt><trkpt lat="45.08420377281416" lon="9.690702408590028"><ele>46.0</ele><time>2026-04-09T09:00:34.923Z</time></trkpt><trkpt lat="45.08413658302435" lon="9.690742212180536"><ele>46.333333333333336</ele><time>2026-04-09T09:00:36.923Z</time></trkpt><trkpt lat="45.08406883014691" lon="9.690781206336045"><ele>46.66666666666667</ele><time>2026-04-09T09:00:38.923Z</time></trkpt><trkpt lat="45.083996494713475" lon="9.690844907932366"><ele>47.0</ele><time>2026-04-09T09:00:40.923Z</time></trkpt><trkpt lat="45.08393446590683" lon="9.690884504573"><ele>47.333333333333336</ele><time>2026-04-09T09:00:42.923Z</time></trkpt><trkpt lat="45.083871167922986" lon="9.690933586278788"><ele>47.666666666666664</ele><time>2026-04-09T09:00:44.923Z</time></trkpt><trkpt lat="45.08379759021519" lon="9.69097636825259"><ele>48.0</ele><time>2026-04-09T09:00:46.923Z</time></trkpt><trkpt lat="45.08372670422558" lon="9.691020459902003"><ele>48.0</ele><time>2026-04-09T09:00:48.923Z</time></trkpt><trkpt lat="45.08365118460263" lon="9.691054878179395"><ele>48.0</ele><time>2026-04-09T09:00:50.923Z</time></trkpt><trkpt lat="45.08357666190218" lon="9.691100599965646"><ele>48.0</ele><time>2026-04-09T09:00:52.923Z</time></trkpt><trkpt lat="45.083504677334886" lon="9.691147308464599"><ele>48.0</ele><time>2026-04-09T09:00:54.923Z</time></trkpt><trkpt lat="45.083433316514025" lon="9.69119290391371"><ele>48.0</ele><time>2026-04-09T09:00:56.923Z</time></trkpt><trkpt lat="45.08336955733321" lon="9.691229273465414"><ele>48.0</ele><time>2026-04-09T09:00:58.923Z</time></trkpt><trkpt lat="45.083302029484834" lon="9.691270226280356"><ele>47.99999999999999</ele><time>2026-04-09T09:01:00.923Z</time></trkpt><trkpt lat="45.08324156859098" lon="9.691310744201973"><ele>48.0</ele><time>2026-04-09T09:01:02.923Z</time></trkpt><trkpt lat="45.08318018562061" lon="9.691340367659349"><ele>48.0</ele><time>2026-04-09T09:01:04.923Z</time></trkpt><trkpt lat="45.08312128649916" lon="9.691376380778806"><ele>48.0</ele><time>2026-04-09T09:01:06.923Z</time></trkpt><trkpt lat="45.08305987716234" lon="9.691416215414195"><ele>48.0</ele><time>2026-04-09T09:01:08.923Z</time></trkpt><trkpt lat="45.08300625127257" lon="9.69147968283569"><ele>47.99999999999999</ele><time>2026-04-09T09:01:10.923Z</time></trkpt><trkpt lat="45.0829362335996" lon="9.691506426061487"><ele>48.0</ele><time>2026-04-09T09:01:12.923Z</time></trkpt><trkpt lat="45.08286838328915" lon="9.69154567080175"><ele>48.0</ele><time>2026-04-09T09:01:14.923Z</time></trkpt><trkpt lat="45.08279712596458" lon="9.69157960417063"><ele>48.0</ele><time>2026-04-09T09:01:16.923Z</time></trkpt><trkpt lat="45.08273098204993" lon="9.69162180707886"><ele>48.0</ele><time>2026-04-09T09:01:18.923Z</time></trkpt><trkpt lat="45.08265723994784" lon="9.691658578723057"><ele>48.0</ele><time>2026-04-09T09:01:20.923Z</time></trkpt><trkpt lat="45.08257294713544" lon="9.691700178644892"><ele>48.0</ele><time>2026-04-09T09:01:22.923Z</time></trkpt><trkpt lat="45.08249849744243" lon="9.691750007720485"><ele>48.0</ele><time>2026-04-09T09:01:24.923Z</time></trkpt><trkpt lat="45.082420150659686" lon="9.69178820557778"><ele>47.833333333333336</ele><time>2026-04-09T09:01:26.922Z</time></trkpt><trkpt lat="45.08234977137681" lon="9.691828367365478"><ele>47.666666666666664</ele><time>2026-04-09T09:01:28.922Z</time></trkpt><trkpt lat="45.08227647325073" lon="9.69186290221836"><ele>47.5</ele><time>2026-04-09T09:01:30.922Z</time></trkpt><trkpt lat="45.08219784424737" lon="9.69188147521754"><ele>47.33333333333333</ele><time>2026-04-09T09:01:32.922Z</time></trkpt><trkpt lat="45.08212088029037" lon="9.691900908996459"><ele>47.166666666666664</ele><time>2026-04-09T09:01:34.922Z</time></trkpt><trkpt lat="45.08204575750454" lon="9.691922713250166"><ele>47.0</ele><time>2026-04-09T09:01:36.922Z</time></trkpt><trkpt lat="45.08196815224562" lon="9.691942364024607"><ele>46.83333333333333</ele><time>2026-04-09T09:01:38.922Z</time></trkpt><trkpt lat="45.08189563265372" lon="9.691970689780032"><ele>46.666666666666664</ele><time>2026-04-09T09:01:40.922Z</time></trkpt><trkpt lat="45.08181825802292" lon="9.691999231008593"><ele>46.5</ele><time>2026-04-09T09:01:42.922Z</time></trkpt><trkpt lat="45.08173783937721" lon="9.692016397542403"><ele>46.333333333333336</ele><time>2026-04-09T09:01:44.922Z</time></trkpt><trkpt lat="45.08165696774486" lon="9.692042585291905"><ele>46.16666666666667</ele><time>2026-04-09T09:01:46.922Z</time></trkpt><trkpt lat="45.08157497019159" lon="9.69206279219755"><ele>46.0</ele><time>2026-04-09T09:01:48.922Z</time></trkpt><trkpt lat="45.08149130840975" lon="9.692083784926064"><ele>46.0</ele><time>2026-04-09T09:01:50.922Z</time></trkpt><trkpt lat="45.081415761690415" lon="9.692111031986107"><ele>46.0</ele><time>2026-04-09T09:01:52.922Z</time></trkpt><trkpt lat="45.081331896901766" lon="9.692130826200144"><ele>46.0</ele><time>2026-04-09T09:01:54.922Z</time></trkpt><trkpt lat="45.08125407978889" lon="9.692153440561745"><ele>46.0</ele><time>2026-04-09T09:01:56.922Z</time></trkpt><trkpt lat="45.0811717020128" lon="9.692172545394282"><ele>46.0</ele><time>2026-04-09T09:01:58.922Z</time></trkpt><trkpt lat="45.08108546269751" lon="9.692194628905991"><ele>46.0</ele><time>2026-04-09T09:02:00.922Z</time></trkpt><trkpt lat="45.08100505175927" lon="9.69221699746303"><ele>46.0</ele><time>2026-04-09T09:02:02.922Z</time></trkpt><trkpt lat="45.0809236294534" lon="9.692243905706636"><ele>46.0</ele><time>2026-04-09T09:02:04.922Z</time></trkpt><trkpt lat="45.080846741146736" lon="9.692290010785262"><ele>46.0</ele><time>2026-04-09T09:02:06.923Z</time></trkpt><trkpt lat="45.08078043875855" lon="9.692342692225013"><ele>46.0</ele><time>2026-04-09T09:02:08.922Z</time></trkpt><trkpt lat="45.08071659763474" lon="9.692415171068546"><ele>46.0</ele><time>2026-04-09T09:02:10.922Z</time></trkpt><trkpt lat="45.08066536950974" lon="9.692495144033469"><ele>46.0</ele><time>2026-04-09T09:02:12.923Z</time></trkpt><trkpt lat="45.08061748218246" lon="9.692576422407207"><ele>45.833333333333336</ele><time>2026-04-09T09:02:14.922Z</time></trkpt><trkpt lat="45.080575873434036" lon="9.692664635352122"><ele>45.66666666666667</ele><time>2026-04-09T09:02:16.922Z</time></trkpt><trkpt lat="45.080538378963226" lon="9.692751871683193"><ele>45.5</ele><time>2026-04-09T09:02:18.922Z</time></trkpt><trkpt lat="45.08050539290854" lon="9.692845952480775"><ele>45.333333333333336</ele><time>2026-04-09T09:02:20.922Z</time></trkpt><trkpt lat="45.080468717516744" lon="9.692940639670036"><ele>45.166666666666664</ele><time>2026-04-09T09:02:22.922Z</time></trkpt><trkpt lat="45.08043187948235" lon="9.693034528144207"><ele>45.0</ele><time>2026-04-09T09:02:24.922Z</time></trkpt><trkpt lat="45.08040024066365" lon="9.693138472810695"><ele>45.166666666666664</ele><time>2026-04-09T09:02:26.922Z</time></trkpt><trkpt lat="45.08037490531236" lon="9.693244546652224"><ele>45.333333333333336</ele><time>2026-04-09T09:02:28.922Z</time></trkpt><trkpt lat="45.080348335912845" lon="9.693345170937304"><ele>45.5</ele><time>2026-04-09T09:02:30.922Z</time></trkpt><trkpt lat="45.080325243102855" lon="9.693442203558043"><ele>45.66666666666667</ele><time>2026-04-09T09:02:32.922Z</time></trkpt><trkpt lat="45.080302905188105" lon="9.693543363793562"><ele>45.833333333333336</ele><time>2026-04-09T09:02:34.922Z</time></trkpt><trkpt lat="45.08027866390398" lon="9.69364675755164"><ele>46.0</ele><time>2026-04-09T09:02:36.922Z</time></trkpt><trkpt lat="45.08024502105833" lon="9.693752569244188"><ele>46.0</ele><time>2026-04-09T09:02:38.922Z</time></trkpt><trkpt lat="45.08021751857798" lon="9.693857013668987"><ele>46.0</ele><time>2026-04-09T09:02:40.922Z</time></trkpt><trkpt lat="45.080185770542485" lon="9.69395961750029"><ele>46.0</ele><time>2026-04-09T09:02:42.922Z</time></trkpt><trkpt lat="45.080151745180835" lon="9.694060807529846"><ele>46.0</ele><time>2026-04-09T09:02:44.922Z</time></trkpt><trkpt lat="45.0801266612518" lon="9.69417330659974"><ele>46.0</ele><time>2026-04-09T09:02:46.922Z</time></trkpt><trkpt lat="45.08009653260426" lon="9.694281599361997"><ele>46.0</ele><time>2026-04-09T09:02:48.922Z</time></trkpt><trkpt lat="45.08006573664668" lon="9.69439019692997"><ele>46.16666666666667</ele><time>2026-04-09T09:02:50.921Z</time></trkpt><trkpt lat="45.08003531687942" lon="9.694493285752495"><ele>46.333333333333336</ele><time>2026-04-09T09:02:52.921Z</time></trkpt><trkpt lat="45.08000349007484" lon="9.694601289439424"><ele>46.5</ele><time>2026-04-09T09:02:54.921Z</time></trkpt><trkpt lat="45.079974742996306" lon="9.694711945085746"><ele>46.666666666666664</ele><time>2026-04-09T09:02:56.921Z</time></trkpt><trkpt lat="45.079946666518566" lon="9.694820728889638"><ele>46.83333333333333</ele><time>2026-04-09T09:02:58.921Z</time></trkpt><trkpt lat="45.07991620478691" lon="9.694930555133105"><ele>47.0</ele><time>2026-04-09T09:03:00.921Z</time></trkpt><trkpt lat="45.079885770823175" lon="9.69503759499189"><ele>46.666666666666664</ele><time>2026-04-09T09:03:02.921Z</time></trkpt><trkpt lat="45.07986049523251" lon="9.695147078247249"><ele>46.33333333333333</ele><time>2026-04-09T09:03:04.921Z</time></trkpt><trkpt lat="45.07982228023194" lon="9.69525326843261"><ele>46.0</ele><time>2026-04-09T09:03:06.921Z</time></trkpt><trkpt lat="45.079794153320464" lon="9.695363670774151"><ele>45.666666666666664</ele><time>2026-04-09T09:03:08.921Z</time></trkpt><trkpt lat="45.07977322325014" lon="9.695477220002497"><ele>45.333333333333336</ele><time>2026-04-09T09:03:10.921Z</time></trkpt><trkpt lat="45.07973799397681" lon="9.695588932261082"><ele>45.0</ele><time>2026-04-09T09:03:12.921Z</time></trkpt><trkpt lat="45.07970870245628" lon="9.695694767811295"><ele>44.833333333333336</ele><time>2026-04-09T09:03:14.921Z</time></trkpt><trkpt lat="45.07968211637639" lon="9.695808876174752"><ele>44.666666666666664</ele><time>2026-04-09T09:03:16.921Z</time></trkpt><trkpt lat="45.07965327170182" lon="9.69591840105447"><ele>44.5</ele><time>2026-04-09T09:03:18.921Z</time></trkpt><trkpt lat="45.07961687695515" lon="9.69603257363767"><ele>44.33333333333333</ele><time>2026-04-09T09:03:20.921Z</time></trkpt><trkpt lat="45.079585271225355" lon="9.696144843799969"><ele>44.166666666666664</ele><time>2026-04-09T09:03:22.921Z</time></trkpt><trkpt lat="45.07955494964874" lon="9.696255003724922"><ele>44.0</ele><time>2026-04-09T09:03:24.921Z</time></trkpt><trkpt lat="45.07952335197685" lon="9.69636325650711"><ele>44.33333333333333</ele><time>2026-04-09T09:03:26.921Z</time></trkpt><trkpt lat="45.07949526394646" lon="9.696466924149641"><ele>44.666666666666664</ele><time>2026-04-09T09:03:28.921Z</time></trkpt><trkpt lat="45.079469779242416" lon="9.696572879823647"><ele>45.0</ele><time>2026-04-09T09:03:30.921Z</time></trkpt><trkpt lat="45.079439158856424" lon="9.696677532133004"><ele>45.333333333333336</ele><time>2026-04-09T09:03:32.921Z</time></trkpt><trkpt lat="45.07940828821951" lon="9.696785023104711"><ele>45.66666666666667</ele><time>2026-04-09T09:03:34.921Z</time></trkpt><trkpt lat="45.07938148345203" lon="9.696895498146644"><ele>46.0</ele><time>2026-04-09T09:03:36.921Z</time></trkpt><trkpt lat="45.079351935559195" lon="9.69700503873481"><ele>46.333333333333336</ele><time>2026-04-09T09:03:38.921Z</time></trkpt><trkpt lat="45.07931703634875" lon="9.697112364272154"><ele>46.66666666666667</ele><time>2026-04-09T09:03:40.921Z</time></trkpt><trkpt lat="45.07928629370055" lon="9.697218229804283"><ele>47.0</ele><time>2026-04-09T09:03:42.921Z</time></trkpt><trkpt lat="45.079252269460056" lon="9.697326120227023"><ele>47.333333333333336</ele><time>2026-04-09T09:03:44.921Z</time></trkpt><trkpt lat="45.07922496551703" lon="9.697434984992347"><ele>47.666666666666664</ele><time>2026-04-09T09:03:46.921Z</time></trkpt><trkpt lat="45.07919873174124" lon="9.697541072658314"><ele>48.0</ele><time>2026-04-09T09:03:48.921Z</time></trkpt><trkpt lat="45.0791690619689" lon="9.697641202573443"><ele>48.0</ele><time>2026-04-09T09:03:50.921Z</time></trkpt><trkpt lat="45.07914004265284" lon="9.697745026407715"><ele>48.0</ele><time>2026-04-09T09:03:52.921Z</time></trkpt><trkpt lat="45.079109930231866" lon="9.697854125848226"><ele>48.0</ele><time>2026-04-09T09:03:54.92Z</time></trkpt><trkpt lat="45.07907995609239" lon="9.697955616597847"><ele>48.0</ele><time>2026-04-09T09:03:56.92Z</time></trkpt><trkpt lat="45.079058445200566" lon="9.698060009445143"><ele>48.0</ele><time>2026-04-09T09:03:58.92Z</time></trkpt><trkpt lat="45.079030874869716" lon="9.698154034841245"><ele>48.0</ele><time>2026-04-09T09:04:00.92Z</time></trkpt><trkpt lat="45.07900370182737" lon="9.698249573269132"><ele>47.5</ele><time>2026-04-09T09:04:02.92Z</time></trkpt><trkpt lat="45.07897366963256" lon="9.698352262516785"><ele>47.0</ele><time>2026-04-09T09:04:04.92Z</time></trkpt><trkpt lat="45.0789443844536" lon="9.698453539177684"><ele>46.5</ele><time>2026-04-09T09:04:06.92Z</time></trkpt><trkpt lat="45.07892329622869" lon="9.69855222731406"><ele>46.0</ele><time>2026-04-09T09:04:08.92Z</time></trkpt><trkpt lat="45.07888780399351" lon="9.698646068422617"><ele>45.5</ele><time>2026-04-09T09:04:10.92Z</time></trkpt><trkpt lat="45.078863917620076" lon="9.6987498593232"><ele>45.0</ele><time>2026-04-09T09:04:12.921Z</time></trkpt><trkpt lat="45.078841159118966" lon="9.698845927761408"><ele>45.0</ele><time>2026-04-09T09:04:14.92Z</time></trkpt><trkpt lat="45.078811971863495" lon="9.698944995595351"><ele>45.0</ele><time>2026-04-09T09:04:16.92Z</time></trkpt><trkpt lat="45.07879039053398" lon="9.699042508725626"><ele>45.0</ele><time>2026-04-09T09:04:18.92Z</time></trkpt><trkpt lat="45.07876116630755" lon="9.699137298838444"><ele>45.0</ele><time>2026-04-09T09:04:20.92Z</time></trkpt><trkpt lat="45.07873288978229" lon="9.699234466677218"><ele>45.0</ele><time>2026-04-09T09:04:22.921Z</time></trkpt><trkpt lat="45.07870304581631" lon="9.699341329517411"><ele>45.0</ele><time>2026-04-09T09:04:24.92Z</time></trkpt><trkpt lat="45.078668523518886" lon="9.699453260242251"><ele>45.0</ele><time>2026-04-09T09:04:26.92Z</time></trkpt><trkpt lat="45.07863937339572" lon="9.69955857843645"><ele>45.0</ele><time>2026-04-09T09:04:28.92Z</time></trkpt><trkpt lat="45.0786088967454" lon="9.699658540381943"><ele>45.0</ele><time>2026-04-09T09:04:30.92Z</time></trkpt><trkpt lat="45.078582571704736" lon="9.699761240813444"><ele>45.0</ele><time>2026-04-09T09:04:32.92Z</time></trkpt><trkpt lat="45.0785547925705" lon="9.699862854151336"><ele>45.0</ele><time>2026-04-09T09:04:34.92Z</time></trkpt><trkpt lat="45.07852743495021" lon="9.699968526994974"><ele>45.0</ele><time>2026-04-09T09:04:36.92Z</time></trkpt><trkpt lat="45.07850283448943" lon="9.700069446935855"><ele>45.0</ele><time>2026-04-09T09:04:38.92Z</time></trkpt><trkpt lat="45.07847053945245" lon="9.70017007352071"><ele>45.0</ele><time>2026-04-09T09:04:40.92Z</time></trkpt><trkpt lat="45.07844162230974" lon="9.700272130343771"><ele>45.0</ele><time>2026-04-09T09:04:42.92Z</time></trkpt><trkpt lat="45.07841291239412" lon="9.700374641682663"><ele>45.0</ele><time>2026-04-09T09:04:44.92Z</time></trkpt><trkpt lat="45.07838365445204" lon="9.700472744298802"><ele>45.0</ele><time>2026-04-09T09:04:46.92Z</time></trkpt><trkpt lat="45.07835579957887" lon="9.700585655974988"><ele>45.0</ele><time>2026-04-09T09:04:48.92Z</time></trkpt><trkpt lat="45.07832524638387" lon="9.700696519372036"><ele>45.166666666666664</ele><time>2026-04-09T09:04:50.92Z</time></trkpt><trkpt lat="45.078294030851154" lon="9.700804433258124"><ele>45.333333333333336</ele><time>2026-04-09T09:04:52.92Z</time></trkpt><trkpt lat="45.078265499151684" lon="9.700909639706868"><ele>45.5</ele><time>2026-04-09T09:04:54.92Z</time></trkpt><trkpt lat="45.07823395140354" lon="9.70102085693293"><ele>45.66666666666667</ele><time>2026-04-09T09:04:56.92Z</time></trkpt><trkpt lat="45.07819537215016" lon="9.701122513660753"><ele>45.833333333333336</ele><time>2026-04-09T09:04:58.92Z</time></trkpt><trkpt lat="45.078162228253376" lon="9.701222222517817"><ele>46.0</ele><time>2026-04-09T09:05:00.92Z</time></trkpt><trkpt lat="45.078130841116476" lon="9.70131652223824"><ele>46.0</ele><time>2026-04-09T09:05:02.92Z</time></trkpt><trkpt lat="45.07809929419169" lon="9.701416047886374"><ele>46.0</ele><time>2026-04-09T09:05:04.919Z</time></trkpt><trkpt lat="45.07806386460541" lon="9.701514767253364"><ele>46.0</ele><time>2026-04-09T09:05:06.919Z</time></trkpt><trkpt lat="45.07802877622093" lon="9.701618719071153"><ele>46.0</ele><time>2026-04-09T09:05:08.919Z</time></trkpt><trkpt lat="45.07799069956277" lon="9.701724711590668"><ele>46.0</ele><time>2026-04-09T09:05:10.918Z</time></trkpt><trkpt lat="45.07794543023267" lon="9.701812767649937"><ele>46.0</ele><time>2026-04-09T09:05:12.915Z</time></trkpt><trkpt lat="45.07791124637051" lon="9.701907480458297"><ele>45.66666666666667</ele><time>2026-04-09T09:05:14.913Z</time></trkpt><trkpt lat="45.077872759074666" lon="9.702001722147406"><ele>45.333333333333336</ele><time>2026-04-09T09:05:16.911Z</time></trkpt><trkpt lat="45.07782949212214" lon="9.702096450187653"><ele>45.0</ele><time>2026-04-09T09:05:18.909Z</time></trkpt><trkpt lat="45.07778997601076" lon="9.702190390720862"><ele>44.666666666666664</ele><time>2026-04-09T09:05:20.907Z</time></trkpt><trkpt lat="45.077754688871565" lon="9.702291037166756"><ele>44.33333333333333</ele><time>2026-04-09T09:05:22.906Z</time></trkpt><trkpt lat="45.077705165942305" lon="9.702394766741111"><ele>44.0</ele><time>2026-04-09T09:05:24.905Z</time></trkpt><trkpt lat="45.07765495059017" lon="9.70249997872113"><ele>44.0</ele><time>2026-04-09T09:05:26.903Z</time></trkpt><trkpt lat="45.07761078230328" lon="9.702595974907043"><ele>44.0</ele><time>2026-04-09T09:05:28.902Z</time></trkpt><trkpt lat="45.077564963730175" lon="9.702681588118532"><ele>44.0</ele><time>2026-04-09T09:05:30.902Z</time></trkpt><trkpt lat="45.07752454227927" lon="9.702776077418253"><ele>44.0</ele><time>2026-04-09T09:05:32.901Z</time></trkpt><trkpt lat="45.07747427182369" lon="9.702873778981457"><ele>44.0</ele><time>2026-04-09T09:05:34.9Z</time></trkpt><trkpt lat="45.077429179636695" lon="9.702962272516642"><ele>44.0</ele><time>2026-04-09T09:05:36.9Z</time></trkpt><trkpt lat="45.07738051494656" lon="9.703039308835557"><ele>44.0</ele><time>2026-04-09T09:05:38.899Z</time></trkpt><trkpt lat="45.07733656368426" lon="9.703123597991555"><ele>44.0</ele><time>2026-04-09T09:05:40.899Z</time></trkpt><trkpt lat="45.07729030766214" lon="9.703205219061065"><ele>44.0</ele><time>2026-04-09T09:05:42.898Z</time></trkpt><trkpt lat="45.07724128092698" lon="9.703290901874205"><ele>44.0</ele><time>2026-04-09T09:05:44.898Z</time></trkpt><trkpt lat="45.0771928022389" lon="9.703368854164614"><ele>44.0</ele><time>2026-04-09T09:05:46.897Z</time></trkpt><trkpt lat="45.07714553456978" lon="9.703446313337766"><ele>44.0</ele><time>2026-04-09T09:05:48.897Z</time></trkpt><trkpt lat="45.077101564746066" lon="9.703520222794559"><ele>44.0</ele><time>2026-04-09T09:05:50.897Z</time></trkpt><trkpt lat="45.0770599986216" lon="9.70358898054346"><ele>44.142857142857146</ele><time>2026-04-09T09:05:52.897Z</time></trkpt><trkpt lat="45.077014828634404" lon="9.703652957936434"><ele>44.285714285714285</ele><time>2026-04-09T09:05:54.896Z</time></trkpt><trkpt lat="45.07697130958175" lon="9.703720094535067"><ele>44.42857142857143</ele><time>2026-04-09T09:05:56.896Z</time></trkpt><trkpt lat="45.0769203606864" lon="9.703781569579858"><ele>44.57142857142857</ele><time>2026-04-09T09:05:58.896Z</time></trkpt><trkpt lat="45.07685443461933" lon="9.703870327329858"><ele>44.714285714285715</ele><time>2026-04-09T09:06:01.896Z</time></trkpt><trkpt lat="45.07679903959934" lon="9.703954264404102"><ele>44.857142857142854</ele><time>2026-04-09T09:06:04.896Z</time></trkpt><trkpt lat="45.07674174794557" lon="9.70402964728779"><ele>45.0</ele><time>2026-04-09T09:06:07.895Z</time></trkpt><trkpt lat="45.07668213317631" lon="9.704097114807137"><ele>45.0</ele><time>2026-04-09T09:06:10.895Z</time></trkpt><trkpt lat="45.07662894983659" lon="9.704165215673747"><ele>45.0</ele><time>2026-04-09T09:06:13.895Z</time></trkpt><trkpt lat="45.07669760058779" lon="9.704194308515143"><ele>45.0</ele><time>2026-04-09T09:06:17.895Z</time></trkpt><trkpt lat="45.07676093087828" lon="9.704111882926279"><ele>45.0</ele><time>2026-04-09T09:06:20.895Z</time></trkpt><trkpt lat="45.07681732709815" lon="9.704068257795765"><ele>45.0</ele><time>2026-04-09T09:06:22.896Z</time></trkpt><trkpt lat="45.07688895705983" lon="9.704120919556129"><ele>45.0</ele><time>2026-04-09T09:06:25.895Z</time></trkpt><trkpt lat="45.076947560839" lon="9.704180033674286"><ele>45.0</ele><time>2026-04-09T09:06:28.895Z</time></trkpt><trkpt lat="45.07701393702254" lon="9.704253250868147"><ele>45.0</ele><time>2026-04-09T09:06:31.894Z</time></trkpt><trkpt lat="45.07706214729236" lon="9.704317270981537"><ele>45.0</ele><time>2026-04-09T09:06:33.894Z</time></trkpt><trkpt lat="45.07713551431833" lon="9.704297318988653"><ele>45.0</ele><time>2026-04-09T09:06:35.894Z</time></trkpt><trkpt lat="45.077214140106996" lon="9.704287474837884"><ele>45.0</ele><time>2026-04-09T09:06:37.894Z</time></trkpt><trkpt lat="45.077293626721804" lon="9.704269848717946"><ele>45.0</ele><time>2026-04-09T09:06:39.894Z</time></trkpt><trkpt lat="45.07735548815701" lon="9.704252900992131"><ele>45.0</ele><time>2026-04-09T09:06:41.894Z</time></trkpt><trkpt lat="45.07742017788256" lon="9.704206045392974"><ele>45.0</ele><time>2026-04-09T09:06:49.894Z</time></trkpt><trkpt lat="45.07746049777738" lon="9.704097826639924"><ele>45.0</ele><time>2026-04-09T09:06:53.894Z</time></trkpt><trkpt lat="45.07753875629156" lon="9.704145300845207"><ele>45.0</ele><time>2026-04-09T09:06:56.894Z</time></trkpt><trkpt lat="45.077582818909484" lon="9.704241918583573"><ele>45.0</ele><time>2026-04-09T09:06:58.894Z</time></trkpt><trkpt lat="45.0776441017941" lon="9.70433592737704"><ele>45.0</ele><time>2026-04-09T09:07:00.894Z</time></trkpt><trkpt lat="45.0777126743368" lon="9.70443111443995"><ele>45.0</ele><time>2026-04-09T09:07:02.894Z</time></trkpt><trkpt lat="45.07777272388002" lon="9.704528580585638"><ele>45.0</ele><time>2026-04-09T09:07:04.894Z</time></trkpt><trkpt lat="45.077840359468475" lon="9.704602376651122"><ele>45.2</ele><time>2026-04-09T09:07:06.894Z</time></trkpt><trkpt lat="45.07790177760584" lon="9.704691273321785"><ele>45.4</ele><time>2026-04-09T09:07:08.894Z</time></trkpt><trkpt lat="45.07796687849087" lon="9.704783627405478"><ele>45.599999999999994</ele><time>2026-04-09T09:07:10.893Z</time></trkpt><trkpt lat="45.078036097122194" lon="9.704871547210312"><ele>45.8</ele><time>2026-04-09T09:07:12.893Z</time></trkpt><trkpt lat="45.07810642261871" lon="9.704964375590926"><ele>46.0</ele><time>2026-04-09T09:07:14.893Z</time></trkpt><trkpt lat="45.0781733674066" lon="9.705061485484924"><ele>46.0</ele><time>2026-04-09T09:07:16.893Z</time></trkpt><trkpt lat="45.07824507087184" lon="9.705161530445222"><ele>46.0</ele><time>2026-04-09T09:07:18.893Z</time></trkpt><trkpt lat="45.07831448286287" lon="9.705258395143996"><ele>46.0</ele><time>2026-04-09T09:07:20.893Z</time></trkpt><trkpt lat="45.078370158879004" lon="9.705347909644"><ele>46.0</ele><time>2026-04-09T09:07:22.893Z</time></trkpt><trkpt lat="45.07842880609998" lon="9.705435048058396"><ele>46.0</ele><time>2026-04-09T09:07:24.893Z</time></trkpt><trkpt lat="45.078488078398806" lon="9.705504822822085"><ele>46.0</ele><time>2026-04-09T09:07:26.893Z</time></trkpt><trkpt lat="45.078567283812305" lon="9.705553239046834"><ele>45.833333333333336</ele><time>2026-04-09T09:07:28.893Z</time></trkpt><trkpt lat="45.07864463647069" lon="9.705538225529821"><ele>45.66666666666667</ele><time>2026-04-09T09:07:30.893Z</time></trkpt><trkpt lat="45.07872901055524" lon="9.7054773500365"><ele>45.5</ele><time>2026-04-09T09:07:32.893Z</time></trkpt><trkpt lat="45.07880071084822" lon="9.705411859206825"><ele>45.333333333333336</ele><time>2026-04-09T09:07:34.893Z</time></trkpt><trkpt lat="45.07886260872429" lon="9.705352114892701"><ele>45.166666666666664</ele><time>2026-04-09T09:07:36.893Z</time></trkpt><trkpt lat="45.07892341208322" lon="9.705311108085354"><ele>45.0</ele><time>2026-04-09T09:07:38.893Z</time></trkpt><trkpt lat="45.078977244803724" lon="9.705262548130163"><ele>45.0</ele><time>2026-04-09T09:07:40.893Z</time></trkpt><trkpt lat="45.07902219436774" lon="9.705166583570293"><ele>45.0</ele><time>2026-04-09T09:07:42.893Z</time></trkpt><trkpt lat="45.07907802811674" lon="9.705082394321755"><ele>45.0</ele><time>2026-04-09T09:07:44.893Z</time></trkpt><trkpt lat="45.079127610602" lon="9.704983417638264"><ele>45.0</ele><time>2026-04-09T09:07:46.893Z</time></trkpt><trkpt lat="45.07918649174485" lon="9.704892058345312"><ele>45.0</ele><time>2026-04-09T09:07:48.893Z</time></trkpt><trkpt lat="45.07923304439299" lon="9.704795245659694"><ele>45.0</ele><time>2026-04-09T09:07:50.893Z</time></trkpt><trkpt lat="45.07928166048078" lon="9.704702563434635"><ele>45.0</ele><time>2026-04-09T09:07:52.893Z</time></trkpt><trkpt lat="45.07932567706092" lon="9.704636004651965"><ele>45.0</ele><time>2026-04-09T09:07:54.893Z</time></trkpt><trkpt lat="45.07937487949206" lon="9.704553339350822"><ele>45.0</ele><time>2026-04-09T09:07:56.893Z</time></trkpt><trkpt lat="45.07941804697296" lon="9.70447056850302"><ele>45.0</ele><time>2026-04-09T09:07:58.892Z</time></trkpt><trkpt lat="45.07946356276949" lon="9.704384687775251"><ele>45.0</ele><time>2026-04-09T09:08:00.892Z</time></trkpt><trkpt lat="45.07952163951041" lon="9.70429282789146"><ele>45.0</ele><time>2026-04-09T09:08:03.892Z</time></trkpt><trkpt lat="45.079562991230645" lon="9.704192646030425"><ele>45.285714285714285</ele><time>2026-04-09T09:08:06.892Z</time></trkpt><trkpt lat="45.07959600751166" lon="9.70411170735617"><ele>45.57142857142858</ele><time>2026-04-09T09:08:08.892Z</time></trkpt><trkpt lat="45.079647109100165" lon="9.704007525199092"><ele>45.85714285714286</ele><time>2026-04-09T09:08:11.892Z</time></trkpt><trkpt lat="45.07969202565846" lon="9.703936878921594"><ele>46.14285714285714</ele><time>2026-04-09T09:08:14.892Z</time></trkpt><trkpt lat="45.07973700177522" lon="9.703868871115304"><ele>46.42857142857143</ele><time>2026-04-09T09:08:16.892Z</time></trkpt><trkpt lat="45.07978168588892" lon="9.703794527370334"><ele>46.714285714285715</ele><time>2026-04-09T09:08:18.892Z</time></trkpt><trkpt lat="45.07982273263258" lon="9.703722716826865"><ele>47.0</ele><time>2026-04-09T09:08:20.892Z</time></trkpt><trkpt lat="45.079873441971685" lon="9.703647722615342"><ele>47.0</ele><time>2026-04-09T09:08:22.892Z</time></trkpt><trkpt lat="45.07990741430396" lon="9.703541165366016"><ele>47.0</ele><time>2026-04-09T09:08:24.893Z</time></trkpt><trkpt lat="45.079942328201966" lon="9.703433410165248"><ele>47.0</ele><time>2026-04-09T09:08:26.892Z</time></trkpt><trkpt lat="45.07997801522386" lon="9.703337222758488"><ele>47.0</ele><time>2026-04-09T09:08:28.892Z</time></trkpt><trkpt lat="45.08000238966828" lon="9.703235543899677"><ele>47.0</ele><time>2026-04-09T09:08:30.893Z</time></trkpt><trkpt lat="45.08002980593123" lon="9.70312301927969"><ele>47.0</ele><time>2026-04-09T09:08:32.892Z</time></trkpt><trkpt lat="45.08005351823612" lon="9.703019553346763"><ele>47.166666666666664</ele><time>2026-04-09T09:08:34.892Z</time></trkpt><trkpt lat="45.08006657092333" lon="9.702895829917969"><ele>47.33333333333333</ele><time>2026-04-09T09:08:36.892Z</time></trkpt><trkpt lat="45.08008068765151" lon="9.70277691031897"><ele>47.5</ele><time>2026-04-09T09:08:38.892Z</time></trkpt><trkpt lat="45.08008431445728" lon="9.702651166432766"><ele>47.666666666666664</ele><time>2026-04-09T09:08:40.892Z</time></trkpt><trkpt lat="45.08009230933921" lon="9.702520725577154"><ele>47.833333333333336</ele><time>2026-04-09T09:08:42.892Z</time></trkpt><trkpt lat="45.080113426085404" lon="9.702402881791018"><ele>48.0</ele><time>2026-04-09T09:08:44.892Z</time></trkpt><trkpt lat="45.080125947061525" lon="9.702280644691138"><ele>48.166666666666664</ele><time>2026-04-09T09:08:46.892Z</time></trkpt><trkpt lat="45.08015300197791" lon="9.702176650508026"><ele>48.33333333333333</ele><time>2026-04-09T09:08:48.892Z</time></trkpt><trkpt lat="45.080180110316235" lon="9.702082897729332"><ele>48.5</ele><time>2026-04-09T09:08:50.892Z</time></trkpt><trkpt lat="45.08019725951421" lon="9.701982762024372"><ele>48.666666666666664</ele><time>2026-04-09T09:08:52.892Z</time></trkpt><trkpt lat="45.08022014080616" lon="9.701881822786849"><ele>48.83333333333333</ele><time>2026-04-09T09:08:54.892Z</time></trkpt><trkpt lat="45.08024204126759" lon="9.701772013949897"><ele>49.0</ele><time>2026-04-09T09:08:56.892Z</time></trkpt><trkpt lat="45.08025633174994" lon="9.701657505062434"><ele>48.99999999999999</ele><time>2026-04-09T09:08:58.892Z</time></trkpt><trkpt lat="45.08027925008217" lon="9.701551798032497"><ele>49.0</ele><time>2026-04-09T09:09:00.892Z</time></trkpt><trkpt lat="45.08029472758411" lon="9.701432939971056"><ele>49.0</ele><time>2026-04-09T09:09:02.892Z</time></trkpt><trkpt lat="45.080310439738376" lon="9.701315322807767"><ele>49.0</ele><time>2026-04-09T09:09:04.892Z</time></trkpt><trkpt lat="45.080327432975416" lon="9.701208707314882"><ele>48.99999999999999</ele><time>2026-04-09T09:09:06.892Z</time></trkpt><trkpt lat="45.08034252567305" lon="9.701103775630518"><ele>49.0</ele><time>2026-04-09T09:09:08.891Z</time></trkpt><trkpt lat="45.0803370634015" lon="9.700982197779622"><ele>48.99999999999999</ele><time>2026-04-09T09:09:10.891Z</time></trkpt><trkpt lat="45.0803399885096" lon="9.700871703340926"><ele>49.0</ele><time>2026-04-09T09:09:12.891Z</time></trkpt><trkpt lat="45.08036648460986" lon="9.70075296820928"><ele>49.0</ele><time>2026-04-09T09:09:14.891Z</time></trkpt><trkpt lat="45.08037920991795" lon="9.700650414191893"><ele>49.0</ele><time>2026-04-09T09:09:16.891Z</time></trkpt><trkpt lat="45.080384309052846" lon="9.700536113831879"><ele>48.99999999999999</ele><time>2026-04-09T09:09:18.891Z</time></trkpt><trkpt lat="45.080411377259715" lon="9.700438102505968"><ele>49.0</ele><time>2026-04-09T09:09:20.891Z</time></trkpt><trkpt lat="45.08042247698405" lon="9.700339973107205"><ele>48.83333333333333</ele><time>2026-04-09T09:09:22.891Z</time></trkpt><trkpt lat="45.0804421703046" lon="9.70023390263402"><ele>48.666666666666664</ele><time>2026-04-09T09:09:24.891Z</time></trkpt><trkpt lat="45.08046115393546" lon="9.70012676273423"><ele>48.5</ele><time>2026-04-09T09:09:26.891Z</time></trkpt><trkpt lat="45.08045857632781" lon="9.700006581740585"><ele>48.33333333333333</ele><time>2026-04-09T09:09:28.891Z</time></trkpt><trkpt lat="45.08046409590357" lon="9.699888143717379"><ele>48.166666666666664</ele><time>2026-04-09T09:09:30.891Z</time></trkpt><trkpt lat="45.080467931064774" lon="9.699761054319314"><ele>48.0</ele><time>2026-04-09T09:09:32.891Z</time></trkpt><trkpt lat="45.080459810239546" lon="9.699631463479056"><ele>48.0</ele><time>2026-04-09T09:09:34.891Z</time></trkpt><trkpt lat="45.08045416673664" lon="9.699515816478192"><ele>48.0</ele><time>2026-04-09T09:09:36.891Z</time></trkpt><trkpt lat="45.08044096704643" lon="9.699403898420991"><ele>48.0</ele><time>2026-04-09T09:09:38.891Z</time></trkpt><trkpt lat="45.08042462391966" lon="9.699284517970609"><ele>48.0</ele><time>2026-04-09T09:09:40.891Z</time></trkpt><trkpt lat="45.08041482407917" lon="9.699181758149118"><ele>48.0</ele><time>2026-04-09T09:09:42.891Z</time></trkpt><trkpt lat="45.08039275849486" lon="9.699083244773256"><ele>48.0</ele><time>2026-04-09T09:09:44.891Z</time></trkpt><trkpt lat="45.080384242375075" lon="9.698957656468622"><ele>48.0</ele><time>2026-04-09T09:09:46.891Z</time></trkpt><trkpt lat="45.08035853828034" lon="9.698858763330406"><ele>48.0</ele><time>2026-04-09T09:09:48.891Z</time></trkpt><trkpt lat="45.0803410819772" lon="9.69874192152308"><ele>48.0</ele><time>2026-04-09T09:09:50.891Z</time></trkpt><trkpt lat="45.080331050749315" lon="9.698627820979157"><ele>48.0</ele><time>2026-04-09T09:09:52.891Z</time></trkpt><trkpt lat="45.08032052919311" lon="9.69850585127406"><ele>48.0</ele><time>2026-04-09T09:09:54.891Z</time></trkpt><trkpt lat="45.0803163678267" lon="9.698378720291682"><ele>48.0</ele><time>2026-04-09T09:09:56.89Z</time></trkpt><trkpt lat="45.08029878717104" lon="9.69825769471763"><ele>48.0</ele><time>2026-04-09T09:09:58.89Z</time></trkpt><trkpt lat="45.08027976383587" lon="9.69813633636357"><ele>48.0</ele><time>2026-04-09T09:10:00.89Z</time></trkpt><trkpt lat="45.0802608763901" lon="9.69801505410434"><ele>48.0</ele><time>2026-04-09T09:10:02.89Z</time></trkpt><trkpt lat="45.08025155269847" lon="9.697900239435352"><ele>48.0</ele><time>2026-04-09T09:10:04.89Z</time></trkpt><trkpt lat="45.080246371107535" lon="9.69778640714376"><ele>48.0</ele><time>2026-04-09T09:10:06.89Z</time></trkpt><trkpt lat="45.080226611534755" lon="9.69768564928318"><ele>48.0</ele><time>2026-04-09T09:10:08.89Z</time></trkpt><trkpt lat="45.080215378767846" lon="9.697572475931578"><ele>48.0</ele><time>2026-04-09T09:10:10.89Z</time></trkpt><trkpt lat="45.080253162569676" lon="9.697459037394541"><ele>48.0</ele><time>2026-04-09T09:10:12.89Z</time></trkpt><trkpt lat="45.08030752906154" lon="9.697344235392787"><ele>48.0</ele><time>2026-04-09T09:10:14.89Z</time></trkpt><trkpt lat="45.08038115932579" lon="9.697251328701322"><ele>48.0</ele><time>2026-04-09T09:10:16.89Z</time></trkpt><trkpt lat="45.080438200852605" lon="9.697165243063294"><ele>48.0</ele><time>2026-04-09T09:10:18.89Z</time></trkpt><trkpt lat="45.080487029696336" lon="9.697062280670114"><ele>48.0</ele><time>2026-04-09T09:10:20.89Z</time></trkpt><trkpt lat="45.08054394898239" lon="9.696967797228957"><ele>48.0</ele><time>2026-04-09T09:10:22.89Z</time></trkpt><trkpt lat="45.080608829505756" lon="9.696864437112513"><ele>48.0</ele><time>2026-04-09T09:10:24.89Z</time></trkpt><trkpt lat="45.08066334199968" lon="9.696786119502855"><ele>48.0</ele><time>2026-04-09T09:10:26.89Z</time></trkpt><trkpt lat="45.08072176005864" lon="9.696706822228487"><ele>48.0</ele><time>2026-04-09T09:10:28.89Z</time></trkpt><trkpt lat="45.08077302780476" lon="9.69662420661109"><ele>48.0</ele><time>2026-04-09T09:10:30.89Z</time></trkpt><trkpt lat="45.080843288500205" lon="9.696545356659334"><ele>47.857142857142854</ele><time>2026-04-09T09:10:32.89Z</time></trkpt><trkpt lat="45.08089304311011" lon="9.696470621883812"><ele>47.714285714285715</ele><time>2026-04-09T09:10:34.89Z</time></trkpt><trkpt lat="45.0809374713222" lon="9.696389396155007"><ele>47.57142857142857</ele><time>2026-04-09T09:10:37.889Z</time></trkpt><trkpt lat="45.08096524102745" lon="9.696309371786118"><ele>47.42857142857143</ele><time>2026-04-09T09:10:39.89Z</time></trkpt><trkpt lat="45.08101313414878" lon="9.696220042961079"><ele>47.285714285714285</ele><time>2026-04-09T09:10:41.889Z</time></trkpt><trkpt lat="45.08105483509683" lon="9.696136094810234"><ele>47.14285714285714</ele><time>2026-04-09T09:10:43.889Z</time></trkpt><trkpt lat="45.0810991395508" lon="9.696044386548072"><ele>47.0</ele><time>2026-04-09T09:10:45.889Z</time></trkpt><trkpt lat="45.081152172826485" lon="9.69596440427001"><ele>46.83333333333333</ele><time>2026-04-09T09:10:47.889Z</time></trkpt><trkpt lat="45.08120279769354" lon="9.695885664587585"><ele>46.666666666666664</ele><time>2026-04-09T09:10:49.889Z</time></trkpt><trkpt lat="45.08124303161657" lon="9.695798508550407"><ele>46.5</ele><time>2026-04-09T09:10:51.889Z</time></trkpt><trkpt lat="45.081276286085505" lon="9.695707087813911"><ele>46.333333333333336</ele><time>2026-04-09T09:10:53.889Z</time></trkpt><trkpt lat="45.08130236470669" lon="9.69560901709345"><ele>46.16666666666667</ele><time>2026-04-09T09:10:55.889Z</time></trkpt><trkpt lat="45.08132665297645" lon="9.695508636905092"><ele>46.0</ele><time>2026-04-09T09:10:57.889Z</time></trkpt><trkpt lat="45.081354998608504" lon="9.695395392213433"><ele>46.0</ele><time>2026-04-09T09:10:59.889Z</time></trkpt><trkpt lat="45.08138930857472" lon="9.69528803809867"><ele>46.0</ele><time>2026-04-09T09:11:01.889Z</time></trkpt><trkpt lat="45.081419853493294" lon="9.69518078014476"><ele>46.0</ele><time>2026-04-09T09:11:03.889Z</time></trkpt><trkpt lat="45.08144420161823" lon="9.695071360112188"><ele>46.0</ele><time>2026-04-09T09:11:05.889Z</time></trkpt><trkpt lat="45.081465589121855" lon="9.694964178192224"><ele>46.0</ele><time>2026-04-09T09:11:07.889Z</time></trkpt><trkpt lat="45.08147998017487" lon="9.694851504350117"><ele>46.0</ele><time>2026-04-09T09:11:09.889Z</time></trkpt><trkpt lat="45.08149128800339" lon="9.694739141695342"><ele>46.0</ele><time>2026-04-09T09:11:11.889Z</time></trkpt><trkpt lat="45.08151131059412" lon="9.69462689905345"><ele>46.0</ele><time>2026-04-09T09:11:13.889Z</time></trkpt><trkpt lat="45.081537992243554" lon="9.694515681516377"><ele>46.0</ele><time>2026-04-09T09:11:15.889Z</time></trkpt><trkpt lat="45.08157503353792" lon="9.694402225188535"><ele>46.0</ele><time>2026-04-09T09:11:17.889Z</time></trkpt><trkpt lat="45.08160266461599" lon="9.694283264137095"><ele>46.0</ele><time>2026-04-09T09:11:19.889Z</time></trkpt><trkpt lat="45.08161427888873" lon="9.694163516298216"><ele>46.0</ele><time>2026-04-09T09:11:21.889Z</time></trkpt><trkpt lat="45.08164106494756" lon="9.694060573634626"><ele>46.285714285714285</ele><time>2026-04-09T09:11:23.889Z</time></trkpt><trkpt lat="45.08167088342686" lon="9.69395558785365"><ele>46.57142857142857</ele><time>2026-04-09T09:11:25.889Z</time></trkpt><trkpt lat="45.081698239665855" lon="9.693865269574614"><ele>46.857142857142854</ele><time>2026-04-09T09:11:27.888Z</time></trkpt><trkpt lat="45.081719396236856" lon="9.693773463161262"><ele>47.14285714285714</ele><time>2026-04-09T09:11:30.888Z</time></trkpt><trkpt lat="45.08171923196665" lon="9.693675268596262"><ele>47.42857142857143</ele><time>2026-04-09T09:17:43.881Z</time></trkpt><trkpt lat="45.081737823008716" lon="9.693582523955728"><ele>47.71428571428571</ele><time>2026-04-09T09:17:46.881Z</time></trkpt><trkpt lat="45.08176615020388" lon="9.693485085072707"><ele>48.0</ele><time>2026-04-09T09:17:49.881Z</time></trkpt><trkpt lat="45.08181550734044" lon="9.693369866473732"><ele>48.0</ele><time>2026-04-09T09:17:52.881Z</time></trkpt><trkpt lat="45.08185762566835" lon="9.693276908252308"><ele>48.0</ele><time>2026-04-09T09:17:54.881Z</time></trkpt><trkpt lat="45.081894741346154" lon="9.693179637340753"><ele>48.0</ele><time>2026-04-09T09:17:56.881Z</time></trkpt><trkpt lat="45.0819319106678" lon="9.693089958709834"><ele>48.0</ele><time>2026-04-09T09:17:58.881Z</time></trkpt><trkpt lat="45.08197490940139" lon="9.69298850326111"><ele>48.0</ele><time>2026-04-09T09:18:00.881Z</time></trkpt><trkpt lat="45.08199773099126" lon="9.692887565070448"><ele>48.0</ele><time>2026-04-09T09:18:02.881Z</time></trkpt><trkpt lat="45.082009296234176" lon="9.692785826724766"><ele>48.166666666666664</ele><time>2026-04-09T09:18:04.881Z</time></trkpt><trkpt lat="45.082032945352026" lon="9.692694959183688"><ele>48.33333333333333</ele><time>2026-04-09T09:18:06.881Z</time></trkpt><trkpt lat="45.08205135255686" lon="9.692594226516258"><ele>48.5</ele><time>2026-04-09T09:18:08.881Z</time></trkpt><trkpt lat="45.08208663293099" lon="9.692469689049092"><ele>48.666666666666664</ele><time>2026-04-09T09:18:11.881Z</time></trkpt><trkpt lat="45.08212323540239" lon="9.692377523307895"><ele>48.83333333333333</ele><time>2026-04-09T09:18:13.881Z</time></trkpt><trkpt lat="45.082171175921175" lon="9.692307281385183"><ele>49.0</ele><time>2026-04-09T09:18:15.88Z</time></trkpt><trkpt lat="45.08223930650648" lon="9.692264178051582"><ele>48.99999999999999</ele><time>2026-04-09T09:18:17.88Z</time></trkpt><trkpt lat="45.08232348523086" lon="9.692210551959763"><ele>49.0</ele><time>2026-04-09T09:18:20.88Z</time></trkpt><trkpt lat="45.08237870937858" lon="9.69215987000837"><ele>49.0</ele><time>2026-04-09T09:18:22.88Z</time></trkpt><trkpt lat="45.08243619491693" lon="9.69212251845772"><ele>49.0</ele><time>2026-04-09T09:18:24.88Z</time></trkpt><trkpt lat="45.082502069032756" lon="9.692147696824552"><ele>48.99999999999999</ele><time>2026-04-09T09:18:26.88Z</time></trkpt><trkpt lat="45.082592923106205" lon="9.692174161811575"><ele>49.0</ele><time>2026-04-09T09:18:29.88Z</time></trkpt><trkpt lat="45.08266683981308" lon="9.692146529611234"><ele>48.99999999999999</ele><time>2026-04-09T09:18:31.88Z</time></trkpt><trkpt lat="45.082749169252864" lon="9.692108330876891"><ele>49.0</ele><time>2026-04-09T09:18:33.88Z</time></trkpt><trkpt lat="45.08284089697385" lon="9.692077979549456"><ele>49.0</ele><time>2026-04-09T09:18:35.88Z</time></trkpt><trkpt lat="45.0829578085859" lon="9.692060001604565"><ele>49.0</ele><time>2026-04-09T09:18:37.88Z</time></trkpt><trkpt lat="45.08302465799719" lon="9.692072850719729"><ele>48.99999999999999</ele><time>2026-04-09T09:18:38.88Z</time></trkpt><trkpt lat="45.083090888669275" lon="9.692104087391902"><ele>49.0</ele><time>2026-04-09T09:18:39.88Z</time></trkpt><trkpt lat="45.083156109151055" lon="9.69216375712395"><ele>48.99999999999999</ele><time>2026-04-09T09:18:40.88Z</time></trkpt><trkpt lat="45.08320400427051" lon="9.69224473905201"><ele>49.0</ele><time>2026-04-09T09:18:41.88Z</time></trkpt><trkpt lat="45.08324453233418" lon="9.692327306483621"><ele>49.0</ele><time>2026-04-09T09:18:42.88Z</time></trkpt><trkpt lat="45.083273505137704" lon="9.692415254627393"><ele>49.0</ele><time>2026-04-09T09:18:43.88Z</time></trkpt><trkpt lat="45.083297302919746" lon="9.6925057159619"><ele>48.99999999999999</ele><time>2026-04-09T09:18:44.88Z</time></trkpt><trkpt lat="45.083315646184474" lon="9.692591646063217"><ele>49.0</ele><time>2026-04-09T09:18:45.88Z</time></trkpt><trkpt lat="45.08334527229366" lon="9.692752123556664"><ele>48.2</ele><time>2026-04-09T09:18:47.88Z</time></trkpt><trkpt lat="45.08337522139528" lon="9.692884124240901"><ele>47.400000000000006</ele><time>2026-04-09T09:18:49.88Z</time></trkpt><trkpt lat="45.08341785006145" lon="9.693021376508467"><ele>46.6</ele><time>2026-04-09T09:18:51.88Z</time></trkpt><trkpt lat="45.08345325835294" lon="9.693154935268142"><ele>45.8</ele><time>2026-04-09T09:18:53.88Z</time></trkpt><trkpt lat="45.08348295613727" lon="9.693276996306265"><ele>45.0</ele><time>2026-04-09T09:18:55.879Z</time></trkpt><trkpt lat="45.08350934063639" lon="9.69339989138532"><ele>45.0</ele><time>2026-04-09T09:18:57.879Z</time></trkpt><trkpt lat="45.083532675716405" lon="9.693526531282581"><ele>45.0</ele><time>2026-04-09T09:18:59.879Z</time></trkpt><trkpt lat="45.08356155512034" lon="9.693655105552267"><ele>45.0</ele><time>2026-04-09T09:19:01.879Z</time></trkpt><trkpt lat="45.083588157032274" lon="9.693782821895"><ele>45.0</ele><time>2026-04-09T09:19:03.879Z</time></trkpt><trkpt lat="45.083612849004226" lon="9.693897804285921"><ele>45.0</ele><time>2026-04-09T09:19:05.878Z</time></trkpt><trkpt lat="45.08363217857292" lon="9.694014868177815"><ele>45.166666666666664</ele><time>2026-04-09T09:19:07.878Z</time></trkpt><trkpt lat="45.08365630953346" lon="9.694112300380775"><ele>45.333333333333336</ele><time>2026-04-09T09:19:09.878Z</time></trkpt><trkpt lat="45.083678674996804" lon="9.694201501912318"><ele>45.5</ele><time>2026-04-09T09:19:12.878Z</time></trkpt><trkpt lat="45.08370274539377" lon="9.694292623091812"><ele>45.66666666666667</ele><time>2026-04-09T09:19:15.878Z</time></trkpt><trkpt lat="45.08372797131068" lon="9.694418198744764"><ele>45.833333333333336</ele><time>2026-04-09T09:19:18.878Z</time></trkpt><trkpt lat="45.08375523104886" lon="9.694535578767262"><ele>46.0</ele><time>2026-04-09T09:19:21.878Z</time></trkpt><trkpt lat="45.08377322950665" lon="9.694624950183112"><ele>46.0</ele><time>2026-04-09T09:19:23.878Z</time></trkpt><trkpt lat="45.08380400144997" lon="9.694741178841268"><ele>46.0</ele><time>2026-04-09T09:19:26.878Z</time></trkpt><trkpt lat="45.0838275354076" lon="9.69483373323847"><ele>46.0</ele><time>2026-04-09T09:19:29.878Z</time></trkpt><trkpt lat="45.08383883147926" lon="9.694935857101642"><ele>46.0</ele><time>2026-04-09T09:19:33.878Z</time></trkpt><trkpt lat="45.08385281213418" lon="9.695041307078867"><ele>46.0</ele><time>2026-04-09T09:19:38.878Z</time></trkpt><trkpt lat="45.08387034017445" lon="9.695134800967333"><ele>46.0</ele><time>2026-04-09T09:19:41.878Z</time></trkpt><trkpt lat="45.08387555964049" lon="9.695225487808694"><ele>46.0</ele><time>2026-04-09T09:19:43.878Z</time></trkpt><trkpt lat="45.08387315207449" lon="9.695362020348503"><ele>46.0</ele><time>2026-04-09T09:19:46.877Z</time></trkpt><trkpt lat="45.08388365051931" lon="9.695450085844204"><ele>46.0</ele><time>2026-04-09T09:19:48.877Z</time></trkpt><trkpt lat="45.083895749770825" lon="9.695563972167763"><ele>46.0</ele><time>2026-04-09T09:19:51.877Z</time></trkpt><trkpt lat="45.08391195067125" lon="9.695659513665559"><ele>46.0</ele><time>2026-04-09T09:19:54.877Z</time></trkpt><trkpt lat="45.08391351898536" lon="9.695758998812526"><ele>46.0</ele><time>2026-04-09T09:19:57.877Z</time></trkpt><trkpt lat="45.08390506409149" lon="9.695863530671575"><ele>46.0</ele><time>2026-04-09T09:20:01.877Z</time></trkpt><trkpt lat="45.08391879270342" lon="9.695965323166533"><ele>46.0</ele><time>2026-04-09T09:20:04.877Z</time></trkpt><trkpt lat="45.083909382947226" lon="9.696067575417716"><ele>46.16666666666667</ele><time>2026-04-09T09:20:06.877Z</time></trkpt><trkpt lat="45.08389742856912" lon="9.696171111348024"><ele>46.333333333333336</ele><time>2026-04-09T09:20:08.877Z</time></trkpt><trkpt lat="45.083894130692" lon="9.696275607885054"><ele>46.5</ele><time>2026-04-09T09:20:10.877Z</time></trkpt><trkpt lat="45.083879941306556" lon="9.696382742138933"><ele>46.666666666666664</ele><time>2026-04-09T09:20:12.877Z</time></trkpt><trkpt lat="45.08386723156866" lon="9.696495311865329"><ele>46.83333333333333</ele><time>2026-04-09T09:20:14.877Z</time></trkpt><trkpt lat="45.08386269298812" lon="9.696605203661495"><ele>47.0</ele><time>2026-04-09T09:20:16.877Z</time></trkpt><trkpt lat="45.08385549738304" lon="9.696719538705404"><ele>47.0</ele><time>2026-04-09T09:20:18.877Z</time></trkpt><trkpt lat="45.08384573850395" lon="9.6968327219347"><ele>47.0</ele><time>2026-04-09T09:20:20.877Z</time></trkpt><trkpt lat="45.083839860024476" lon="9.696951692985236"><ele>47.0</ele><time>2026-04-09T09:20:22.877Z</time></trkpt><trkpt lat="45.08382417479879" lon="9.697059374221949"><ele>47.0</ele><time>2026-04-09T09:20:24.877Z</time></trkpt><trkpt lat="45.08381575075839" lon="9.697164046960351"><ele>47.0</ele><time>2026-04-09T09:20:26.877Z</time></trkpt><trkpt lat="45.08381268097664" lon="9.69725752663962"><ele>47.0</ele><time>2026-04-09T09:20:28.877Z</time></trkpt><trkpt lat="45.083775893084216" lon="9.697337489954899"><ele>47.0</ele><time>2026-04-09T09:20:34.876Z</time></trkpt><trkpt lat="45.08378480702375" lon="9.697431759349227"><ele>47.0</ele><time>2026-04-09T09:20:38.876Z</time></trkpt><trkpt lat="45.083803001081826" lon="9.69753934388566"><ele>47.0</ele><time>2026-04-09T09:20:41.876Z</time></trkpt><trkpt lat="45.08378765658429" lon="9.69763032454323"><ele>47.0</ele><time>2026-04-09T09:20:44.876Z</time></trkpt><trkpt lat="45.08376134802534" lon="9.697723389821569"><ele>47.0</ele><time>2026-04-09T09:20:47.876Z</time></trkpt><trkpt lat="45.08373762708125" lon="9.697850914427566"><ele>47.0</ele><time>2026-04-09T09:20:50.876Z</time></trkpt><trkpt lat="45.083754790684914" lon="9.697955294322384"><ele>47.0</ele><time>2026-04-09T09:20:52.876Z</time></trkpt><trkpt lat="45.08377882034105" lon="9.698053753127063"><ele>47.0</ele><time>2026-04-09T09:20:54.876Z</time></trkpt><trkpt lat="45.083797109546694" lon="9.698168006675086"><ele>47.0</ele><time>2026-04-09T09:20:56.876Z</time></trkpt><trkpt lat="45.08381959775646" lon="9.698287134881596"><ele>47.0</ele><time>2026-04-09T09:20:58.876Z</time></trkpt><trkpt lat="45.0838386751875" lon="9.69840840885549"><ele>47.0</ele><time>2026-04-09T09:21:00.876Z</time></trkpt><trkpt lat="45.08386413988454" lon="9.698526895677363"><ele>47.0</ele><time>2026-04-09T09:21:02.876Z</time></trkpt><trkpt lat="45.08389161400583" lon="9.698639040229434"><ele>47.0</ele><time>2026-04-09T09:21:04.875Z</time></trkpt><trkpt lat="45.08392364791829" lon="9.698750531060638"><ele>47.0</ele><time>2026-04-09T09:21:06.875Z</time></trkpt><trkpt lat="45.08394599057933" lon="9.69886598912073"><ele>47.0</ele><time>2026-04-09T09:21:08.941Z</time></trkpt><trkpt lat="45.08397517059606" lon="9.698976762360594"><ele>47.0</ele><time>2026-04-09T09:21:10.942Z</time></trkpt><trkpt lat="45.083995071291255" lon="9.6990998099354"><ele>47.0</ele><time>2026-04-09T09:21:12.941Z</time></trkpt><trkpt lat="45.08401509808332" lon="9.699216245786205"><ele>47.0</ele><time>2026-04-09T09:21:14.941Z</time></trkpt><trkpt lat="45.084038863694005" lon="9.699330027013618"><ele>47.0</ele><time>2026-04-09T09:21:16.941Z</time></trkpt><trkpt lat="45.084044133879274" lon="9.699442009821063"><ele>47.0</ele><time>2026-04-09T09:21:18.941Z</time></trkpt><trkpt lat="45.08404111273827" lon="9.699564021098958"><ele>47.0</ele><time>2026-04-09T09:21:20.941Z</time></trkpt><trkpt lat="45.08404024506601" lon="9.699682950734497"><ele>47.0</ele><time>2026-04-09T09:21:22.941Z</time></trkpt><trkpt lat="45.084046771310184" lon="9.69980026300354"><ele>47.0</ele><time>2026-04-09T09:21:24.941Z</time></trkpt><trkpt lat="45.08402986637425" lon="9.699911115334034"><ele>47.0</ele><time>2026-04-09T09:21:26.941Z</time></trkpt><trkpt lat="45.084023306764344" lon="9.700033009077407"><ele>47.0</ele><time>2026-04-09T09:21:28.941Z</time></trkpt><trkpt lat="45.084018371902474" lon="9.700152153407398"><ele>47.0</ele><time>2026-04-09T09:21:30.941Z</time></trkpt><trkpt lat="45.08401160938926" lon="9.700274189089146"><ele>47.0</ele><time>2026-04-09T09:21:32.941Z</time></trkpt><trkpt lat="45.084004799529474" lon="9.700396163562278"><ele>47.0</ele><time>2026-04-09T09:21:34.941Z</time></trkpt><trkpt lat="45.08398739604751" lon="9.700508846277772"><ele>47.0</ele><time>2026-04-09T09:21:36.941Z</time></trkpt><trkpt lat="45.083978352967755" lon="9.700634478892274"><ele>47.0</ele><time>2026-04-09T09:21:38.941Z</time></trkpt><trkpt lat="45.08397019436169" lon="9.700754318668135"><ele>46.83333333333333</ele><time>2026-04-09T09:21:40.941Z</time></trkpt><trkpt lat="45.08396237539167" lon="9.700876300051762"><ele>46.666666666666664</ele><time>2026-04-09T09:21:42.94Z</time></trkpt><trkpt lat="45.083959228038964" lon="9.700997342462784"><ele>46.5</ele><time>2026-04-09T09:21:44.94Z</time></trkpt><trkpt lat="45.0839514648221" lon="9.701121043155574"><ele>46.333333333333336</ele><time>2026-04-09T09:21:46.94Z</time></trkpt><trkpt lat="45.08391703424959" lon="9.701225588637703"><ele>46.16666666666667</ele><time>2026-04-09T09:21:48.94Z</time></trkpt><trkpt lat="45.083898051733094" lon="9.701347214186267"><ele>46.0</ele><time>2026-04-09T09:21:50.94Z</time></trkpt><trkpt lat="45.08388202820084" lon="9.701470548429521"><ele>46.0</ele><time>2026-04-09T09:21:52.94Z</time></trkpt><trkpt lat="45.08386192705335" lon="9.701588038879422"><ele>46.0</ele><time>2026-04-09T09:21:54.94Z</time></trkpt><trkpt lat="45.08383370951778" lon="9.701699292398784"><ele>46.0</ele><time>2026-04-09T09:21:56.94Z</time></trkpt><trkpt lat="45.083803496087334" lon="9.701805714347113"><ele>46.0</ele><time>2026-04-09T09:21:58.94Z</time></trkpt><trkpt lat="45.08378810472938" lon="9.701895942191685"><ele>46.0</ele><time>2026-04-09T09:22:00.94Z</time></trkpt><trkpt lat="45.08376982418411" lon="9.701995676512059"><ele>46.0</ele><time>2026-04-09T09:22:02.94Z</time></trkpt><trkpt lat="45.08374744906402" lon="9.702095497447283"><ele>46.0</ele><time>2026-04-09T09:22:04.94Z</time></trkpt><trkpt lat="45.083719135302445" lon="9.70219387316863"><ele>46.0</ele><time>2026-04-09T09:22:06.94Z</time></trkpt><trkpt lat="45.08369891601338" lon="9.702306585864774"><ele>46.0</ele><time>2026-04-09T09:22:08.94Z</time></trkpt><trkpt lat="45.083667646905695" lon="9.702416635644623"><ele>46.0</ele><time>2026-04-09T09:22:10.94Z</time></trkpt><trkpt lat="45.08363475834744" lon="9.702521498934919"><ele>46.0</ele><time>2026-04-09T09:22:12.94Z</time></trkpt><trkpt lat="45.08362498811531" lon="9.702614946399748"><ele>46.0</ele><time>2026-04-09T09:22:14.94Z</time></trkpt><trkpt lat="45.083611705245396" lon="9.702705981528764"><ele>46.0</ele><time>2026-04-09T09:22:16.94Z</time></trkpt><trkpt lat="45.08358486622353" lon="9.702835314390013"><ele>46.0</ele><time>2026-04-09T09:22:19.94Z</time></trkpt><trkpt lat="45.08356408736347" lon="9.702926145903545"><ele>46.0</ele><time>2026-04-09T09:22:21.94Z</time></trkpt><trkpt lat="45.08352706130188" lon="9.70301628149465"><ele>46.0</ele><time>2026-04-09T09:22:23.94Z</time></trkpt><trkpt lat="45.08349662693445" lon="9.703117148848124"><ele>46.0</ele><time>2026-04-09T09:22:25.94Z</time></trkpt><trkpt lat="45.0834688076847" lon="9.70321580686685"><ele>46.0</ele><time>2026-04-09T09:22:27.94Z</time></trkpt><trkpt lat="45.083439000064644" lon="9.703315597527384"><ele>46.0</ele><time>2026-04-09T09:22:29.94Z</time></trkpt><trkpt lat="45.08340682175042" lon="9.70341588743727"><ele>46.0</ele><time>2026-04-09T09:22:31.94Z</time></trkpt><trkpt lat="45.08337333173502" lon="9.703511431897313"><ele>46.0</ele><time>2026-04-09T09:22:33.94Z</time></trkpt><trkpt lat="45.083338757408406" lon="9.703606792532037"><ele>46.0</ele><time>2026-04-09T09:22:35.94Z</time></trkpt><trkpt lat="45.08330237615619" lon="9.703696257337022"><ele>46.0</ele><time>2026-04-09T09:22:37.94Z</time></trkpt><trkpt lat="45.08326139731845" lon="9.703782197857372"><ele>46.0</ele><time>2026-04-09T09:22:39.94Z</time></trkpt><trkpt lat="45.08322682461647" lon="9.703877184534878"><ele>46.0</ele><time>2026-04-09T09:22:41.94Z</time></trkpt><trkpt lat="45.083190165797625" lon="9.7039708259877"><ele>46.0</ele><time>2026-04-09T09:22:43.94Z</time></trkpt><trkpt lat="45.08315858354768" lon="9.70406603858216"><ele>46.0</ele><time>2026-04-09T09:22:45.94Z</time></trkpt><trkpt lat="45.083115988086995" lon="9.704157334453317"><ele>46.0</ele><time>2026-04-09T09:22:47.94Z</time></trkpt><trkpt lat="45.083079384297484" lon="9.70424656334619"><ele>46.0</ele><time>2026-04-09T09:22:49.94Z</time></trkpt><trkpt lat="45.08304940505005" lon="9.704332896224225"><ele>46.0</ele><time>2026-04-09T09:22:51.94Z</time></trkpt><trkpt lat="45.0830243712079" lon="9.704422407723166"><ele>46.0</ele><time>2026-04-09T09:22:53.94Z</time></trkpt><trkpt lat="45.08300475845658" lon="9.70450914136849"><ele>46.142857142857146</ele><time>2026-04-09T09:22:55.94Z</time></trkpt><trkpt lat="45.08296572776985" lon="9.704629421534012"><ele>46.285714285714285</ele><time>2026-04-09T09:22:58.94Z</time></trkpt><trkpt lat="45.082943216450566" lon="9.704717038390188"><ele>46.42857142857143</ele><time>2026-04-09T09:23:00.94Z</time></trkpt><trkpt lat="45.08291387127871" lon="9.704808056252588"><ele>46.57142857142857</ele><time>2026-04-09T09:23:02.94Z</time></trkpt><trkpt lat="45.08288387916591" lon="9.704895059030546"><ele>46.71428571428571</ele><time>2026-04-09T09:23:04.94Z</time></trkpt><trkpt lat="45.08285288172108" lon="9.704981711167179"><ele>46.857142857142854</ele><time>2026-04-09T09:23:06.94Z</time></trkpt><trkpt lat="45.08282552424956" lon="9.705070014168788"><ele>47.0</ele><time>2026-04-09T09:23:08.939Z</time></trkpt><trkpt lat="45.08280258564138" lon="9.705164137214886"><ele>46.857142857142854</ele><time>2026-04-09T09:23:10.94Z</time></trkpt><trkpt lat="45.08276959166219" lon="9.70525238716131"><ele>46.71428571428571</ele><time>2026-04-09T09:23:12.94Z</time></trkpt><trkpt lat="45.08274753285301" lon="9.705339822772393"><ele>46.57142857142857</ele><time>2026-04-09T09:23:14.939Z</time></trkpt><trkpt lat="45.08272034538365" lon="9.705433863738682"><ele>46.42857142857143</ele><time>2026-04-09T09:23:16.94Z</time></trkpt><trkpt lat="45.082697515122476" lon="9.705525980747701"><ele>46.285714285714285</ele><time>2026-04-09T09:23:18.939Z</time></trkpt><trkpt lat="45.08267510864836" lon="9.705614119438627"><ele>46.142857142857146</ele><time>2026-04-09T09:23:20.94Z</time></trkpt><trkpt lat="45.08263626294891" lon="9.705728931873537"><ele>46.0</ele><time>2026-04-09T09:23:23.94Z</time></trkpt><trkpt lat="45.0826109932483" lon="9.705843168213532"><ele>46.0</ele><time>2026-04-09T09:23:26.94Z</time></trkpt><trkpt lat="45.08258225314253" lon="9.705961372382685"><ele>46.0</ele><time>2026-04-09T09:23:29.94Z</time></trkpt><trkpt lat="45.08255599537075" lon="9.706049363471884"><ele>46.0</ele><time>2026-04-09T09:23:31.94Z</time></trkpt><trkpt lat="45.08252575348488" lon="9.706142939182884"><ele>46.0</ele><time>2026-04-09T09:23:33.94Z</time></trkpt><trkpt lat="45.08250086938067" lon="9.706240894930993"><ele>46.0</ele><time>2026-04-09T09:23:35.94Z</time></trkpt><trkpt lat="45.08246808576753" lon="9.706340199479309"><ele>46.0</ele><time>2026-04-09T09:23:37.94Z</time></trkpt><trkpt lat="45.08243946351157" lon="9.706437758413134"><ele>45.714285714285715</ele><time>2026-04-09T09:23:39.939Z</time></trkpt><trkpt lat="45.08241537425678" lon="9.706530362621193"><ele>45.42857142857142</ele><time>2026-04-09T09:23:41.939Z</time></trkpt><trkpt lat="45.08238525185473" lon="9.706630479332985"><ele>45.14285714285714</ele><time>2026-04-09T09:23:43.939Z</time></trkpt><trkpt lat="45.08235992199863" lon="9.706722540446002"><ele>44.85714285714286</ele><time>2026-04-09T09:23:45.939Z</time></trkpt><trkpt lat="45.08233175548528" lon="9.706806911439239"><ele>44.57142857142857</ele><time>2026-04-09T09:23:47.939Z</time></trkpt><trkpt lat="45.08230127172423" lon="9.706905658556463"><ele>44.285714285714285</ele><time>2026-04-09T09:23:49.939Z</time></trkpt><trkpt lat="45.082266870826096" lon="9.707014420550868"><ele>44.0</ele><time>2026-04-09T09:23:51.939Z</time></trkpt><trkpt lat="45.08223532217387" lon="9.70712117357283"><ele>43.83333333333333</ele><time>2026-04-09T09:23:53.939Z</time></trkpt><trkpt lat="45.08220586793975" lon="9.707227257135038"><ele>43.666666666666664</ele><time>2026-04-09T09:23:55.939Z</time></trkpt><trkpt lat="45.08217201414651" lon="9.707327817917148"><ele>43.5</ele><time>2026-04-09T09:23:57.939Z</time></trkpt><trkpt lat="45.08213524118823" lon="9.70743271921246"><ele>43.333333333333336</ele><time>2026-04-09T09:23:59.939Z</time></trkpt><trkpt lat="45.082093421839055" lon="9.70753562295903"><ele>43.16666666666667</ele><time>2026-04-09T09:24:01.939Z</time></trkpt><trkpt lat="45.082054504316865" lon="9.707637041985308"><ele>43.0</ele><time>2026-04-09T09:24:03.939Z</time></trkpt><trkpt lat="45.082023756951884" lon="9.707735871946698"><ele>43.0</ele><time>2026-04-09T09:24:05.939Z</time></trkpt><trkpt lat="45.08199189392844" lon="9.70783730685988"><ele>43.0</ele><time>2026-04-09T09:24:07.939Z</time></trkpt><trkpt lat="45.081953523289314" lon="9.707937936420356"><ele>43.0</ele><time>2026-04-09T09:24:09.939Z</time></trkpt><trkpt lat="45.08191803386347" lon="9.708035087829732"><ele>43.0</ele><time>2026-04-09T09:24:11.939Z</time></trkpt><trkpt lat="45.08188287255128" lon="9.708128777805648"><ele>43.0</ele><time>2026-04-09T09:24:13.939Z</time></trkpt><trkpt lat="45.08185499996458" lon="9.708224351023333"><ele>43.0</ele><time>2026-04-09T09:24:15.939Z</time></trkpt><trkpt lat="45.08183889862803" lon="9.708335830194436"><ele>43.0</ele><time>2026-04-09T09:24:17.939Z</time></trkpt><trkpt lat="45.081810243846746" lon="9.708442238770024"><ele>43.0</ele><time>2026-04-09T09:24:19.939Z</time></trkpt><trkpt lat="45.081773888696816" lon="9.708537205875336"><ele>43.0</ele><time>2026-04-09T09:24:21.939Z</time></trkpt><trkpt lat="45.081736337148605" lon="9.70863169996154"><ele>43.0</ele><time>2026-04-09T09:24:23.939Z</time></trkpt><trkpt lat="45.081694440714244" lon="9.708725048228379"><ele>43.0</ele><time>2026-04-09T09:24:25.939Z</time></trkpt><trkpt lat="45.0816474092533" lon="9.708803881218795"><ele>43.0</ele><time>2026-04-09T09:24:27.939Z</time></trkpt><trkpt lat="45.08160552438952" lon="9.708884768895155"><ele>43.28571428571429</ele><time>2026-04-09T09:24:29.939Z</time></trkpt><trkpt lat="45.08155854824408" lon="9.708969469849293"><ele>43.57142857142857</ele><time>2026-04-09T09:24:31.939Z</time></trkpt><trkpt lat="45.08152683006042" lon="9.709059891520573"><ele>43.85714285714286</ele><time>2026-04-09T09:24:33.939Z</time></trkpt><trkpt lat="45.08148462395923" lon="9.709151524338134"><ele>44.142857142857146</ele><time>2026-04-09T09:24:35.939Z</time></trkpt><trkpt lat="45.0814609133702" lon="9.709240418812971"><ele>44.42857142857143</ele><time>2026-04-09T09:24:37.939Z</time></trkpt><trkpt lat="45.081445858256345" lon="9.709330621263472"><ele>44.714285714285715</ele><time>2026-04-09T09:24:39.939Z</time></trkpt><trkpt lat="45.081444617759914" lon="9.709423125279924"><ele>45.0</ele><time>2026-04-09T09:24:41.939Z</time></trkpt><trkpt lat="45.08144553922289" lon="9.70951300968841"><ele>45.166666666666664</ele><time>2026-04-09T09:24:43.939Z</time></trkpt><trkpt lat="45.081466378670555" lon="9.70962306462591"><ele>45.333333333333336</ele><time>2026-04-09T09:24:46.939Z</time></trkpt><trkpt lat="45.081465161276455" lon="9.70971485294821"><ele>45.5</ele><time>2026-04-09T09:24:49.939Z</time></trkpt><trkpt lat="45.08139806387811" lon="9.709770608534322"><ele>45.66666666666667</ele><time>2026-04-09T09:24:52.939Z</time></trkpt><trkpt lat="45.081333502381604" lon="9.70981453600062"><ele>45.833333333333336</ele><time>2026-04-09T09:24:55.939Z</time></trkpt><trkpt lat="45.081255797325454" lon="9.709805324795648"><ele>46.0</ele><time>2026-04-09T09:24:59.939Z</time></trkpt><trkpt lat="45.081175968837144" lon="9.709759310156953"><ele>46.0</ele><time>2026-04-09T09:25:03.939Z</time></trkpt><trkpt lat="45.081105447671035" lon="9.709785123237285"><ele>46.0</ele><time>2026-04-09T09:25:06.939Z</time></trkpt><trkpt lat="45.08103827737621" lon="9.709861768156088"><ele>46.0</ele><time>2026-04-09T09:25:09.939Z</time></trkpt><trkpt lat="45.080997269024415" lon="9.70993795827271"><ele>46.0</ele><time>2026-04-09T09:25:11.939Z</time></trkpt><trkpt lat="45.08095382750333" lon="9.710012541428394"><ele>46.0</ele><time>2026-04-09T09:25:13.938Z</time></trkpt><trkpt lat="45.080916283214215" lon="9.710089449554344"><ele>46.0</ele><time>2026-04-09T09:25:15.938Z</time></trkpt><trkpt lat="45.080889649901465" lon="9.71018002457109"><ele>46.0</ele><time>2026-04-09T09:25:17.938Z</time></trkpt><trkpt lat="45.0808481653503" lon="9.710302011664325"><ele>45.714285714285715</ele><time>2026-04-09T09:25:20.938Z</time></trkpt><trkpt lat="45.08081744736972" lon="9.710386147434757"><ele>45.42857142857142</ele><time>2026-04-09T09:25:22.938Z</time></trkpt><trkpt lat="45.08078900359396" lon="9.710466924535224"><ele>45.14285714285714</ele><time>2026-04-09T09:25:24.938Z</time></trkpt><trkpt lat="45.08074792713264" lon="9.710541373590367"><ele>44.85714285714286</ele><time>2026-04-09T09:25:26.938Z</time></trkpt><trkpt lat="45.080707029727705" lon="9.71061779362929"><ele>44.57142857142857</ele><time>2026-04-09T09:25:28.938Z</time></trkpt><trkpt lat="45.08065349483811" lon="9.710691348614095"><ele>44.285714285714285</ele><time>2026-04-09T09:25:30.938Z</time></trkpt><trkpt lat="45.080593768207294" lon="9.710765446070672"><ele>44.0</ele><time>2026-04-09T09:25:32.938Z</time></trkpt><trkpt lat="45.08052799980862" lon="9.710829234968287"><ele>44.0</ele><time>2026-04-09T09:25:34.938Z</time></trkpt><trkpt lat="45.080458319666306" lon="9.710886888528448"><ele>44.0</ele><time>2026-04-09T09:25:36.938Z</time></trkpt><trkpt lat="45.08038817195734" lon="9.710933094870532"><ele>44.0</ele><time>2026-04-09T09:25:38.938Z</time></trkpt><trkpt lat="45.08032484629964" lon="9.710967689449832"><ele>44.0</ele><time>2026-04-09T09:25:40.938Z</time></trkpt><trkpt lat="45.08025997776253" lon="9.710989186130876"><ele>44.0</ele><time>2026-04-09T09:25:42.938Z</time></trkpt><trkpt lat="45.080196829589156" lon="9.711013717555055"><ele>44.0</ele><time>2026-04-09T09:25:44.938Z</time></trkpt><trkpt lat="45.080132212523274" lon="9.711035543991175"><ele>44.0</ele><time>2026-04-09T09:25:46.938Z</time></trkpt><trkpt lat="45.080064766169684" lon="9.711050425964677"><ele>44.0</ele><time>2026-04-09T09:25:48.938Z</time></trkpt><trkpt lat="45.07999597480721" lon="9.711073506931445"><ele>44.0</ele><time>2026-04-09T09:25:50.938Z</time></trkpt><trkpt lat="45.079921839069414" lon="9.711098694176927"><ele>44.0</ele><time>2026-04-09T09:25:52.938Z</time></trkpt><trkpt lat="45.07984315937869" lon="9.711119406320517"><ele>44.0</ele><time>2026-04-09T09:25:54.938Z</time></trkpt><trkpt lat="45.07976168286407" lon="9.711144727515077"><ele>44.0</ele><time>2026-04-09T09:25:56.938Z</time></trkpt><trkpt lat="45.07968603623334" lon="9.711166031551766"><ele>44.0</ele><time>2026-04-09T09:25:58.938Z</time></trkpt><trkpt lat="45.07961075708754" lon="9.711187390517642"><ele>43.85714285714286</ele><time>2026-04-09T09:26:00.938Z</time></trkpt><trkpt lat="45.07954157504747" lon="9.711212297911032"><ele>43.714285714285715</ele><time>2026-04-09T09:26:02.938Z</time></trkpt><trkpt lat="45.079471805724076" lon="9.711245338582945"><ele>43.57142857142857</ele><time>2026-04-09T09:26:04.938Z</time></trkpt><trkpt lat="45.07940895841497" lon="9.711289479293775"><ele>43.42857142857143</ele><time>2026-04-09T09:26:06.938Z</time></trkpt><trkpt lat="45.07935251080812" lon="9.711342386024096"><ele>43.285714285714285</ele><time>2026-04-09T09:26:08.938Z</time></trkpt><trkpt lat="45.07930067381646" lon="9.711402709669095"><ele>43.142857142857146</ele><time>2026-04-09T09:26:10.938Z</time></trkpt><trkpt lat="45.079246147136224" lon="9.71145504819314"><ele>43.0</ele><time>2026-04-09T09:26:12.938Z</time></trkpt><trkpt lat="45.07919020675434" lon="9.711512614731276"><ele>43.00000000000001</ele><time>2026-04-09T09:26:14.938Z</time></trkpt><trkpt lat="45.07911616276141" lon="9.711567040133293"><ele>43.0</ele><time>2026-04-09T09:26:16.938Z</time></trkpt><trkpt lat="45.07905168826572" lon="9.711625022921888"><ele>43.0</ele><time>2026-04-09T09:26:18.938Z</time></trkpt><trkpt lat="45.07899963501482" lon="9.711705445560261"><ele>43.0</ele><time>2026-04-09T09:26:20.938Z</time></trkpt><trkpt lat="45.07895291395318" lon="9.711780730531853"><ele>43.0</ele><time>2026-04-09T09:26:22.938Z</time></trkpt><trkpt lat="45.07891330382955" lon="9.711856982211627"><ele>43.00000000000001</ele><time>2026-04-09T09:26:24.938Z</time></trkpt><trkpt lat="45.078873045424494" lon="9.711940806004131"><ele>43.0</ele><time>2026-04-09T09:26:26.938Z</time></trkpt><trkpt lat="45.07882699970257" lon="9.712013720568123"><ele>43.16666666666667</ele><time>2026-04-09T09:26:28.938Z</time></trkpt><trkpt lat="45.078781077532604" lon="9.712083251752272"><ele>43.333333333333336</ele><time>2026-04-09T09:26:30.938Z</time></trkpt><trkpt lat="45.07870466386942" lon="9.712137864064232"><ele>43.5</ele><time>2026-04-09T09:26:33.938Z</time></trkpt><trkpt lat="45.078624649718854" lon="9.712196360412493"><ele>43.666666666666664</ele><time>2026-04-09T09:26:36.937Z</time></trkpt><trkpt lat="45.078567220819096" lon="9.71228880156758"><ele>43.83333333333333</ele><time>2026-04-09T09:26:39.937Z</time></trkpt><trkpt lat="45.078525024931814" lon="9.712363379277887"><ele>44.0</ele><time>2026-04-09T09:26:41.937Z</time></trkpt><trkpt lat="45.078475584253596" lon="9.712432075204852"><ele>44.0</ele><time>2026-04-09T09:26:43.937Z</time></trkpt><trkpt lat="45.07841610148875" lon="9.712538270938778"><ele>44.0</ele><time>2026-04-09T09:26:46.937Z</time></trkpt><trkpt lat="45.0783722186048" lon="9.712623317606194"><ele>44.0</ele><time>2026-04-09T09:26:48.937Z</time></trkpt><trkpt lat="45.07832078714837" lon="9.712700383024927"><ele>44.0</ele><time>2026-04-09T09:26:50.937Z</time></trkpt><trkpt lat="45.078274556447695" lon="9.71276770303915"><ele>44.0</ele><time>2026-04-09T09:26:52.937Z</time></trkpt><trkpt lat="45.07821063569167" lon="9.712814786903083"><ele>44.0</ele><time>2026-04-09T09:26:54.937Z</time></trkpt><trkpt lat="45.07813855167396" lon="9.712858042820734"><ele>43.666666666666664</ele><time>2026-04-09T09:26:56.937Z</time></trkpt><trkpt lat="45.07805632838419" lon="9.712866290463184"><ele>43.33333333333333</ele><time>2026-04-09T09:26:58.937Z</time></trkpt><trkpt lat="45.077979340538306" lon="9.712856809704224"><ele>43.0</ele><time>2026-04-09T09:27:00.937Z</time></trkpt><trkpt lat="45.077905319547355" lon="9.712808067804906"><ele>42.666666666666664</ele><time>2026-04-09T09:27:02.937Z</time></trkpt><trkpt lat="45.07784727657708" lon="9.712725799808549"><ele>42.333333333333336</ele><time>2026-04-09T09:27:04.937Z</time></trkpt><trkpt lat="45.07780377459701" lon="9.712645271184568"><ele>42.0</ele><time>2026-04-09T09:27:06.937Z</time></trkpt><trkpt lat="45.077754429434506" lon="9.712555216880407"><ele>42.0</ele><time>2026-04-09T09:27:08.937Z</time></trkpt><trkpt lat="45.0777095254288" lon="9.7124616271054"><ele>42.0</ele><time>2026-04-09T09:27:10.937Z</time></trkpt><trkpt lat="45.077665963691366" lon="9.712374053883487"><ele>42.0</ele><time>2026-04-09T09:27:12.937Z</time></trkpt><trkpt lat="45.07761446175937" lon="9.712286621788175"><ele>42.0</ele><time>2026-04-09T09:27:14.937Z</time></trkpt><trkpt lat="45.07756680772369" lon="9.712190491287831"><ele>42.0</ele><time>2026-04-09T09:27:16.937Z</time></trkpt><trkpt lat="45.07751254890965" lon="9.712098128501628"><ele>42.0</ele><time>2026-04-09T09:27:18.937Z</time></trkpt><trkpt lat="45.077454963010595" lon="9.71200666480436"><ele>42.5</ele><time>2026-04-09T09:27:20.937Z</time></trkpt><trkpt lat="45.07739463775704" lon="9.711917789744124"><ele>43.0</ele><time>2026-04-09T09:27:22.937Z</time></trkpt><trkpt lat="45.07733411421639" lon="9.711834718200537"><ele>43.5</ele><time>2026-04-09T09:27:24.937Z</time></trkpt><trkpt lat="45.07727672461606" lon="9.711742362499905"><ele>44.0</ele><time>2026-04-09T09:27:26.937Z</time></trkpt><trkpt lat="45.07722384288905" lon="9.711654704022008"><ele>44.5</ele><time>2026-04-09T09:27:28.936Z</time></trkpt><trkpt lat="45.07716219695818" lon="9.711563291742321"><ele>45.0</ele><time>2026-04-09T09:27:30.937Z</time></trkpt><trkpt lat="45.07709758348358" lon="9.711479644111584"><ele>45.333333333333336</ele><time>2026-04-09T09:27:32.937Z</time></trkpt><trkpt lat="45.07704238407124" lon="9.711392154615405"><ele>45.666666666666664</ele><time>2026-04-09T09:27:34.937Z</time></trkpt><trkpt lat="45.07698636578489" lon="9.711307213507192"><ele>46.0</ele><time>2026-04-09T09:27:36.937Z</time></trkpt><trkpt lat="45.07693723588178" lon="9.711222231065333"><ele>46.33333333333333</ele><time>2026-04-09T09:27:38.937Z</time></trkpt><trkpt lat="45.07688526381266" lon="9.711132345811691"><ele>46.666666666666664</ele><time>2026-04-09T09:27:40.936Z</time></trkpt><trkpt lat="45.076824875221725" lon="9.71105995490657"><ele>47.0</ele><time>2026-04-09T09:27:42.936Z</time></trkpt><trkpt lat="45.07677280222623" lon="9.71097716683485"><ele>47.0</ele><time>2026-04-09T09:27:44.936Z</time></trkpt><trkpt lat="45.07671741122311" lon="9.710889289906472"><ele>47.0</ele><time>2026-04-09T09:27:46.936Z</time></trkpt><trkpt lat="45.076654360482884" lon="9.71082555796145"><ele>47.0</ele><time>2026-04-09T09:27:48.936Z</time></trkpt><trkpt lat="45.07658371479052" lon="9.710776597753984"><ele>47.0</ele><time>2026-04-09T09:27:50.936Z</time></trkpt><trkpt lat="45.07651850319527" lon="9.71072603387564"><ele>47.0</ele><time>2026-04-09T09:27:52.936Z</time></trkpt><trkpt lat="45.07645121177106" lon="9.710667600797857"><ele>47.0</ele><time>2026-04-09T09:27:54.936Z</time></trkpt><trkpt lat="45.0763860993853" lon="9.710598205193206"><ele>46.857142857142854</ele><time>2026-04-09T09:27:56.936Z</time></trkpt><trkpt lat="45.0763261552936" lon="9.710545275211809"><ele>46.71428571428571</ele><time>2026-04-09T09:27:58.936Z</time></trkpt><trkpt lat="45.07626177243432" lon="9.710494475825508"><ele>46.57142857142857</ele><time>2026-04-09T09:28:00.936Z</time></trkpt><trkpt lat="45.07620934294895" lon="9.710437813921772"><ele>46.42857142857143</ele><time>2026-04-09T09:28:02.936Z</time></trkpt><trkpt lat="45.07615523138668" lon="9.710388865311876"><ele>46.285714285714285</ele><time>2026-04-09T09:28:04.936Z</time></trkpt><trkpt lat="45.07609722398676" lon="9.71033518143052"><ele>46.142857142857146</ele><time>2026-04-09T09:28:06.936Z</time></trkpt><trkpt lat="45.07602940247086" lon="9.710279079718866"><ele>46.0</ele><time>2026-04-09T09:28:08.936Z</time></trkpt><trkpt lat="45.075957555941784" lon="9.710220601828947"><ele>45.85714285714286</ele><time>2026-04-09T09:28:10.936Z</time></trkpt><trkpt lat="45.07589073047702" lon="9.710171090294578"><ele>45.71428571428571</ele><time>2026-04-09T09:28:12.936Z</time></trkpt><trkpt lat="45.07583010855554" lon="9.710122443399392"><ele>45.57142857142857</ele><time>2026-04-09T09:28:14.936Z</time></trkpt><trkpt lat="45.075764415645004" lon="9.710067317673552"><ele>45.42857142857143</ele><time>2026-04-09T09:28:16.936Z</time></trkpt><trkpt lat="45.07569811573688" lon="9.710012504529129"><ele>45.28571428571429</ele><time>2026-04-09T09:28:18.936Z</time></trkpt><trkpt lat="45.075637710382836" lon="9.70996222818967"><ele>45.14285714285714</ele><time>2026-04-09T09:28:20.936Z</time></trkpt><trkpt lat="45.075578663684" lon="9.70991930034155"><ele>45.0</ele><time>2026-04-09T09:28:22.936Z</time></trkpt><trkpt lat="45.07551342909912" lon="9.709871317403252"><ele>44.857142857142854</ele><time>2026-04-09T09:28:24.936Z</time></trkpt><trkpt lat="45.07544900198134" lon="9.709831538391"><ele>44.714285714285715</ele><time>2026-04-09T09:28:26.936Z</time></trkpt><trkpt lat="45.07538120301659" lon="9.709775206965872"><ele>44.57142857142857</ele><time>2026-04-09T09:28:28.936Z</time></trkpt><trkpt lat="45.0753122449173" lon="9.709742242453604"><ele>44.42857142857143</ele><time>2026-04-09T09:28:30.936Z</time></trkpt><trkpt lat="45.07524916915392" lon="9.709692276527528"><ele>44.285714285714285</ele><time>2026-04-09T09:28:32.936Z</time></trkpt><trkpt lat="45.07517938315587" lon="9.70964695601445"><ele>44.142857142857146</ele><time>2026-04-09T09:28:34.936Z</time></trkpt><trkpt lat="45.075113117317365" lon="9.709598516653"><ele>44.0</ele><time>2026-04-09T09:28:36.936Z</time></trkpt><trkpt lat="45.07504319352149" lon="9.709544717340094"><ele>44.0</ele><time>2026-04-09T09:28:38.936Z</time></trkpt><trkpt lat="45.07497181442219" lon="9.709502228446524"><ele>44.0</ele><time>2026-04-09T09:28:40.936Z</time></trkpt><trkpt lat="45.0749138962297" lon="9.709436837642242"><ele>44.0</ele><time>2026-04-09T09:28:42.936Z</time></trkpt><trkpt lat="45.074851245255104" lon="9.70937363108471"><ele>44.0</ele><time>2026-04-09T09:28:44.936Z</time></trkpt><trkpt lat="45.07478780654291" lon="9.709315042425796"><ele>44.0</ele><time>2026-04-09T09:28:46.936Z</time></trkpt><trkpt lat="45.07472438139152" lon="9.709253807947043"><ele>44.0</ele><time>2026-04-09T09:28:48.936Z</time></trkpt><trkpt lat="45.0746627953347" lon="9.709194455390653"><ele>44.166666666666664</ele><time>2026-04-09T09:28:50.936Z</time></trkpt><trkpt lat="45.07459772786423" lon="9.709132366158924"><ele>44.33333333333333</ele><time>2026-04-09T09:28:52.936Z</time></trkpt><trkpt lat="45.07453944133139" lon="9.709083854988968"><ele>44.5</ele><time>2026-04-09T09:28:54.936Z</time></trkpt><trkpt lat="45.07446484445609" lon="9.709012684485563"><ele>44.666666666666664</ele><time>2026-04-09T09:28:57.936Z</time></trkpt><trkpt lat="45.074414799559385" lon="9.708948662669354"><ele>44.833333333333336</ele><time>2026-04-09T09:29:00.936Z</time></trkpt><trkpt lat="45.07438446028657" lon="9.708856621705213"><ele>45.0</ele><time>2026-04-09T09:29:03.936Z</time></trkpt><trkpt lat="45.07432047388216" lon="9.708923999805991"><ele>45.0</ele><time>2026-04-09T09:29:06.936Z</time></trkpt><trkpt lat="45.07428514669762" lon="9.709007049132229"><ele>45.0</ele><time>2026-04-09T09:29:08.936Z</time></trkpt><trkpt lat="45.074244186338596" lon="9.70909076799887"><ele>45.0</ele><time>2026-04-09T09:29:10.936Z</time></trkpt><trkpt lat="45.07420566511674" lon="9.709183925377928"><ele>45.0</ele><time>2026-04-09T09:29:12.936Z</time></trkpt><trkpt lat="45.0741707778962" lon="9.70926976147744"><ele>45.0</ele><time>2026-04-09T09:29:14.936Z</time></trkpt><trkpt lat="45.07412783238999" lon="9.709349745027817"><ele>45.0</ele><time>2026-04-09T09:29:16.936Z</time></trkpt><trkpt lat="45.0740874691647" lon="9.709432031002157"><ele>45.0</ele><time>2026-04-09T09:29:18.936Z</time></trkpt><trkpt lat="45.07404504965351" lon="9.709539113365494"><ele>45.666666666666664</ele><time>2026-04-09T09:29:20.936Z</time></trkpt><trkpt lat="45.07400128662101" lon="9.709633079037634"><ele>46.33333333333333</ele><time>2026-04-09T09:29:22.936Z</time></trkpt><trkpt lat="45.07395922715624" lon="9.709728899293"><ele>47.0</ele><time>2026-04-09T09:29:24.935Z</time></trkpt><trkpt lat="45.07391213063374" lon="9.709830988004114"><ele>47.666666666666664</ele><time>2026-04-09T09:29:26.935Z</time></trkpt><trkpt lat="45.07387414339715" lon="9.709918783459717"><ele>48.33333333333333</ele><time>2026-04-09T09:29:28.935Z</time></trkpt><trkpt lat="45.073827951081576" lon="9.710000342421301"><ele>49.0</ele><time>2026-04-09T09:29:30.936Z</time></trkpt><trkpt lat="45.0737828879607" lon="9.710096321305164"><ele>49.0</ele><time>2026-04-09T09:29:32.935Z</time></trkpt><trkpt lat="45.07374903159633" lon="9.710173182587354"><ele>49.0</ele><time>2026-04-09T09:29:34.935Z</time></trkpt><trkpt lat="45.07369748519427" lon="9.71026040167024"><ele>49.0</ele><time>2026-04-09T09:29:36.935Z</time></trkpt><trkpt lat="45.073660091109055" lon="9.710343417646627"><ele>49.0</ele><time>2026-04-09T09:29:38.935Z</time></trkpt><trkpt lat="45.07362211355" lon="9.710433116392474"><ele>49.0</ele><time>2026-04-09T09:29:40.935Z</time></trkpt><trkpt lat="45.073600014794636" lon="9.71052263867043"><ele>49.0</ele><time>2026-04-09T09:29:42.935Z</time></trkpt><trkpt lat="45.07356797734461" lon="9.710607542297508"><ele>49.0</ele><time>2026-04-09T09:29:44.935Z</time></trkpt><trkpt lat="45.073531327553255" lon="9.710711530719912"><ele>48.714285714285715</ele><time>2026-04-09T09:29:47.935Z</time></trkpt><trkpt lat="45.07349902643173" lon="9.710803622397368"><ele>48.42857142857143</ele><time>2026-04-09T09:29:50.935Z</time></trkpt><trkpt lat="45.07345921600232" lon="9.710874122588692"><ele>48.14285714285714</ele><time>2026-04-09T09:29:53.935Z</time></trkpt><trkpt lat="45.07341898627405" lon="9.710986728628786"><ele>47.85714285714286</ele><time>2026-04-09T09:29:56.935Z</time></trkpt><trkpt lat="45.073375718919216" lon="9.711073304993718"><ele>47.57142857142857</ele><time>2026-04-09T09:29:59.935Z</time></trkpt><trkpt lat="45.073344137254296" lon="9.711156225731123"><ele>47.285714285714285</ele><time>2026-04-09T09:30:01.935Z</time></trkpt><trkpt lat="45.07331775504884" lon="9.711254918434214"><ele>47.0</ele><time>2026-04-09T09:30:03.935Z</time></trkpt><trkpt lat="45.07327800379302" lon="9.71136744242717"><ele>46.83333333333333</ele><time>2026-04-09T09:30:05.935Z</time></trkpt><trkpt lat="45.07323650782723" lon="9.711465605049186"><ele>46.666666666666664</ele><time>2026-04-09T09:30:07.935Z</time></trkpt><trkpt lat="45.07319744576759" lon="9.711574484307539"><ele>46.5</ele><time>2026-04-09T09:30:09.935Z</time></trkpt><trkpt lat="45.07315346525929" lon="9.711685906213471"><ele>46.333333333333336</ele><time>2026-04-09T09:30:11.935Z</time></trkpt><trkpt lat="45.073100906809586" lon="9.711789822177778"><ele>46.16666666666667</ele><time>2026-04-09T09:30:13.935Z</time></trkpt><trkpt lat="45.073057020033175" lon="9.711894622583037"><ele>46.0</ele><time>2026-04-09T09:30:15.935Z</time></trkpt><trkpt lat="45.07300452560036" lon="9.711993509035517"><ele>46.333333333333336</ele><time>2026-04-09T09:30:17.935Z</time></trkpt><trkpt lat="45.072959326181504" lon="9.712085202884737"><ele>46.66666666666667</ele><time>2026-04-09T09:30:19.935Z</time></trkpt><trkpt lat="45.07290927456795" lon="9.712185570985243"><ele>47.0</ele><time>2026-04-09T09:30:21.935Z</time></trkpt><trkpt lat="45.07286134599324" lon="9.71228386669201"><ele>47.333333333333336</ele><time>2026-04-09T09:30:23.935Z</time></trkpt><trkpt lat="45.07282026851023" lon="9.712380316569744"><ele>47.666666666666664</ele><time>2026-04-09T09:30:25.935Z</time></trkpt><trkpt lat="45.07277469324376" lon="9.712468953977934"><ele>48.0</ele><time>2026-04-09T09:30:27.935Z</time></trkpt><trkpt lat="45.072729179090686" lon="9.712551532766838"><ele>48.0</ele><time>2026-04-09T09:30:29.935Z</time></trkpt><trkpt lat="45.07268294810431" lon="9.712637204581242"><ele>48.0</ele><time>2026-04-09T09:30:31.935Z</time></trkpt><trkpt lat="45.07263866880418" lon="9.71272702750404"><ele>48.0</ele><time>2026-04-09T09:30:33.935Z</time></trkpt><trkpt lat="45.07258861966556" lon="9.712808181099295"><ele>48.0</ele><time>2026-04-09T09:30:35.935Z</time></trkpt><trkpt lat="45.072528556740025" lon="9.71287110629774"><ele>48.0</ele><time>2026-04-09T09:30:37.935Z</time></trkpt><trkpt lat="45.07246967717435" lon="9.712936646155068"><ele>48.0</ele><time>2026-04-09T09:30:39.935Z</time></trkpt><trkpt lat="45.0724011404289" lon="9.713001840695865"><ele>48.166666666666664</ele><time>2026-04-09T09:30:41.935Z</time></trkpt><trkpt lat="45.07232868155446" lon="9.713058015322588"><ele>48.33333333333333</ele><time>2026-04-09T09:30:43.935Z</time></trkpt><trkpt lat="45.07224779696923" lon="9.713119760538508"><ele>48.5</ele><time>2026-04-09T09:30:45.935Z</time></trkpt><trkpt lat="45.072181360242375" lon="9.713178735066496"><ele>48.666666666666664</ele><time>2026-04-09T09:30:47.935Z</time></trkpt><trkpt lat="45.07209959077841" lon="9.71323279802694"><ele>48.83333333333333</ele><time>2026-04-09T09:30:49.935Z</time></trkpt><trkpt lat="45.072017519225334" lon="9.713271970355125"><ele>49.0</ele><time>2026-04-09T09:30:51.935Z</time></trkpt><trkpt lat="45.07193661097512" lon="9.713308168462538"><ele>48.99999999999999</ele><time>2026-04-09T09:30:53.935Z</time></trkpt><trkpt lat="45.07185102398771" lon="9.713330610304665"><ele>49.0</ele><time>2026-04-09T09:30:55.935Z</time></trkpt><trkpt lat="45.071768624015114" lon="9.713333767175182"><ele>49.0</ele><time>2026-04-09T09:30:57.935Z</time></trkpt><trkpt lat="45.07169034138221" lon="9.713320746021779"><ele>49.0</ele><time>2026-04-09T09:30:59.935Z</time></trkpt><trkpt lat="45.07160760606058" lon="9.713288623552558"><ele>48.99999999999999</ele><time>2026-04-09T09:31:01.935Z</time></trkpt><trkpt lat="45.071521882452785" lon="9.713246462676173"><ele>49.0</ele><time>2026-04-09T09:31:03.935Z</time></trkpt><trkpt lat="45.07144211899135" lon="9.713200372640122"><ele>48.99999999999999</ele><time>2026-04-09T09:31:05.935Z</time></trkpt><trkpt lat="45.07136963437766" lon="9.713135106603907"><ele>49.0</ele><time>2026-04-09T09:31:07.935Z</time></trkpt><trkpt lat="45.07130384111719" lon="9.713058481333777"><ele>49.0</ele><time>2026-04-09T09:31:09.935Z</time></trkpt><trkpt lat="45.071233183331955" lon="9.712991455923198"><ele>49.0</ele><time>2026-04-09T09:31:11.935Z</time></trkpt><trkpt lat="45.07117260893966" lon="9.712898805565832"><ele>48.99999999999999</ele><time>2026-04-09T09:31:13.934Z</time></trkpt><trkpt lat="45.071108630859406" lon="9.712822653217032"><ele>49.0</ele><time>2026-04-09T09:31:15.934Z</time></trkpt><trkpt lat="45.0710371933631" lon="9.712761833128797"><ele>49.0</ele><time>2026-04-09T09:31:17.934Z</time></trkpt><trkpt lat="45.07094516308866" lon="9.712748623998317"><ele>49.0</ele><time>2026-04-09T09:31:19.934Z</time></trkpt><trkpt lat="45.07085408932843" lon="9.712756761825052"><ele>49.0</ele><time>2026-04-09T09:31:21.934Z</time></trkpt><trkpt lat="45.07078083923567" lon="9.712679254902428"><ele>49.0</ele><time>2026-04-09T09:31:23.934Z</time></trkpt><trkpt lat="45.0707288726463" lon="9.71257392609008"><ele>49.0</ele><time>2026-04-09T09:31:25.934Z</time></trkpt><trkpt lat="45.07066006579456" lon="9.712504743465127"><ele>49.0</ele><time>2026-04-09T09:31:27.934Z</time></trkpt><trkpt lat="45.07057639659415" lon="9.712461132089759"><ele>49.0</ele><time>2026-04-09T09:31:29.934Z</time></trkpt><trkpt lat="45.07049022214577" lon="9.712425884948244"><ele>49.0</ele><time>2026-04-09T09:31:31.934Z</time></trkpt><trkpt lat="45.07040679905301" lon="9.712376486562198"><ele>49.0</ele><time>2026-04-09T09:31:33.934Z</time></trkpt><trkpt lat="45.07032823553592" lon="9.712301164402662"><ele>49.0</ele><time>2026-04-09T09:31:35.934Z</time></trkpt><trkpt lat="45.0702588035572" lon="9.712221480806038"><ele>48.99999999999999</ele><time>2026-04-09T09:31:37.933Z</time></trkpt><trkpt lat="45.07019800846836" lon="9.71213175465822"><ele>49.0</ele><time>2026-04-09T09:31:39.934Z</time></trkpt><trkpt lat="45.07014380431637" lon="9.712041303386268"><ele>49.0</ele><time>2026-04-09T09:31:41.933Z</time></trkpt><trkpt lat="45.070094970592635" lon="9.711927700074947"><ele>49.0</ele><time>2026-04-09T09:31:43.933Z</time></trkpt><trkpt lat="45.070058023836864" lon="9.711814076960682"><ele>48.99999999999999</ele><time>2026-04-09T09:31:45.933Z</time></trkpt><trkpt lat="45.07003569056729" lon="9.71169647303157"><ele>49.0</ele><time>2026-04-09T09:31:47.933Z</time></trkpt><trkpt lat="45.070017431691305" lon="9.711592133721869"><ele>48.49999999999999</ele><time>2026-04-09T09:31:49.933Z</time></trkpt><trkpt lat="45.07000830778836" lon="9.711479554122313"><ele>48.0</ele><time>2026-04-09T09:31:51.933Z</time></trkpt><trkpt lat="45.070007178492205" lon="9.711361299796708"><ele>47.5</ele><time>2026-04-09T09:31:53.933Z</time></trkpt><trkpt lat="45.070016757508164" lon="9.711255358093435"><ele>47.0</ele><time>2026-04-09T09:31:55.933Z</time></trkpt><trkpt lat="45.07003291758285" lon="9.711157300176046"><ele>46.5</ele><time>2026-04-09T09:31:57.933Z</time></trkpt><trkpt lat="45.07004550321827" lon="9.711051800162588"><ele>46.0</ele><time>2026-04-09T09:31:59.933Z</time></trkpt><trkpt lat="45.07002772776221" lon="9.710945593260028"><ele>46.0</ele><time>2026-04-09T09:32:01.933Z</time></trkpt><trkpt lat="45.0699756985856" lon="9.710886428775186"><ele>46.0</ele><time>2026-04-09T09:32:03.933Z</time></trkpt><trkpt lat="45.06988937059937" lon="9.710852333911783"><ele>46.0</ele><time>2026-04-09T09:32:06.933Z</time></trkpt><trkpt lat="45.069822942495364" lon="9.710878787163903"><ele>46.0</ele><time>2026-04-09T09:32:08.933Z</time></trkpt><trkpt lat="45.069762718439904" lon="9.710912457137153"><ele>46.0</ele><time>2026-04-09T09:32:10.933Z</time></trkpt><trkpt lat="45.0696989559982" lon="9.710923382339752"><ele>46.0</ele><time>2026-04-09T09:32:12.933Z</time></trkpt><trkpt lat="45.06960922204109" lon="9.710891175588282"><ele>46.0</ele><time>2026-04-09T09:32:15.933Z</time></trkpt><trkpt lat="45.069531512039816" lon="9.710874983187393"><ele>46.66666666666667</ele><time>2026-04-09T09:32:18.933Z</time></trkpt><trkpt lat="45.069447072173055" lon="9.710905363392845"><ele>47.333333333333336</ele><time>2026-04-09T09:32:21.933Z</time></trkpt><trkpt lat="45.06936294965242" lon="9.710880217592473"><ele>48.0</ele><time>2026-04-09T09:32:25.933Z</time></trkpt><trkpt lat="45.06930332762486" lon="9.710793240532688"><ele>48.66666666666667</ele><time>2026-04-09T09:32:28.933Z</time></trkpt><trkpt lat="45.06925595440858" lon="9.71072852997549"><ele>49.333333333333336</ele><time>2026-04-09T09:32:30.933Z</time></trkpt><trkpt lat="45.06920672093694" lon="9.710670884580017"><ele>50.0</ele><time>2026-04-09T09:32:32.933Z</time></trkpt><trkpt lat="45.06914811711917" lon="9.710598225072726"><ele>50.00000000000001</ele><time>2026-04-09T09:32:35.933Z</time></trkpt><trkpt lat="45.0690774924312" lon="9.710525045042372"><ele>50.0</ele><time>2026-04-09T09:32:38.933Z</time></trkpt><trkpt lat="45.069029743874985" lon="9.710465295140057"><ele>50.0</ele><time>2026-04-09T09:32:40.933Z</time></trkpt><trkpt lat="45.06896515968851" lon="9.710365690198193"><ele>50.0</ele><time>2026-04-09T09:32:43.933Z</time></trkpt><trkpt lat="45.06891332845289" lon="9.71029542210231"><ele>50.00000000000001</ele><time>2026-04-09T09:32:45.933Z</time></trkpt><trkpt lat="45.06885634764455" lon="9.710229033748847"><ele>50.0</ele><time>2026-04-09T09:32:47.933Z</time></trkpt><trkpt lat="45.06879926269568" lon="9.710156955969653"><ele>50.28571428571429</ele><time>2026-04-09T09:32:49.933Z</time></trkpt><trkpt lat="45.06874418898843" lon="9.710084763177367"><ele>50.57142857142857</ele><time>2026-04-09T09:32:51.933Z</time></trkpt><trkpt lat="45.06869498064125" lon="9.710008443391244"><ele>50.85714285714286</ele><time>2026-04-09T09:32:53.933Z</time></trkpt><trkpt lat="45.06865741013449" lon="9.709919459409017"><ele>51.142857142857146</ele><time>2026-04-09T09:32:55.933Z</time></trkpt><trkpt lat="45.0686160835609" lon="9.709842097395697"><ele>51.42857142857143</ele><time>2026-04-09T09:32:57.933Z</time></trkpt><trkpt lat="45.06858926738136" lon="9.709760108254208"><ele>51.714285714285715</ele><time>2026-04-09T09:32:59.933Z</time></trkpt><trkpt lat="45.0685599388014" lon="9.70966112254897"><ele>52.0</ele><time>2026-04-09T09:33:01.933Z</time></trkpt><trkpt lat="45.068526026006076" lon="9.709554013982507"><ele>51.99999999999999</ele><time>2026-04-09T09:33:03.933Z</time></trkpt><trkpt lat="45.06850074645436" lon="9.709451760703692"><ele>52.0</ele><time>2026-04-09T09:33:05.933Z</time></trkpt><trkpt lat="45.06847806485652" lon="9.709340931570836"><ele>52.0</ele><time>2026-04-09T09:33:07.933Z</time></trkpt><trkpt lat="45.06845100656302" lon="9.709239055846856"><ele>52.0</ele><time>2026-04-09T09:33:09.933Z</time></trkpt><trkpt lat="45.068426226988024" lon="9.709131406147815"><ele>51.99999999999999</ele><time>2026-04-09T09:33:11.933Z</time></trkpt><trkpt lat="45.06839005507949" lon="9.709040329931039"><ele>52.0</ele><time>2026-04-09T09:33:13.933Z</time></trkpt><trkpt lat="45.06832914010044" lon="9.708987297444828"><ele>52.0</ele><time>2026-04-09T09:33:15.933Z</time></trkpt><trkpt lat="45.068272048401724" lon="9.708919745878502"><ele>52.0</ele><time>2026-04-09T09:33:17.933Z</time></trkpt><trkpt lat="45.06820266754307" lon="9.708870515794153"><ele>52.0</ele><time>2026-04-09T09:33:19.933Z</time></trkpt><trkpt lat="45.06813989434387" lon="9.708821877001794"><ele>52.0</ele><time>2026-04-09T09:33:21.933Z</time></trkpt><trkpt lat="45.06807695809504" lon="9.708764000223217"><ele>52.0</ele><time>2026-04-09T09:33:23.933Z</time></trkpt><trkpt lat="45.06801001250628" lon="9.708725560425874"><ele>52.0</ele><time>2026-04-09T09:33:25.933Z</time></trkpt><trkpt lat="45.0679410780583" lon="9.708682657143116"><ele>52.0</ele><time>2026-04-09T09:33:27.933Z</time></trkpt><trkpt lat="45.067873244710185" lon="9.708635480079215"><ele>51.99999999999999</ele><time>2026-04-09T09:33:29.932Z</time></trkpt><trkpt lat="45.06781409263321" lon="9.708581696772502"><ele>52.0</ele><time>2026-04-09T09:33:31.932Z</time></trkpt><trkpt lat="45.067747365605804" lon="9.708521944948618"><ele>52.0</ele><time>2026-04-09T09:33:33.932Z</time></trkpt><trkpt lat="45.06768004954114" lon="9.708471892519253"><ele>52.0</ele><time>2026-04-09T09:33:35.932Z</time></trkpt><trkpt lat="45.06761686980553" lon="9.70841653597377"><ele>51.99999999999999</ele><time>2026-04-09T09:33:37.932Z</time></trkpt><trkpt lat="45.06755242094781" lon="9.708356518868001"><ele>52.0</ele><time>2026-04-09T09:33:39.933Z</time></trkpt><trkpt lat="45.06749032016971" lon="9.708291564403883"><ele>51.33333333333333</ele><time>2026-04-09T09:33:41.933Z</time></trkpt><trkpt lat="45.067420541590124" lon="9.708227965991682"><ele>50.666666666666664</ele><time>2026-04-09T09:33:43.933Z</time></trkpt><trkpt lat="45.06734706456059" lon="9.708178817583796"><ele>50.0</ele><time>2026-04-09T09:33:45.932Z</time></trkpt><trkpt lat="45.067274605217406" lon="9.70813032868687"><ele>49.33333333333333</ele><time>2026-04-09T09:33:47.932Z</time></trkpt><trkpt lat="45.06720169359514" lon="9.708071934960826"><ele>48.666666666666664</ele><time>2026-04-09T09:33:49.932Z</time></trkpt><trkpt lat="45.06712438162781" lon="9.708014746774841"><ele>48.0</ele><time>2026-04-09T09:33:51.932Z</time></trkpt><trkpt lat="45.06704952181506" lon="9.707964841229177"><ele>48.0</ele><time>2026-04-09T09:33:53.932Z</time></trkpt><trkpt lat="45.066974315312926" lon="9.70790479077059"><ele>48.0</ele><time>2026-04-09T09:33:55.932Z</time></trkpt><trkpt lat="45.066894061402785" lon="9.707853472726718"><ele>48.0</ele><time>2026-04-09T09:33:57.932Z</time></trkpt><trkpt lat="45.06682071337336" lon="9.707798398054363"><ele>48.0</ele><time>2026-04-09T09:33:59.932Z</time></trkpt><trkpt lat="45.06675027153186" lon="9.707739662770791"><ele>48.0</ele><time>2026-04-09T09:34:01.932Z</time></trkpt><trkpt lat="45.06667808812648" lon="9.707689261956613"><ele>48.0</ele><time>2026-04-09T09:34:03.932Z</time></trkpt><trkpt lat="45.06660578097223" lon="9.707647303096852"><ele>47.666666666666664</ele><time>2026-04-09T09:34:05.932Z</time></trkpt><trkpt lat="45.06653578306888" lon="9.707586037473348"><ele>47.333333333333336</ele><time>2026-04-09T09:34:07.932Z</time></trkpt><trkpt lat="45.06646111680706" lon="9.70754313318881"><ele>47.0</ele><time>2026-04-09T09:34:09.932Z</time></trkpt><trkpt lat="45.06638624642546" lon="9.707482925889352"><ele>46.66666666666667</ele><time>2026-04-09T09:34:11.932Z</time></trkpt><trkpt lat="45.06631789009998" lon="9.707434141057357"><ele>46.333333333333336</ele><time>2026-04-09T09:34:13.932Z</time></trkpt><trkpt lat="45.06625459880229" lon="9.707380711028454"><ele>46.0</ele><time>2026-04-09T09:34:15.932Z</time></trkpt><trkpt lat="45.06618238992152" lon="9.707328766281698"><ele>46.0</ele><time>2026-04-09T09:34:17.932Z</time></trkpt><trkpt lat="45.06611505506177" lon="9.707280960882324"><ele>46.0</ele><time>2026-04-09T09:34:19.932Z</time></trkpt><trkpt lat="45.06605437803297" lon="9.70723580069059"><ele>46.0</ele><time>2026-04-09T09:34:21.932Z</time></trkpt><trkpt lat="45.06598687355131" lon="9.707191973256315"><ele>46.0</ele><time>2026-04-09T09:34:23.932Z</time></trkpt><trkpt lat="45.06592565253817" lon="9.707141107273381"><ele>46.0</ele><time>2026-04-09T09:34:25.932Z</time></trkpt><trkpt lat="45.06585897366513" lon="9.707092475230569"><ele>46.0</ele><time>2026-04-09T09:34:27.932Z</time></trkpt><trkpt lat="45.06579359439907" lon="9.707052025688355"><ele>46.0</ele><time>2026-04-09T09:34:29.932Z</time></trkpt><trkpt lat="45.065732518795244" lon="9.7070085348249"><ele>46.0</ele><time>2026-04-09T09:34:31.932Z</time></trkpt><trkpt lat="45.06566658969466" lon="9.706955698925498"><ele>46.0</ele><time>2026-04-09T09:34:33.932Z</time></trkpt><trkpt lat="45.065595539551495" lon="9.70690653163057"><ele>46.0</ele><time>2026-04-09T09:34:35.932Z</time></trkpt><trkpt lat="45.065524515147416" lon="9.706856557508923"><ele>46.0</ele><time>2026-04-09T09:34:37.932Z</time></trkpt><trkpt lat="45.0654572436749" lon="9.706810806343872"><ele>46.0</ele><time>2026-04-09T09:34:39.932Z</time></trkpt><trkpt lat="45.06538252340644" lon="9.706760154210736"><ele>46.0</ele><time>2026-04-09T09:34:41.932Z</time></trkpt><trkpt lat="45.06531478906346" lon="9.706709320216344"><ele>45.833333333333336</ele><time>2026-04-09T09:34:43.932Z</time></trkpt><trkpt lat="45.065247141215714" lon="9.706659836122562"><ele>45.66666666666667</ele><time>2026-04-09T09:34:45.932Z</time></trkpt><trkpt lat="45.065178698502045" lon="9.706613007226204"><ele>45.5</ele><time>2026-04-09T09:34:47.932Z</time></trkpt><trkpt lat="45.065106938830745" lon="9.706556112901078"><ele>45.333333333333336</ele><time>2026-04-09T09:34:49.932Z</time></trkpt><trkpt lat="45.065033010109815" lon="9.706500923834495"><ele>45.166666666666664</ele><time>2026-04-09T09:34:51.932Z</time></trkpt><trkpt lat="45.06495871089543" lon="9.706451274987689"><ele>45.0</ele><time>2026-04-09T09:34:53.932Z</time></trkpt><trkpt lat="45.0648827649762" lon="9.70639276017243"><ele>45.333333333333336</ele><time>2026-04-09T09:34:55.932Z</time></trkpt><trkpt lat="45.064810548064045" lon="9.706342646600254"><ele>45.666666666666664</ele><time>2026-04-09T09:34:57.932Z</time></trkpt><trkpt lat="45.06473516919457" lon="9.706290501506514"><ele>46.0</ele><time>2026-04-09T09:34:59.931Z</time></trkpt><trkpt lat="45.06466387954066" lon="9.706234994210003"><ele>46.33333333333333</ele><time>2026-04-09T09:35:01.931Z</time></trkpt><trkpt lat="45.06459504192295" lon="9.706182736822536"><ele>46.666666666666664</ele><time>2026-04-09T09:35:03.931Z</time></trkpt><trkpt lat="45.06452215683989" lon="9.7061367466775"><ele>47.0</ele><time>2026-04-09T09:35:05.931Z</time></trkpt><trkpt lat="45.06445361590353" lon="9.706090742922779"><ele>46.83333333333333</ele><time>2026-04-09T09:35:07.931Z</time></trkpt><trkpt lat="45.06438593590704" lon="9.706040652709808"><ele>46.666666666666664</ele><time>2026-04-09T09:35:09.931Z</time></trkpt><trkpt lat="45.06431332875843" lon="9.705991537261397"><ele>46.5</ele><time>2026-04-09T09:35:11.931Z</time></trkpt><trkpt lat="45.064246343349076" lon="9.705931121275608"><ele>46.333333333333336</ele><time>2026-04-09T09:35:13.931Z</time></trkpt><trkpt lat="45.06417738166775" lon="9.705882330103165"><ele>46.16666666666667</ele><time>2026-04-09T09:35:15.931Z</time></trkpt><trkpt lat="45.064105320456044" lon="9.705838334734102"><ele>46.0</ele><time>2026-04-09T09:35:17.931Z</time></trkpt><trkpt lat="45.0640356179918" lon="9.705781284375396"><ele>46.0</ele><time>2026-04-09T09:35:19.931Z</time></trkpt><trkpt lat="45.06396625499155" lon="9.705720190725211"><ele>46.0</ele><time>2026-04-09T09:35:21.931Z</time></trkpt><trkpt lat="45.063895777034034" lon="9.705670526130488"><ele>46.0</ele><time>2026-04-09T09:35:23.931Z</time></trkpt><trkpt lat="45.06383164600979" lon="9.705623303762492"><ele>46.0</ele><time>2026-04-09T09:35:25.931Z</time></trkpt><trkpt lat="45.063758653223886" lon="9.705566013441153"><ele>46.0</ele><time>2026-04-09T09:35:27.931Z</time></trkpt><trkpt lat="45.06368909606528" lon="9.705515653270071"><ele>46.0</ele><time>2026-04-09T09:35:29.931Z</time></trkpt><trkpt lat="45.063618681368425" lon="9.70546629249694"><ele>46.0</ele><time>2026-04-09T09:35:31.931Z</time></trkpt><trkpt lat="45.063547331390524" lon="9.705413490861309"><ele>46.0</ele><time>2026-04-09T09:35:33.931Z</time></trkpt><trkpt lat="45.06347731610486" lon="9.70536279989645"><ele>46.0</ele><time>2026-04-09T09:35:35.931Z</time></trkpt><trkpt lat="45.06340880076591" lon="9.70531764090928"><ele>46.0</ele><time>2026-04-09T09:35:37.931Z</time></trkpt><trkpt lat="45.06333245843376" lon="9.70526644209999"><ele>46.0</ele><time>2026-04-09T09:35:39.931Z</time></trkpt><trkpt lat="45.06326056466779" lon="9.705210798428272"><ele>46.0</ele><time>2026-04-09T09:35:41.931Z</time></trkpt><trkpt lat="45.06318945385888" lon="9.705166073561738"><ele>46.66666666666667</ele><time>2026-04-09T09:35:43.93Z</time></trkpt><trkpt lat="45.06311557844443" lon="9.705117300423813"><ele>47.333333333333336</ele><time>2026-04-09T09:35:45.931Z</time></trkpt><trkpt lat="45.06304154205542" lon="9.7050655717513"><ele>48.0</ele><time>2026-04-09T09:35:47.931Z</time></trkpt><trkpt lat="45.062968629986266" lon="9.705014420490935"><ele>48.66666666666667</ele><time>2026-04-09T09:35:49.93Z</time></trkpt><trkpt lat="45.06289513651404" lon="9.704958775479241"><ele>49.333333333333336</ele><time>2026-04-09T09:35:51.931Z</time></trkpt><trkpt lat="45.06281439953949" lon="9.704900976813882"><ele>50.0</ele><time>2026-04-09T09:35:53.931Z</time></trkpt><trkpt lat="45.062734610840685" lon="9.704841573109585"><ele>50.00000000000001</ele><time>2026-04-09T09:35:55.931Z</time></trkpt><trkpt lat="45.0626610875155" lon="9.70479833783501"><ele>50.0</ele><time>2026-04-09T09:35:57.931Z</time></trkpt><trkpt lat="45.062582781358195" lon="9.704747768207879"><ele>50.0</ele><time>2026-04-09T09:35:59.931Z</time></trkpt><trkpt lat="45.06251070672246" lon="9.704688939477835"><ele>50.0</ele><time>2026-04-09T09:36:01.931Z</time></trkpt><trkpt lat="45.06243793022554" lon="9.704633570929444"><ele>50.00000000000001</ele><time>2026-04-09T09:36:03.931Z</time></trkpt><trkpt lat="45.062361870584155" lon="9.70457067735052"><ele>50.0</ele><time>2026-04-09T09:36:05.931Z</time></trkpt><trkpt lat="45.06228465838729" lon="9.704514607579693"><ele>49.50000000000001</ele><time>2026-04-09T09:36:07.931Z</time></trkpt><trkpt lat="45.06220926772936" lon="9.704453413299364"><ele>49.0</ele><time>2026-04-09T09:36:09.931Z</time></trkpt><trkpt lat="45.06212943399319" lon="9.70440448880265"><ele>48.5</ele><time>2026-04-09T09:36:11.931Z</time></trkpt><trkpt lat="45.06204890129564" lon="9.704341941825527"><ele>48.0</ele><time>2026-04-09T09:36:13.931Z</time></trkpt><trkpt lat="45.0619725090012" lon="9.704285410037837"><ele>47.5</ele><time>2026-04-09T09:36:15.931Z</time></trkpt><trkpt lat="45.061894668930314" lon="9.704223607929807"><ele>47.0</ele><time>2026-04-09T09:36:17.931Z</time></trkpt><trkpt lat="45.061812533124616" lon="9.70417018164077"><ele>47.0</ele><time>2026-04-09T09:36:19.931Z</time></trkpt><trkpt lat="45.06173061894346" lon="9.704113549236778"><ele>47.0</ele><time>2026-04-09T09:36:21.931Z</time></trkpt><trkpt lat="45.06165531319178" lon="9.704058799342253"><ele>47.0</ele><time>2026-04-09T09:36:23.931Z</time></trkpt><trkpt lat="45.06157994051887" lon="9.704004931354257"><ele>47.0</ele><time>2026-04-09T09:36:25.931Z</time></trkpt><trkpt lat="45.061502914936604" lon="9.703946711384868"><ele>47.0</ele><time>2026-04-09T09:36:27.931Z</time></trkpt><trkpt lat="45.06142814877542" lon="9.703882799325275"><ele>47.0</ele><time>2026-04-09T09:36:29.931Z</time></trkpt><trkpt lat="45.06135116648667" lon="9.703822465030102"><ele>46.166666666666664</ele><time>2026-04-09T09:36:31.931Z</time></trkpt><trkpt lat="45.06127614112389" lon="9.703766386139677"><ele>45.33333333333333</ele><time>2026-04-09T09:36:33.931Z</time></trkpt><trkpt lat="45.06120325078583" lon="9.703707638467682"><ele>44.5</ele><time>2026-04-09T09:36:35.93Z</time></trkpt><trkpt lat="45.061126306398336" lon="9.703650320313049"><ele>43.666666666666664</ele><time>2026-04-09T09:36:37.93Z</time></trkpt><trkpt lat="45.06105171774482" lon="9.70359442846947"><ele>42.833333333333336</ele><time>2026-04-09T09:36:39.93Z</time></trkpt><trkpt lat="45.06097187648821" lon="9.703531773828416"><ele>42.0</ele><time>2026-04-09T09:36:41.93Z</time></trkpt><trkpt lat="45.06089458317721" lon="9.70347338548061"><ele>41.8</ele><time>2026-04-09T09:36:43.93Z</time></trkpt><trkpt lat="45.06081490657816" lon="9.703419176738493"><ele>41.6</ele><time>2026-04-09T09:36:45.93Z</time></trkpt><trkpt lat="45.06072839847774" lon="9.703367064270438"><ele>41.4</ele><time>2026-04-09T09:36:47.93Z</time></trkpt><trkpt lat="45.06064771468909" lon="9.703307116344966"><ele>41.199999999999996</ele><time>2026-04-09T09:36:49.93Z</time></trkpt><trkpt lat="45.06056787846915" lon="9.703242737462531"><ele>41.0</ele><time>2026-04-09T09:36:51.93Z</time></trkpt><trkpt lat="45.06049078892255" lon="9.703188397753134"><ele>41.0</ele><time>2026-04-09T09:36:53.93Z</time></trkpt><trkpt lat="45.060417498074436" lon="9.703136415367473"><ele>41.0</ele><time>2026-04-09T09:36:55.93Z</time></trkpt><trkpt lat="45.060345098214164" lon="9.703082657753013"><ele>41.0</ele><time>2026-04-09T09:36:57.93Z</time></trkpt><trkpt lat="45.06027226148273" lon="9.703029439042009"><ele>41.0</ele><time>2026-04-09T09:36:59.93Z</time></trkpt><trkpt lat="45.06019791000077" lon="9.702976484794997"><ele>41.0</ele><time>2026-04-09T09:37:01.93Z</time></trkpt><trkpt lat="45.060114624191336" lon="9.702926329597425"><ele>41.0</ele><time>2026-04-09T09:37:03.93Z</time></trkpt><trkpt lat="45.06003086161012" lon="9.702864035121715"><ele>41.0</ele><time>2026-04-09T09:37:05.93Z</time></trkpt><trkpt lat="45.05995147523681" lon="9.70280076040604"><ele>41.0</ele><time>2026-04-09T09:37:07.876Z</time></trkpt><trkpt lat="45.05986984020492" lon="9.702735066286886"><ele>41.0</ele><time>2026-04-09T09:37:09.876Z</time></trkpt><trkpt lat="45.059782845700376" lon="9.702667597534202"><ele>41.0</ele><time>2026-04-09T09:37:11.876Z</time></trkpt><trkpt lat="45.05969793269872" lon="9.70259723846927"><ele>41.0</ele><time>2026-04-09T09:37:13.876Z</time></trkpt><trkpt lat="45.05961716784053" lon="9.70254445708047"><ele>43.0</ele><time>2026-04-09T09:37:15.876Z</time></trkpt><trkpt lat="45.059544106493014" lon="9.702491020010696"><ele>45.0</ele><time>2026-04-09T09:37:17.876Z</time></trkpt><trkpt lat="45.05947566279001" lon="9.70243928750912"><ele>47.0</ele><time>2026-04-09T09:37:19.876Z</time></trkpt><trkpt lat="45.059401723587385" lon="9.702384319340467"><ele>49.0</ele><time>2026-04-09T09:37:21.876Z</time></trkpt><trkpt lat="45.059329403673765" lon="9.70231140752573"><ele>51.00000000000001</ele><time>2026-04-09T09:37:23.876Z</time></trkpt><trkpt lat="45.059259827721135" lon="9.702237889851476"><ele>53.0</ele><time>2026-04-09T09:37:25.876Z</time></trkpt><trkpt lat="45.05919160536819" lon="9.702164756319396"><ele>53.0</ele><time>2026-04-09T09:37:27.876Z</time></trkpt><trkpt lat="45.059118294549364" lon="9.702084454585092"><ele>53.0</ele><time>2026-04-09T09:37:29.876Z</time></trkpt><trkpt lat="45.05904368673776" lon="9.701995179613263"><ele>53.0</ele><time>2026-04-09T09:37:31.876Z</time></trkpt><trkpt lat="45.05896081369704" lon="9.70189964568218"><ele>53.0</ele><time>2026-04-09T09:37:33.876Z</time></trkpt><trkpt lat="45.058889476395926" lon="9.701812740773743"><ele>53.0</ele><time>2026-04-09T09:37:35.876Z</time></trkpt><trkpt lat="45.05881266051116" lon="9.701723975711447"><ele>52.66666666666667</ele><time>2026-04-09T09:37:37.875Z</time></trkpt><trkpt lat="45.05873374707596" lon="9.701633448826795"><ele>52.333333333333336</ele><time>2026-04-09T09:37:39.875Z</time></trkpt><trkpt lat="45.058659221833864" lon="9.701533481881587"><ele>52.0</ele><time>2026-04-09T09:37:41.875Z</time></trkpt><trkpt lat="45.058594675232285" lon="9.701442157779077"><ele>51.66666666666667</ele><time>2026-04-09T09:37:43.875Z</time></trkpt><trkpt lat="45.05854834431933" lon="9.701377875276608"><ele>51.333333333333336</ele><time>2026-04-09T09:37:45.875Z</time></trkpt><trkpt lat="45.058491605702706" lon="9.701334981714973"><ele>51.0</ele><time>2026-04-09T09:37:49.874Z</time></trkpt><trkpt lat="45.058496771433354" lon="9.701428944011829"><ele>51.0</ele><time>2026-04-09T09:37:52.875Z</time></trkpt><trkpt lat="45.058491190043014" lon="9.701556432312957"><ele>51.0</ele><time>2026-04-09T09:37:55.875Z</time></trkpt><trkpt lat="45.058487351565454" lon="9.701667383584669"><ele>51.0</ele><time>2026-04-09T09:37:57.875Z</time></trkpt><trkpt lat="45.05853428620844" lon="9.70175119790243"><ele>51.0</ele><time>2026-04-09T09:37:59.875Z</time></trkpt><trkpt lat="45.05859722580746" lon="9.701820601777056"><ele>51.0</ele><time>2026-04-09T09:38:01.874Z</time></trkpt><trkpt lat="45.05866855966844" lon="9.70186323610272"><ele>51.0</ele><time>2026-04-09T09:38:03.874Z</time></trkpt><trkpt lat="45.0587491866555" lon="9.701949533429017"><ele>51.166666666666664</ele><time>2026-04-09T09:38:06.874Z</time></trkpt><trkpt lat="45.058818588862934" lon="9.702029168043671"><ele>51.33333333333333</ele><time>2026-04-09T09:38:08.874Z</time></trkpt><trkpt lat="45.058884436758525" lon="9.702089480302712"><ele>51.5</ele><time>2026-04-09T09:38:10.874Z</time></trkpt><trkpt lat="45.05895349177759" lon="9.702145096265651"><ele>51.666666666666664</ele><time>2026-04-09T09:38:12.874Z</time></trkpt><trkpt lat="45.0590189842178" lon="9.702225347948016"><ele>51.83333333333333</ele><time>2026-04-09T09:38:14.874Z</time></trkpt><trkpt lat="45.05908761691698" lon="9.70231361978229"><ele>52.0</ele><time>2026-04-09T09:38:16.874Z</time></trkpt><trkpt lat="45.05914063740337" lon="9.702381331042911"><ele>52.166666666666664</ele><time>2026-04-09T09:38:18.874Z</time></trkpt><trkpt lat="45.05920475027421" lon="9.702409320321655"><ele>52.33333333333333</ele><time>2026-04-09T09:38:21.874Z</time></trkpt><trkpt lat="45.05925647911955" lon="9.702330096532389"><ele>52.5</ele><time>2026-04-09T09:38:23.873Z</time></trkpt><trkpt lat="45.05928758286494" lon="9.702215867745005"><ele>52.66666666666667</ele><time>2026-04-09T09:38:25.873Z</time></trkpt><trkpt lat="45.05932157569769" lon="9.702099957963089"><ele>52.833333333333336</ele><time>2026-04-09T09:38:27.873Z</time></trkpt><trkpt lat="45.059357234744205" lon="9.70198260536668"><ele>53.0</ele><time>2026-04-09T09:38:29.873Z</time></trkpt><trkpt lat="45.05938838877618" lon="9.701873668179882"><ele>53.16666666666667</ele><time>2026-04-09T09:38:31.873Z</time></trkpt><trkpt lat="45.0594146015422" lon="9.70176999074504"><ele>53.333333333333336</ele><time>2026-04-09T09:38:33.873Z</time></trkpt><trkpt lat="45.05944337656992" lon="9.70166605872145"><ele>53.5</ele><time>2026-04-09T09:38:35.873Z</time></trkpt><trkpt lat="45.05947670558927" lon="9.701568712216222"><ele>53.66666666666667</ele><time>2026-04-09T09:38:37.873Z</time></trkpt><trkpt lat="45.059501202825764" lon="9.701469169696988"><ele>53.833333333333336</ele><time>2026-04-09T09:38:39.873Z</time></trkpt><trkpt lat="45.05954289867609" lon="9.701366859491467"><ele>54.0</ele><time>2026-04-09T09:38:41.873Z</time></trkpt><trkpt lat="45.05957222843463" lon="9.701263695523366"><ele>54.0</ele><time>2026-04-09T09:38:43.873Z</time></trkpt><trkpt lat="45.0596047317239" lon="9.701147541799198"><ele>54.00000000000001</ele><time>2026-04-09T09:38:45.873Z</time></trkpt><trkpt lat="45.05964206369061" lon="9.701028402082668"><ele>54.00000000000001</ele><time>2026-04-09T09:38:47.873Z</time></trkpt><trkpt lat="45.05968650627296" lon="9.700899619781952"><ele>54.0</ele><time>2026-04-09T09:38:49.873Z</time></trkpt><trkpt lat="45.059728234287" lon="9.700784020130524"><ele>54.0</ele><time>2026-04-09T09:38:51.873Z</time></trkpt><trkpt lat="45.059776188230984" lon="9.70067045532211"><ele>53.5</ele><time>2026-04-09T09:38:53.873Z</time></trkpt><trkpt lat="45.05982404317857" lon="9.700562019027753"><ele>53.0</ele><time>2026-04-09T09:38:55.873Z</time></trkpt><trkpt lat="45.059870419294896" lon="9.70045343913204"><ele>52.5</ele><time>2026-04-09T09:38:57.873Z</time></trkpt><trkpt lat="45.05992262670858" lon="9.700358624036731"><ele>52.0</ele><time>2026-04-09T09:38:59.873Z</time></trkpt><trkpt lat="45.059971688202815" lon="9.700252858674821"><ele>51.5</ele><time>2026-04-09T09:39:01.873Z</time></trkpt><trkpt lat="45.060023210453885" lon="9.700153229350175"><ele>51.0</ele><time>2026-04-09T09:39:03.873Z</time></trkpt><trkpt lat="45.06007517069104" lon="9.700047137375428"><ele>50.666666666666664</ele><time>2026-04-09T09:39:05.873Z</time></trkpt><trkpt lat="45.06011586389658" lon="9.699953918300041"><ele>50.33333333333333</ele><time>2026-04-09T09:39:08.873Z</time></trkpt><trkpt lat="45.06017220572281" lon="9.69986067806058"><ele>50.0</ele><time>2026-04-09T09:39:11.873Z</time></trkpt><trkpt lat="45.06022212347885" lon="9.699764769321888"><ele>49.666666666666664</ele><time>2026-04-09T09:39:13.873Z</time></trkpt><trkpt lat="45.06027645086332" lon="9.699664978916704"><ele>49.33333333333333</ele><time>2026-04-09T09:39:15.873Z</time></trkpt><trkpt lat="45.06033190324836" lon="9.699565737983297"><ele>49.0</ele><time>2026-04-09T09:39:17.872Z</time></trkpt><trkpt lat="45.060388661452606" lon="9.69946752320417"><ele>49.2</ele><time>2026-04-09T09:39:19.872Z</time></trkpt><trkpt lat="45.06044746609569" lon="9.699367065377682"><ele>49.400000000000006</ele><time>2026-04-09T09:39:21.872Z</time></trkpt><trkpt lat="45.06050889561822" lon="9.699270576856746"><ele>49.6</ele><time>2026-04-09T09:39:23.872Z</time></trkpt><trkpt lat="45.060561703488176" lon="9.699169987933708"><ele>49.8</ele><time>2026-04-09T09:39:25.872Z</time></trkpt><trkpt lat="45.060620842378384" lon="9.699070931682611"><ele>50.0</ele><time>2026-04-09T09:39:27.872Z</time></trkpt><trkpt lat="45.06068076160408" lon="9.698969842682859"><ele>50.0</ele><time>2026-04-09T09:39:29.872Z</time></trkpt><trkpt lat="45.060743649128796" lon="9.698859819691704"><ele>50.0</ele><time>2026-04-09T09:39:31.872Z</time></trkpt><trkpt lat="45.06080084310426" lon="9.698757402610129"><ele>50.0</ele><time>2026-04-09T09:39:33.872Z</time></trkpt><trkpt lat="45.06086112013987" lon="9.698652757759717"><ele>50.0</ele><time>2026-04-09T09:39:35.872Z</time></trkpt><trkpt lat="45.060918463699785" lon="9.698542925343023"><ele>50.0</ele><time>2026-04-09T09:39:37.872Z</time></trkpt><trkpt lat="45.06097954178103" lon="9.698431838688514"><ele>49.6</ele><time>2026-04-09T09:39:39.872Z</time></trkpt><trkpt lat="45.06103792623051" lon="9.698322653987768"><ele>49.2</ele><time>2026-04-09T09:39:41.872Z</time></trkpt><trkpt lat="45.06109200073021" lon="9.698227829591882"><ele>48.8</ele><time>2026-04-09T09:39:43.872Z</time></trkpt><trkpt lat="45.06114810360276" lon="9.698124895066487"><ele>48.4</ele><time>2026-04-09T09:39:45.872Z</time></trkpt><trkpt lat="45.06120983651164" lon="9.698022140358438"><ele>48.0</ele><time>2026-04-09T09:39:47.872Z</time></trkpt><trkpt lat="45.06126426064943" lon="9.697919619778686"><ele>48.0</ele><time>2026-04-09T09:39:49.872Z</time></trkpt><trkpt lat="45.061317098294246" lon="9.697814462227258"><ele>48.0</ele><time>2026-04-09T09:39:51.872Z</time></trkpt><trkpt lat="45.06136690294601" lon="9.697704866490525"><ele>48.0</ele><time>2026-04-09T09:39:53.872Z</time></trkpt><trkpt lat="45.061419813680814" lon="9.697597329975322"><ele>48.0</ele><time>2026-04-09T09:39:55.871Z</time></trkpt><trkpt lat="45.06146483229016" lon="9.697489337996345"><ele>48.0</ele><time>2026-04-09T09:39:57.872Z</time></trkpt><trkpt lat="45.06148290419213" lon="9.697387504757916"><ele>48.0</ele><time>2026-04-09T09:39:59.872Z</time></trkpt><trkpt lat="45.06148796240701" lon="9.697277972100133"><ele>47.5</ele><time>2026-04-09T09:40:01.872Z</time></trkpt><trkpt lat="45.06151863861261" lon="9.69717324041903"><ele>47.0</ele><time>2026-04-09T09:40:03.871Z</time></trkpt><trkpt lat="45.06154672960164" lon="9.697062520565924"><ele>46.5</ele><time>2026-04-09T09:40:05.872Z</time></trkpt><trkpt lat="45.06157847465364" lon="9.696958149755094"><ele>46.0</ele><time>2026-04-09T09:40:07.872Z</time></trkpt><trkpt lat="45.061604582355656" lon="9.696854382034672"><ele>45.5</ele><time>2026-04-09T09:40:09.872Z</time></trkpt><trkpt lat="45.06164485544832" lon="9.696757207335065"><ele>45.0</ele><time>2026-04-09T09:40:11.872Z</time></trkpt><trkpt lat="45.06168597114509" lon="9.696649837623728"><ele>45.0</ele><time>2026-04-09T09:40:13.871Z</time></trkpt><trkpt lat="45.061714386283015" lon="9.696547549719991"><ele>45.0</ele><time>2026-04-09T09:40:15.871Z</time></trkpt><trkpt lat="45.061746001234376" lon="9.69645368880203"><ele>45.0</ele><time>2026-04-09T09:40:17.871Z</time></trkpt><trkpt lat="45.0617718963937" lon="9.696354925932944"><ele>45.0</ele><time>2026-04-09T09:40:19.871Z</time></trkpt><trkpt lat="45.06180056536736" lon="9.696245112078843"><ele>45.0</ele><time>2026-04-09T09:40:21.871Z</time></trkpt><trkpt lat="45.061823680812445" lon="9.69613518078394"><ele>45.0</ele><time>2026-04-09T09:40:23.871Z</time></trkpt><trkpt lat="45.061864200030925" lon="9.696024801192554"><ele>45.666666666666664</ele><time>2026-04-09T09:40:25.871Z</time></trkpt><trkpt lat="45.061898571704695" lon="9.69591197526891"><ele>46.33333333333333</ele><time>2026-04-09T09:40:27.871Z</time></trkpt><trkpt lat="45.061934562254386" lon="9.695796003426603"><ele>47.0</ele><time>2026-04-09T09:40:29.871Z</time></trkpt><trkpt lat="45.06198016651923" lon="9.695684839978442"><ele>47.666666666666664</ele><time>2026-04-09T09:40:31.871Z</time></trkpt><trkpt lat="45.06202857274061" lon="9.69557654396383"><ele>48.33333333333333</ele><time>2026-04-09T09:40:33.871Z</time></trkpt><trkpt lat="45.06207882365402" lon="9.695469404632645"><ele>49.0</ele><time>2026-04-09T09:40:35.871Z</time></trkpt><trkpt lat="45.06212230746767" lon="9.69536181204055"><ele>48.99999999999999</ele><time>2026-04-09T09:40:37.871Z</time></trkpt><trkpt lat="45.06216635830048" lon="9.695252051255881"><ele>49.0</ele><time>2026-04-09T09:40:39.871Z</time></trkpt><trkpt lat="45.06220817289705" lon="9.695143486640305"><ele>49.0</ele><time>2026-04-09T09:40:41.871Z</time></trkpt><trkpt lat="45.06225815655917" lon="9.695042269591596"><ele>49.0</ele><time>2026-04-09T09:40:43.871Z</time></trkpt><trkpt lat="45.06230091154356" lon="9.694939371119894"><ele>48.99999999999999</ele><time>2026-04-09T09:40:45.871Z</time></trkpt><trkpt lat="45.06234471757665" lon="9.694834845060582"><ele>49.0</ele><time>2026-04-09T09:40:47.871Z</time></trkpt><trkpt lat="45.062385862057276" lon="9.694726318619798"><ele>49.0</ele><time>2026-04-09T09:40:49.871Z</time></trkpt><trkpt lat="45.06242151894911" lon="9.69461331756853"><ele>49.0</ele><time>2026-04-09T09:40:51.871Z</time></trkpt><trkpt lat="45.062449337421505" lon="9.694499698987089"><ele>49.0</ele><time>2026-04-09T09:40:53.871Z</time></trkpt><trkpt lat="45.06247124920895" lon="9.694360362465869"><ele>49.0</ele><time>2026-04-09T09:40:55.871Z</time></trkpt><trkpt lat="45.06247733707455" lon="9.694197525715362"><ele>49.0</ele><time>2026-04-09T09:40:57.871Z</time></trkpt><trkpt lat="45.06245600926978" lon="9.69404693559031"><ele>48.99999999999999</ele><time>2026-04-09T09:40:59.871Z</time></trkpt><trkpt lat="45.06244312759831" lon="9.693915327520633"><ele>49.0</ele><time>2026-04-09T09:41:01.871Z</time></trkpt><trkpt lat="45.062433112545754" lon="9.69379746240743"><ele>49.0</ele><time>2026-04-09T09:41:03.871Z</time></trkpt><trkpt lat="45.062428277411456" lon="9.693678825731002"><ele>49.0</ele><time>2026-04-09T09:41:05.871Z</time></trkpt><trkpt lat="45.06241925475041" lon="9.693560608998505"><ele>48.99999999999999</ele><time>2026-04-09T09:41:07.87Z</time></trkpt><trkpt lat="45.06241297083398" lon="9.693439301552926"><ele>49.0</ele><time>2026-04-09T09:41:09.87Z</time></trkpt><trkpt lat="45.06242124497571" lon="9.693326444310445"><ele>48.857142857142854</ele><time>2026-04-09T09:41:11.87Z</time></trkpt><trkpt lat="45.062417670343116" lon="9.693217216938246"><ele>48.714285714285715</ele><time>2026-04-09T09:41:13.87Z</time></trkpt><trkpt lat="45.06241518688456" lon="9.69310992547528"><ele>48.57142857142857</ele><time>2026-04-09T09:41:15.87Z</time></trkpt><trkpt lat="45.06241269027604" lon="9.69300509301535"><ele>48.42857142857143</ele><time>2026-04-09T09:41:17.87Z</time></trkpt><trkpt lat="45.06241027190073" lon="9.692903545535849"><ele>48.285714285714285</ele><time>2026-04-09T09:41:19.87Z</time></trkpt><trkpt lat="45.0624078729304" lon="9.692802812964285"><ele>48.14285714285714</ele><time>2026-04-09T09:41:21.87Z</time></trkpt><trkpt lat="45.06240534401957" lon="9.692696624118195"><ele>48.0</ele><time>2026-04-09T09:41:23.87Z</time></trkpt><trkpt lat="45.06240307166528" lon="9.692601208049407"><ele>48.0</ele><time>2026-04-09T09:41:25.87Z</time></trkpt><trkpt lat="45.06238259423162" lon="9.692506815029349"><ele>48.0</ele><time>2026-04-09T09:41:27.87Z</time></trkpt><trkpt lat="45.06238692207594" lon="9.692394429064128"><ele>48.0</ele><time>2026-04-09T09:41:29.87Z</time></trkpt><trkpt lat="45.06238424319774" lon="9.692283466860006"><ele>48.0</ele><time>2026-04-09T09:41:31.87Z</time></trkpt><trkpt lat="45.06237999038125" lon="9.692167642447183"><ele>48.0</ele><time>2026-04-09T09:41:33.87Z</time></trkpt><trkpt lat="45.06238330184636" lon="9.69204804663871"><ele>48.0</ele><time>2026-04-09T09:41:35.87Z</time></trkpt><trkpt lat="45.06238036283961" lon="9.691925778223256"><ele>48.0</ele><time>2026-04-09T09:41:37.87Z</time></trkpt><trkpt lat="45.06238300169984" lon="9.691796872586327"><ele>48.0</ele><time>2026-04-09T09:41:39.87Z</time></trkpt><trkpt lat="45.06237501155298" lon="9.69168144442179"><ele>48.0</ele><time>2026-04-09T09:41:41.87Z</time></trkpt><trkpt lat="45.06234686275467" lon="9.69156691545802"><ele>48.0</ele><time>2026-04-09T09:41:43.87Z</time></trkpt><trkpt lat="45.06227791751452" lon="9.691480957368645"><ele>48.0</ele><time>2026-04-09T09:41:45.87Z</time></trkpt><trkpt lat="45.0622003746652" lon="9.69140612534604"><ele>48.0</ele><time>2026-04-09T09:41:47.87Z</time></trkpt><trkpt lat="45.06211978039942" lon="9.69136616601352"><ele>48.0</ele><time>2026-04-09T09:41:49.87Z</time></trkpt><trkpt lat="45.0620463801146" lon="9.691324667004988"><ele>48.0</ele><time>2026-04-09T09:41:51.87Z</time></trkpt><trkpt lat="45.061979059907166" lon="9.691242960209689"><ele>48.0</ele><time>2026-04-09T09:41:53.87Z</time></trkpt><trkpt lat="45.06195960924388" lon="9.691103878487308"><ele>48.0</ele><time>2026-04-09T09:41:55.87Z</time></trkpt><trkpt lat="45.061986480607175" lon="9.690983344965039"><ele>48.0</ele><time>2026-04-09T09:41:57.87Z</time></trkpt><trkpt lat="45.062011381174244" lon="9.690870438814072"><ele>48.0</ele><time>2026-04-09T09:42:00.869Z</time></trkpt><trkpt lat="45.06203693495293" lon="9.690777350635294"><ele>48.0</ele><time>2026-04-09T09:42:02.869Z</time></trkpt><trkpt lat="45.06207276106576" lon="9.690678771270429"><ele>48.0</ele><time>2026-04-09T09:42:04.869Z</time></trkpt><trkpt lat="45.06209733715672" lon="9.690572959769415"><ele>48.0</ele><time>2026-04-09T09:42:06.87Z</time></trkpt><trkpt lat="45.06213086447431" lon="9.690462497350255"><ele>48.0</ele><time>2026-04-09T09:42:08.869Z</time></trkpt><trkpt lat="45.06215764850179" lon="9.690351014704941"><ele>48.0</ele><time>2026-04-09T09:42:10.869Z</time></trkpt><trkpt lat="45.062176972014775" lon="9.690231708147472"><ele>48.0</ele><time>2026-04-09T09:42:12.869Z</time></trkpt><trkpt lat="45.06219700287524" lon="9.690117071926782"><ele>48.0</ele><time>2026-04-09T09:42:14.869Z</time></trkpt><trkpt lat="45.062205468979755" lon="9.689998771411243"><ele>48.0</ele><time>2026-04-09T09:42:16.869Z</time></trkpt><trkpt lat="45.06221207044689" lon="9.689877590321005"><ele>48.0</ele><time>2026-04-09T09:42:18.869Z</time></trkpt><trkpt lat="45.062221750793775" lon="9.689748013911643"><ele>48.0</ele><time>2026-04-09T09:42:20.869Z</time></trkpt><trkpt lat="45.06222754412572" lon="9.689619663630976"><ele>48.0</ele><time>2026-04-09T09:42:22.869Z</time></trkpt><trkpt lat="45.062239209642755" lon="9.68948442739914"><ele>48.0</ele><time>2026-04-09T09:42:24.869Z</time></trkpt><trkpt lat="45.06224488621495" lon="9.689348558871584"><ele>48.0</ele><time>2026-04-09T09:42:26.869Z</time></trkpt><trkpt lat="45.06225117388266" lon="9.689220188610395"><ele>48.0</ele><time>2026-04-09T09:42:28.869Z</time></trkpt><trkpt lat="45.062254793233635" lon="9.689095053698043"><ele>48.0</ele><time>2026-04-09T09:42:30.869Z</time></trkpt><trkpt lat="45.06225845218013" lon="9.688969702265565"><ele>48.0</ele><time>2026-04-09T09:42:32.869Z</time></trkpt><trkpt lat="45.06226235235837" lon="9.68884702343531"><ele>48.0</ele><time>2026-04-09T09:42:34.869Z</time></trkpt><trkpt lat="45.06227833776589" lon="9.688720494648011"><ele>48.0</ele><time>2026-04-09T09:42:36.869Z</time></trkpt><trkpt lat="45.06228711348819" lon="9.688586880743504"><ele>48.0</ele><time>2026-04-09T09:42:38.869Z</time></trkpt><trkpt lat="45.0622965467475" lon="9.688447495553827"><ele>48.0</ele><time>2026-04-09T09:42:40.869Z</time></trkpt><trkpt lat="45.062307900029" lon="9.688312071995421"><ele>48.0</ele><time>2026-04-09T09:42:42.869Z</time></trkpt><trkpt lat="45.062310097896884" lon="9.688185934358955"><ele>48.0</ele><time>2026-04-09T09:42:44.868Z</time></trkpt><trkpt lat="45.06232038744781" lon="9.688052157595704"><ele>48.0</ele><time>2026-04-09T09:42:46.868Z</time></trkpt><trkpt lat="45.062330821660396" lon="9.687909762442931"><ele>48.0</ele><time>2026-04-09T09:42:48.868Z</time></trkpt><trkpt lat="45.06233227767371" lon="9.68777240837795"><ele>48.0</ele><time>2026-04-09T09:42:50.868Z</time></trkpt><trkpt lat="45.06234423227766" lon="9.687631762942361"><ele>48.0</ele><time>2026-04-09T09:42:52.868Z</time></trkpt><trkpt lat="45.06234923991508" lon="9.68749590368944"><ele>48.0</ele><time>2026-04-09T09:42:54.868Z</time></trkpt><trkpt lat="45.062365046643095" lon="9.687354896344507"><ele>48.0</ele><time>2026-04-09T09:42:56.868Z</time></trkpt><trkpt lat="45.06236903532933" lon="9.687211026333781"><ele>48.0</ele><time>2026-04-09T09:42:58.868Z</time></trkpt><trkpt lat="45.062391852017186" lon="9.687066419320963"><ele>48.0</ele><time>2026-04-09T09:43:00.868Z</time></trkpt><trkpt lat="45.06239996479689" lon="9.686917724717643"><ele>48.0</ele><time>2026-04-09T09:43:02.868Z</time></trkpt><trkpt lat="45.06239688621963" lon="9.68677364518441"><ele>48.0</ele><time>2026-04-09T09:43:04.868Z</time></trkpt><trkpt lat="45.062403412285654" lon="9.686636063022897"><ele>48.0</ele><time>2026-04-09T09:43:06.868Z</time></trkpt><trkpt lat="45.062411251745964" lon="9.686493483567086"><ele>48.0</ele><time>2026-04-09T09:43:08.868Z</time></trkpt><trkpt lat="45.0624263905355" lon="9.686344912177653"><ele>48.0</ele><time>2026-04-09T09:43:10.868Z</time></trkpt><trkpt lat="45.06243764147394" lon="9.686192364199606"><ele>48.0</ele><time>2026-04-09T09:43:12.868Z</time></trkpt><trkpt lat="45.062455810373805" lon="9.686048360447675"><ele>48.0</ele><time>2026-04-09T09:43:14.868Z</time></trkpt><trkpt lat="45.06248301002407" lon="9.685906381266323"><ele>48.0</ele><time>2026-04-09T09:43:16.868Z</time></trkpt><trkpt lat="45.06252754733404" lon="9.685778187300185"><ele>47.599999999999994</ele><time>2026-04-09T09:43:18.868Z</time></trkpt><trkpt lat="45.062567285354895" lon="9.68564614289748"><ele>47.199999999999996</ele><time>2026-04-09T09:43:20.868Z</time></trkpt><trkpt lat="45.0626160199491" lon="9.685515967747703"><ele>46.8</ele><time>2026-04-09T09:43:22.868Z</time></trkpt><trkpt lat="45.062668576865235" lon="9.685389614982327"><ele>46.4</ele><time>2026-04-09T09:43:24.868Z</time></trkpt><trkpt lat="45.062710364545914" lon="9.685256345064449"><ele>46.0</ele><time>2026-04-09T09:43:26.868Z</time></trkpt><trkpt lat="45.0627735000689" lon="9.685151013587602"><ele>45.599999999999994</ele><time>2026-04-09T09:43:28.868Z</time></trkpt><trkpt lat="45.06283793075624" lon="9.685045527023156"><ele>45.2</ele><time>2026-04-09T09:43:30.868Z</time></trkpt><trkpt lat="45.06289384224981" lon="9.684953337916653"><ele>44.8</ele><time>2026-04-09T09:43:32.868Z</time></trkpt><trkpt lat="45.06296378069235" lon="9.684851958945623"><ele>44.400000000000006</ele><time>2026-04-09T09:43:34.868Z</time></trkpt><trkpt lat="45.0630307367526" lon="9.684746137115484"><ele>44.0</ele><time>2026-04-09T09:43:36.868Z</time></trkpt><trkpt lat="45.0630931083541" lon="9.684638426289693"><ele>44.0</ele><time>2026-04-09T09:43:38.867Z</time></trkpt><trkpt lat="45.06315275177888" lon="9.684526866164868"><ele>44.0</ele><time>2026-04-09T09:43:40.867Z</time></trkpt><trkpt lat="45.06321814074376" lon="9.684417783520443"><ele>44.0</ele><time>2026-04-09T09:43:42.867Z</time></trkpt><trkpt lat="45.06329295007253" lon="9.684312324228182"><ele>44.0</ele><time>2026-04-09T09:43:44.867Z</time></trkpt><trkpt lat="45.06334585400692" lon="9.684184737121436"><ele>44.0</ele><time>2026-04-09T09:43:46.867Z</time></trkpt><trkpt lat="45.06339507595519" lon="9.684053141249553"><ele>44.2</ele><time>2026-04-09T09:43:48.867Z</time></trkpt><trkpt lat="45.063440896846494" lon="9.683914810979452"><ele>44.400000000000006</ele><time>2026-04-09T09:43:50.867Z</time></trkpt><trkpt lat="45.06348157151021" lon="9.683778418179235"><ele>44.6</ele><time>2026-04-09T09:43:52.867Z</time></trkpt><trkpt lat="45.06350357591163" lon="9.68363159511928"><ele>44.8</ele><time>2026-04-09T09:43:54.867Z</time></trkpt><trkpt lat="45.06354239260736" lon="9.683487813235425"><ele>45.0</ele><time>2026-04-09T09:43:56.867Z</time></trkpt><trkpt lat="45.06357481744165" lon="9.683343095514658"><ele>45.4</ele><time>2026-04-09T09:43:58.867Z</time></trkpt><trkpt lat="45.06360331209439" lon="9.683201716202893"><ele>45.8</ele><time>2026-04-09T09:44:00.867Z</time></trkpt><trkpt lat="45.06362746691661" lon="9.683060679317077"><ele>46.2</ele><time>2026-04-09T09:44:02.867Z</time></trkpt><trkpt lat="45.06365399006327" lon="9.682921613286538"><ele>46.6</ele><time>2026-04-09T09:44:04.867Z</time></trkpt><trkpt lat="45.063681560891" lon="9.682787460693266"><ele>47.0</ele><time>2026-04-09T09:44:06.867Z</time></trkpt><trkpt lat="45.0637171144754" lon="9.682647758224059"><ele>47.2</ele><time>2026-04-09T09:44:08.867Z</time></trkpt><trkpt lat="45.06376984529347" lon="9.682520497396682"><ele>47.400000000000006</ele><time>2026-04-09T09:44:10.867Z</time></trkpt><trkpt lat="45.06382109361629" lon="9.682394036567516"><ele>47.599999999999994</ele><time>2026-04-09T09:44:12.867Z</time></trkpt><trkpt lat="45.0638770085888" lon="9.682279103502413"><ele>47.8</ele><time>2026-04-09T09:44:14.867Z</time></trkpt><trkpt lat="45.06393819102714" lon="9.682163634215755"><ele>48.0</ele><time>2026-04-09T09:44:16.866Z</time></trkpt><trkpt lat="45.06400931301627" lon="9.682063815008977"><ele>48.0</ele><time>2026-04-09T09:44:18.866Z</time></trkpt><trkpt lat="45.06408858423151" lon="9.681967455609083"><ele>48.0</ele><time>2026-04-09T09:44:20.867Z</time></trkpt><trkpt lat="45.064171780924596" lon="9.681883636982915"><ele>48.0</ele><time>2026-04-09T09:44:22.867Z</time></trkpt><trkpt lat="45.064248035119455" lon="9.68178862707628"><ele>48.0</ele><time>2026-04-09T09:44:24.867Z</time></trkpt><trkpt lat="45.06433631975747" lon="9.68172150822507"><ele>48.0</ele><time>2026-04-09T09:44:26.867Z</time></trkpt><trkpt lat="45.064427274609386" lon="9.681682234716142"><ele>47.599999999999994</ele><time>2026-04-09T09:44:28.867Z</time></trkpt><trkpt lat="45.064518148604996" lon="9.681656056081508"><ele>47.199999999999996</ele><time>2026-04-09T09:44:30.866Z</time></trkpt><trkpt lat="45.06461407616832" lon="9.681640535736074"><ele>46.8</ele><time>2026-04-09T09:44:32.866Z</time></trkpt><trkpt lat="45.06471290128672" lon="9.68163500481493"><ele>46.4</ele><time>2026-04-09T09:44:34.866Z</time></trkpt><trkpt lat="45.06481081328775" lon="9.681625843016931"><ele>46.0</ele><time>2026-04-09T09:44:36.866Z</time></trkpt><trkpt lat="45.064903282649404" lon="9.681624387270483"><ele>45.8</ele><time>2026-04-09T09:44:38.866Z</time></trkpt><trkpt lat="45.064995259384105" lon="9.68161746185682"><ele>45.599999999999994</ele><time>2026-04-09T09:44:40.866Z</time></trkpt><trkpt lat="45.06509123819274" lon="9.681617543405777"><ele>45.4</ele><time>2026-04-09T09:44:42.866Z</time></trkpt><trkpt lat="45.06518878730549" lon="9.681619598697587"><ele>45.2</ele><time>2026-04-09T09:44:44.866Z</time></trkpt><trkpt lat="45.065287870997565" lon="9.681617342763902"><ele>45.0</ele><time>2026-04-09T09:44:46.866Z</time></trkpt><trkpt lat="45.06538667022247" lon="9.681615114246583"><ele>45.0</ele><time>2026-04-09T09:44:48.866Z</time></trkpt><trkpt lat="45.065483295294186" lon="9.68161265372796"><ele>45.0</ele><time>2026-04-09T09:44:50.866Z</time></trkpt><trkpt lat="45.06557712321066" lon="9.681610818378966"><ele>45.0</ele><time>2026-04-09T09:44:52.866Z</time></trkpt><trkpt lat="45.06566922921079" lon="9.681610101143814"><ele>45.0</ele><time>2026-04-09T09:44:54.866Z</time></trkpt><trkpt lat="45.0657603805329" lon="9.681607671099592"><ele>45.0</ele><time>2026-04-09T09:44:56.866Z</time></trkpt><trkpt lat="45.065851857334785" lon="9.681604385924354"><ele>45.0</ele><time>2026-04-09T09:44:58.866Z</time></trkpt><trkpt lat="45.06594943799917" lon="9.681603066857418"><ele>45.0</ele><time>2026-04-09T09:45:00.866Z</time></trkpt><trkpt lat="45.06603971119316" lon="9.681600159645583"><ele>45.0</ele><time>2026-04-09T09:45:02.866Z</time></trkpt><trkpt lat="45.06613647432042" lon="9.681589514773263"><ele>45.0</ele><time>2026-04-09T09:45:04.866Z</time></trkpt><trkpt lat="45.0662354759002" lon="9.681589075350212"><ele>45.0</ele><time>2026-04-09T09:45:06.866Z</time></trkpt><trkpt lat="45.06633221169334" lon="9.681589407367126"><ele>45.0</ele><time>2026-04-09T09:45:08.866Z</time></trkpt><trkpt lat="45.066425747722285" lon="9.681586598753132"><ele>45.0</ele><time>2026-04-09T09:45:10.866Z</time></trkpt><trkpt lat="45.066518445462044" lon="9.681585477718114"><ele>45.0</ele><time>2026-04-09T09:45:12.866Z</time></trkpt><trkpt lat="45.06661446169726" lon="9.681583925397105"><ele>45.0</ele><time>2026-04-09T09:45:14.866Z</time></trkpt><trkpt lat="45.06670813541494" lon="9.681579004867112"><ele>45.0</ele><time>2026-04-09T09:45:16.866Z</time></trkpt><trkpt lat="45.06679989803411" lon="9.681577282309744"><ele>44.8</ele><time>2026-04-09T09:45:18.866Z</time></trkpt><trkpt lat="45.0668922438167" lon="9.681581943916814"><ele>44.6</ele><time>2026-04-09T09:45:20.866Z</time></trkpt><trkpt lat="45.06699209922911" lon="9.681576228418301"><ele>44.400000000000006</ele><time>2026-04-09T09:45:22.866Z</time></trkpt><trkpt lat="45.06709193880694" lon="9.68156884138729"><ele>44.2</ele><time>2026-04-09T09:45:24.866Z</time></trkpt><trkpt lat="45.067186829169465" lon="9.681549136462168"><ele>44.0</ele><time>2026-04-09T09:45:26.865Z</time></trkpt><trkpt lat="45.06728609105853" lon="9.681525072253136"><ele>44.0</ele><time>2026-04-09T09:45:28.865Z</time></trkpt><trkpt lat="45.06738471814944" lon="9.681480679623972"><ele>44.0</ele><time>2026-04-09T09:45:30.865Z</time></trkpt><trkpt lat="45.06747633338487" lon="9.681430947501168"><ele>44.0</ele><time>2026-04-09T09:45:32.865Z</time></trkpt><trkpt lat="45.0675632475797" lon="9.681368142210502"><ele>44.0</ele><time>2026-04-09T09:45:34.865Z</time></trkpt><trkpt lat="45.067651284785" lon="9.681295283963504"><ele>44.0</ele><time>2026-04-09T09:45:36.865Z</time></trkpt><trkpt lat="45.067731655576424" lon="9.681229645795499"><ele>44.0</ele><time>2026-04-09T09:45:38.865Z</time></trkpt><trkpt lat="45.06780336202" lon="9.681146082872042"><ele>44.0</ele><time>2026-04-09T09:45:40.865Z</time></trkpt><trkpt lat="45.06787704215182" lon="9.68107617946346"><ele>44.0</ele><time>2026-04-09T09:45:42.865Z</time></trkpt><trkpt lat="45.067947183011135" lon="9.68101022943731"><ele>44.0</ele><time>2026-04-09T09:45:44.865Z</time></trkpt><trkpt lat="45.06800443274446" lon="9.680937028201871"><ele>44.0</ele><time>2026-04-09T09:45:46.865Z</time></trkpt><trkpt lat="45.06806745841429" lon="9.680893121717492"><ele>44.0</ele><time>2026-04-09T09:45:48.865Z</time></trkpt><trkpt lat="45.06813108277862" lon="9.680824989531803"><ele>43.800000000000004</ele><time>2026-04-09T09:45:50.865Z</time></trkpt><trkpt lat="45.068207784711326" lon="9.680742853487622"><ele>43.6</ele><time>2026-04-09T09:45:52.865Z</time></trkpt><trkpt lat="45.06827926032333" lon="9.68063898231176"><ele>43.4</ele><time>2026-04-09T09:45:54.865Z</time></trkpt><trkpt lat="45.06836232489687" lon="9.68056358455097"><ele>43.2</ele><time>2026-04-09T09:45:56.865Z</time></trkpt><trkpt lat="45.06842675804528" lon="9.680486454878293"><ele>43.0</ele><time>2026-04-09T09:45:58.865Z</time></trkpt><trkpt lat="45.06848712480292" lon="9.68041676084191"><ele>43.0</ele><time>2026-04-09T09:46:00.865Z</time></trkpt><trkpt lat="45.068546764301345" lon="9.68034758959387"><ele>43.0</ele><time>2026-04-09T09:46:02.865Z</time></trkpt><trkpt lat="45.068612556559444" lon="9.680280417212753"><ele>43.0</ele><time>2026-04-09T09:46:04.865Z</time></trkpt><trkpt lat="45.06867891013963" lon="9.680214727475551"><ele>43.0</ele><time>2026-04-09T09:46:06.865Z</time></trkpt><trkpt lat="45.068742256391936" lon="9.680142591768726"><ele>43.0</ele><time>2026-04-09T09:46:08.865Z</time></trkpt><trkpt lat="45.06881181430283" lon="9.68006943567748"><ele>43.0</ele><time>2026-04-09T09:46:10.865Z</time></trkpt><trkpt lat="45.06888439249041" lon="9.679994321588246"><ele>43.333333333333336</ele><time>2026-04-09T09:46:12.864Z</time></trkpt><trkpt lat="45.068956038483805" lon="9.679918980729715"><ele>43.66666666666667</ele><time>2026-04-09T09:46:14.864Z</time></trkpt><trkpt lat="45.069025615188295" lon="9.679841434437135"><ele>44.0</ele><time>2026-04-09T09:46:16.864Z</time></trkpt><trkpt lat="45.0690932520848" lon="9.67977548603598"><ele>44.333333333333336</ele><time>2026-04-09T09:46:18.864Z</time></trkpt><trkpt lat="45.06915385427779" lon="9.679700316220673"><ele>44.666666666666664</ele><time>2026-04-09T09:46:20.864Z</time></trkpt><trkpt lat="45.0692249218373" lon="9.679633363503884"><ele>45.0</ele><time>2026-04-09T09:46:22.864Z</time></trkpt><trkpt lat="45.06929761949071" lon="9.679557787550655"><ele>45.0</ele><time>2026-04-09T09:46:24.864Z</time></trkpt><trkpt lat="45.06936502114827" lon="9.679477273673541"><ele>45.0</ele><time>2026-04-09T09:46:26.863Z</time></trkpt><trkpt lat="45.069434155760966" lon="9.679408531125246"><ele>45.0</ele><time>2026-04-09T09:46:28.863Z</time></trkpt><trkpt lat="45.0695083081506" lon="9.679342204314958"><ele>45.0</ele><time>2026-04-09T09:46:30.863Z</time></trkpt><trkpt lat="45.06957114368382" lon="9.679263947761862"><ele>45.0</ele><time>2026-04-09T09:46:32.863Z</time></trkpt><trkpt lat="45.06964375753927" lon="9.679190502057741"><ele>45.0</ele><time>2026-04-09T09:46:34.863Z</time></trkpt><trkpt lat="45.069715025824216" lon="9.679115819964876"><ele>45.0</ele><time>2026-04-09T09:46:36.863Z</time></trkpt><trkpt lat="45.069785376576405" lon="9.679030380493806"><ele>45.0</ele><time>2026-04-09T09:46:38.863Z</time></trkpt><trkpt lat="45.06985524295485" lon="9.678964707169484"><ele>45.0</ele><time>2026-04-09T09:46:40.863Z</time></trkpt><trkpt lat="45.069925100247154" lon="9.678899848300551"><ele>45.0</ele><time>2026-04-09T09:46:42.863Z</time></trkpt><trkpt lat="45.06999854136695" lon="9.678835586262052"><ele>45.0</ele><time>2026-04-09T09:46:44.863Z</time></trkpt><trkpt lat="45.070064992783834" lon="9.678750136148624"><ele>45.0</ele><time>2026-04-09T09:46:46.863Z</time></trkpt><trkpt lat="45.07013663118262" lon="9.678677893097612"><ele>45.333333333333336</ele><time>2026-04-09T09:46:48.863Z</time></trkpt><trkpt lat="45.070207479061466" lon="9.678602165044152"><ele>45.666666666666664</ele><time>2026-04-09T09:46:50.863Z</time></trkpt><trkpt lat="45.07027792273826" lon="9.678531990547663"><ele>46.0</ele><time>2026-04-09T09:46:52.863Z</time></trkpt><trkpt lat="45.07035145572502" lon="9.678455303763014"><ele>46.33333333333333</ele><time>2026-04-09T09:46:54.863Z</time></trkpt><trkpt lat="45.07041969239645" lon="9.678380024714581"><ele>46.666666666666664</ele><time>2026-04-09T09:46:56.863Z</time></trkpt><trkpt lat="45.070498551506965" lon="9.678304436335607"><ele>47.0</ele><time>2026-04-09T09:46:58.863Z</time></trkpt><trkpt lat="45.070571084380184" lon="9.67823805336364"><ele>47.0</ele><time>2026-04-09T09:47:00.863Z</time></trkpt><trkpt lat="45.07064412826811" lon="9.678163768696546"><ele>47.0</ele><time>2026-04-09T09:47:02.862Z</time></trkpt><trkpt lat="45.0707005160554" lon="9.678089223428044"><ele>47.0</ele><time>2026-04-09T09:47:04.862Z</time></trkpt><trkpt lat="45.07075055543815" lon="9.677985346794772"><ele>47.0</ele><time>2026-04-09T09:47:06.862Z</time></trkpt><trkpt lat="45.07078630983387" lon="9.677861342839693"><ele>47.0</ele><time>2026-04-09T09:47:08.862Z</time></trkpt><trkpt lat="45.07080429047361" lon="9.677727236156281"><ele>47.0</ele><time>2026-04-09T09:47:10.862Z</time></trkpt><trkpt lat="45.07081319068724" lon="9.677590353098452"><ele>47.0</ele><time>2026-04-09T09:47:12.862Z</time></trkpt><trkpt lat="45.07082821345271" lon="9.67745588069854"><ele>47.0</ele><time>2026-04-09T09:47:14.862Z</time></trkpt><trkpt lat="45.070835083212124" lon="9.677324530137174"><ele>47.0</ele><time>2026-04-09T09:47:16.862Z</time></trkpt><trkpt lat="45.070838334236576" lon="9.67720375222808"><ele>47.0</ele><time>2026-04-09T09:47:18.862Z</time></trkpt><trkpt lat="45.07082942322657" lon="9.677069858723366"><ele>47.0</ele><time>2026-04-09T09:47:20.862Z</time></trkpt><trkpt lat="45.070822286187116" lon="9.676933061462439"><ele>46.83333333333333</ele><time>2026-04-09T09:47:22.862Z</time></trkpt><trkpt lat="45.07081316887161" lon="9.67680113388468"><ele>46.666666666666664</ele><time>2026-04-09T09:47:24.862Z</time></trkpt><trkpt lat="45.0708053428175" lon="9.676672500775412"><ele>46.5</ele><time>2026-04-09T09:47:26.862Z</time></trkpt><trkpt lat="45.07079606399526" lon="9.67654899026082"><ele>46.333333333333336</ele><time>2026-04-09T09:47:28.862Z</time></trkpt><trkpt lat="45.07078586587006" lon="9.676428372382063"><ele>46.16666666666667</ele><time>2026-04-09T09:47:30.862Z</time></trkpt><trkpt lat="45.07077606558358" lon="9.676308012890656"><ele>46.0</ele><time>2026-04-09T09:47:32.862Z</time></trkpt><trkpt lat="45.07076224122089" lon="9.676180125401453"><ele>46.0</ele><time>2026-04-09T09:47:34.862Z</time></trkpt><trkpt lat="45.070756495033" lon="9.676053313682782"><ele>46.0</ele><time>2026-04-09T09:47:36.862Z</time></trkpt><trkpt lat="45.07074668132643" lon="9.675932552271385"><ele>46.0</ele><time>2026-04-09T09:47:38.862Z</time></trkpt><trkpt lat="45.07074043381357" lon="9.6758053624537"><ele>46.0</ele><time>2026-04-09T09:47:40.862Z</time></trkpt><trkpt lat="45.070737032870504" lon="9.675678587343732"><ele>46.0</ele><time>2026-04-09T09:47:42.862Z</time></trkpt><trkpt lat="45.070728825435644" lon="9.675554419938898"><ele>46.0</ele><time>2026-04-09T09:47:44.862Z</time></trkpt><trkpt lat="45.07071526994666" lon="9.675433348807399"><ele>46.0</ele><time>2026-04-09T09:47:46.862Z</time></trkpt><trkpt lat="45.07070020573629" lon="9.675309300521018"><ele>46.0</ele><time>2026-04-09T09:47:48.862Z</time></trkpt><trkpt lat="45.07069249820293" lon="9.675187411738126"><ele>46.0</ele><time>2026-04-09T09:47:50.862Z</time></trkpt><trkpt lat="45.07068269464056" lon="9.67508030295333"><ele>46.0</ele><time>2026-04-09T09:47:52.862Z</time></trkpt><trkpt lat="45.07067810434576" lon="9.674964733161328"><ele>46.0</ele><time>2026-04-09T09:47:54.862Z</time></trkpt><trkpt lat="45.070673141471694" lon="9.674843239912358"><ele>46.0</ele><time>2026-04-09T09:47:56.861Z</time></trkpt><trkpt lat="45.070661975115925" lon="9.674718871339998"><ele>45.833333333333336</ele><time>2026-04-09T09:47:58.861Z</time></trkpt><trkpt lat="45.070654077100485" lon="9.674594374877028"><ele>45.66666666666667</ele><time>2026-04-09T09:48:00.861Z</time></trkpt><trkpt lat="45.07063843975716" lon="9.674471836901624"><ele>45.5</ele><time>2026-04-09T09:48:02.861Z</time></trkpt><trkpt lat="45.07063688166659" lon="9.674351472837797"><ele>45.333333333333336</ele><time>2026-04-09T09:48:04.861Z</time></trkpt><trkpt lat="45.07063150494943" lon="9.674237148991914"><ele>45.166666666666664</ele><time>2026-04-09T09:48:06.861Z</time></trkpt><trkpt lat="45.07061954223911" lon="9.674126967196655"><ele>45.0</ele><time>2026-04-09T09:48:08.861Z</time></trkpt><trkpt lat="45.07060918559967" lon="9.674003665966666"><ele>45.0</ele><time>2026-04-09T09:48:10.861Z</time></trkpt><trkpt lat="45.070598972824286" lon="9.673888102177118"><ele>45.0</ele><time>2026-04-09T09:48:12.861Z</time></trkpt><trkpt lat="45.07058750523306" lon="9.673771394967554"><ele>45.0</ele><time>2026-04-09T09:48:14.861Z</time></trkpt><trkpt lat="45.0705819039858" lon="9.673643927854934"><ele>45.0</ele><time>2026-04-09T09:48:16.861Z</time></trkpt><trkpt lat="45.07058013553178" lon="9.673521740106189"><ele>45.0</ele><time>2026-04-09T09:48:18.861Z</time></trkpt><trkpt lat="45.07056962403341" lon="9.67340240585524"><ele>45.0</ele><time>2026-04-09T09:48:20.861Z</time></trkpt><trkpt lat="45.0705572230033" lon="9.673290876297333"><ele>45.0</ele><time>2026-04-09T09:48:22.861Z</time></trkpt><trkpt lat="45.07054788278538" lon="9.673171428923066"><ele>45.0</ele><time>2026-04-09T09:48:24.861Z</time></trkpt><trkpt lat="45.07053685962231" lon="9.673047006359784"><ele>45.0</ele><time>2026-04-09T09:48:26.861Z</time></trkpt><trkpt lat="45.07053096849387" lon="9.672923753415372"><ele>45.0</ele><time>2026-04-09T09:48:28.861Z</time></trkpt><trkpt lat="45.07051788703426" lon="9.672798481749554"><ele>45.0</ele><time>2026-04-09T09:48:30.861Z</time></trkpt><trkpt lat="45.070507646608256" lon="9.67267218198327"><ele>45.0</ele><time>2026-04-09T09:48:32.861Z</time></trkpt><trkpt lat="45.07049941372614" lon="9.672540317790975"><ele>45.4</ele><time>2026-04-09T09:48:34.861Z</time></trkpt><trkpt lat="45.07049120855683" lon="9.672403363485145"><ele>45.8</ele><time>2026-04-09T09:48:36.861Z</time></trkpt><trkpt lat="45.07048896504762" lon="9.672274826617095"><ele>46.2</ele><time>2026-04-09T09:48:38.861Z</time></trkpt><trkpt lat="45.07049907190867" lon="9.672145394420232"><ele>46.6</ele><time>2026-04-09T09:48:40.86Z</time></trkpt><trkpt lat="45.07051121986027" lon="9.672017150032357"><ele>47.0</ele><time>2026-04-09T09:48:42.86Z</time></trkpt><trkpt lat="45.07052421310278" lon="9.6718911323462"><ele>47.2</ele><time>2026-04-09T09:48:44.86Z</time></trkpt><trkpt lat="45.07053276587153" lon="9.67176554482451"><ele>47.400000000000006</ele><time>2026-04-09T09:48:46.86Z</time></trkpt><trkpt lat="45.07054511527153" lon="9.6716392820135"><ele>47.599999999999994</ele><time>2026-04-09T09:48:48.86Z</time></trkpt><trkpt lat="45.07056079737787" lon="9.671497750231376"><ele>47.8</ele><time>2026-04-09T09:48:50.86Z</time></trkpt><trkpt lat="45.070572986906114" lon="9.67137817767134"><ele>48.0</ele><time>2026-04-09T09:48:52.86Z</time></trkpt><trkpt lat="45.07058223505646" lon="9.671246141587433"><ele>48.0</ele><time>2026-04-09T09:48:54.86Z</time></trkpt><trkpt lat="45.070594358589936" lon="9.671116050219066"><ele>48.0</ele><time>2026-04-09T09:48:56.86Z</time></trkpt><trkpt lat="45.0706088749298" lon="9.670985934673167"><ele>48.0</ele><time>2026-04-09T09:48:58.86Z</time></trkpt><trkpt lat="45.07062455684782" lon="9.670856123872964"><ele>48.0</ele><time>2026-04-09T09:49:00.86Z</time></trkpt><trkpt lat="45.070634101433356" lon="9.670730132426037"><ele>48.0</ele><time>2026-04-09T09:49:02.86Z</time></trkpt><trkpt lat="45.07065360964705" lon="9.670608949164462"><ele>47.833333333333336</ele><time>2026-04-09T09:49:04.86Z</time></trkpt><trkpt lat="45.070660535734234" lon="9.670481891729354"><ele>47.666666666666664</ele><time>2026-04-09T09:49:06.86Z</time></trkpt><trkpt lat="45.07067196792369" lon="9.670361681482047"><ele>47.5</ele><time>2026-04-09T09:49:08.86Z</time></trkpt><trkpt lat="45.07068438658909" lon="9.67024352407509"><ele>47.33333333333333</ele><time>2026-04-09T09:49:10.86Z</time></trkpt><trkpt lat="45.07069279349592" lon="9.670119353536103"><ele>47.166666666666664</ele><time>2026-04-09T09:49:12.86Z</time></trkpt><trkpt lat="45.070702717916305" lon="9.670001695614271"><ele>47.0</ele><time>2026-04-09T09:49:14.86Z</time></trkpt><trkpt lat="45.07071438700331" lon="9.669888403703274"><ele>47.0</ele><time>2026-04-09T09:49:16.86Z</time></trkpt><trkpt lat="45.07072350260831" lon="9.669778516884968"><ele>47.0</ele><time>2026-04-09T09:49:18.86Z</time></trkpt><trkpt lat="45.070739421174586" lon="9.669654300771768"><ele>47.0</ele><time>2026-04-09T09:49:20.86Z</time></trkpt><trkpt lat="45.07075665728496" lon="9.669530644168828"><ele>47.0</ele><time>2026-04-09T09:49:22.86Z</time></trkpt><trkpt lat="45.07077146472694" lon="9.6694133820688"><ele>47.0</ele><time>2026-04-09T09:49:24.86Z</time></trkpt><trkpt lat="45.070791085724714" lon="9.66929397658473"><ele>47.0</ele><time>2026-04-09T09:49:26.86Z</time></trkpt><trkpt lat="45.07081013375297" lon="9.669177090347135"><ele>47.166666666666664</ele><time>2026-04-09T09:49:28.86Z</time></trkpt><trkpt lat="45.07082693021381" lon="9.669050385283237"><ele>47.33333333333333</ele><time>2026-04-09T09:49:30.86Z</time></trkpt><trkpt lat="45.070846821294325" lon="9.668923490727746"><ele>47.5</ele><time>2026-04-09T09:49:32.86Z</time></trkpt><trkpt lat="45.07086717936943" lon="9.668806865230058"><ele>47.666666666666664</ele><time>2026-04-09T09:49:34.859Z</time></trkpt><trkpt lat="45.07088798879079" lon="9.668689176436102"><ele>47.833333333333336</ele><time>2026-04-09T09:49:36.859Z</time></trkpt><trkpt lat="45.070910138986356" lon="9.668566483164236"><ele>48.0</ele><time>2026-04-09T09:49:38.859Z</time></trkpt><trkpt lat="45.07092729485677" lon="9.668442250826347"><ele>48.0</ele><time>2026-04-09T09:49:40.859Z</time></trkpt><trkpt lat="45.070955765859935" lon="9.668322021935428"><ele>48.0</ele><time>2026-04-09T09:49:42.859Z</time></trkpt><trkpt lat="45.07098002692617" lon="9.66819657330045"><ele>48.0</ele><time>2026-04-09T09:49:44.859Z</time></trkpt><trkpt lat="45.07100583372304" lon="9.668075930495915"><ele>48.0</ele><time>2026-04-09T09:49:46.859Z</time></trkpt><trkpt lat="45.07102814999982" lon="9.66794939329753"><ele>48.0</ele><time>2026-04-09T09:49:48.859Z</time></trkpt><trkpt lat="45.071047398149695" lon="9.667830153522273"><ele>48.0</ele><time>2026-04-09T09:49:50.859Z</time></trkpt><trkpt lat="45.07107151158834" lon="9.66770886460019"><ele>48.0</ele><time>2026-04-09T09:49:52.859Z</time></trkpt><trkpt lat="45.07109605239944" lon="9.667586063258272"><ele>48.0</ele><time>2026-04-09T09:49:54.859Z</time></trkpt><trkpt lat="45.07112034082256" lon="9.667458762263998"><ele>48.0</ele><time>2026-04-09T09:49:56.859Z</time></trkpt><trkpt lat="45.07113695613681" lon="9.66733461164456"><ele>48.0</ele><time>2026-04-09T09:49:58.859Z</time></trkpt><trkpt lat="45.07116472786001" lon="9.667207840342"><ele>48.0</ele><time>2026-04-09T09:50:00.859Z</time></trkpt><trkpt lat="45.07118715679345" lon="9.667079901652786"><ele>48.0</ele><time>2026-04-09T09:50:02.859Z</time></trkpt><trkpt lat="45.071211484221706" lon="9.666959702184108"><ele>48.0</ele><time>2026-04-09T09:50:04.859Z</time></trkpt><trkpt lat="45.071215874676334" lon="9.666837784830498"><ele>48.0</ele><time>2026-04-09T09:50:06.859Z</time></trkpt><trkpt lat="45.071209408135424" lon="9.666716610547912"><ele>48.0</ele><time>2026-04-09T09:50:08.859Z</time></trkpt><trkpt lat="45.071186648699744" lon="9.66659120424971"><ele>48.0</ele><time>2026-04-09T09:50:10.859Z</time></trkpt><trkpt lat="45.071137170778144" lon="9.666477906560958"><ele>48.0</ele><time>2026-04-09T09:50:12.859Z</time></trkpt><trkpt lat="45.07108304752429" lon="9.666364338480808"><ele>48.0</ele><time>2026-04-09T09:50:14.859Z</time></trkpt><trkpt lat="45.07103321563612" lon="9.666247597024972"><ele>48.0</ele><time>2026-04-09T09:50:16.859Z</time></trkpt><trkpt lat="45.07097811273052" lon="9.666141789610855"><ele>48.0</ele><time>2026-04-09T09:50:18.859Z</time></trkpt><trkpt lat="45.07092883348054" lon="9.666037363638987"><ele>48.0</ele><time>2026-04-09T09:50:20.859Z</time></trkpt><trkpt lat="45.070882583175226" lon="9.665936030143586"><ele>48.0</ele><time>2026-04-09T09:50:22.859Z</time></trkpt><trkpt lat="45.07083225286836" lon="9.665834221814137"><ele>48.0</ele><time>2026-04-09T09:50:24.858Z</time></trkpt><trkpt lat="45.07078523688947" lon="9.665732684270521"><ele>48.0</ele><time>2026-04-09T09:50:26.859Z</time></trkpt><trkpt lat="45.07073504307786" lon="9.665626500296453"><ele>48.0</ele><time>2026-04-09T09:50:28.858Z</time></trkpt><trkpt lat="45.0706754994532" lon="9.665530332569178"><ele>48.0</ele><time>2026-04-09T09:50:30.859Z</time></trkpt><trkpt lat="45.07061512556119" lon="9.665442725347088"><ele>48.0</ele><time>2026-04-09T09:50:32.858Z</time></trkpt><trkpt lat="45.070546412252725" lon="9.665360249247852"><ele>48.0</ele><time>2026-04-09T09:50:34.859Z</time></trkpt><trkpt lat="45.07047434483824" lon="9.665282237499577"><ele>48.166666666666664</ele><time>2026-04-09T09:50:36.858Z</time></trkpt><trkpt lat="45.07040038881178" lon="9.665210108967173"><ele>48.33333333333333</ele><time>2026-04-09T09:50:38.858Z</time></trkpt><trkpt lat="45.07032867589494" lon="9.665136352585753"><ele>48.5</ele><time>2026-04-09T09:50:40.858Z</time></trkpt><trkpt lat="45.07026922580164" lon="9.665052200419462"><ele>48.666666666666664</ele><time>2026-04-09T09:50:42.858Z</time></trkpt><trkpt lat="45.07020205727471" lon="9.664980829266842"><ele>48.83333333333333</ele><time>2026-04-09T09:50:44.858Z</time></trkpt><trkpt lat="45.07013626905649" lon="9.664898671623558"><ele>49.0</ele><time>2026-04-09T09:50:46.858Z</time></trkpt><trkpt lat="45.070070051776426" lon="9.664834435268103"><ele>48.99999999999999</ele><time>2026-04-09T09:50:48.857Z</time></trkpt><trkpt lat="45.07000049935851" lon="9.6647619595449"><ele>49.0</ele><time>2026-04-09T09:50:50.857Z</time></trkpt><trkpt lat="45.069936520915995" lon="9.66468557989101"><ele>49.0</ele><time>2026-04-09T09:50:52.857Z</time></trkpt><trkpt lat="45.06986690467708" lon="9.664608676684722"><ele>49.0</ele><time>2026-04-09T09:50:54.857Z</time></trkpt><trkpt lat="45.06979490929563" lon="9.664527946605439"><ele>48.99999999999999</ele><time>2026-04-09T09:50:56.857Z</time></trkpt><trkpt lat="45.06972690674047" lon="9.664438501680701"><ele>49.0</ele><time>2026-04-09T09:50:58.857Z</time></trkpt><trkpt lat="45.06965618755445" lon="9.664361863997017"><ele>48.666666666666664</ele><time>2026-04-09T09:51:00.857Z</time></trkpt><trkpt lat="45.06959142954188" lon="9.664282012924584"><ele>48.33333333333333</ele><time>2026-04-09T09:51:02.857Z</time></trkpt><trkpt lat="45.06952650741605" lon="9.664202973513351"><ele>48.0</ele><time>2026-04-09T09:51:04.857Z</time></trkpt><trkpt lat="45.06946079745905" lon="9.664120868057209"><ele>47.666666666666664</ele><time>2026-04-09T09:51:06.857Z</time></trkpt><trkpt lat="45.06939021385631" lon="9.664046075131166"><ele>47.33333333333333</ele><time>2026-04-09T09:51:08.857Z</time></trkpt><trkpt lat="45.06932022155015" lon="9.663970638170795"><ele>47.0</ele><time>2026-04-09T09:51:10.857Z</time></trkpt><trkpt lat="45.06925438848974" lon="9.663904758766156"><ele>47.0</ele><time>2026-04-09T09:51:12.857Z</time></trkpt><trkpt lat="45.06919692890475" lon="9.663830060513337"><ele>47.0</ele><time>2026-04-09T09:51:14.857Z</time></trkpt><trkpt lat="45.06914189883154" lon="9.663745316888885"><ele>47.0</ele><time>2026-04-09T09:51:16.857Z</time></trkpt><trkpt lat="45.06908996637331" lon="9.66365825691188"><ele>47.0</ele><time>2026-04-09T09:51:18.857Z</time></trkpt><trkpt lat="45.06905856992118" lon="9.66353910751563"><ele>47.0</ele><time>2026-04-09T09:51:20.857Z</time></trkpt><trkpt lat="45.069026562208315" lon="9.663412818019896"><ele>47.0</ele><time>2026-04-09T09:51:22.857Z</time></trkpt><trkpt lat="45.068994510305004" lon="9.66328595360736"><ele>47.0</ele><time>2026-04-09T09:51:24.857Z</time></trkpt><trkpt lat="45.06896402114999" lon="9.663162642351422"><ele>47.0</ele><time>2026-04-09T09:51:26.857Z</time></trkpt><trkpt lat="45.06893625820721" lon="9.6630400847919"><ele>47.0</ele><time>2026-04-09T09:51:28.857Z</time></trkpt><trkpt lat="45.06890398451565" lon="9.662930493712228"><ele>47.0</ele><time>2026-04-09T09:51:30.857Z</time></trkpt><trkpt lat="45.06888080450764" lon="9.662815649020512"><ele>47.0</ele><time>2026-04-09T09:51:32.857Z</time></trkpt><trkpt lat="45.06884571819667" lon="9.662712440804144"><ele>47.0</ele><time>2026-04-09T09:51:34.857Z</time></trkpt><trkpt lat="45.068814428550034" lon="9.662607360056864"><ele>47.33333333333333</ele><time>2026-04-09T09:51:36.857Z</time></trkpt><trkpt lat="45.06879504373037" lon="9.66248488692875"><ele>47.666666666666664</ele><time>2026-04-09T09:51:38.857Z</time></trkpt><trkpt lat="45.0687649041887" lon="9.662378240495123"><ele>48.0</ele><time>2026-04-09T09:51:40.857Z</time></trkpt><trkpt lat="45.06873384974183" lon="9.662266165690237"><ele>48.33333333333333</ele><time>2026-04-09T09:51:42.856Z</time></trkpt><trkpt lat="45.06870730673537" lon="9.662152866540376"><ele>48.666666666666664</ele><time>2026-04-09T09:51:44.856Z</time></trkpt><trkpt lat="45.06867514354747" lon="9.662038038205369"><ele>49.0</ele><time>2026-04-09T09:51:46.856Z</time></trkpt><trkpt lat="45.06864215269147" lon="9.661926512968531"><ele>48.99999999999999</ele><time>2026-04-09T09:51:48.856Z</time></trkpt><trkpt lat="45.068617779432685" lon="9.661817268613769"><ele>49.0</ele><time>2026-04-09T09:51:50.856Z</time></trkpt><trkpt lat="45.06858919709715" lon="9.661705118138533"><ele>49.0</ele><time>2026-04-09T09:51:52.856Z</time></trkpt><trkpt lat="45.06855913747076" lon="9.661596454825567"><ele>49.0</ele><time>2026-04-09T09:51:54.856Z</time></trkpt><trkpt lat="45.06852843163422" lon="9.661486393426797"><ele>48.99999999999999</ele><time>2026-04-09T09:51:56.856Z</time></trkpt><trkpt lat="45.068503171348766" lon="9.661371910327137"><ele>49.0</ele><time>2026-04-09T09:51:58.856Z</time></trkpt><trkpt lat="45.068469746035895" lon="9.661259724448511"><ele>48.99999999999999</ele><time>2026-04-09T09:52:00.856Z</time></trkpt><trkpt lat="45.068440807865095" lon="9.661147402643344"><ele>49.0</ele><time>2026-04-09T09:52:02.856Z</time></trkpt><trkpt lat="45.06841126794044" lon="9.661031735754289"><ele>49.0</ele><time>2026-04-09T09:52:04.856Z</time></trkpt><trkpt lat="45.06838536504325" lon="9.660914433898718"><ele>49.0</ele><time>2026-04-09T09:52:06.856Z</time></trkpt><trkpt lat="45.06835267165537" lon="9.66079999978348"><ele>48.99999999999999</ele><time>2026-04-09T09:52:08.856Z</time></trkpt><trkpt lat="45.06832011084075" lon="9.660680228565186"><ele>49.0</ele><time>2026-04-09T09:52:10.856Z</time></trkpt><trkpt lat="45.06829319259312" lon="9.66056281331291"><ele>48.99999999999999</ele><time>2026-04-09T09:52:12.856Z</time></trkpt><trkpt lat="45.06825953767595" lon="9.660447723440864"><ele>49.0</ele><time>2026-04-09T09:52:14.856Z</time></trkpt><trkpt lat="45.06822983788025" lon="9.66032803925898"><ele>49.0</ele><time>2026-04-09T09:52:16.856Z</time></trkpt><trkpt lat="45.06820108341015" lon="9.660209962639929"><ele>49.0</ele><time>2026-04-09T09:52:18.856Z</time></trkpt><trkpt lat="45.068170612822456" lon="9.660097443024718"><ele>48.99999999999999</ele><time>2026-04-09T09:52:20.856Z</time></trkpt><trkpt lat="45.068129315621235" lon="9.659991462472941"><ele>49.0</ele><time>2026-04-09T09:52:22.856Z</time></trkpt><trkpt lat="45.06804869706899" lon="9.659933287182454"><ele>48.99999999999999</ele><time>2026-04-09T09:52:24.856Z</time></trkpt><trkpt lat="45.067950204152815" lon="9.659931874766304"><ele>49.0</ele><time>2026-04-09T09:52:26.856Z</time></trkpt><trkpt lat="45.06786122036154" lon="9.65991930743627"><ele>49.0</ele><time>2026-04-09T09:52:28.856Z</time></trkpt><trkpt lat="45.06777906839495" lon="9.659905354599543"><ele>49.0</ele><time>2026-04-09T09:52:30.855Z</time></trkpt><trkpt lat="45.06769924895003" lon="9.659892874039686"><ele>48.99999999999999</ele><time>2026-04-09T09:52:32.856Z</time></trkpt><trkpt lat="45.06762172905526" lon="9.659885715944336"><ele>49.0</ele><time>2026-04-09T09:52:34.855Z</time></trkpt><trkpt lat="45.067542830030064" lon="9.659881912043527"><ele>48.99999999999999</ele><time>2026-04-09T09:52:36.856Z</time></trkpt><trkpt lat="45.06746265599486" lon="9.659859759136836"><ele>49.0</ele><time>2026-04-09T09:52:38.855Z</time></trkpt><trkpt lat="45.067386334380075" lon="9.659820987481183"><ele>49.0</ele><time>2026-04-09T09:52:40.856Z</time></trkpt><trkpt lat="45.067325246253496" lon="9.659740806824484"><ele>49.0</ele><time>2026-04-09T09:52:42.856Z</time></trkpt><trkpt lat="45.06730338128035" lon="9.659623816348809"><ele>48.99999999999999</ele><time>2026-04-09T09:52:44.855Z</time></trkpt><trkpt lat="45.067266797478" lon="9.65950703615391"><ele>49.0</ele><time>2026-04-09T09:52:46.855Z</time></trkpt><trkpt lat="45.06723999642607" lon="9.659391928202824"><ele>49.166666666666664</ele><time>2026-04-09T09:52:48.855Z</time></trkpt><trkpt lat="45.06721289003179" lon="9.65927855606191"><ele>49.33333333333333</ele><time>2026-04-09T09:52:50.855Z</time></trkpt><trkpt lat="45.06718182226671" lon="9.659175671379634"><ele>49.5</ele><time>2026-04-09T09:52:52.855Z</time></trkpt><trkpt lat="45.06714703126133" lon="9.659079078903982"><ele>49.66666666666667</ele><time>2026-04-09T09:52:54.855Z</time></trkpt><trkpt lat="45.06711733777168" lon="9.658975021982044"><ele>49.833333333333336</ele><time>2026-04-09T09:52:56.855Z</time></trkpt><trkpt lat="45.067095524243605" lon="9.658856248296324"><ele>50.0</ele><time>2026-04-09T09:52:58.855Z</time></trkpt><trkpt lat="45.0670613483808" lon="9.658747290753988"><ele>50.00000000000001</ele><time>2026-04-09T09:53:00.855Z</time></trkpt><trkpt lat="45.06701655323743" lon="9.658645517048805"><ele>50.0</ele><time>2026-04-09T09:53:02.854Z</time></trkpt><trkpt lat="45.066970619137564" lon="9.658547324263022"><ele>50.0</ele><time>2026-04-09T09:53:04.854Z</time></trkpt><trkpt lat="45.06691338155685" lon="9.658466631631331"><ele>50.0</ele><time>2026-04-09T09:53:06.854Z</time></trkpt><trkpt lat="45.066865436843614" lon="9.658382007886937"><ele>50.00000000000001</ele><time>2026-04-09T09:53:08.854Z</time></trkpt><trkpt lat="45.066818064007045" lon="9.65830222833851"><ele>50.0</ele><time>2026-04-09T09:53:10.854Z</time></trkpt><trkpt lat="45.06676833780939" lon="9.658219589879414"><ele>50.00000000000001</ele><time>2026-04-09T09:53:12.853Z</time></trkpt><trkpt lat="45.066712390679655" lon="9.658147935924761"><ele>50.0</ele><time>2026-04-09T09:53:14.853Z</time></trkpt><trkpt lat="45.06666014409402" lon="9.65808344553144"><ele>50.0</ele><time>2026-04-09T09:53:16.852Z</time></trkpt><trkpt lat="45.06659980211226" lon="9.658012155957714"><ele>50.0</ele><time>2026-04-09T09:53:18.852Z</time></trkpt><trkpt lat="45.06654451754682" lon="9.657917074026773"><ele>50.00000000000001</ele><time>2026-04-09T09:53:20.852Z</time></trkpt><trkpt lat="45.06648216053884" lon="9.65784276086052"><ele>50.0</ele><time>2026-04-09T09:53:22.851Z</time></trkpt><trkpt lat="45.06641592851831" lon="9.657767483465202"><ele>50.00000000000001</ele><time>2026-04-09T09:53:24.851Z</time></trkpt><trkpt lat="45.066344768516664" lon="9.657693029101484"><ele>50.0</ele><time>2026-04-09T09:53:26.851Z</time></trkpt><trkpt lat="45.0662681363868" lon="9.657635855848945"><ele>50.0</ele><time>2026-04-09T09:53:28.851Z</time></trkpt><trkpt lat="45.066206394865354" lon="9.6575656917409"><ele>50.0</ele><time>2026-04-09T09:53:30.85Z</time></trkpt><trkpt lat="45.06614053144711" lon="9.657504203096696"><ele>50.00000000000001</ele><time>2026-04-09T09:53:32.85Z</time></trkpt><trkpt lat="45.0660698838932" lon="9.657446461814377"><ele>50.0</ele><time>2026-04-09T09:53:34.85Z</time></trkpt><trkpt lat="45.06599783319109" lon="9.657385015953658"><ele>50.00000000000001</ele><time>2026-04-09T09:53:36.85Z</time></trkpt><trkpt lat="45.06592612519587" lon="9.657325025311426"><ele>50.0</ele><time>2026-04-09T09:53:38.85Z</time></trkpt><trkpt lat="45.06584447530411" lon="9.657279807172033"><ele>50.0</ele><time>2026-04-09T09:53:40.85Z</time></trkpt><trkpt lat="45.06576625518109" lon="9.65723378963627"><ele>50.0</ele><time>2026-04-09T09:53:42.849Z</time></trkpt><trkpt lat="45.06568110829052" lon="9.657193395858116"><ele>50.00000000000001</ele><time>2026-04-09T09:53:44.849Z</time></trkpt><trkpt lat="45.06559577154558" lon="9.657158229292465"><ele>50.0</ele><time>2026-04-09T09:53:46.849Z</time></trkpt><trkpt lat="45.06550658114869" lon="9.657132755461687"><ele>49.6</ele><time>2026-04-09T09:53:48.849Z</time></trkpt><trkpt lat="45.06541613093608" lon="9.657112916082149"><ele>49.2</ele><time>2026-04-09T09:53:50.849Z</time></trkpt><trkpt lat="45.065330312698634" lon="9.657095375342692"><ele>48.8</ele><time>2026-04-09T09:53:52.849Z</time></trkpt><trkpt lat="45.06524043306992" lon="9.657078730860398"><ele>48.4</ele><time>2026-04-09T09:53:54.849Z</time></trkpt><trkpt lat="45.06515389126834" lon="9.657054077626205"><ele>48.0</ele><time>2026-04-09T09:53:56.849Z</time></trkpt><trkpt lat="45.065061205386264" lon="9.6570365424339"><ele>48.0</ele><time>2026-04-09T09:53:58.849Z</time></trkpt><trkpt lat="45.06497222276619" lon="9.657015534174917"><ele>48.0</ele><time>2026-04-09T09:54:00.849Z</time></trkpt><trkpt lat="45.06488244554722" lon="9.656998180767232"><ele>48.0</ele><time>2026-04-09T09:54:02.849Z</time></trkpt><trkpt lat="45.06479343362557" lon="9.656980115871985"><ele>48.0</ele><time>2026-04-09T09:54:04.849Z</time></trkpt><trkpt lat="45.06470292549523" lon="9.656961471345614"><ele>48.0</ele><time>2026-04-09T09:54:06.849Z</time></trkpt><trkpt lat="45.06460995705787" lon="9.656938346869715"><ele>47.8</ele><time>2026-04-09T09:54:08.849Z</time></trkpt><trkpt lat="45.064514301734405" lon="9.656916993499252"><ele>47.599999999999994</ele><time>2026-04-09T09:54:10.848Z</time></trkpt><trkpt lat="45.064423642986576" lon="9.656897806713118"><ele>47.400000000000006</ele><time>2026-04-09T09:54:12.848Z</time></trkpt><trkpt lat="45.06433883371392" lon="9.656874487779518"><ele>47.2</ele><time>2026-04-09T09:54:14.848Z</time></trkpt><trkpt lat="45.06424666316728" lon="9.656861039036547"><ele>47.0</ele><time>2026-04-09T09:54:16.848Z</time></trkpt><trkpt lat="45.06415652371438" lon="9.656840603002232"><ele>47.83333333333333</ele><time>2026-04-09T09:54:18.848Z</time></trkpt><trkpt lat="45.064072810125516" lon="9.656824085450836"><ele>48.666666666666664</ele><time>2026-04-09T09:54:20.848Z</time></trkpt><trkpt lat="45.06399252607006" lon="9.656801375284081"><ele>49.5</ele><time>2026-04-09T09:54:22.848Z</time></trkpt><trkpt lat="45.06390952875997" lon="9.656783107505348"><ele>50.33333333333333</ele><time>2026-04-09T09:54:24.848Z</time></trkpt><trkpt lat="45.06382406093341" lon="9.656763491545963"><ele>51.166666666666664</ele><time>2026-04-09T09:54:26.848Z</time></trkpt><trkpt lat="45.0637385556072" lon="9.65674957151025"><ele>52.0</ele><time>2026-04-09T09:54:28.848Z</time></trkpt><trkpt lat="45.06366176898123" lon="9.656729245511674"><ele>51.99999999999999</ele><time>2026-04-09T09:54:30.848Z</time></trkpt><trkpt lat="45.063586382743246" lon="9.656708880875293"><ele>52.0</ele><time>2026-04-09T09:54:32.848Z</time></trkpt><trkpt lat="45.063509386323005" lon="9.656694907524429"><ele>52.0</ele><time>2026-04-09T09:54:34.848Z</time></trkpt><trkpt lat="45.06343286635406" lon="9.656674559032771"><ele>52.0</ele><time>2026-04-09T09:54:36.848Z</time></trkpt><trkpt lat="45.06335141164221" lon="9.656657498097848"><ele>51.99999999999999</ele><time>2026-04-09T09:54:38.848Z</time></trkpt><trkpt lat="45.06327370507078" lon="9.656638801020298"><ele>52.0</ele><time>2026-04-09T09:54:40.848Z</time></trkpt><trkpt lat="45.06320673911956" lon="9.65662699540782"><ele>52.14285714285714</ele><time>2026-04-09T09:54:42.848Z</time></trkpt><trkpt lat="45.06314345557667" lon="9.656605646923486"><ele>52.28571428571429</ele><time>2026-04-09T09:54:44.848Z</time></trkpt><trkpt lat="45.06306672038546" lon="9.656563961683696"><ele>52.42857142857143</ele><time>2026-04-09T09:54:47.848Z</time></trkpt><trkpt lat="45.06307975651261" lon="9.65647483648228"><ele>52.57142857142857</ele><time>2026-04-09T09:54:49.848Z</time></trkpt><trkpt lat="45.0630999366213" lon="9.656352112374698"><ele>52.71428571428571</ele><time>2026-04-09T09:54:52.848Z</time></trkpt><trkpt lat="45.0631138403556" lon="9.656247568313608"><ele>52.85714285714286</ele><time>2026-04-09T09:54:54.848Z</time></trkpt><trkpt lat="45.06312954380017" lon="9.656155066936007"><ele>53.0</ele><time>2026-04-09T09:54:56.848Z</time></trkpt><trkpt lat="45.06313913248896" lon="9.656066717831635"><ele>53.0</ele><time>2026-04-09T09:54:58.848Z</time></trkpt><trkpt lat="45.0631487861874" lon="9.655941306699612"><ele>53.0</ele><time>2026-04-09T09:55:01.848Z</time></trkpt><trkpt lat="45.06315102994221" lon="9.655847296547215"><ele>53.0</ele><time>2026-04-09T09:55:03.847Z</time></trkpt><trkpt lat="45.063136820346266" lon="9.65575180332208"><ele>53.0</ele><time>2026-04-09T09:55:05.847Z</time></trkpt><trkpt lat="45.06310795809648" lon="9.655653078873897"><ele>53.0</ele><time>2026-04-09T09:55:07.847Z</time></trkpt><trkpt lat="45.063057790465756" lon="9.655583720688151"><ele>53.0</ele><time>2026-04-09T09:55:09.847Z</time></trkpt><trkpt lat="45.062995472819814" lon="9.655531833175145"><ele>53.0</ele><time>2026-04-09T09:55:11.847Z</time></trkpt><trkpt lat="45.06291551845936" lon="9.655504252595634"><ele>53.00000000000001</ele><time>2026-04-09T09:55:13.847Z</time></trkpt><trkpt lat="45.062838677462295" lon="9.6554746583528"><ele>53.0</ele><time>2026-04-09T09:55:15.847Z</time></trkpt><trkpt lat="45.06276079457622" lon="9.655445528363472"><ele>53.0</ele><time>2026-04-09T09:55:17.847Z</time></trkpt><trkpt lat="45.062679883454024" lon="9.65541533479783"><ele>53.0</ele><time>2026-04-09T09:55:19.847Z</time></trkpt><trkpt lat="45.06260482498444" lon="9.655384939188933"><ele>53.00000000000001</ele><time>2026-04-09T09:55:21.847Z</time></trkpt><trkpt lat="45.06252749240627" lon="9.655360663297605"><ele>53.0</ele><time>2026-04-09T09:55:23.847Z</time></trkpt><trkpt lat="45.06245731352322" lon="9.655326834902002"><ele>53.16666666666667</ele><time>2026-04-09T09:55:25.847Z</time></trkpt><trkpt lat="45.06239183202107" lon="9.655275002638207"><ele>53.333333333333336</ele><time>2026-04-09T09:55:27.847Z</time></trkpt><trkpt lat="45.062358084024005" lon="9.655184967921109"><ele>53.5</ele><time>2026-04-09T09:55:29.847Z</time></trkpt><trkpt lat="45.06235688730583" lon="9.655069750521244"><ele>53.66666666666667</ele><time>2026-04-09T09:55:31.847Z</time></trkpt><trkpt lat="45.06239036104915" lon="9.654966149446365"><ele>53.833333333333336</ele><time>2026-04-09T09:55:33.847Z</time></trkpt><trkpt lat="45.062423474883126" lon="9.654862056609693"><ele>54.0</ele><time>2026-04-09T09:55:35.847Z</time></trkpt><trkpt lat="45.06245875264702" lon="9.654753545023514"><ele>54.166666666666664</ele><time>2026-04-09T09:55:37.847Z</time></trkpt><trkpt lat="45.06249013836289" lon="9.654639227199809"><ele>54.33333333333333</ele><time>2026-04-09T09:55:39.847Z</time></trkpt><trkpt lat="45.062522224329626" lon="9.654529556408686"><ele>54.5</ele><time>2026-04-09T09:55:41.847Z</time></trkpt><trkpt lat="45.06254060898563" lon="9.65442964629671"><ele>54.666666666666664</ele><time>2026-04-09T09:55:43.847Z</time></trkpt><trkpt lat="45.06257086149513" lon="9.654326077273664"><ele>54.83333333333333</ele><time>2026-04-09T09:55:45.847Z</time></trkpt><trkpt lat="45.06259755702881" lon="9.654213908363111"><ele>55.0</ele><time>2026-04-09T09:55:47.847Z</time></trkpt><trkpt lat="45.06262888459855" lon="9.654105573515267"><ele>55.33333333333333</ele><time>2026-04-09T09:55:49.847Z</time></trkpt><trkpt lat="45.062652887769694" lon="9.654001241701883"><ele>55.666666666666664</ele><time>2026-04-09T09:55:51.847Z</time></trkpt><trkpt lat="45.062677916482635" lon="9.653892011018902"><ele>56.0</ele><time>2026-04-09T09:55:53.847Z</time></trkpt><trkpt lat="45.06271034707335" lon="9.653782808792338"><ele>56.33333333333333</ele><time>2026-04-09T09:55:55.846Z</time></trkpt><trkpt lat="45.062734778816306" lon="9.653670578909995"><ele>56.666666666666664</ele><time>2026-04-09T09:55:57.846Z</time></trkpt><trkpt lat="45.06275858234074" lon="9.653559713647677"><ele>57.0</ele><time>2026-04-09T09:55:59.846Z</time></trkpt><trkpt lat="45.062780227981506" lon="9.653455071915293"><ele>57.0</ele><time>2026-04-09T09:56:01.846Z</time></trkpt><trkpt lat="45.06280871527105" lon="9.6533441942378"><ele>57.0</ele><time>2026-04-09T09:56:03.846Z</time></trkpt><trkpt lat="45.062837445402316" lon="9.65323095040256"><ele>57.0</ele><time>2026-04-09T09:56:05.846Z</time></trkpt><trkpt lat="45.062864447507394" lon="9.653121200441488"><ele>57.0</ele><time>2026-04-09T09:56:07.846Z</time></trkpt><trkpt lat="45.06289145149532" lon="9.653010820501969"><ele>57.0</ele><time>2026-04-09T09:56:09.846Z</time></trkpt><trkpt lat="45.062922105115376" lon="9.652897693968228"><ele>57.0</ele><time>2026-04-09T09:56:11.846Z</time></trkpt><trkpt lat="45.06295023834047" lon="9.65279858721755"><ele>56.6</ele><time>2026-04-09T09:56:13.846Z</time></trkpt><trkpt lat="45.0629774436858" lon="9.652691622525099"><ele>56.2</ele><time>2026-04-09T09:56:15.846Z</time></trkpt><trkpt lat="45.062997744915464" lon="9.652563562599362"><ele>55.8</ele><time>2026-04-09T09:56:17.846Z</time></trkpt><trkpt lat="45.063027152058076" lon="9.652438924117833"><ele>55.4</ele><time>2026-04-09T09:56:19.846Z</time></trkpt><trkpt lat="45.06306797421578" lon="9.65230475660085"><ele>55.0</ele><time>2026-04-09T09:56:21.846Z</time></trkpt><trkpt lat="45.06310149481451" lon="9.652147454102275"><ele>55.0</ele><time>2026-04-09T09:56:23.846Z</time></trkpt><trkpt lat="45.06315937305613" lon="9.652087563033268"><ele>55.0</ele><time>2026-04-09T09:56:24.846Z</time></trkpt><trkpt lat="45.063205029452305" lon="9.651923556061849"><ele>55.0</ele><time>2026-04-09T09:56:26.846Z</time></trkpt><trkpt lat="45.06322772764883" lon="9.651781622981789"><ele>55.0</ele><time>2026-04-09T09:56:28.846Z</time></trkpt><trkpt lat="45.06320275488347" lon="9.65163051838564"><ele>55.0</ele><time>2026-04-09T09:56:30.846Z</time></trkpt><trkpt lat="45.06313535613433" lon="9.65151058661013"><ele>54.99999999999999</ele><time>2026-04-09T09:56:32.846Z</time></trkpt><trkpt lat="45.063073654806836" lon="9.651421058362683"><ele>55.0</ele><time>2026-04-09T09:56:34.846Z</time></trkpt><trkpt lat="45.063013580274784" lon="9.651345195136795"><ele>55.0</ele><time>2026-04-09T09:56:36.846Z</time></trkpt><trkpt lat="45.06295908320528" lon="9.651269315896835"><ele>55.0</ele><time>2026-04-09T09:56:38.846Z</time></trkpt><trkpt lat="45.06290464276377" lon="9.651196284061411"><ele>54.99999999999999</ele><time>2026-04-09T09:56:40.846Z</time></trkpt><trkpt lat="45.06285767901919" lon="9.651101201480774"><ele>55.0</ele><time>2026-04-09T09:56:42.845Z</time></trkpt><trkpt lat="45.062795284750855" lon="9.65103930523298"><ele>54.83333333333333</ele><time>2026-04-09T09:56:44.845Z</time></trkpt><trkpt lat="45.062757637445216" lon="9.650947169182649"><ele>54.666666666666664</ele><time>2026-04-09T09:56:46.845Z</time></trkpt><trkpt lat="45.06269935845616" lon="9.650882632093477"><ele>54.5</ele><time>2026-04-09T09:56:48.845Z</time></trkpt><trkpt lat="45.062647605519906" lon="9.65080067572691"><ele>54.33333333333333</ele><time>2026-04-09T09:56:50.845Z</time></trkpt><trkpt lat="45.06259808682616" lon="9.650714390509062"><ele>54.166666666666664</ele><time>2026-04-09T09:56:52.845Z</time></trkpt><trkpt lat="45.06254531335943" lon="9.650644598270665"><ele>54.0</ele><time>2026-04-09T09:56:54.844Z</time></trkpt><trkpt lat="45.062493697142514" lon="9.650569890103952"><ele>54.0</ele><time>2026-04-09T09:56:56.844Z</time></trkpt><trkpt lat="45.06244378948253" lon="9.650487420000127"><ele>54.0</ele><time>2026-04-09T09:56:58.844Z</time></trkpt><trkpt lat="45.062392580751315" lon="9.650413788389661"><ele>54.0</ele><time>2026-04-09T09:57:00.844Z</time></trkpt><trkpt lat="45.062341519408896" lon="9.650342485258482"><ele>54.0</ele><time>2026-04-09T09:57:02.844Z</time></trkpt><trkpt lat="45.06228162786308" lon="9.650284208137547"><ele>54.0</ele><time>2026-04-09T09:57:04.844Z</time></trkpt><trkpt lat="45.0622197394956" lon="9.650228928978791"><ele>54.0</ele><time>2026-04-09T09:57:06.844Z</time></trkpt><trkpt lat="45.062158638013756" lon="9.650181436366863"><ele>54.0</ele><time>2026-04-09T09:57:08.844Z</time></trkpt><trkpt lat="45.062094091338324" lon="9.65014062496286"><ele>54.14285714285714</ele><time>2026-04-09T09:57:10.844Z</time></trkpt><trkpt lat="45.062031048509276" lon="9.650101304050475"><ele>54.285714285714285</ele><time>2026-04-09T09:57:12.844Z</time></trkpt><trkpt lat="45.061962917770714" lon="9.650076025846722"><ele>54.42857142857143</ele><time>2026-04-09T09:57:14.843Z</time></trkpt><trkpt lat="45.061899297811905" lon="9.650054304870736"><ele>54.57142857142857</ele><time>2026-04-09T09:57:16.843Z</time></trkpt><trkpt lat="45.06183601491117" lon="9.650036152663535"><ele>54.714285714285715</ele><time>2026-04-09T09:57:18.843Z</time></trkpt><trkpt lat="45.06174156353216" lon="9.650038062794586"><ele>54.857142857142854</ele><time>2026-04-09T09:57:21.843Z</time></trkpt><trkpt lat="45.061675844624766" lon="9.650029302016122"><ele>55.0</ele><time>2026-04-09T09:57:23.843Z</time></trkpt><trkpt lat="45.06158148535048" lon="9.650020398442454"><ele>54.99999999999999</ele><time>2026-04-09T09:57:26.843Z</time></trkpt><trkpt lat="45.0615086392656" lon="9.650015129537524"><ele>55.0</ele><time>2026-04-09T09:57:28.843Z</time></trkpt><trkpt lat="45.061437159378656" lon="9.650011023733276"><ele>55.0</ele><time>2026-04-09T09:57:30.843Z</time></trkpt><trkpt lat="45.06135698226651" lon="9.6500032477342"><ele>55.0</ele><time>2026-04-09T09:57:32.843Z</time></trkpt><trkpt lat="45.06127086549453" lon="9.649997705895096"><ele>54.99999999999999</ele><time>2026-04-09T09:57:34.843Z</time></trkpt><trkpt lat="45.06118101275605" lon="9.64998988391331"><ele>55.0</ele><time>2026-04-09T09:57:36.843Z</time></trkpt><trkpt lat="45.06108821473582" lon="9.649976451479683"><ele>55.0</ele><time>2026-04-09T09:57:38.843Z</time></trkpt><trkpt lat="45.06099091463262" lon="9.649969000338798"><ele>55.0</ele><time>2026-04-09T09:57:40.843Z</time></trkpt><trkpt lat="45.06088877822314" lon="9.64995264973674"><ele>55.0</ele><time>2026-04-09T09:57:42.843Z</time></trkpt><trkpt lat="45.06078165529869" lon="9.649939628111719"><ele>55.0</ele><time>2026-04-09T09:57:44.843Z</time></trkpt><trkpt lat="45.06066744986068" lon="9.649935249809294"><ele>55.0</ele><time>2026-04-09T09:57:46.843Z</time></trkpt><trkpt lat="45.06054859407118" lon="9.649924811883256"><ele>54.33333333333333</ele><time>2026-04-09T09:57:48.843Z</time></trkpt><trkpt lat="45.06042466514317" lon="9.649913633128836"><ele>53.666666666666664</ele><time>2026-04-09T09:57:50.843Z</time></trkpt><trkpt lat="45.060360829459576" lon="9.649914305623515"><ele>53.0</ele><time>2026-04-09T09:57:51.843Z</time></trkpt><trkpt lat="45.06029662735648" lon="9.64991734645053"><ele>52.33333333333333</ele><time>2026-04-09T09:57:52.843Z</time></trkpt><trkpt lat="45.060232258790734" lon="9.649906396422285"><ele>51.666666666666664</ele><time>2026-04-09T09:57:53.843Z</time></trkpt><trkpt lat="45.060165043578316" lon="9.64989992364699"><ele>51.0</ele><time>2026-04-09T09:57:54.843Z</time></trkpt><trkpt lat="45.06009765368635" lon="9.649894478775018"><ele>51.0</ele><time>2026-04-09T09:57:55.843Z</time></trkpt><trkpt lat="45.06002873569833" lon="9.649890567553047"><ele>51.0</ele><time>2026-04-09T09:57:56.843Z</time></trkpt><trkpt lat="45.05996140511608" lon="9.649888624203008"><ele>51.0</ele><time>2026-04-09T09:57:57.843Z</time></trkpt><trkpt lat="45.05989858806318" lon="9.649861057760825"><ele>51.0</ele><time>2026-04-09T09:57:58.843Z</time></trkpt><trkpt lat="45.059834839640644" lon="9.649854158401599"><ele>51.0</ele><time>2026-04-09T09:57:59.843Z</time></trkpt><trkpt lat="45.05972370036541" lon="9.649890824609411"><ele>51.0</ele><time>2026-04-09T09:58:01.843Z</time></trkpt><trkpt lat="45.059620711596395" lon="9.649959478636347"><ele>51.5</ele><time>2026-04-09T09:58:03.843Z</time></trkpt><trkpt lat="45.05961034763808" lon="9.65006021060604"><ele>52.0</ele><time>2026-04-09T09:58:04.842Z</time></trkpt><trkpt lat="45.0595912532654" lon="9.65019196209126"><ele>52.5</ele><time>2026-04-09T09:58:06.842Z</time></trkpt><trkpt lat="45.05956288513732" lon="9.650304379384519"><ele>53.0</ele><time>2026-04-09T09:58:09.842Z</time></trkpt><trkpt lat="45.059484938504376" lon="9.650298562149798"><ele>53.5</ele><time>2026-04-09T09:58:12.842Z</time></trkpt><trkpt lat="45.059407855704166" lon="9.65026217850442"><ele>54.0</ele><time>2026-04-09T09:58:15.842Z</time></trkpt><trkpt lat="45.059338593180684" lon="9.650229872273984"><ele>54.166666666666664</ele><time>2026-04-09T09:58:18.842Z</time></trkpt><trkpt lat="45.05927928471635" lon="9.650173089604237"><ele>54.33333333333333</ele><time>2026-04-09T09:58:21.842Z</time></trkpt><trkpt lat="45.05919478482288" lon="9.65015977173592"><ele>54.5</ele><time>2026-04-09T09:58:24.842Z</time></trkpt><trkpt lat="45.05910491683122" lon="9.650135166828326"><ele>54.666666666666664</ele><time>2026-04-09T09:58:27.842Z</time></trkpt><trkpt lat="45.05902572250204" lon="9.65011690134666"><ele>54.83333333333333</ele><time>2026-04-09T09:58:30.842Z</time></trkpt><trkpt lat="45.058949740674564" lon="9.650097280907513"><ele>55.0</ele><time>2026-04-09T09:58:33.842Z</time></trkpt><trkpt lat="45.05887116496347" lon="9.65006884358949"><ele>55.166666666666664</ele><time>2026-04-09T09:58:36.842Z</time></trkpt><trkpt lat="45.058789495906474" lon="9.65003013948842"><ele>55.33333333333333</ele><time>2026-04-09T09:58:39.842Z</time></trkpt><trkpt lat="45.058699713866524" lon="9.649990608526"><ele>55.5</ele><time>2026-04-09T09:58:42.842Z</time></trkpt><trkpt lat="45.058608038848575" lon="9.649970930607562"><ele>55.66666666666667</ele><time>2026-04-09T09:58:45.842Z</time></trkpt><trkpt lat="45.05854533385781" lon="9.649959259525648"><ele>55.833333333333336</ele><time>2026-04-09T09:58:47.842Z</time></trkpt><trkpt lat="45.05848252739032" lon="9.649929756685891"><ele>56.0</ele><time>2026-04-09T09:58:49.842Z</time></trkpt><trkpt lat="45.058419461115115" lon="9.649914942462285"><ele>56.00000000000001</ele><time>2026-04-09T09:58:51.841Z</time></trkpt><trkpt lat="45.05835448627498" lon="9.64990226279211"><ele>56.0</ele><time>2026-04-09T09:58:53.841Z</time></trkpt><trkpt lat="45.058294087171895" lon="9.649873289613858"><ele>56.0</ele><time>2026-04-09T09:58:55.841Z</time></trkpt><trkpt lat="45.05820840440631" lon="9.649833157962687"><ele>56.0</ele><time>2026-04-09T09:58:58.841Z</time></trkpt><trkpt lat="45.05813685437996" lon="9.649809969448041"><ele>56.00000000000001</ele><time>2026-04-09T09:59:00.841Z</time></trkpt><trkpt lat="45.058047208278815" lon="9.649778511650975"><ele>56.0</ele><time>2026-04-09T09:59:03.841Z</time></trkpt><trkpt lat="45.057953827605836" lon="9.649755408304756"><ele>56.00000000000001</ele><time>2026-04-09T09:59:06.841Z</time></trkpt><trkpt lat="45.05789256674446" lon="9.649734409240569"><ele>56.0</ele><time>2026-04-09T09:59:08.841Z</time></trkpt><trkpt lat="45.057817757001224" lon="9.649730151068516"><ele>56.0</ele><time>2026-04-09T09:59:11.84Z</time></trkpt><trkpt lat="45.057745363064775" lon="9.649710517467557"><ele>56.0</ele><time>2026-04-09T09:59:14.84Z</time></trkpt><trkpt lat="45.057657379877135" lon="9.649674602837337"><ele>56.00000000000001</ele><time>2026-04-09T09:59:17.84Z</time></trkpt><trkpt lat="45.057571799485764" lon="9.649641389427204"><ele>56.0</ele><time>2026-04-09T09:59:20.84Z</time></trkpt><trkpt lat="45.05747825327002" lon="9.649654442657484"><ele>56.14285714285714</ele><time>2026-04-09T09:59:23.84Z</time></trkpt><trkpt lat="45.05738603420673" lon="9.649660613908306"><ele>56.285714285714285</ele><time>2026-04-09T09:59:26.84Z</time></trkpt><trkpt lat="45.057320283278415" lon="9.649647431076382"><ele>56.42857142857143</ele><time>2026-04-09T09:59:28.84Z</time></trkpt><trkpt lat="45.057253330943645" lon="9.649640262630873"><ele>56.57142857142857</ele><time>2026-04-09T09:59:30.84Z</time></trkpt><trkpt lat="45.057187107462596" lon="9.649634769287637"><ele>56.71428571428571</ele><time>2026-04-09T09:59:32.84Z</time></trkpt><trkpt lat="45.057116677962334" lon="9.649617351610516"><ele>56.857142857142854</ele><time>2026-04-09T09:59:34.84Z</time></trkpt><trkpt lat="45.057042330452" lon="9.649602262807226"><ele>57.0</ele><time>2026-04-09T09:59:36.84Z</time></trkpt><trkpt lat="45.056952156329096" lon="9.649605061910188"><ele>57.0</ele><time>2026-04-09T09:59:38.84Z</time></trkpt><trkpt lat="45.05684363943509" lon="9.649609570770727"><ele>57.0</ele><time>2026-04-09T09:59:40.84Z</time></trkpt><trkpt lat="45.05672308832711" lon="9.649608732243522"><ele>57.0</ele><time>2026-04-09T09:59:42.84Z</time></trkpt><trkpt lat="45.05665636288232" lon="9.649609165248"><ele>57.0</ele><time>2026-04-09T09:59:43.84Z</time></trkpt><trkpt lat="45.056586565565254" lon="9.649622469177505"><ele>57.0</ele><time>2026-04-09T09:59:44.84Z</time></trkpt><trkpt lat="45.05651731884007" lon="9.649634261224508"><ele>57.0</ele><time>2026-04-09T09:59:45.84Z</time></trkpt><trkpt lat="45.05645488617639" lon="9.649649372641662"><ele>57.0</ele><time>2026-04-09T09:59:46.84Z</time></trkpt><trkpt lat="45.05634700862679" lon="9.649669223781856"><ele>57.0</ele><time>2026-04-09T09:59:48.84Z</time></trkpt><trkpt lat="45.05622914819408" lon="9.649682888978486"><ele>57.0</ele><time>2026-04-09T09:59:50.84Z</time></trkpt><trkpt lat="45.05611861572338" lon="9.64968164884106"><ele>57.0</ele><time>2026-04-09T09:59:52.84Z</time></trkpt><trkpt lat="45.0560318445446" lon="9.649683055077118"><ele>57.0</ele><time>2026-04-09T09:59:54.84Z</time></trkpt><trkpt lat="45.05595093413004" lon="9.649659241763768"><ele>57.0</ele><time>2026-04-09T09:59:56.84Z</time></trkpt><trkpt lat="45.0558688684542" lon="9.649647203690133"><ele>57.0</ele><time>2026-04-09T09:59:58.84Z</time></trkpt><trkpt lat="45.05579310824391" lon="9.649624308153685"><ele>57.0</ele><time>2026-04-09T10:00:00.84Z</time></trkpt><trkpt lat="45.055705712682375" lon="9.6496026235874"><ele>57.0</ele><time>2026-04-09T10:00:02.839Z</time></trkpt><trkpt lat="45.05561815382264" lon="9.649585389699018"><ele>57.0</ele><time>2026-04-09T10:00:05.839Z</time></trkpt><trkpt lat="45.055530327880675" lon="9.649576132156454"><ele>57.0</ele><time>2026-04-09T10:00:08.839Z</time></trkpt><trkpt lat="45.055464365618384" lon="9.64956592523367"><ele>57.166666666666664</ele><time>2026-04-09T10:00:10.839Z</time></trkpt><trkpt lat="45.05539004873647" lon="9.649561506296227"><ele>57.33333333333333</ele><time>2026-04-09T10:00:12.839Z</time></trkpt><trkpt lat="45.05532352837844" lon="9.649561974370625"><ele>57.5</ele><time>2026-04-09T10:00:14.839Z</time></trkpt><trkpt lat="45.055232772767255" lon="9.649553792739578"><ele>57.666666666666664</ele><time>2026-04-09T10:00:17.839Z</time></trkpt><trkpt lat="45.055153769967156" lon="9.649561568107583"><ele>57.83333333333333</ele><time>2026-04-09T10:00:20.839Z</time></trkpt><trkpt lat="45.055061122478286" lon="9.649545274751482"><ele>58.0</ele><time>2026-04-09T10:00:23.839Z</time></trkpt><trkpt lat="45.055000404890635" lon="9.649578384571589"><ele>58.49999999999999</ele><time>2026-04-09T10:00:28.839Z</time></trkpt><trkpt lat="45.05493771144116" lon="9.649630921774822"><ele>59.0</ele><time>2026-04-09T10:00:31.839Z</time></trkpt><trkpt lat="45.05492975510849" lon="9.649721101468758"><ele>59.5</ele><time>2026-04-09T10:00:33.839Z</time></trkpt><trkpt lat="45.05492462683298" lon="9.649837350922562"><ele>60.0</ele><time>2026-04-09T10:00:35.839Z</time></trkpt><trkpt lat="45.05492251496927" lon="9.6499487496294"><ele>60.49999999999999</ele><time>2026-04-09T10:00:37.839Z</time></trkpt><trkpt lat="45.05490961974187" lon="9.650082478331797"><ele>61.0</ele><time>2026-04-09T10:00:39.839Z</time></trkpt><trkpt lat="45.05489524696912" lon="9.650207264319329"><ele>60.83333333333333</ele><time>2026-04-09T10:00:41.839Z</time></trkpt><trkpt lat="45.05488994723606" lon="9.650324940712927"><ele>60.666666666666664</ele><time>2026-04-09T10:00:43.839Z</time></trkpt><trkpt lat="45.05490147364485" lon="9.6504363203264"><ele>60.5</ele><time>2026-04-09T10:00:45.839Z</time></trkpt><trkpt lat="45.05490051883681" lon="9.650539663501"><ele>60.33333333333333</ele><time>2026-04-09T10:00:47.839Z</time></trkpt><trkpt lat="45.05486938105185" lon="9.650618433250365"><ele>60.166666666666664</ele><time>2026-04-09T10:00:49.839Z</time></trkpt><trkpt lat="45.05479954649623" lon="9.650614458630264"><ele>60.0</ele><time>2026-04-09T10:00:51.839Z</time></trkpt><trkpt lat="45.05471763156546" lon="9.650592247411055"><ele>60.0</ele><time>2026-04-09T10:00:53.838Z</time></trkpt><trkpt lat="45.05462998111204" lon="9.650543666802006"><ele>60.0</ele><time>2026-04-09T10:00:55.838Z</time></trkpt><trkpt lat="45.05454510779066" lon="9.650508841552092"><ele>60.0</ele><time>2026-04-09T10:00:57.839Z</time></trkpt><trkpt lat="45.0544665573508" lon="9.650481299660589"><ele>60.0</ele><time>2026-04-09T10:00:59.838Z</time></trkpt><trkpt lat="45.05439044475566" lon="9.650448952976507"><ele>60.0</ele><time>2026-04-09T10:01:01.838Z</time></trkpt><trkpt lat="45.054320349568336" lon="9.650417173730093"><ele>60.0</ele><time>2026-04-09T10:01:03.838Z</time></trkpt><trkpt lat="45.054248170902916" lon="9.650400037346863"><ele>60.0</ele><time>2026-04-09T10:01:05.838Z</time></trkpt><trkpt lat="45.054172497674564" lon="9.650379321512503"><ele>60.0</ele><time>2026-04-09T10:01:07.838Z</time></trkpt><trkpt lat="45.05407880602772" lon="9.650351252036977"><ele>60.0</ele><time>2026-04-09T10:01:09.838Z</time></trkpt><trkpt lat="45.053993402976964" lon="9.650319911359425"><ele>60.0</ele><time>2026-04-09T10:01:11.838Z</time></trkpt><trkpt lat="45.053911902436184" lon="9.650296407268831"><ele>60.0</ele><time>2026-04-09T10:01:13.838Z</time></trkpt><trkpt lat="45.05383098433477" lon="9.650266788688892"><ele>60.0</ele><time>2026-04-09T10:01:15.838Z</time></trkpt><trkpt lat="45.05375519338422" lon="9.650255658768838"><ele>59.833333333333336</ele><time>2026-04-09T10:01:17.838Z</time></trkpt><trkpt lat="45.0536777896884" lon="9.650230234073044"><ele>59.66666666666667</ele><time>2026-04-09T10:01:19.838Z</time></trkpt><trkpt lat="45.05360225706708" lon="9.650210163924015"><ele>59.5</ele><time>2026-04-09T10:01:21.838Z</time></trkpt><trkpt lat="45.05351997729518" lon="9.650173343631165"><ele>59.333333333333336</ele><time>2026-04-09T10:01:23.838Z</time></trkpt><trkpt lat="45.05343715319695" lon="9.650158134632479"><ele>59.16666666666667</ele><time>2026-04-09T10:01:25.838Z</time></trkpt><trkpt lat="45.0533631630427" lon="9.650130822557848"><ele>59.0</ele><time>2026-04-09T10:01:27.838Z</time></trkpt><trkpt lat="45.053280253333725" lon="9.650109305773183"><ele>59.00000000000001</ele><time>2026-04-09T10:01:29.837Z</time></trkpt><trkpt lat="45.05319717704321" lon="9.650085645045738"><ele>59.0</ele><time>2026-04-09T10:01:31.837Z</time></trkpt><trkpt lat="45.053114936292495" lon="9.650056823268343"><ele>59.0</ele><time>2026-04-09T10:01:33.837Z</time></trkpt><trkpt lat="45.053042363798745" lon="9.650031756837478"><ele>59.0</ele><time>2026-04-09T10:01:35.837Z</time></trkpt><trkpt lat="45.052961841984946" lon="9.650011094689841"><ele>59.00000000000001</ele><time>2026-04-09T10:01:37.837Z</time></trkpt><trkpt lat="45.05289116064958" lon="9.649992477341602"><ele>59.0</ele><time>2026-04-09T10:01:39.837Z</time></trkpt><trkpt lat="45.05280225832944" lon="9.649927196443972"><ele>59.0</ele><time>2026-04-09T10:01:42.837Z</time></trkpt><trkpt lat="45.05281567485823" lon="9.649818033336691"><ele>59.0</ele><time>2026-04-09T10:01:44.837Z</time></trkpt><trkpt lat="45.05283113879188" lon="9.649719182124686"><ele>59.0</ele><time>2026-04-09T10:01:46.837Z</time></trkpt><trkpt lat="45.0528466774951" lon="9.6496059583159"><ele>59.0</ele><time>2026-04-09T10:01:48.837Z</time></trkpt><trkpt lat="45.052846299778324" lon="9.649503830728396"><ele>59.0</ele><time>2026-04-09T10:01:50.837Z</time></trkpt><trkpt lat="45.05285587187553" lon="9.649409761644279"><ele>59.0</ele><time>2026-04-09T10:01:52.837Z</time></trkpt><trkpt lat="45.05285569102908" lon="9.64931626529218"><ele>59.0</ele><time>2026-04-09T10:01:54.837Z</time></trkpt><trkpt lat="45.052879890246565" lon="9.649191174131412"><ele>59.16666666666667</ele><time>2026-04-09T10:01:57.837Z</time></trkpt><trkpt lat="45.0528826435543" lon="9.649100817297766"><ele>59.333333333333336</ele><time>2026-04-09T10:01:59.837Z</time></trkpt><trkpt lat="45.052885437882146" lon="9.649003417438648"><ele>59.5</ele><time>2026-04-09T10:02:01.837Z</time></trkpt><trkpt lat="45.05290484697318" lon="9.648882174880287"><ele>59.66666666666667</ele><time>2026-04-09T10:02:04.837Z</time></trkpt><trkpt lat="45.052912272914476" lon="9.648771960101858"><ele>59.833333333333336</ele><time>2026-04-09T10:02:07.837Z</time></trkpt><trkpt lat="45.0529162986174" lon="9.648638438057809"><ele>60.0</ele><time>2026-04-09T10:02:10.837Z</time></trkpt><trkpt lat="45.05292659731127" lon="9.648534287962296"><ele>60.0</ele><time>2026-04-09T10:02:12.837Z</time></trkpt><trkpt lat="45.05293494333943" lon="9.648418352537284"><ele>60.0</ele><time>2026-04-09T10:02:15.837Z</time></trkpt><trkpt lat="45.05294785712556" lon="9.648316632324056"><ele>60.0</ele><time>2026-04-09T10:02:18.837Z</time></trkpt><trkpt lat="45.052956551865" lon="9.648221510614697"><ele>60.0</ele><time>2026-04-09T10:02:21.836Z</time></trkpt><trkpt lat="45.052951694360615" lon="9.648119528308351"><ele>60.0</ele><time>2026-04-09T10:02:24.836Z</time></trkpt><trkpt lat="45.052947142071204" lon="9.648023179432792"><ele>60.0</ele><time>2026-04-09T10:02:27.836Z</time></trkpt><trkpt lat="45.052930884148886" lon="9.647926971370397"><ele>60.0</ele><time>2026-04-09T10:02:32.836Z</time></trkpt></trkseg></trk></gpx>